<?xml version="1.0" encoding="UTF-8" standalone="no" ?>
<gpx xmlns="http://www.topografix.com/GPX/1/1" xmlns:xsi="http://www.w3.org/2001/XMLSchema-instance" xsi:schemaLocation="http://www.topografix.com/GPX/1/1 http://www.topografix.com/GPX/1/1/gpx.xsd" version="1.1" creator="VisuGPX - https://www.visugpx.com">
  <metadata>
    <name>Balade hivernale</name>
    <desc><![CDATA[Balade effectuée du 9 décembre 2022 au 7 janvier 2023.]]></desc>
  </metadata>
  <trk>
    <name><![CDATA[Valence d'Agen - Fabas]]></name>
    <extensions>
      <line xmlns="http://www.topografix.com/GPX/gpx_style/0/2">
        <color>ff0000</color>
        <width>4</width>
      </line>
    </extensions>
    <trkseg>
      <trkpt lat="44.09838" lon="0.89072">
        <ele>104.783463</ele>
        <time>2022-12-30T11:19:18.010Z</time>
      </trkpt>
      <trkpt lat="44.09817" lon="0.89056">
        <ele>104.783463</ele>
        <time>2022-12-30T11:22:42.317Z</time>
      </trkpt>
      <trkpt lat="44.09808" lon="0.89059">
        <ele>104.783463</ele>
        <time>2022-12-30T11:22:47.325Z</time>
      </trkpt>
      <trkpt lat="44.09803" lon="0.89049">
        <ele>104.783463</ele>
        <time>2022-12-30T11:22:52.318Z</time>
      </trkpt>
      <trkpt lat="44.09803" lon="0.89035">
        <ele>104.783463</ele>
        <time>2022-12-30T11:22:56.336Z</time>
      </trkpt>
      <trkpt lat="44.09805" lon="0.89021">
        <ele>104.783463</ele>
        <time>2022-12-30T11:23:00.335Z</time>
      </trkpt>
      <trkpt lat="44.09806" lon="0.89007">
        <ele>104.783463</ele>
        <time>2022-12-30T11:23:04.334Z</time>
      </trkpt>
      <trkpt lat="44.09816" lon="0.89004">
        <ele>104.783463</ele>
        <time>2022-12-30T11:23:09.316Z</time>
      </trkpt>
      <trkpt lat="44.09827" lon="0.89007">
        <ele>104.789036</ele>
        <time>2022-12-30T11:23:13.322Z</time>
      </trkpt>
      <trkpt lat="44.09837" lon="0.8901">
        <ele>104.804518</ele>
        <time>2022-12-30T11:23:16.331Z</time>
      </trkpt>
      <trkpt lat="44.09848" lon="0.89013">
        <ele>104.821448</ele>
        <time>2022-12-30T11:23:19.333Z</time>
      </trkpt>
      <trkpt lat="44.0986" lon="0.89016">
        <ele>104.839664</ele>
        <time>2022-12-30T11:23:22.340Z</time>
      </trkpt>
      <trkpt lat="44.0987" lon="0.89019">
        <ele>104.855873</ele>
        <time>2022-12-30T11:23:25.331Z</time>
      </trkpt>
      <trkpt lat="44.09881" lon="0.89021">
        <ele>104.873118</ele>
        <time>2022-12-30T11:23:28.335Z</time>
      </trkpt>
      <trkpt lat="44.09893" lon="0.89024">
        <ele>104.89125</ele>
        <time>2022-12-30T11:23:31.332Z</time>
      </trkpt>
      <trkpt lat="44.09903" lon="0.89026">
        <ele>104.906641</ele>
        <time>2022-12-30T11:23:34.331Z</time>
      </trkpt>
      <trkpt lat="44.09914" lon="0.89029">
        <ele>104.923891</ele>
        <time>2022-12-30T11:23:37.336Z</time>
      </trkpt>
      <trkpt lat="44.09926" lon="0.89031">
        <ele>104.942297</ele>
        <time>2022-12-30T11:23:40.334Z</time>
      </trkpt>
      <trkpt lat="44.09938" lon="0.89033">
        <ele>104.960551</ele>
        <time>2022-12-30T11:23:43.314Z</time>
      </trkpt>
      <trkpt lat="44.09951" lon="0.89035">
        <ele>104.979323</ele>
        <time>2022-12-30T11:23:46.330Z</time>
      </trkpt>
      <trkpt lat="44.09962" lon="0.89036">
        <ele>104.996632</ele>
        <time>2022-12-30T11:23:49.327Z</time>
      </trkpt>
      <trkpt lat="44.09973" lon="0.89038">
        <ele>105.014118</ele>
        <time>2022-12-30T11:23:52.331Z</time>
      </trkpt>
      <trkpt lat="44.09984" lon="0.89041">
        <ele>105.031135</ele>
        <time>2022-12-30T11:23:55.315Z</time>
      </trkpt>
      <trkpt lat="44.09995" lon="0.89044">
        <ele>105.047746</ele>
        <time>2022-12-30T11:23:58.333Z</time>
      </trkpt>
      <trkpt lat="44.10006" lon="0.89047">
        <ele>105.176361</ele>
        <time>2022-12-30T11:24:01.334Z</time>
      </trkpt>
      <trkpt lat="44.10016" lon="0.8905">
        <ele>105.420349</ele>
        <time>2022-12-30T11:24:04.335Z</time>
      </trkpt>
      <trkpt lat="44.10025" lon="0.89053">
        <ele>105.640439</ele>
        <time>2022-12-30T11:24:07.331Z</time>
      </trkpt>
      <trkpt lat="44.10034" lon="0.89055">
        <ele>105.862913</ele>
        <time>2022-12-30T11:24:10.331Z</time>
      </trkpt>
      <trkpt lat="44.10043" lon="0.89057">
        <ele>106.1029</ele>
        <time>2022-12-30T11:24:14.330Z</time>
      </trkpt>
      <trkpt lat="44.10054" lon="0.89061">
        <ele>106.377016</ele>
        <time>2022-12-30T11:24:19.333Z</time>
      </trkpt>
      <trkpt lat="44.10064" lon="0.89063">
        <ele>106.62368</ele>
        <time>2022-12-30T11:24:23.334Z</time>
      </trkpt>
      <trkpt lat="44.10074" lon="0.89066">
        <ele>106.867954</ele>
        <time>2022-12-30T11:24:28.330Z</time>
      </trkpt>
      <trkpt lat="44.10083" lon="0.89071">
        <ele>107.10587</ele>
        <time>2022-12-30T11:24:33.324Z</time>
      </trkpt>
      <trkpt lat="44.10092" lon="0.89079">
        <ele>107.365883</ele>
        <time>2022-12-30T11:24:38.330Z</time>
      </trkpt>
      <trkpt lat="44.10096" lon="0.89091">
        <ele>107.600723</ele>
        <time>2022-12-30T11:24:42.323Z</time>
      </trkpt>
      <trkpt lat="44.101" lon="0.89104">
        <ele>107.84133</ele>
        <time>2022-12-30T11:24:46.330Z</time>
      </trkpt>
      <trkpt lat="44.10106" lon="0.89116">
        <ele>108.085463</ele>
        <time>2022-12-30T11:24:50.321Z</time>
      </trkpt>
      <trkpt lat="44.10109" lon="0.89129">
        <ele>108.326676</ele>
        <time>2022-12-30T11:24:54.331Z</time>
      </trkpt>
      <trkpt lat="44.10113" lon="0.89141">
        <ele>108.558963</ele>
        <time>2022-12-30T11:24:58.316Z</time>
      </trkpt>
      <trkpt lat="44.10117" lon="0.89154">
        <ele>108.801188</ele>
        <time>2022-12-30T11:25:02.331Z</time>
      </trkpt>
      <trkpt lat="44.10121" lon="0.89167">
        <ele>109.061368</ele>
        <time>2022-12-30T11:25:07.333Z</time>
      </trkpt>
      <trkpt lat="44.10124" lon="0.89182">
        <ele>109.327302</ele>
        <time>2022-12-30T11:25:12.330Z</time>
      </trkpt>
      <trkpt lat="44.1013" lon="0.89196">
        <ele>109.575345</ele>
        <time>2022-12-30T11:25:17.330Z</time>
      </trkpt>
      <trkpt lat="44.10135" lon="0.89207">
        <ele>109.771385</ele>
        <time>2022-12-30T11:25:21.315Z</time>
      </trkpt>
      <trkpt lat="44.10139" lon="0.89218">
        <ele>109.960723</ele>
        <time>2022-12-30T11:25:25.331Z</time>
      </trkpt>
      <trkpt lat="44.10143" lon="0.8923">
        <ele>110.163955</ele>
        <time>2022-12-30T11:25:29.312Z</time>
      </trkpt>
      <trkpt lat="44.10148" lon="0.89242">
        <ele>110.367187</ele>
        <time>2022-12-30T11:25:33.312Z</time>
      </trkpt>
      <trkpt lat="44.10149" lon="0.89257">
        <ele>110.592273</ele>
        <time>2022-12-30T11:25:38.333Z</time>
      </trkpt>
      <trkpt lat="44.10152" lon="0.89269">
        <ele>110.781056</ele>
        <time>2022-12-30T11:25:42.332Z</time>
      </trkpt>
      <trkpt lat="44.10157" lon="0.8928">
        <ele>110.988482</ele>
        <time>2022-12-30T11:25:46.331Z</time>
      </trkpt>
      <trkpt lat="44.10166" lon="0.89285">
        <ele>111.190867</ele>
        <time>2022-12-30T11:25:50.331Z</time>
      </trkpt>
      <trkpt lat="44.10176" lon="0.89279">
        <ele>111.422843</ele>
        <time>2022-12-30T11:25:55.319Z</time>
      </trkpt>
      <trkpt lat="44.10184" lon="0.89272">
        <ele>111.615719</ele>
        <time>2022-12-30T11:25:59.313Z</time>
      </trkpt>
      <trkpt lat="44.10195" lon="0.89269">
        <ele>111.843604</ele>
        <time>2022-12-30T11:26:03.325Z</time>
      </trkpt>
      <trkpt lat="44.10205" lon="0.89268">
        <ele>112.055515</ele>
        <time>2022-12-30T11:26:07.330Z</time>
      </trkpt>
      <trkpt lat="44.10216" lon="0.89268">
        <ele>112.272952</ele>
        <time>2022-12-30T11:26:11.329Z</time>
      </trkpt>
      <trkpt lat="44.10226" lon="0.89269">
        <ele>112.484528</ele>
        <time>2022-12-30T11:26:15.334Z</time>
      </trkpt>
      <trkpt lat="44.10237" lon="0.89269">
        <ele>112.712397</ele>
        <time>2022-12-30T11:26:19.338Z</time>
      </trkpt>
      <trkpt lat="44.10249" lon="0.89269">
        <ele>112.969572</ele>
        <time>2022-12-30T11:26:23.333Z</time>
      </trkpt>
      <trkpt lat="44.10258" lon="0.89269">
        <ele>113.157744</ele>
        <time>2022-12-30T11:26:26.323Z</time>
      </trkpt>
      <trkpt lat="44.1027" lon="0.89269">
        <ele>112.811898</ele>
        <time>2022-12-30T11:26:30.335Z</time>
      </trkpt>
      <trkpt lat="44.10279" lon="0.89269">
        <ele>112.490548</ele>
        <time>2022-12-30T11:26:33.333Z</time>
      </trkpt>
      <trkpt lat="44.10289" lon="0.89268">
        <ele>112.129917</ele>
        <time>2022-12-30T11:26:37.334Z</time>
      </trkpt>
      <trkpt lat="44.103" lon="0.89268">
        <ele>111.730805</ele>
        <time>2022-12-30T11:26:41.332Z</time>
      </trkpt>
      <trkpt lat="44.1031" lon="0.89267">
        <ele>111.405676</ele>
        <time>2022-12-30T11:26:44.335Z</time>
      </trkpt>
      <trkpt lat="44.1032" lon="0.89267">
        <ele>111.034888</ele>
        <time>2022-12-30T11:26:48.333Z</time>
      </trkpt>
      <trkpt lat="44.10331" lon="0.89268">
        <ele>110.63925</ele>
        <time>2022-12-30T11:26:52.329Z</time>
      </trkpt>
      <trkpt lat="44.1034" lon="0.89268">
        <ele>110.31789</ele>
        <time>2022-12-30T11:26:55.331Z</time>
      </trkpt>
      <trkpt lat="44.10351" lon="0.89268">
        <ele>109.957695</ele>
        <time>2022-12-30T11:26:59.332Z</time>
      </trkpt>
      <trkpt lat="44.1036" lon="0.89267">
        <ele>109.629243</ele>
        <time>2022-12-30T11:27:03.335Z</time>
      </trkpt>
      <trkpt lat="44.10369" lon="0.89267">
        <ele>109.293681</ele>
        <time>2022-12-30T11:27:07.329Z</time>
      </trkpt>
      <trkpt lat="44.1038" lon="0.89267">
        <ele>108.915822</ele>
        <time>2022-12-30T11:27:12.331Z</time>
      </trkpt>
      <trkpt lat="44.10389" lon="0.89268">
        <ele>108.59014</ele>
        <time>2022-12-30T11:27:15.329Z</time>
      </trkpt>
      <trkpt lat="44.10398" lon="0.89268">
        <ele>108.265219</ele>
        <time>2022-12-30T11:27:18.334Z</time>
      </trkpt>
      <trkpt lat="44.10409" lon="0.89268">
        <ele>107.901484</ele>
        <time>2022-12-30T11:27:22.340Z</time>
      </trkpt>
      <trkpt lat="44.10419" lon="0.89268">
        <ele>107.534227</ele>
        <time>2022-12-30T11:27:26.333Z</time>
      </trkpt>
      <trkpt lat="44.10429" lon="0.89269">
        <ele>107.181013</ele>
        <time>2022-12-30T11:27:29.335Z</time>
      </trkpt>
      <trkpt lat="44.1044" lon="0.89269">
        <ele>106.819809</ele>
        <time>2022-12-30T11:27:32.331Z</time>
      </trkpt>
      <trkpt lat="44.10452" lon="0.89268">
        <ele>106.650607</ele>
        <time>2022-12-30T11:27:36.313Z</time>
      </trkpt>
      <trkpt lat="44.10464" lon="0.89268">
        <ele>106.496505</ele>
        <time>2022-12-30T11:27:39.333Z</time>
      </trkpt>
      <trkpt lat="44.10475" lon="0.89269">
        <ele>106.338288</ele>
        <time>2022-12-30T11:27:42.339Z</time>
      </trkpt>
      <trkpt lat="44.10486" lon="0.89269">
        <ele>106.191007</ele>
        <time>2022-12-30T11:27:45.331Z</time>
      </trkpt>
      <trkpt lat="44.10495" lon="0.89269">
        <ele>106.062725</ele>
        <time>2022-12-30T11:27:48.333Z</time>
      </trkpt>
      <trkpt lat="44.10495" lon="0.89282">
        <ele>105.938176</ele>
        <time>2022-12-30T11:27:54.326Z</time>
      </trkpt>
      <trkpt lat="44.10485" lon="0.89288">
        <ele>105.788901</ele>
        <time>2022-12-30T11:27:57.316Z</time>
      </trkpt>
      <trkpt lat="44.10472" lon="0.89291">
        <ele>105.612899</ele>
        <time>2022-12-30T11:28:00.330Z</time>
      </trkpt>
      <trkpt lat="44.10462" lon="0.8929">
        <ele>105.474816</ele>
        <time>2022-12-30T11:28:03.320Z</time>
      </trkpt>
      <trkpt lat="44.10453" lon="0.89292">
        <ele>105.347253</ele>
        <time>2022-12-30T11:28:08.314Z</time>
      </trkpt>
      <trkpt lat="44.10442" lon="0.89291">
        <ele>105.196986</ele>
        <time>2022-12-30T11:28:13.315Z</time>
      </trkpt>
      <trkpt lat="44.10432" lon="0.8929">
        <ele>105.067065</ele>
        <time>2022-12-30T11:28:17.333Z</time>
      </trkpt>
      <trkpt lat="44.10423" lon="0.89288">
        <ele>104.944125</ele>
        <time>2022-12-30T11:28:21.332Z</time>
      </trkpt>
      <trkpt lat="44.10413" lon="0.89293">
        <ele>104.79566</ele>
        <time>2022-12-30T11:28:25.309Z</time>
      </trkpt>
      <trkpt lat="44.10408" lon="0.89305">
        <ele>104.65313</ele>
        <time>2022-12-30T11:28:29.318Z</time>
      </trkpt>
      <trkpt lat="44.10408" lon="0.8932">
        <ele>104.505163</ele>
        <time>2022-12-30T11:28:32.317Z</time>
      </trkpt>
      <trkpt lat="44.1041" lon="0.89338">
        <ele>104.376355</ele>
        <time>2022-12-30T11:28:35.318Z</time>
      </trkpt>
      <trkpt lat="44.10412" lon="0.89351">
        <ele>104.368199</ele>
        <time>2022-12-30T11:28:37.329Z</time>
      </trkpt>
      <trkpt lat="44.10414" lon="0.89369">
        <ele>104.356986</ele>
        <time>2022-12-30T11:28:40.330Z</time>
      </trkpt>
      <trkpt lat="44.10417" lon="0.89385">
        <ele>104.34673</ele>
        <time>2022-12-30T11:28:43.332Z</time>
      </trkpt>
      <trkpt lat="44.10417" lon="0.89399">
        <ele>104.337918</ele>
        <time>2022-12-30T11:28:46.333Z</time>
      </trkpt>
      <trkpt lat="44.10418" lon="0.89415">
        <ele>104.328009</ele>
        <time>2022-12-30T11:28:50.314Z</time>
      </trkpt>
      <trkpt lat="44.10417" lon="0.89428">
        <ele>104.320092</ele>
        <time>2022-12-30T11:28:53.339Z</time>
      </trkpt>
      <trkpt lat="44.10417" lon="0.89441">
        <ele>104.311545</ele>
        <time>2022-12-30T11:28:56.332Z</time>
      </trkpt>
      <trkpt lat="44.10416" lon="0.89455">
        <ele>104.302999</ele>
        <time>2022-12-30T11:28:59.313Z</time>
      </trkpt>
      <trkpt lat="44.10417" lon="0.89468">
        <ele>104.294628</ele>
        <time>2022-12-30T11:29:02.333Z</time>
      </trkpt>
      <trkpt lat="44.10417" lon="0.89482">
        <ele>104.286148</ele>
        <time>2022-12-30T11:29:05.336Z</time>
      </trkpt>
      <trkpt lat="44.10418" lon="0.89496">
        <ele>104.277484</ele>
        <time>2022-12-30T11:29:08.333Z</time>
      </trkpt>
      <trkpt lat="44.10417" lon="0.8951">
        <ele>104.268879</ele>
        <time>2022-12-30T11:29:11.332Z</time>
      </trkpt>
      <trkpt lat="44.10417" lon="0.89523">
        <ele>104.260527</ele>
        <time>2022-12-30T11:29:14.330Z</time>
      </trkpt>
      <trkpt lat="44.10417" lon="0.89537">
        <ele>104.251616</ele>
        <time>2022-12-30T11:29:17.314Z</time>
      </trkpt>
      <trkpt lat="44.10418" lon="0.89551">
        <ele>104.24299</ele>
        <time>2022-12-30T11:29:20.330Z</time>
      </trkpt>
      <trkpt lat="44.10418" lon="0.89565">
        <ele>104.234143</ele>
        <time>2022-12-30T11:29:23.339Z</time>
      </trkpt>
      <trkpt lat="44.10418" lon="0.89581">
        <ele>104.22461</ele>
        <time>2022-12-30T11:29:26.317Z</time>
      </trkpt>
      <trkpt lat="44.10418" lon="0.89596">
        <ele>104.153408</ele>
        <time>2022-12-30T11:29:29.330Z</time>
      </trkpt>
      <trkpt lat="44.10417" lon="0.89612">
        <ele>104.074174</ele>
        <time>2022-12-30T11:29:32.329Z</time>
      </trkpt>
      <trkpt lat="44.10417" lon="0.89628">
        <ele>103.994542</ele>
        <time>2022-12-30T11:29:35.336Z</time>
      </trkpt>
      <trkpt lat="44.10416" lon="0.89645">
        <ele>103.910381</ele>
        <time>2022-12-30T11:29:38.333Z</time>
      </trkpt>
      <trkpt lat="44.10416" lon="0.89662">
        <ele>103.825246</ele>
        <time>2022-12-30T11:29:41.343Z</time>
      </trkpt>
      <trkpt lat="44.10415" lon="0.89679">
        <ele>103.741111</ele>
        <time>2022-12-30T11:29:44.314Z</time>
      </trkpt>
      <trkpt lat="44.10415" lon="0.89695">
        <ele>103.658998</ele>
        <time>2022-12-30T11:29:47.335Z</time>
      </trkpt>
      <trkpt lat="44.10416" lon="0.89711">
        <ele>103.579365</ele>
        <time>2022-12-30T11:29:50.335Z</time>
      </trkpt>
      <trkpt lat="44.10415" lon="0.89728">
        <ele>103.493772</ele>
        <time>2022-12-30T11:29:53.332Z</time>
      </trkpt>
      <trkpt lat="44.10416" lon="0.89744">
        <ele>103.413579</ele>
        <time>2022-12-30T11:29:56.330Z</time>
      </trkpt>
      <trkpt lat="44.10416" lon="0.89758">
        <ele>103.343505</ele>
        <time>2022-12-30T11:29:59.333Z</time>
      </trkpt>
      <trkpt lat="44.10416" lon="0.89772">
        <ele>103.273345</ele>
        <time>2022-12-30T11:30:02.317Z</time>
      </trkpt>
      <trkpt lat="44.10416" lon="0.89788">
        <ele>103.195262</ele>
        <time>2022-12-30T11:30:05.334Z</time>
      </trkpt>
      <trkpt lat="44.10415" lon="0.89801">
        <ele>103.128159</ele>
        <time>2022-12-30T11:30:08.333Z</time>
      </trkpt>
      <trkpt lat="44.10415" lon="0.89817">
        <ele>103.048965</ele>
        <time>2022-12-30T11:30:11.330Z</time>
      </trkpt>
      <trkpt lat="44.10413" lon="0.89834">
        <ele>102.965708</ele>
        <time>2022-12-30T11:30:14.312Z</time>
      </trkpt>
      <trkpt lat="44.10412" lon="0.8985">
        <ele>102.912749</ele>
        <time>2022-12-30T11:30:17.333Z</time>
      </trkpt>
      <trkpt lat="44.1041" lon="0.89866">
        <ele>102.857642</ele>
        <time>2022-12-30T11:30:20.331Z</time>
      </trkpt>
      <trkpt lat="44.10409" lon="0.89883">
        <ele>102.80231</ele>
        <time>2022-12-30T11:30:23.333Z</time>
      </trkpt>
      <trkpt lat="44.10407" lon="0.89898">
        <ele>102.750114</ele>
        <time>2022-12-30T11:30:26.333Z</time>
      </trkpt>
      <trkpt lat="44.10404" lon="0.89914">
        <ele>102.696525</ele>
        <time>2022-12-30T11:30:29.331Z</time>
      </trkpt>
      <trkpt lat="44.10402" lon="0.89931">
        <ele>102.640953</ele>
        <time>2022-12-30T11:30:32.332Z</time>
      </trkpt>
      <trkpt lat="44.10398" lon="0.89948">
        <ele>102.581911</ele>
        <time>2022-12-30T11:30:35.333Z</time>
      </trkpt>
      <trkpt lat="44.10394" lon="0.89964">
        <ele>102.525738</ele>
        <time>2022-12-30T11:30:38.312Z</time>
      </trkpt>
      <trkpt lat="44.10391" lon="0.89979">
        <ele>102.47144</ele>
        <time>2022-12-30T11:30:41.316Z</time>
      </trkpt>
      <trkpt lat="44.10385" lon="0.89994">
        <ele>102.416765</ele>
        <time>2022-12-30T11:30:44.328Z</time>
      </trkpt>
      <trkpt lat="44.10381" lon="0.9001">
        <ele>102.35948</ele>
        <time>2022-12-30T11:30:47.314Z</time>
      </trkpt>
      <trkpt lat="44.10377" lon="0.90027">
        <ele>102.301907</ele>
        <time>2022-12-30T11:30:50.331Z</time>
      </trkpt>
      <trkpt lat="44.10373" lon="0.90041">
        <ele>102.251479</ele>
        <time>2022-12-30T11:30:53.314Z</time>
      </trkpt>
      <trkpt lat="44.10371" lon="0.90056">
        <ele>102.201963</ele>
        <time>2022-12-30T11:30:56.334Z</time>
      </trkpt>
      <trkpt lat="44.10369" lon="0.9007">
        <ele>102.152871</ele>
        <time>2022-12-30T11:30:59.314Z</time>
      </trkpt>
      <trkpt lat="44.10367" lon="0.90083">
        <ele>102.126324</ele>
        <time>2022-12-30T11:31:02.332Z</time>
      </trkpt>
      <trkpt lat="44.10367" lon="0.90098">
        <ele>102.102582</ele>
        <time>2022-12-30T11:31:05.332Z</time>
      </trkpt>
      <trkpt lat="44.10364" lon="0.90112">
        <ele>102.080721</ele>
        <time>2022-12-30T11:31:08.326Z</time>
      </trkpt>
      <trkpt lat="44.1036" lon="0.90127">
        <ele>102.054003</ele>
        <time>2022-12-30T11:31:12.315Z</time>
      </trkpt>
      <trkpt lat="44.10357" lon="0.90141">
        <ele>102.031478</ele>
        <time>2022-12-30T11:31:15.334Z</time>
      </trkpt>
      <trkpt lat="44.10353" lon="0.90154">
        <ele>102.008652</ele>
        <time>2022-12-30T11:31:18.318Z</time>
      </trkpt>
      <trkpt lat="44.1035" lon="0.90169">
        <ele>101.9847</ele>
        <time>2022-12-30T11:31:21.331Z</time>
      </trkpt>
      <trkpt lat="44.10347" lon="0.90183">
        <ele>101.960732</ele>
        <time>2022-12-30T11:31:24.330Z</time>
      </trkpt>
      <trkpt lat="44.10343" lon="0.90198">
        <ele>101.935805</ele>
        <time>2022-12-30T11:31:27.338Z</time>
      </trkpt>
      <trkpt lat="44.10339" lon="0.90212">
        <ele>101.910958</ele>
        <time>2022-12-30T11:31:30.330Z</time>
      </trkpt>
      <trkpt lat="44.10335" lon="0.90229">
        <ele>101.883143</ele>
        <time>2022-12-30T11:31:33.336Z</time>
      </trkpt>
      <trkpt lat="44.10331" lon="0.90244">
        <ele>101.858151</ele>
        <time>2022-12-30T11:31:36.337Z</time>
      </trkpt>
      <trkpt lat="44.10329" lon="0.90257">
        <ele>101.835983</ele>
        <time>2022-12-30T11:31:39.339Z</time>
      </trkpt>
      <trkpt lat="44.10324" lon="0.90273">
        <ele>101.809185</ele>
        <time>2022-12-30T11:31:42.332Z</time>
      </trkpt>
      <trkpt lat="44.10321" lon="0.90288">
        <ele>101.783519</ele>
        <time>2022-12-30T11:31:45.335Z</time>
      </trkpt>
      <trkpt lat="44.10317" lon="0.90302">
        <ele>101.759567</ele>
        <time>2022-12-30T11:31:48.332Z</time>
      </trkpt>
      <trkpt lat="44.10313" lon="0.90317">
        <ele>101.747143</ele>
        <time>2022-12-30T11:31:51.335Z</time>
      </trkpt>
      <trkpt lat="44.10309" lon="0.90333">
        <ele>101.757842</ele>
        <time>2022-12-30T11:31:54.336Z</time>
      </trkpt>
      <trkpt lat="44.10305" lon="0.90349">
        <ele>101.768839</ele>
        <time>2022-12-30T11:31:57.336Z</time>
      </trkpt>
      <trkpt lat="44.10301" lon="0.90366">
        <ele>101.780296</ele>
        <time>2022-12-30T11:32:00.333Z</time>
      </trkpt>
      <trkpt lat="44.10296" lon="0.90383">
        <ele>101.79199</ele>
        <time>2022-12-30T11:32:03.338Z</time>
      </trkpt>
      <trkpt lat="44.10292" lon="0.90399">
        <ele>101.802897</ele>
        <time>2022-12-30T11:32:06.346Z</time>
      </trkpt>
      <trkpt lat="44.10288" lon="0.90414">
        <ele>101.813168</ele>
        <time>2022-12-30T11:32:09.331Z</time>
      </trkpt>
      <trkpt lat="44.10285" lon="0.90428">
        <ele>101.822627</ele>
        <time>2022-12-30T11:32:12.321Z</time>
      </trkpt>
      <trkpt lat="44.10282" lon="0.90442">
        <ele>101.832166</ele>
        <time>2022-12-30T11:32:15.329Z</time>
      </trkpt>
      <trkpt lat="44.10279" lon="0.90459">
        <ele>101.843124</ele>
        <time>2022-12-30T11:32:18.334Z</time>
      </trkpt>
      <trkpt lat="44.10275" lon="0.90476">
        <ele>101.85444</ele>
        <time>2022-12-30T11:32:21.333Z</time>
      </trkpt>
      <trkpt lat="44.10271" lon="0.90493">
        <ele>101.866135</ele>
        <time>2022-12-30T11:32:24.332Z</time>
      </trkpt>
      <trkpt lat="44.10268" lon="0.90508">
        <ele>101.87626</ele>
        <time>2022-12-30T11:32:27.335Z</time>
      </trkpt>
      <trkpt lat="44.10264" lon="0.90524">
        <ele>101.887322</ele>
        <time>2022-12-30T11:32:30.332Z</time>
      </trkpt>
      <trkpt lat="44.1026" lon="0.90541">
        <ele>101.898409</ele>
        <time>2022-12-30T11:32:33.334Z</time>
      </trkpt>
      <trkpt lat="44.10255" lon="0.90556">
        <ele>101.929831</ele>
        <time>2022-12-30T11:32:36.331Z</time>
      </trkpt>
      <trkpt lat="44.10251" lon="0.90571">
        <ele>101.984312</ele>
        <time>2022-12-30T11:32:39.333Z</time>
      </trkpt>
      <trkpt lat="44.10247" lon="0.90586">
        <ele>102.041396</ele>
        <time>2022-12-30T11:32:42.334Z</time>
      </trkpt>
      <trkpt lat="44.10244" lon="0.90603">
        <ele>102.100191</ele>
        <time>2022-12-30T11:32:45.334Z</time>
      </trkpt>
      <trkpt lat="44.1024" lon="0.9062">
        <ele>102.16172</ele>
        <time>2022-12-30T11:32:48.334Z</time>
      </trkpt>
      <trkpt lat="44.10236" lon="0.90637">
        <ele>102.225471</ele>
        <time>2022-12-30T11:32:51.334Z</time>
      </trkpt>
      <trkpt lat="44.10231" lon="0.90654">
        <ele>102.288571</ele>
        <time>2022-12-30T11:32:54.333Z</time>
      </trkpt>
      <trkpt lat="44.10227" lon="0.90672">
        <ele>102.352159</ele>
        <time>2022-12-30T11:32:57.333Z</time>
      </trkpt>
      <trkpt lat="44.10223" lon="0.90689">
        <ele>102.415773</ele>
        <time>2022-12-30T11:33:00.334Z</time>
      </trkpt>
      <trkpt lat="44.10218" lon="0.90706">
        <ele>102.478082</ele>
        <time>2022-12-30T11:33:03.333Z</time>
      </trkpt>
      <trkpt lat="44.10214" lon="0.90721">
        <ele>102.534366</ele>
        <time>2022-12-30T11:33:06.333Z</time>
      </trkpt>
      <trkpt lat="44.1021" lon="0.90737">
        <ele>102.590705</ele>
        <time>2022-12-30T11:33:09.333Z</time>
      </trkpt>
      <trkpt lat="44.10207" lon="0.90754">
        <ele>102.652288</ele>
        <time>2022-12-30T11:33:12.334Z</time>
      </trkpt>
      <trkpt lat="44.10203" lon="0.90771">
        <ele>102.715755</ele>
        <time>2022-12-30T11:33:15.333Z</time>
      </trkpt>
      <trkpt lat="44.10199" lon="0.90789">
        <ele>102.752407</ele>
        <time>2022-12-30T11:33:18.333Z</time>
      </trkpt>
      <trkpt lat="44.10196" lon="0.90801">
        <ele>102.666132</ele>
        <time>2022-12-30T11:33:20.318Z</time>
      </trkpt>
      <trkpt lat="44.10191" lon="0.90816">
        <ele>102.552099</ele>
        <time>2022-12-30T11:33:23.315Z</time>
      </trkpt>
      <trkpt lat="44.10187" lon="0.90831">
        <ele>102.444645</ele>
        <time>2022-12-30T11:33:26.332Z</time>
      </trkpt>
      <trkpt lat="44.10181" lon="0.90863">
        <ele>102.218645</ele>
        <time>2022-12-30T11:36:31.317Z</time>
      </trkpt>
      <trkpt lat="44.10178" lon="0.90875">
        <ele>102.133662</ele>
        <time>2022-12-30T11:36:34.330Z</time>
      </trkpt>
      <trkpt lat="44.10174" lon="0.9089">
        <ele>102.02795</ele>
        <time>2022-12-30T11:36:37.326Z</time>
      </trkpt>
      <trkpt lat="44.10171" lon="0.90905">
        <ele>101.92156</ele>
        <time>2022-12-30T11:36:40.330Z</time>
      </trkpt>
      <trkpt lat="44.10168" lon="0.90917">
        <ele>101.831812</ele>
        <time>2022-12-30T11:36:43.335Z</time>
      </trkpt>
      <trkpt lat="44.10165" lon="0.90931">
        <ele>101.73358</ele>
        <time>2022-12-30T11:36:46.330Z</time>
      </trkpt>
      <trkpt lat="44.10162" lon="0.90946">
        <ele>101.630352</ele>
        <time>2022-12-30T11:36:49.335Z</time>
      </trkpt>
      <trkpt lat="44.10158" lon="0.90962">
        <ele>101.517636</ele>
        <time>2022-12-30T11:36:52.340Z</time>
      </trkpt>
      <trkpt lat="44.10155" lon="0.90976">
        <ele>101.413662</ele>
        <time>2022-12-30T11:36:55.334Z</time>
      </trkpt>
      <trkpt lat="44.10151" lon="0.90993">
        <ele>101.295814</ele>
        <time>2022-12-30T11:36:58.334Z</time>
      </trkpt>
      <trkpt lat="44.10147" lon="0.91009">
        <ele>101.177935</ele>
        <time>2022-12-30T11:37:01.313Z</time>
      </trkpt>
      <trkpt lat="44.10143" lon="0.91024">
        <ele>101.071467</ele>
        <time>2022-12-30T11:37:04.331Z</time>
      </trkpt>
      <trkpt lat="44.10138" lon="0.91039">
        <ele>101.088504</ele>
        <time>2022-12-30T11:37:07.333Z</time>
      </trkpt>
      <trkpt lat="44.10134" lon="0.91055">
        <ele>101.106424</ele>
        <time>2022-12-30T11:37:10.334Z</time>
      </trkpt>
      <trkpt lat="44.10131" lon="0.91071">
        <ele>101.123863</ele>
        <time>2022-12-30T11:37:13.338Z</time>
      </trkpt>
      <trkpt lat="44.10127" lon="0.91086">
        <ele>101.141331</ele>
        <time>2022-12-30T11:37:16.331Z</time>
      </trkpt>
      <trkpt lat="44.10122" lon="0.91102">
        <ele>101.159962</ele>
        <time>2022-12-30T11:37:19.316Z</time>
      </trkpt>
      <trkpt lat="44.10118" lon="0.91118">
        <ele>101.178795</ele>
        <time>2022-12-30T11:37:22.324Z</time>
      </trkpt>
      <trkpt lat="44.10114" lon="0.91133">
        <ele>101.196258</ele>
        <time>2022-12-30T11:37:25.327Z</time>
      </trkpt>
      <trkpt lat="44.10111" lon="0.91148">
        <ele>101.212519</ele>
        <time>2022-12-30T11:37:28.332Z</time>
      </trkpt>
      <trkpt lat="44.10108" lon="0.91163">
        <ele>101.229088</ele>
        <time>2022-12-30T11:37:31.334Z</time>
      </trkpt>
      <trkpt lat="44.10104" lon="0.91177">
        <ele>101.24579</ele>
        <time>2022-12-30T11:37:34.323Z</time>
      </trkpt>
      <trkpt lat="44.101" lon="0.91193">
        <ele>101.263523</ele>
        <time>2022-12-30T11:37:37.329Z</time>
      </trkpt>
      <trkpt lat="44.10096" lon="0.9121">
        <ele>101.282775</ele>
        <time>2022-12-30T11:37:40.335Z</time>
      </trkpt>
      <trkpt lat="44.10093" lon="0.91227">
        <ele>101.301718</ele>
        <time>2022-12-30T11:37:43.335Z</time>
      </trkpt>
      <trkpt lat="44.1009" lon="0.91239">
        <ele>101.315425</ele>
        <time>2022-12-30T11:37:45.334Z</time>
      </trkpt>
      <trkpt lat="44.10085" lon="0.91255">
        <ele>101.334461</ele>
        <time>2022-12-30T11:37:48.332Z</time>
      </trkpt>
      <trkpt lat="44.1008" lon="0.91273">
        <ele>101.438259</ele>
        <time>2022-12-30T11:37:51.332Z</time>
      </trkpt>
      <trkpt lat="44.10077" lon="0.91285">
        <ele>101.533528</ele>
        <time>2022-12-30T11:37:53.328Z</time>
      </trkpt>
      <trkpt lat="44.10073" lon="0.91301">
        <ele>101.653488</ele>
        <time>2022-12-30T11:37:56.333Z</time>
      </trkpt>
      <trkpt lat="44.1007" lon="0.91313">
        <ele>101.745001</ele>
        <time>2022-12-30T11:37:58.337Z</time>
      </trkpt>
      <trkpt lat="44.10065" lon="0.9133">
        <ele>101.879454</ele>
        <time>2022-12-30T11:38:01.333Z</time>
      </trkpt>
      <trkpt lat="44.10061" lon="0.91345">
        <ele>102.000426</ele>
        <time>2022-12-30T11:38:04.333Z</time>
      </trkpt>
      <trkpt lat="44.10058" lon="0.91362">
        <ele>102.124033</ele>
        <time>2022-12-30T11:38:07.332Z</time>
      </trkpt>
      <trkpt lat="44.10054" lon="0.91378">
        <ele>102.253301</ele>
        <time>2022-12-30T11:38:10.333Z</time>
      </trkpt>
      <trkpt lat="44.1005" lon="0.91395">
        <ele>102.381568</ele>
        <time>2022-12-30T11:38:13.340Z</time>
      </trkpt>
      <trkpt lat="44.10047" lon="0.91411">
        <ele>102.498211</ele>
        <time>2022-12-30T11:38:16.336Z</time>
      </trkpt>
      <trkpt lat="44.10044" lon="0.91428">
        <ele>102.628965</ele>
        <time>2022-12-30T11:38:19.331Z</time>
      </trkpt>
      <trkpt lat="44.1004" lon="0.91443">
        <ele>102.745901</ele>
        <time>2022-12-30T11:38:22.331Z</time>
      </trkpt>
      <trkpt lat="44.10036" lon="0.91459">
        <ele>102.865504</ele>
        <time>2022-12-30T11:38:25.310Z</time>
      </trkpt>
      <trkpt lat="44.10033" lon="0.91475">
        <ele>102.989706</ele>
        <time>2022-12-30T11:38:28.332Z</time>
      </trkpt>
      <trkpt lat="44.10031" lon="0.91491">
        <ele>103.108024</ele>
        <time>2022-12-30T11:38:31.333Z</time>
      </trkpt>
      <trkpt lat="44.10028" lon="0.91505">
        <ele>103.198163</ele>
        <time>2022-12-30T11:38:34.335Z</time>
      </trkpt>
      <trkpt lat="44.10026" lon="0.91518">
        <ele>103.263763</ele>
        <time>2022-12-30T11:38:37.341Z</time>
      </trkpt>
      <trkpt lat="44.10024" lon="0.91532">
        <ele>103.337803</ele>
        <time>2022-12-30T11:38:40.331Z</time>
      </trkpt>
      <trkpt lat="44.10019" lon="0.91546">
        <ele>103.414803</ele>
        <time>2022-12-30T11:38:43.334Z</time>
      </trkpt>
      <trkpt lat="44.10015" lon="0.9156">
        <ele>103.490013</ele>
        <time>2022-12-30T11:38:46.331Z</time>
      </trkpt>
      <trkpt lat="44.10012" lon="0.91575">
        <ele>103.565459</ele>
        <time>2022-12-30T11:38:49.332Z</time>
      </trkpt>
      <trkpt lat="44.10009" lon="0.91588">
        <ele>103.636035</ele>
        <time>2022-12-30T11:38:52.330Z</time>
      </trkpt>
      <trkpt lat="44.10007" lon="0.91602">
        <ele>103.703822</ele>
        <time>2022-12-30T11:38:56.319Z</time>
      </trkpt>
      <trkpt lat="44.10006" lon="0.91615">
        <ele>103.771667</ele>
        <time>2022-12-30T11:38:59.318Z</time>
      </trkpt>
      <trkpt lat="44.10007" lon="0.91634">
        <ele>103.867895</ele>
        <time>2022-12-30T11:39:02.333Z</time>
      </trkpt>
      <trkpt lat="44.10007" lon="0.91649">
        <ele>103.940522</ele>
        <time>2022-12-30T11:39:04.312Z</time>
      </trkpt>
      <trkpt lat="44.10007" lon="0.91663">
        <ele>104.011157</ele>
        <time>2022-12-30T11:39:06.329Z</time>
      </trkpt>
      <trkpt lat="44.10005" lon="0.91676">
        <ele>104.078205</ele>
        <time>2022-12-30T11:39:08.317Z</time>
      </trkpt>
      <trkpt lat="44.10003" lon="0.91693">
        <ele>104.165833</ele>
        <time>2022-12-30T11:39:11.321Z</time>
      </trkpt>
      <trkpt lat="44.10001" lon="0.91711">
        <ele>104.253528</ele>
        <time>2022-12-30T11:39:14.314Z</time>
      </trkpt>
      <trkpt lat="44.09999" lon="0.91728">
        <ele>104.340931</ele>
        <time>2022-12-30T11:39:17.319Z</time>
      </trkpt>
      <trkpt lat="44.09997" lon="0.91744">
        <ele>104.41976</ele>
        <time>2022-12-30T11:39:20.317Z</time>
      </trkpt>
      <trkpt lat="44.09993" lon="0.91761">
        <ele>104.434097</ele>
        <time>2022-12-30T11:39:23.317Z</time>
      </trkpt>
      <trkpt lat="44.09991" lon="0.91779">
        <ele>104.449351</ele>
        <time>2022-12-30T11:39:26.333Z</time>
      </trkpt>
      <trkpt lat="44.09989" lon="0.91797">
        <ele>104.464037</ele>
        <time>2022-12-30T11:39:29.336Z</time>
      </trkpt>
      <trkpt lat="44.09988" lon="0.9181">
        <ele>104.474695</ele>
        <time>2022-12-30T11:39:31.331Z</time>
      </trkpt>
      <trkpt lat="44.09986" lon="0.91823">
        <ele>104.485477</ele>
        <time>2022-12-30T11:39:33.331Z</time>
      </trkpt>
      <trkpt lat="44.09983" lon="0.9184">
        <ele>104.500501</ele>
        <time>2022-12-30T11:39:36.317Z</time>
      </trkpt>
      <trkpt lat="44.0998" lon="0.91857">
        <ele>104.5147</ele>
        <time>2022-12-30T11:39:39.334Z</time>
      </trkpt>
      <trkpt lat="44.09979" lon="0.91874">
        <ele>104.528926</ele>
        <time>2022-12-30T11:39:42.314Z</time>
      </trkpt>
      <trkpt lat="44.09977" lon="0.91887">
        <ele>104.539715</ele>
        <time>2022-12-30T11:39:44.316Z</time>
      </trkpt>
      <trkpt lat="44.09975" lon="0.91903">
        <ele>104.55284</ele>
        <time>2022-12-30T11:39:47.316Z</time>
      </trkpt>
      <trkpt lat="44.09972" lon="0.91919">
        <ele>104.566134</ele>
        <time>2022-12-30T11:39:50.321Z</time>
      </trkpt>
      <trkpt lat="44.09971" lon="0.91932">
        <ele>104.577378</ele>
        <time>2022-12-30T11:39:53.318Z</time>
      </trkpt>
      <trkpt lat="44.09969" lon="0.91948">
        <ele>104.590464</ele>
        <time>2022-12-30T11:39:56.316Z</time>
      </trkpt>
      <trkpt lat="44.09967" lon="0.91963">
        <ele>104.602983</ele>
        <time>2022-12-30T11:39:59.328Z</time>
      </trkpt>
      <trkpt lat="44.09966" lon="0.9198">
        <ele>104.616867</ele>
        <time>2022-12-30T11:40:02.335Z</time>
      </trkpt>
      <trkpt lat="44.09964" lon="0.91997">
        <ele>104.684079</ele>
        <time>2022-12-30T11:40:05.328Z</time>
      </trkpt>
      <trkpt lat="44.09961" lon="0.92016">
        <ele>104.817092</ele>
        <time>2022-12-30T11:40:08.330Z</time>
      </trkpt>
      <trkpt lat="44.09959" lon="0.92028">
        <ele>104.906189</ele>
        <time>2022-12-30T11:40:10.333Z</time>
      </trkpt>
      <trkpt lat="44.09956" lon="0.92045">
        <ele>105.032539</ele>
        <time>2022-12-30T11:40:13.327Z</time>
      </trkpt>
      <trkpt lat="44.09954" lon="0.92062">
        <ele>105.150639</ele>
        <time>2022-12-30T11:40:16.333Z</time>
      </trkpt>
      <trkpt lat="44.09952" lon="0.92078">
        <ele>105.269797</ele>
        <time>2022-12-30T11:40:19.323Z</time>
      </trkpt>
      <trkpt lat="44.0995" lon="0.92095">
        <ele>105.389096</ele>
        <time>2022-12-30T11:40:22.334Z</time>
      </trkpt>
      <trkpt lat="44.09948" lon="0.92111">
        <ele>105.507165</ele>
        <time>2022-12-30T11:40:25.335Z</time>
      </trkpt>
      <trkpt lat="44.09946" lon="0.92128">
        <ele>105.627858</ele>
        <time>2022-12-30T11:40:28.346Z</time>
      </trkpt>
      <trkpt lat="44.09943" lon="0.92146">
        <ele>105.757985</ele>
        <time>2022-12-30T11:40:31.321Z</time>
      </trkpt>
      <trkpt lat="44.09941" lon="0.92163">
        <ele>105.88356</ele>
        <time>2022-12-30T11:40:34.331Z</time>
      </trkpt>
      <trkpt lat="44.09939" lon="0.92179">
        <ele>105.99849</ele>
        <time>2022-12-30T11:40:37.757Z</time>
      </trkpt>
      <trkpt lat="44.09936" lon="0.92195">
        <ele>106.112386</ele>
        <time>2022-12-30T11:40:40.332Z</time>
      </trkpt>
      <trkpt lat="44.09934" lon="0.92212">
        <ele>106.234661</ele>
        <time>2022-12-30T11:40:43.333Z</time>
      </trkpt>
      <trkpt lat="44.09932" lon="0.92224">
        <ele>106.324866</ele>
        <time>2022-12-30T11:40:45.330Z</time>
      </trkpt>
      <trkpt lat="44.0993" lon="0.92242">
        <ele>106.392605</ele>
        <time>2022-12-30T11:40:48.331Z</time>
      </trkpt>
      <trkpt lat="44.09927" lon="0.92259">
        <ele>106.369342</ele>
        <time>2022-12-30T11:40:51.330Z</time>
      </trkpt>
      <trkpt lat="44.09925" lon="0.92278">
        <ele>106.344583</ele>
        <time>2022-12-30T11:40:54.324Z</time>
      </trkpt>
      <trkpt lat="44.09923" lon="0.92296">
        <ele>106.319425</ele>
        <time>2022-12-30T11:40:57.320Z</time>
      </trkpt>
      <trkpt lat="44.09921" lon="0.92308">
        <ele>106.302375</ele>
        <time>2022-12-30T11:40:59.330Z</time>
      </trkpt>
      <trkpt lat="44.09919" lon="0.92326">
        <ele>106.278679</ele>
        <time>2022-12-30T11:41:02.334Z</time>
      </trkpt>
      <trkpt lat="44.09918" lon="0.92341">
        <ele>106.257402</ele>
        <time>2022-12-30T11:41:05.333Z</time>
      </trkpt>
      <trkpt lat="44.09916" lon="0.92357">
        <ele>106.236686</ele>
        <time>2022-12-30T11:41:08.333Z</time>
      </trkpt>
      <trkpt lat="44.09914" lon="0.9237">
        <ele>106.21799</ele>
        <time>2022-12-30T11:41:11.334Z</time>
      </trkpt>
      <trkpt lat="44.09913" lon="0.92383">
        <ele>106.200254</ele>
        <time>2022-12-30T11:41:14.338Z</time>
      </trkpt>
      <trkpt lat="44.09911" lon="0.92396">
        <ele>106.183444</ele>
        <time>2022-12-30T11:41:17.340Z</time>
      </trkpt>
      <trkpt lat="44.09909" lon="0.9241">
        <ele>106.164285</ele>
        <time>2022-12-30T11:41:20.323Z</time>
      </trkpt>
      <trkpt lat="44.09907" lon="0.92424">
        <ele>106.144232</ele>
        <time>2022-12-30T11:41:23.335Z</time>
      </trkpt>
      <trkpt lat="44.09904" lon="0.92438">
        <ele>106.124689</ele>
        <time>2022-12-30T11:41:26.319Z</time>
      </trkpt>
      <trkpt lat="44.09901" lon="0.92454">
        <ele>106.103066</ele>
        <time>2022-12-30T11:41:29.318Z</time>
      </trkpt>
      <trkpt lat="44.09898" lon="0.92468">
        <ele>106.082539</ele>
        <time>2022-12-30T11:41:32.335Z</time>
      </trkpt>
      <trkpt lat="44.09894" lon="0.92486">
        <ele>106.043788</ele>
        <time>2022-12-30T11:41:35.332Z</time>
      </trkpt>
      <trkpt lat="44.09892" lon="0.92502">
        <ele>105.985624</ele>
        <time>2022-12-30T11:41:38.322Z</time>
      </trkpt>
      <trkpt lat="44.09889" lon="0.92518">
        <ele>105.924282</ele>
        <time>2022-12-30T11:41:41.333Z</time>
      </trkpt>
      <trkpt lat="44.09886" lon="0.92535">
        <ele>105.862602</ele>
        <time>2022-12-30T11:41:44.332Z</time>
      </trkpt>
      <trkpt lat="44.09883" lon="0.9255">
        <ele>105.806198</ele>
        <time>2022-12-30T11:41:47.333Z</time>
      </trkpt>
      <trkpt lat="44.0988" lon="0.92566">
        <ele>105.744658</ele>
        <time>2022-12-30T11:41:50.332Z</time>
      </trkpt>
      <trkpt lat="44.09876" lon="0.92583">
        <ele>105.683119</ele>
        <time>2022-12-30T11:41:53.333Z</time>
      </trkpt>
      <trkpt lat="44.09873" lon="0.92598">
        <ele>105.62575</ele>
        <time>2022-12-30T11:41:56.320Z</time>
      </trkpt>
      <trkpt lat="44.09867" lon="0.92615">
        <ele>105.554951</ele>
        <time>2022-12-30T11:41:59.331Z</time>
      </trkpt>
      <trkpt lat="44.09864" lon="0.92631">
        <ele>105.496085</ele>
        <time>2022-12-30T11:42:02.334Z</time>
      </trkpt>
      <trkpt lat="44.09862" lon="0.92644">
        <ele>105.448196</ele>
        <time>2022-12-30T11:42:04.334Z</time>
      </trkpt>
      <trkpt lat="44.09857" lon="0.9266">
        <ele>105.387385</ele>
        <time>2022-12-30T11:42:07.331Z</time>
      </trkpt>
      <trkpt lat="44.09855" lon="0.92676">
        <ele>105.326877</ele>
        <time>2022-12-30T11:42:10.334Z</time>
      </trkpt>
      <trkpt lat="44.09851" lon="0.92692">
        <ele>105.267704</ele>
        <time>2022-12-30T11:42:13.333Z</time>
      </trkpt>
      <trkpt lat="44.09848" lon="0.92706">
        <ele>105.214215</ele>
        <time>2022-12-30T11:42:16.314Z</time>
      </trkpt>
      <trkpt lat="44.09847" lon="0.92721">
        <ele>105.163874</ele>
        <time>2022-12-30T11:42:19.332Z</time>
      </trkpt>
      <trkpt lat="44.09843" lon="0.92739">
        <ele>105.259988</ele>
        <time>2022-12-30T11:42:22.340Z</time>
      </trkpt>
      <trkpt lat="44.09839" lon="0.92755">
        <ele>105.354515</ele>
        <time>2022-12-30T11:42:25.315Z</time>
      </trkpt>
      <trkpt lat="44.09836" lon="0.92772">
        <ele>105.44695</ele>
        <time>2022-12-30T11:42:28.333Z</time>
      </trkpt>
      <trkpt lat="44.09833" lon="0.92789">
        <ele>105.541128</ele>
        <time>2022-12-30T11:42:31.332Z</time>
      </trkpt>
      <trkpt lat="44.0983" lon="0.92806">
        <ele>105.6329</ele>
        <time>2022-12-30T11:42:34.334Z</time>
      </trkpt>
      <trkpt lat="44.09826" lon="0.92823">
        <ele>105.728892</ele>
        <time>2022-12-30T11:42:37.332Z</time>
      </trkpt>
      <trkpt lat="44.09823" lon="0.92839">
        <ele>105.820285</ele>
        <time>2022-12-30T11:42:40.333Z</time>
      </trkpt>
      <trkpt lat="44.0982" lon="0.92858">
        <ele>105.925425</ele>
        <time>2022-12-30T11:42:43.344Z</time>
      </trkpt>
      <trkpt lat="44.09817" lon="0.92872">
        <ele>106.001251</ele>
        <time>2022-12-30T11:42:45.335Z</time>
      </trkpt>
      <trkpt lat="44.09814" lon="0.92884">
        <ele>106.068728</ele>
        <time>2022-12-30T11:42:47.331Z</time>
      </trkpt>
      <trkpt lat="44.09811" lon="0.92895">
        <ele>106.1365</ele>
        <time>2022-12-30T11:42:49.339Z</time>
      </trkpt>
      <trkpt lat="44.09807" lon="0.92911">
        <ele>106.223413</ele>
        <time>2022-12-30T11:42:52.330Z</time>
      </trkpt>
      <trkpt lat="44.09804" lon="0.92927">
        <ele>106.310736</ele>
        <time>2022-12-30T11:42:55.332Z</time>
      </trkpt>
      <trkpt lat="44.09802" lon="0.92941">
        <ele>106.391852</ele>
        <time>2022-12-30T11:42:58.314Z</time>
      </trkpt>
      <trkpt lat="44.09799" lon="0.92956">
        <ele>106.472674</ele>
        <time>2022-12-30T11:43:01.332Z</time>
      </trkpt>
      <trkpt lat="44.09795" lon="0.92972">
        <ele>106.531128</ele>
        <time>2022-12-30T11:43:04.333Z</time>
      </trkpt>
      <trkpt lat="44.09792" lon="0.9299">
        <ele>106.572923</ele>
        <time>2022-12-30T11:43:07.331Z</time>
      </trkpt>
      <trkpt lat="44.09789" lon="0.93004">
        <ele>106.606327</ele>
        <time>2022-12-30T11:43:10.334Z</time>
      </trkpt>
      <trkpt lat="44.09786" lon="0.9302">
        <ele>106.643567</ele>
        <time>2022-12-30T11:43:13.333Z</time>
      </trkpt>
      <trkpt lat="44.09783" lon="0.93037">
        <ele>106.683229</ele>
        <time>2022-12-30T11:43:16.317Z</time>
      </trkpt>
      <trkpt lat="44.09778" lon="0.93053">
        <ele>106.722452</ele>
        <time>2022-12-30T11:43:19.336Z</time>
      </trkpt>
      <trkpt lat="44.09775" lon="0.93069">
        <ele>106.761649</ele>
        <time>2022-12-30T11:43:22.332Z</time>
      </trkpt>
      <trkpt lat="44.09772" lon="0.93086">
        <ele>106.80129</ele>
        <time>2022-12-30T11:43:25.337Z</time>
      </trkpt>
      <trkpt lat="44.09769" lon="0.93103">
        <ele>106.841747</ele>
        <time>2022-12-30T11:43:28.335Z</time>
      </trkpt>
      <trkpt lat="44.09765" lon="0.9312">
        <ele>106.882395</ele>
        <time>2022-12-30T11:43:31.329Z</time>
      </trkpt>
      <trkpt lat="44.09761" lon="0.93136">
        <ele>106.922073</ele>
        <time>2022-12-30T11:43:34.332Z</time>
      </trkpt>
      <trkpt lat="44.09759" lon="0.9315">
        <ele>106.955032</ele>
        <time>2022-12-30T11:43:37.331Z</time>
      </trkpt>
      <trkpt lat="44.09755" lon="0.93165">
        <ele>106.99093</ele>
        <time>2022-12-30T11:43:40.333Z</time>
      </trkpt>
      <trkpt lat="44.09752" lon="0.93182">
        <ele>107.030107</ele>
        <time>2022-12-30T11:43:43.315Z</time>
      </trkpt>
      <trkpt lat="44.09749" lon="0.93194">
        <ele>107.058986</ele>
        <time>2022-12-30T11:43:45.333Z</time>
      </trkpt>
      <trkpt lat="44.09745" lon="0.93212">
        <ele>107.173944</ele>
        <time>2022-12-30T11:43:48.333Z</time>
      </trkpt>
      <trkpt lat="44.09743" lon="0.93229">
        <ele>107.338872</ele>
        <time>2022-12-30T11:43:51.332Z</time>
      </trkpt>
      <trkpt lat="44.09739" lon="0.93246">
        <ele>107.504218</ele>
        <time>2022-12-30T11:43:54.333Z</time>
      </trkpt>
      <trkpt lat="44.09736" lon="0.93263">
        <ele>107.660271</ele>
        <time>2022-12-30T11:43:57.341Z</time>
      </trkpt>
      <trkpt lat="44.09732" lon="0.93278">
        <ele>107.807376</ele>
        <time>2022-12-30T11:44:00.337Z</time>
      </trkpt>
      <trkpt lat="44.09729" lon="0.93292">
        <ele>107.944708</ele>
        <time>2022-12-30T11:44:03.334Z</time>
      </trkpt>
      <trkpt lat="44.09725" lon="0.93305">
        <ele>108.072343</ele>
        <time>2022-12-30T11:44:06.325Z</time>
      </trkpt>
      <trkpt lat="44.09722" lon="0.93321">
        <ele>108.218502</ele>
        <time>2022-12-30T11:44:09.336Z</time>
      </trkpt>
      <trkpt lat="44.09719" lon="0.93337">
        <ele>108.374204</ele>
        <time>2022-12-30T11:44:12.333Z</time>
      </trkpt>
      <trkpt lat="44.09716" lon="0.93353">
        <ele>108.525486</ele>
        <time>2022-12-30T11:44:15.316Z</time>
      </trkpt>
      <trkpt lat="44.09713" lon="0.93369">
        <ele>108.6793</ele>
        <time>2022-12-30T11:44:18.334Z</time>
      </trkpt>
      <trkpt lat="44.09711" lon="0.93381">
        <ele>108.79794</ele>
        <time>2022-12-30T11:44:20.331Z</time>
      </trkpt>
      <trkpt lat="44.09708" lon="0.93398">
        <ele>108.950863</ele>
        <time>2022-12-30T11:44:23.337Z</time>
      </trkpt>
      <trkpt lat="44.09705" lon="0.93411">
        <ele>109.08468</ele>
        <time>2022-12-30T11:44:26.333Z</time>
      </trkpt>
      <trkpt lat="44.09704" lon="0.93425">
        <ele>109.207387</ele>
        <time>2022-12-30T11:44:29.322Z</time>
      </trkpt>
      <trkpt lat="44.09702" lon="0.93439">
        <ele>109.344082</ele>
        <time>2022-12-30T11:44:33.316Z</time>
      </trkpt>
      <trkpt lat="44.09699" lon="0.93455">
        <ele>109.368351</ele>
        <time>2022-12-30T11:44:37.335Z</time>
      </trkpt>
      <trkpt lat="44.09695" lon="0.93467">
        <ele>109.354316</ele>
        <time>2022-12-30T11:44:40.334Z</time>
      </trkpt>
      <trkpt lat="44.0969" lon="0.93482">
        <ele>109.338535</ele>
        <time>2022-12-30T11:44:43.334Z</time>
      </trkpt>
      <trkpt lat="44.09686" lon="0.935">
        <ele>109.31935</ele>
        <time>2022-12-30T11:44:46.334Z</time>
      </trkpt>
      <trkpt lat="44.09683" lon="0.93515">
        <ele>109.302754</ele>
        <time>2022-12-30T11:44:49.333Z</time>
      </trkpt>
      <trkpt lat="44.09679" lon="0.93533">
        <ele>109.284071</ele>
        <time>2022-12-30T11:44:52.333Z</time>
      </trkpt>
      <trkpt lat="44.09676" lon="0.9355">
        <ele>109.266237</ele>
        <time>2022-12-30T11:44:55.334Z</time>
      </trkpt>
      <trkpt lat="44.09673" lon="0.93567">
        <ele>109.248431</ele>
        <time>2022-12-30T11:44:58.334Z</time>
      </trkpt>
      <trkpt lat="44.09668" lon="0.93584">
        <ele>109.230022</ele>
        <time>2022-12-30T11:45:01.333Z</time>
      </trkpt>
      <trkpt lat="44.09666" lon="0.93596">
        <ele>109.216803</ele>
        <time>2022-12-30T11:45:03.319Z</time>
      </trkpt>
      <trkpt lat="44.09662" lon="0.93613">
        <ele>109.198706</ele>
        <time>2022-12-30T11:45:06.328Z</time>
      </trkpt>
      <trkpt lat="44.09659" lon="0.93629">
        <ele>109.18204</ele>
        <time>2022-12-30T11:45:09.329Z</time>
      </trkpt>
      <trkpt lat="44.09656" lon="0.93645">
        <ele>109.165692</ele>
        <time>2022-12-30T11:45:12.334Z</time>
      </trkpt>
      <trkpt lat="44.09653" lon="0.93661">
        <ele>109.148089</ele>
        <time>2022-12-30T11:45:15.339Z</time>
      </trkpt>
      <trkpt lat="44.09648" lon="0.93676">
        <ele>109.13109</ele>
        <time>2022-12-30T11:45:18.321Z</time>
      </trkpt>
      <trkpt lat="44.09646" lon="0.9369">
        <ele>109.105878</ele>
        <time>2022-12-30T11:45:21.336Z</time>
      </trkpt>
      <trkpt lat="44.09643" lon="0.93705">
        <ele>109.072073</ele>
        <time>2022-12-30T11:45:24.334Z</time>
      </trkpt>
      <trkpt lat="44.09641" lon="0.9372">
        <ele>109.038409</ele>
        <time>2022-12-30T11:45:27.319Z</time>
      </trkpt>
      <trkpt lat="44.09638" lon="0.93736">
        <ele>109.003318</ele>
        <time>2022-12-30T11:45:30.333Z</time>
      </trkpt>
      <trkpt lat="44.09635" lon="0.93753">
        <ele>108.964573</ele>
        <time>2022-12-30T11:45:33.340Z</time>
      </trkpt>
      <trkpt lat="44.09632" lon="0.93769">
        <ele>108.927613</ele>
        <time>2022-12-30T11:45:36.335Z</time>
      </trkpt>
      <trkpt lat="44.09628" lon="0.93785">
        <ele>108.889642</ele>
        <time>2022-12-30T11:45:39.333Z</time>
      </trkpt>
      <trkpt lat="44.09624" lon="0.93802">
        <ele>108.850204</ele>
        <time>2022-12-30T11:45:42.338Z</time>
      </trkpt>
      <trkpt lat="44.0962" lon="0.93819">
        <ele>108.812019</ele>
        <time>2022-12-30T11:45:45.331Z</time>
      </trkpt>
      <trkpt lat="44.09617" lon="0.93837">
        <ele>108.770954</ele>
        <time>2022-12-30T11:45:48.334Z</time>
      </trkpt>
      <trkpt lat="44.09613" lon="0.93855">
        <ele>108.729336</ele>
        <time>2022-12-30T11:45:51.334Z</time>
      </trkpt>
      <trkpt lat="44.09611" lon="0.93867">
        <ele>108.701678</ele>
        <time>2022-12-30T11:45:53.337Z</time>
      </trkpt>
      <trkpt lat="44.09609" lon="0.93879">
        <ele>108.673657</ele>
        <time>2022-12-30T11:45:55.334Z</time>
      </trkpt>
      <trkpt lat="44.09606" lon="0.93895">
        <ele>108.637137</ele>
        <time>2022-12-30T11:45:58.321Z</time>
      </trkpt>
      <trkpt lat="44.09602" lon="0.93911">
        <ele>108.601341</ele>
        <time>2022-12-30T11:46:01.334Z</time>
      </trkpt>
      <trkpt lat="44.09598" lon="0.93927">
        <ele>108.578936</ele>
        <time>2022-12-30T11:46:04.335Z</time>
      </trkpt>
      <trkpt lat="44.09595" lon="0.93944">
        <ele>108.598556</ele>
        <time>2022-12-30T11:46:07.326Z</time>
      </trkpt>
      <trkpt lat="44.09591" lon="0.9396">
        <ele>108.617873</ele>
        <time>2022-12-30T11:46:10.332Z</time>
      </trkpt>
      <trkpt lat="44.09588" lon="0.93977">
        <ele>108.637019</ele>
        <time>2022-12-30T11:46:13.334Z</time>
      </trkpt>
      <trkpt lat="44.09584" lon="0.93993">
        <ele>108.656959</ele>
        <time>2022-12-30T11:46:16.336Z</time>
      </trkpt>
      <trkpt lat="44.0958" lon="0.9401">
        <ele>108.677173</ele>
        <time>2022-12-30T11:46:19.323Z</time>
      </trkpt>
      <trkpt lat="44.09576" lon="0.94026">
        <ele>108.696428</ele>
        <time>2022-12-30T11:46:22.331Z</time>
      </trkpt>
      <trkpt lat="44.09572" lon="0.94043">
        <ele>108.716815</ele>
        <time>2022-12-30T11:46:25.330Z</time>
      </trkpt>
      <trkpt lat="44.09569" lon="0.94059">
        <ele>108.735332</ele>
        <time>2022-12-30T11:46:28.333Z</time>
      </trkpt>
      <trkpt lat="44.09566" lon="0.94073">
        <ele>108.752217</ele>
        <time>2022-12-30T11:46:31.344Z</time>
      </trkpt>
      <trkpt lat="44.09564" lon="0.94087">
        <ele>108.768746</ele>
        <time>2022-12-30T11:46:34.346Z</time>
      </trkpt>
      <trkpt lat="44.09561" lon="0.94101">
        <ele>108.785097</ele>
        <time>2022-12-30T11:46:37.342Z</time>
      </trkpt>
      <trkpt lat="44.09558" lon="0.94115">
        <ele>108.801468</ele>
        <time>2022-12-30T11:46:40.342Z</time>
      </trkpt>
      <trkpt lat="44.09556" lon="0.94129">
        <ele>108.81749</ele>
        <time>2022-12-30T11:46:43.337Z</time>
      </trkpt>
      <trkpt lat="44.09553" lon="0.94142">
        <ele>108.833632</ele>
        <time>2022-12-30T11:46:46.333Z</time>
      </trkpt>
      <trkpt lat="44.0955" lon="0.94156">
        <ele>108.850113</ele>
        <time>2022-12-30T11:46:49.332Z</time>
      </trkpt>
      <trkpt lat="44.09547" lon="0.94171">
        <ele>108.87011</ele>
        <time>2022-12-30T11:46:52.336Z</time>
      </trkpt>
      <trkpt lat="44.09544" lon="0.94185">
        <ele>108.892221</ele>
        <time>2022-12-30T11:46:55.334Z</time>
      </trkpt>
      <trkpt lat="44.09541" lon="0.94199">
        <ele>108.913067</ele>
        <time>2022-12-30T11:46:58.332Z</time>
      </trkpt>
      <trkpt lat="44.0954" lon="0.94213">
        <ele>108.934913</ele>
        <time>2022-12-30T11:47:01.336Z</time>
      </trkpt>
      <trkpt lat="44.09538" lon="0.94226">
        <ele>108.953859</ele>
        <time>2022-12-30T11:47:04.332Z</time>
      </trkpt>
      <trkpt lat="44.09537" lon="0.94239">
        <ele>108.972924</ele>
        <time>2022-12-30T11:47:07.336Z</time>
      </trkpt>
      <trkpt lat="44.09533" lon="0.94251">
        <ele>108.992318</ele>
        <time>2022-12-30T11:47:10.334Z</time>
      </trkpt>
      <trkpt lat="44.0953" lon="0.94264">
        <ele>109.012957</ele>
        <time>2022-12-30T11:47:13.330Z</time>
      </trkpt>
      <trkpt lat="44.09527" lon="0.94279">
        <ele>109.035389</ele>
        <time>2022-12-30T11:47:16.321Z</time>
      </trkpt>
      <trkpt lat="44.09523" lon="0.94292">
        <ele>109.055931</ele>
        <time>2022-12-30T11:47:19.334Z</time>
      </trkpt>
      <trkpt lat="44.0952" lon="0.94307">
        <ele>109.078503</ele>
        <time>2022-12-30T11:47:22.333Z</time>
      </trkpt>
      <trkpt lat="44.09517" lon="0.94321">
        <ele>109.100654</ele>
        <time>2022-12-30T11:47:25.335Z</time>
      </trkpt>
      <trkpt lat="44.09514" lon="0.94336">
        <ele>109.12365</ele>
        <time>2022-12-30T11:47:28.335Z</time>
      </trkpt>
      <trkpt lat="44.09512" lon="0.94351">
        <ele>109.14698</ele>
        <time>2022-12-30T11:47:31.338Z</time>
      </trkpt>
      <trkpt lat="44.09508" lon="0.94367">
        <ele>109.170425</ele>
        <time>2022-12-30T11:47:34.333Z</time>
      </trkpt>
      <trkpt lat="44.09505" lon="0.94382">
        <ele>109.19334</ele>
        <time>2022-12-30T11:47:37.343Z</time>
      </trkpt>
      <trkpt lat="44.09503" lon="0.94396">
        <ele>109.215762</ele>
        <time>2022-12-30T11:47:40.336Z</time>
      </trkpt>
      <trkpt lat="44.09499" lon="0.94411">
        <ele>109.301771</ele>
        <time>2022-12-30T11:47:43.343Z</time>
      </trkpt>
      <trkpt lat="44.09495" lon="0.94427">
        <ele>109.46358</ele>
        <time>2022-12-30T11:47:46.333Z</time>
      </trkpt>
      <trkpt lat="44.09492" lon="0.94444">
        <ele>109.626274</ele>
        <time>2022-12-30T11:47:49.332Z</time>
      </trkpt>
      <trkpt lat="44.09488" lon="0.9446">
        <ele>109.781453</ele>
        <time>2022-12-30T11:47:52.341Z</time>
      </trkpt>
      <trkpt lat="44.09485" lon="0.94475">
        <ele>109.935252</ele>
        <time>2022-12-30T11:47:55.335Z</time>
      </trkpt>
      <trkpt lat="44.09481" lon="0.94491">
        <ele>110.088161</ele>
        <time>2022-12-30T11:47:58.340Z</time>
      </trkpt>
      <trkpt lat="44.09477" lon="0.94507">
        <ele>110.256238</ele>
        <time>2022-12-30T11:48:01.328Z</time>
      </trkpt>
      <trkpt lat="44.09473" lon="0.94523">
        <ele>110.414111</ele>
        <time>2022-12-30T11:48:04.346Z</time>
      </trkpt>
      <trkpt lat="44.0947" lon="0.94539">
        <ele>110.571086</ele>
        <time>2022-12-30T11:48:07.339Z</time>
      </trkpt>
      <trkpt lat="44.09466" lon="0.94554">
        <ele>110.721327</ele>
        <time>2022-12-30T11:48:10.334Z</time>
      </trkpt>
      <trkpt lat="44.09463" lon="0.94569">
        <ele>110.869253</ele>
        <time>2022-12-30T11:48:13.332Z</time>
      </trkpt>
      <trkpt lat="44.09461" lon="0.94585">
        <ele>111.019905</ele>
        <time>2022-12-30T11:48:16.347Z</time>
      </trkpt>
      <trkpt lat="44.09458" lon="0.94601">
        <ele>111.179177</ele>
        <time>2022-12-30T11:48:19.336Z</time>
      </trkpt>
      <trkpt lat="44.09455" lon="0.94615">
        <ele>111.309314</ele>
        <time>2022-12-30T11:48:21.334Z</time>
      </trkpt>
      <trkpt lat="44.09452" lon="0.94632">
        <ele>111.478972</ele>
        <time>2022-12-30T11:48:24.335Z</time>
      </trkpt>
      <trkpt lat="44.09449" lon="0.94647">
        <ele>111.593335</ele>
        <time>2022-12-30T11:48:27.333Z</time>
      </trkpt>
      <trkpt lat="44.09446" lon="0.94662">
        <ele>111.595817</ele>
        <time>2022-12-30T11:48:30.344Z</time>
      </trkpt>
      <trkpt lat="44.09443" lon="0.94679">
        <ele>111.598584</ele>
        <time>2022-12-30T11:48:33.336Z</time>
      </trkpt>
      <trkpt lat="44.09439" lon="0.94696">
        <ele>111.601383</ele>
        <time>2022-12-30T11:48:36.317Z</time>
      </trkpt>
      <trkpt lat="44.09436" lon="0.94713">
        <ele>111.604056</ele>
        <time>2022-12-30T11:48:39.336Z</time>
      </trkpt>
      <trkpt lat="44.09432" lon="0.94729">
        <ele>111.606674</ele>
        <time>2022-12-30T11:48:42.327Z</time>
      </trkpt>
      <trkpt lat="44.09429" lon="0.94743">
        <ele>111.609056</ele>
        <time>2022-12-30T11:48:45.340Z</time>
      </trkpt>
      <trkpt lat="44.09426" lon="0.94758">
        <ele>111.611472</ele>
        <time>2022-12-30T11:48:48.337Z</time>
      </trkpt>
      <trkpt lat="44.09423" lon="0.94774">
        <ele>111.613959</ele>
        <time>2022-12-30T11:48:51.340Z</time>
      </trkpt>
      <trkpt lat="44.0942" lon="0.94791">
        <ele>111.616783</ele>
        <time>2022-12-30T11:48:54.333Z</time>
      </trkpt>
      <trkpt lat="44.09418" lon="0.94805">
        <ele>111.618974</ele>
        <time>2022-12-30T11:48:57.336Z</time>
      </trkpt>
      <trkpt lat="44.09415" lon="0.94821">
        <ele>111.621542</ele>
        <time>2022-12-30T11:49:00.335Z</time>
      </trkpt>
      <trkpt lat="44.09411" lon="0.94838">
        <ele>111.624378</ele>
        <time>2022-12-30T11:49:03.346Z</time>
      </trkpt>
      <trkpt lat="44.09407" lon="0.94855">
        <ele>111.627173</ele>
        <time>2022-12-30T11:49:06.320Z</time>
      </trkpt>
      <trkpt lat="44.09404" lon="0.94872">
        <ele>111.629933</ele>
        <time>2022-12-30T11:49:09.331Z</time>
      </trkpt>
      <trkpt lat="44.094" lon="0.94887">
        <ele>111.633527</ele>
        <time>2022-12-30T11:49:12.333Z</time>
      </trkpt>
      <trkpt lat="44.09397" lon="0.949">
        <ele>111.642727</ele>
        <time>2022-12-30T11:49:15.338Z</time>
      </trkpt>
      <trkpt lat="44.09394" lon="0.94913">
        <ele>111.652</ele>
        <time>2022-12-30T11:49:18.333Z</time>
      </trkpt>
      <trkpt lat="44.09391" lon="0.94926">
        <ele>111.661263</ele>
        <time>2022-12-30T11:49:21.334Z</time>
      </trkpt>
      <trkpt lat="44.09387" lon="0.9494">
        <ele>111.671023</ele>
        <time>2022-12-30T11:49:24.336Z</time>
      </trkpt>
      <trkpt lat="44.09383" lon="0.94956">
        <ele>111.682548</ele>
        <time>2022-12-30T11:49:27.335Z</time>
      </trkpt>
      <trkpt lat="44.09379" lon="0.94973">
        <ele>111.694292</ele>
        <time>2022-12-30T11:49:30.328Z</time>
      </trkpt>
      <trkpt lat="44.09374" lon="0.9499">
        <ele>111.706521</ele>
        <time>2022-12-30T11:49:33.335Z</time>
      </trkpt>
      <trkpt lat="44.09371" lon="0.95005">
        <ele>111.717264</ele>
        <time>2022-12-30T11:49:36.343Z</time>
      </trkpt>
      <trkpt lat="44.09368" lon="0.95018">
        <ele>111.726692</ele>
        <time>2022-12-30T11:49:39.315Z</time>
      </trkpt>
      <trkpt lat="44.09365" lon="0.95031">
        <ele>111.735823</ele>
        <time>2022-12-30T11:49:42.327Z</time>
      </trkpt>
      <trkpt lat="44.09361" lon="0.95045">
        <ele>111.745966</ele>
        <time>2022-12-30T11:49:46.333Z</time>
      </trkpt>
      <trkpt lat="44.09358" lon="0.95059">
        <ele>111.755194</ele>
        <time>2022-12-30T11:49:49.332Z</time>
      </trkpt>
      <trkpt lat="44.09351" lon="0.95076">
        <ele>111.768172</ele>
        <time>2022-12-30T11:49:52.333Z</time>
      </trkpt>
      <trkpt lat="44.09345" lon="0.95091">
        <ele>111.779717</ele>
        <time>2022-12-30T11:49:55.319Z</time>
      </trkpt>
      <trkpt lat="44.0934" lon="0.95105">
        <ele>111.790501</ele>
        <time>2022-12-30T11:49:58.334Z</time>
      </trkpt>
      <trkpt lat="44.09335" lon="0.95122">
        <ele>111.78144</ele>
        <time>2022-12-30T11:50:01.341Z</time>
      </trkpt>
      <trkpt lat="44.09331" lon="0.95139">
        <ele>111.705585</ele>
        <time>2022-12-30T11:50:04.326Z</time>
      </trkpt>
      <trkpt lat="44.09327" lon="0.95154">
        <ele>111.640676</ele>
        <time>2022-12-30T11:50:07.327Z</time>
      </trkpt>
      <trkpt lat="44.09324" lon="0.95168">
        <ele>111.581721</ele>
        <time>2022-12-30T11:50:10.333Z</time>
      </trkpt>
      <trkpt lat="44.0932" lon="0.95183">
        <ele>111.517387</ele>
        <time>2022-12-30T11:50:13.318Z</time>
      </trkpt>
      <trkpt lat="44.09316" lon="0.95198">
        <ele>111.451509</ele>
        <time>2022-12-30T11:50:16.337Z</time>
      </trkpt>
      <trkpt lat="44.09311" lon="0.95214">
        <ele>111.383335</ele>
        <time>2022-12-30T11:50:19.326Z</time>
      </trkpt>
      <trkpt lat="44.09307" lon="0.9523">
        <ele>111.310546</ele>
        <time>2022-12-30T11:50:22.334Z</time>
      </trkpt>
      <trkpt lat="44.09302" lon="0.95247">
        <ele>111.239245</ele>
        <time>2022-12-30T11:50:25.333Z</time>
      </trkpt>
      <trkpt lat="44.09297" lon="0.95263">
        <ele>111.165994</ele>
        <time>2022-12-30T11:50:28.336Z</time>
      </trkpt>
      <trkpt lat="44.09292" lon="0.95279">
        <ele>111.095827</ele>
        <time>2022-12-30T11:50:31.327Z</time>
      </trkpt>
      <trkpt lat="44.09287" lon="0.95294">
        <ele>111.027811</ele>
        <time>2022-12-30T11:50:34.338Z</time>
      </trkpt>
      <trkpt lat="44.09283" lon="0.95309">
        <ele>110.961096</ele>
        <time>2022-12-30T11:50:37.334Z</time>
      </trkpt>
      <trkpt lat="44.09279" lon="0.95325">
        <ele>110.890797</ele>
        <time>2022-12-30T11:50:40.335Z</time>
      </trkpt>
      <trkpt lat="44.09275" lon="0.95343">
        <ele>110.816241</ele>
        <time>2022-12-30T11:50:43.339Z</time>
      </trkpt>
      <trkpt lat="44.0927" lon="0.9536">
        <ele>110.839324</ele>
        <time>2022-12-30T11:50:46.338Z</time>
      </trkpt>
      <trkpt lat="44.09266" lon="0.95377">
        <ele>110.976532</ele>
        <time>2022-12-30T11:50:49.335Z</time>
      </trkpt>
      <trkpt lat="44.09262" lon="0.95389">
        <ele>111.073358</ele>
        <time>2022-12-30T11:50:51.337Z</time>
      </trkpt>
      <trkpt lat="44.09257" lon="0.95406">
        <ele>111.206859</ele>
        <time>2022-12-30T11:50:54.322Z</time>
      </trkpt>
      <trkpt lat="44.09252" lon="0.95422">
        <ele>111.336488</ele>
        <time>2022-12-30T11:50:57.344Z</time>
      </trkpt>
      <trkpt lat="44.09248" lon="0.95439">
        <ele>111.467489</ele>
        <time>2022-12-30T11:51:00.347Z</time>
      </trkpt>
      <trkpt lat="44.09243" lon="0.95455">
        <ele>111.595747</ele>
        <time>2022-12-30T11:51:03.342Z</time>
      </trkpt>
      <trkpt lat="44.09238" lon="0.9547">
        <ele>111.717325</ele>
        <time>2022-12-30T11:51:06.339Z</time>
      </trkpt>
      <trkpt lat="44.09234" lon="0.95484">
        <ele>111.825144</ele>
        <time>2022-12-30T11:51:09.336Z</time>
      </trkpt>
      <trkpt lat="44.0923" lon="0.95496">
        <ele>111.92921</ele>
        <time>2022-12-30T11:51:12.345Z</time>
      </trkpt>
      <trkpt lat="44.09226" lon="0.9551">
        <ele>112.036285</ele>
        <time>2022-12-30T11:51:15.335Z</time>
      </trkpt>
      <trkpt lat="44.09222" lon="0.95524">
        <ele>112.149929</ele>
        <time>2022-12-30T11:51:18.340Z</time>
      </trkpt>
      <trkpt lat="44.09218" lon="0.9554">
        <ele>112.272339</ele>
        <time>2022-12-30T11:51:21.349Z</time>
      </trkpt>
      <trkpt lat="44.09213" lon="0.95554">
        <ele>112.390138</ele>
        <time>2022-12-30T11:51:24.342Z</time>
      </trkpt>
      <trkpt lat="44.09209" lon="0.9557">
        <ele>112.512096</ele>
        <time>2022-12-30T11:51:27.333Z</time>
      </trkpt>
      <trkpt lat="44.09205" lon="0.95585">
        <ele>112.631665</ele>
        <time>2022-12-30T11:51:30.337Z</time>
      </trkpt>
      <trkpt lat="44.09202" lon="0.95601">
        <ele>112.753162</ele>
        <time>2022-12-30T11:51:33.319Z</time>
      </trkpt>
      <trkpt lat="44.09198" lon="0.95613">
        <ele>112.858572</ele>
        <time>2022-12-30T11:51:35.336Z</time>
      </trkpt>
      <trkpt lat="44.09195" lon="0.95625">
        <ele>112.954171</ele>
        <time>2022-12-30T11:51:37.336Z</time>
      </trkpt>
      <trkpt lat="44.0919" lon="0.95642">
        <ele>113.092388</ele>
        <time>2022-12-30T11:51:40.342Z</time>
      </trkpt>
      <trkpt lat="44.09185" lon="0.95658">
        <ele>113.228044</ele>
        <time>2022-12-30T11:51:43.336Z</time>
      </trkpt>
      <trkpt lat="44.09181" lon="0.95672">
        <ele>113.341159</ele>
        <time>2022-12-30T11:51:46.345Z</time>
      </trkpt>
      <trkpt lat="44.09177" lon="0.95686">
        <ele>113.453685</ele>
        <time>2022-12-30T11:51:49.339Z</time>
      </trkpt>
      <trkpt lat="44.09173" lon="0.95698">
        <ele>113.555343</ele>
        <time>2022-12-30T11:51:52.342Z</time>
      </trkpt>
      <trkpt lat="44.0917" lon="0.9571">
        <ele>113.654492</ele>
        <time>2022-12-30T11:51:55.347Z</time>
      </trkpt>
      <trkpt lat="44.09166" lon="0.95725">
        <ele>113.772302</ele>
        <time>2022-12-30T11:51:58.338Z</time>
      </trkpt>
      <trkpt lat="44.09161" lon="0.95739">
        <ele>113.893423</ele>
        <time>2022-12-30T11:52:01.341Z</time>
      </trkpt>
      <trkpt lat="44.09157" lon="0.95755">
        <ele>114.019763</ele>
        <time>2022-12-30T11:52:04.338Z</time>
      </trkpt>
      <trkpt lat="44.09153" lon="0.9577">
        <ele>114.141828</ele>
        <time>2022-12-30T11:52:07.339Z</time>
      </trkpt>
      <trkpt lat="44.09149" lon="0.95785">
        <ele>114.267571</ele>
        <time>2022-12-30T11:52:10.342Z</time>
      </trkpt>
      <trkpt lat="44.09144" lon="0.958">
        <ele>114.388129</ele>
        <time>2022-12-30T11:52:13.343Z</time>
      </trkpt>
      <trkpt lat="44.0914" lon="0.95815">
        <ele>114.510575</ele>
        <time>2022-12-30T11:52:16.339Z</time>
      </trkpt>
      <trkpt lat="44.09135" lon="0.95831">
        <ele>114.303017</ele>
        <time>2022-12-30T11:52:19.336Z</time>
      </trkpt>
      <trkpt lat="44.09132" lon="0.95847">
        <ele>114.05652</ele>
        <time>2022-12-30T11:52:22.345Z</time>
      </trkpt>
      <trkpt lat="44.09127" lon="0.95862">
        <ele>113.808754</ele>
        <time>2022-12-30T11:52:25.334Z</time>
      </trkpt>
      <trkpt lat="44.09123" lon="0.95878">
        <ele>113.565094</ele>
        <time>2022-12-30T11:52:28.337Z</time>
      </trkpt>
      <trkpt lat="44.09117" lon="0.95894">
        <ele>113.301895</ele>
        <time>2022-12-30T11:52:31.346Z</time>
      </trkpt>
      <trkpt lat="44.09112" lon="0.9591">
        <ele>113.044399</ele>
        <time>2022-12-30T11:52:34.339Z</time>
      </trkpt>
      <trkpt lat="44.09108" lon="0.95925">
        <ele>112.799978</ele>
        <time>2022-12-30T11:52:37.342Z</time>
      </trkpt>
      <trkpt lat="44.09104" lon="0.9594">
        <ele>112.565989</ele>
        <time>2022-12-30T11:52:40.349Z</time>
      </trkpt>
      <trkpt lat="44.091" lon="0.95957">
        <ele>112.304325</ele>
        <time>2022-12-30T11:52:43.345Z</time>
      </trkpt>
      <trkpt lat="44.09096" lon="0.95972">
        <ele>112.063433</ele>
        <time>2022-12-30T11:52:46.347Z</time>
      </trkpt>
      <trkpt lat="44.09093" lon="0.95987">
        <ele>111.845702</ele>
        <time>2022-12-30T11:52:49.345Z</time>
      </trkpt>
      <trkpt lat="44.09089" lon="0.95998">
        <ele>111.65765</ele>
        <time>2022-12-30T11:52:52.349Z</time>
      </trkpt>
      <trkpt lat="44.09085" lon="0.96011">
        <ele>111.460131</ele>
        <time>2022-12-30T11:52:55.334Z</time>
      </trkpt>
      <trkpt lat="44.09082" lon="0.96025">
        <ele>111.237899</ele>
        <time>2022-12-30T11:52:58.337Z</time>
      </trkpt>
      <trkpt lat="44.09078" lon="0.9604">
        <ele>110.997695</ele>
        <time>2022-12-30T11:53:01.342Z</time>
      </trkpt>
      <trkpt lat="44.09074" lon="0.96057">
        <ele>110.845099</ele>
        <time>2022-12-30T11:53:04.339Z</time>
      </trkpt>
      <trkpt lat="44.0907" lon="0.96073">
        <ele>110.851858</ele>
        <time>2022-12-30T11:53:07.340Z</time>
      </trkpt>
      <trkpt lat="44.09065" lon="0.96091">
        <ele>110.859351</ele>
        <time>2022-12-30T11:53:10.340Z</time>
      </trkpt>
      <trkpt lat="44.0906" lon="0.96108">
        <ele>110.866584</ele>
        <time>2022-12-30T11:53:13.335Z</time>
      </trkpt>
      <trkpt lat="44.09056" lon="0.96123">
        <ele>110.873071</ele>
        <time>2022-12-30T11:53:16.337Z</time>
      </trkpt>
      <trkpt lat="44.0905" lon="0.96138">
        <ele>110.879921</ele>
        <time>2022-12-30T11:53:19.336Z</time>
      </trkpt>
      <trkpt lat="44.09046" lon="0.96149">
        <ele>110.884949</ele>
        <time>2022-12-30T11:53:21.334Z</time>
      </trkpt>
      <trkpt lat="44.09041" lon="0.96165">
        <ele>110.891769</ele>
        <time>2022-12-30T11:53:24.348Z</time>
      </trkpt>
      <trkpt lat="44.09037" lon="0.96183">
        <ele>110.899411</ele>
        <time>2022-12-30T11:53:27.325Z</time>
      </trkpt>
      <trkpt lat="44.09033" lon="0.96194">
        <ele>110.90446</ele>
        <time>2022-12-30T11:53:29.337Z</time>
      </trkpt>
      <trkpt lat="44.0903" lon="0.96206">
        <ele>110.909563</ele>
        <time>2022-12-30T11:53:31.339Z</time>
      </trkpt>
      <trkpt lat="44.09027" lon="0.96219">
        <ele>110.914763</ele>
        <time>2022-12-30T11:53:33.338Z</time>
      </trkpt>
      <trkpt lat="44.09022" lon="0.96235">
        <ele>110.921917</ele>
        <time>2022-12-30T11:53:36.343Z</time>
      </trkpt>
      <trkpt lat="44.09018" lon="0.96252">
        <ele>110.929185</ele>
        <time>2022-12-30T11:53:39.341Z</time>
      </trkpt>
      <trkpt lat="44.09013" lon="0.96269">
        <ele>110.936275</ele>
        <time>2022-12-30T11:53:42.336Z</time>
      </trkpt>
      <trkpt lat="44.09008" lon="0.96285">
        <ele>110.932887</ele>
        <time>2022-12-30T11:53:45.341Z</time>
      </trkpt>
      <trkpt lat="44.09005" lon="0.96301">
        <ele>110.875945</ele>
        <time>2022-12-30T11:53:48.345Z</time>
      </trkpt>
      <trkpt lat="44.09001" lon="0.96316">
        <ele>110.819289</ele>
        <time>2022-12-30T11:53:51.338Z</time>
      </trkpt>
      <trkpt lat="44.08997" lon="0.96333">
        <ele>110.758239</ele>
        <time>2022-12-30T11:53:54.340Z</time>
      </trkpt>
      <trkpt lat="44.08993" lon="0.96348">
        <ele>110.700997</ele>
        <time>2022-12-30T11:53:57.340Z</time>
      </trkpt>
      <trkpt lat="44.08989" lon="0.96361">
        <ele>110.651624</ele>
        <time>2022-12-30T11:54:00.341Z</time>
      </trkpt>
      <trkpt lat="44.08986" lon="0.96375">
        <ele>110.601285</ele>
        <time>2022-12-30T11:54:03.328Z</time>
      </trkpt>
      <trkpt lat="44.0898" lon="0.96389">
        <ele>110.54398</ele>
        <time>2022-12-30T11:54:06.343Z</time>
      </trkpt>
      <trkpt lat="44.0897" lon="0.964">
        <ele>110.483466</ele>
        <time>2022-12-30T11:54:09.339Z</time>
      </trkpt>
      <trkpt lat="44.08964" lon="0.96414">
        <ele>110.426633</ele>
        <time>2022-12-30T11:54:12.336Z</time>
      </trkpt>
      <trkpt lat="44.08965" lon="0.96429">
        <ele>110.37322</ele>
        <time>2022-12-30T11:54:15.335Z</time>
      </trkpt>
      <trkpt lat="44.08965" lon="0.96443">
        <ele>110.323784</ele>
        <time>2022-12-30T11:54:18.343Z</time>
      </trkpt>
      <trkpt lat="44.08962" lon="0.96457">
        <ele>110.272178</ele>
        <time>2022-12-30T11:54:21.329Z</time>
      </trkpt>
      <trkpt lat="44.08958" lon="0.96471">
        <ele>110.21798</ele>
        <time>2022-12-30T11:54:24.321Z</time>
      </trkpt>
      <trkpt lat="44.08953" lon="0.96486">
        <ele>110.162814</ele>
        <time>2022-12-30T11:54:27.338Z</time>
      </trkpt>
      <trkpt lat="44.08949" lon="0.96501">
        <ele>110.103752</ele>
        <time>2022-12-30T11:54:30.341Z</time>
      </trkpt>
      <trkpt lat="44.08943" lon="0.96519">
        <ele>110.056765</ele>
        <time>2022-12-30T11:54:33.328Z</time>
      </trkpt>
      <trkpt lat="44.08938" lon="0.9653">
        <ele>110.044347</ele>
        <time>2022-12-30T11:54:35.345Z</time>
      </trkpt>
      <trkpt lat="44.08934" lon="0.96548">
        <ele>110.026747</ele>
        <time>2022-12-30T11:54:38.337Z</time>
      </trkpt>
      <trkpt lat="44.0893" lon="0.96564">
        <ele>110.010056</ele>
        <time>2022-12-30T11:54:41.320Z</time>
      </trkpt>
      <trkpt lat="44.08926" lon="0.9658">
        <ele>109.993415</ele>
        <time>2022-12-30T11:54:44.337Z</time>
      </trkpt>
      <trkpt lat="44.08922" lon="0.96596">
        <ele>109.97661</ele>
        <time>2022-12-30T11:54:47.339Z</time>
      </trkpt>
      <trkpt lat="44.08917" lon="0.96613">
        <ele>109.95973</ele>
        <time>2022-12-30T11:54:50.340Z</time>
      </trkpt>
      <trkpt lat="44.08912" lon="0.96628">
        <ele>109.943192</ele>
        <time>2022-12-30T11:54:53.340Z</time>
      </trkpt>
      <trkpt lat="44.08908" lon="0.96645">
        <ele>109.926275</ele>
        <time>2022-12-30T11:54:56.345Z</time>
      </trkpt>
      <trkpt lat="44.08904" lon="0.9666">
        <ele>109.910679</ele>
        <time>2022-12-30T11:54:59.337Z</time>
      </trkpt>
      <trkpt lat="44.08899" lon="0.96675">
        <ele>109.894744</ele>
        <time>2022-12-30T11:55:02.341Z</time>
      </trkpt>
      <trkpt lat="44.08894" lon="0.96692">
        <ele>109.877136</ele>
        <time>2022-12-30T11:55:05.336Z</time>
      </trkpt>
      <trkpt lat="44.0889" lon="0.96709">
        <ele>109.860036</ele>
        <time>2022-12-30T11:55:08.336Z</time>
      </trkpt>
      <trkpt lat="44.08886" lon="0.96725">
        <ele>109.843622</ele>
        <time>2022-12-30T11:55:11.334Z</time>
      </trkpt>
      <trkpt lat="44.08881" lon="0.96742">
        <ele>109.826161</ele>
        <time>2022-12-30T11:55:14.337Z</time>
      </trkpt>
      <trkpt lat="44.08878" lon="0.96753">
        <ele>109.808232</ele>
        <time>2022-12-30T11:55:16.339Z</time>
      </trkpt>
      <trkpt lat="44.08873" lon="0.9677">
        <ele>109.780023</ele>
        <time>2022-12-30T11:55:19.336Z</time>
      </trkpt>
      <trkpt lat="44.08868" lon="0.96785">
        <ele>109.752773</ele>
        <time>2022-12-30T11:55:22.337Z</time>
      </trkpt>
      <trkpt lat="44.08864" lon="0.96802">
        <ele>109.7255</ele>
        <time>2022-12-30T11:55:25.347Z</time>
      </trkpt>
      <trkpt lat="44.08859" lon="0.96818">
        <ele>109.697555</ele>
        <time>2022-12-30T11:55:28.337Z</time>
      </trkpt>
      <trkpt lat="44.08856" lon="0.96833">
        <ele>109.671993</ele>
        <time>2022-12-30T11:55:31.326Z</time>
      </trkpt>
      <trkpt lat="44.08851" lon="0.9685">
        <ele>109.643754</ele>
        <time>2022-12-30T11:55:34.348Z</time>
      </trkpt>
      <trkpt lat="44.08846" lon="0.96866">
        <ele>109.616359</ele>
        <time>2022-12-30T11:55:37.337Z</time>
      </trkpt>
      <trkpt lat="44.08842" lon="0.96882">
        <ele>109.589005</ele>
        <time>2022-12-30T11:55:40.335Z</time>
      </trkpt>
      <trkpt lat="44.08838" lon="0.96899">
        <ele>109.561586</ele>
        <time>2022-12-30T11:55:43.341Z</time>
      </trkpt>
      <trkpt lat="44.08833" lon="0.96913">
        <ele>109.53704</ele>
        <time>2022-12-30T11:55:46.339Z</time>
      </trkpt>
      <trkpt lat="44.0883" lon="0.96926">
        <ele>109.514081</ele>
        <time>2022-12-30T11:55:49.336Z</time>
      </trkpt>
      <trkpt lat="44.08826" lon="0.9694">
        <ele>109.490372</ele>
        <time>2022-12-30T11:55:52.338Z</time>
      </trkpt>
      <trkpt lat="44.08821" lon="0.96955">
        <ele>109.465302</ele>
        <time>2022-12-30T11:55:55.340Z</time>
      </trkpt>
      <trkpt lat="44.08817" lon="0.96969">
        <ele>109.440961</ele>
        <time>2022-12-30T11:55:58.347Z</time>
      </trkpt>
      <trkpt lat="44.08813" lon="0.9698">
        <ele>109.446701</ele>
        <time>2022-12-30T11:56:01.342Z</time>
      </trkpt>
      <trkpt lat="44.08805" lon="0.96989">
        <ele>109.530081</ele>
        <time>2022-12-30T11:56:05.341Z</time>
      </trkpt>
      <trkpt lat="44.08799" lon="0.97002">
        <ele>109.61972</ele>
        <time>2022-12-30T11:56:08.346Z</time>
      </trkpt>
      <trkpt lat="44.08794" lon="0.97019">
        <ele>109.726037</ele>
        <time>2022-12-30T11:56:11.346Z</time>
      </trkpt>
      <trkpt lat="44.08788" lon="0.97035">
        <ele>109.83076</ele>
        <time>2022-12-30T11:56:14.341Z</time>
      </trkpt>
      <trkpt lat="44.08783" lon="0.9705">
        <ele>109.929162</ele>
        <time>2022-12-30T11:56:17.324Z</time>
      </trkpt>
      <trkpt lat="44.08779" lon="0.97064">
        <ele>110.017118</ele>
        <time>2022-12-30T11:56:20.336Z</time>
      </trkpt>
      <trkpt lat="44.08775" lon="0.97076">
        <ele>110.095449</ele>
        <time>2022-12-30T11:56:23.338Z</time>
      </trkpt>
      <trkpt lat="44.08772" lon="0.97089">
        <ele>110.175648</ele>
        <time>2022-12-30T11:56:26.334Z</time>
      </trkpt>
      <trkpt lat="44.08768" lon="0.97102">
        <ele>110.257005</ele>
        <time>2022-12-30T11:56:29.348Z</time>
      </trkpt>
      <trkpt lat="44.08764" lon="0.97115">
        <ele>110.340079</ele>
        <time>2022-12-30T11:56:32.338Z</time>
      </trkpt>
      <trkpt lat="44.08759" lon="0.97128">
        <ele>110.427696</ele>
        <time>2022-12-30T11:56:35.320Z</time>
      </trkpt>
      <trkpt lat="44.08755" lon="0.97142">
        <ele>110.513576</ele>
        <time>2022-12-30T11:56:38.346Z</time>
      </trkpt>
      <trkpt lat="44.0875" lon="0.97155">
        <ele>110.599815</ele>
        <time>2022-12-30T11:56:41.338Z</time>
      </trkpt>
      <trkpt lat="44.08745" lon="0.97167">
        <ele>110.685586</ele>
        <time>2022-12-30T11:56:44.350Z</time>
      </trkpt>
      <trkpt lat="44.0874" lon="0.9718">
        <ele>110.772866</ele>
        <time>2022-12-30T11:56:48.347Z</time>
      </trkpt>
      <trkpt lat="44.08735" lon="0.97192">
        <ele>110.853342</ele>
        <time>2022-12-30T11:56:52.348Z</time>
      </trkpt>
      <trkpt lat="44.08729" lon="0.97206">
        <ele>110.883937</ele>
        <time>2022-12-30T11:56:56.336Z</time>
      </trkpt>
      <trkpt lat="44.08724" lon="0.97217">
        <ele>110.864241</ele>
        <time>2022-12-30T11:56:59.339Z</time>
      </trkpt>
      <trkpt lat="44.08719" lon="0.97228">
        <ele>110.843634</ele>
        <time>2022-12-30T11:57:02.350Z</time>
      </trkpt>
      <trkpt lat="44.08713" lon="0.9724">
        <ele>110.822165</ele>
        <time>2022-12-30T11:57:05.350Z</time>
      </trkpt>
      <trkpt lat="44.08707" lon="0.97251">
        <ele>110.800691</ele>
        <time>2022-12-30T11:57:08.347Z</time>
      </trkpt>
      <trkpt lat="44.087" lon="0.97262">
        <ele>110.780297</ele>
        <time>2022-12-30T11:57:11.347Z</time>
      </trkpt>
      <trkpt lat="44.08694" lon="0.97272">
        <ele>110.760575</ele>
        <time>2022-12-30T11:57:14.341Z</time>
      </trkpt>
      <trkpt lat="44.08687" lon="0.97283">
        <ele>110.737902</ele>
        <time>2022-12-30T11:57:17.335Z</time>
      </trkpt>
      <trkpt lat="44.0868" lon="0.97296">
        <ele>110.713189</ele>
        <time>2022-12-30T11:57:20.338Z</time>
      </trkpt>
      <trkpt lat="44.08672" lon="0.97308">
        <ele>110.688636</ele>
        <time>2022-12-30T11:57:23.337Z</time>
      </trkpt>
      <trkpt lat="44.08664" lon="0.9732">
        <ele>110.663672</ele>
        <time>2022-12-30T11:57:26.337Z</time>
      </trkpt>
      <trkpt lat="44.08657" lon="0.97333">
        <ele>110.63894</ele>
        <time>2022-12-30T11:57:29.337Z</time>
      </trkpt>
      <trkpt lat="44.0865" lon="0.97343">
        <ele>110.618279</ele>
        <time>2022-12-30T11:57:32.340Z</time>
      </trkpt>
      <trkpt lat="44.08645" lon="0.97353">
        <ele>110.599334</ele>
        <time>2022-12-30T11:57:35.349Z</time>
      </trkpt>
      <trkpt lat="44.08638" lon="0.97363">
        <ele>110.578095</ele>
        <time>2022-12-30T11:57:38.338Z</time>
      </trkpt>
      <trkpt lat="44.0863" lon="0.97375">
        <ele>110.554749</ele>
        <time>2022-12-30T11:57:41.348Z</time>
      </trkpt>
      <trkpt lat="44.08622" lon="0.97387">
        <ele>110.530277</ele>
        <time>2022-12-30T11:57:44.337Z</time>
      </trkpt>
      <trkpt lat="44.08615" lon="0.97399">
        <ele>110.476212</ele>
        <time>2022-12-30T11:57:47.346Z</time>
      </trkpt>
      <trkpt lat="44.08607" lon="0.97411">
        <ele>110.395782</ele>
        <time>2022-12-30T11:57:50.336Z</time>
      </trkpt>
      <trkpt lat="44.08599" lon="0.97423">
        <ele>110.315908</ele>
        <time>2022-12-30T11:57:53.346Z</time>
      </trkpt>
      <trkpt lat="44.08592" lon="0.97435">
        <ele>110.234365</ele>
        <time>2022-12-30T11:57:56.346Z</time>
      </trkpt>
      <trkpt lat="44.08584" lon="0.97447">
        <ele>110.154079</ele>
        <time>2022-12-30T11:57:59.346Z</time>
      </trkpt>
      <trkpt lat="44.08576" lon="0.97459">
        <ele>110.070399</ele>
        <time>2022-12-30T11:58:02.347Z</time>
      </trkpt>
      <trkpt lat="44.08568" lon="0.97471">
        <ele>109.988021</ele>
        <time>2022-12-30T11:58:05.336Z</time>
      </trkpt>
      <trkpt lat="44.08559" lon="0.97483">
        <ele>109.904967</ele>
        <time>2022-12-30T11:58:08.338Z</time>
      </trkpt>
      <trkpt lat="44.08551" lon="0.97496">
        <ele>109.819799</ele>
        <time>2022-12-30T11:58:11.348Z</time>
      </trkpt>
      <trkpt lat="44.08543" lon="0.97509">
        <ele>109.733973</ele>
        <time>2022-12-30T11:58:14.336Z</time>
      </trkpt>
      <trkpt lat="44.08535" lon="0.97521">
        <ele>109.651966</ele>
        <time>2022-12-30T11:58:17.346Z</time>
      </trkpt>
      <trkpt lat="44.08527" lon="0.97533">
        <ele>109.571257</ele>
        <time>2022-12-30T11:58:20.336Z</time>
      </trkpt>
      <trkpt lat="44.0852" lon="0.97545">
        <ele>109.492591</ele>
        <time>2022-12-30T11:58:23.342Z</time>
      </trkpt>
      <trkpt lat="44.08511" lon="0.97555">
        <ele>109.414458</ele>
        <time>2022-12-30T11:58:26.348Z</time>
      </trkpt>
      <trkpt lat="44.08504" lon="0.97566">
        <ele>109.339214</ele>
        <time>2022-12-30T11:58:29.345Z</time>
      </trkpt>
      <trkpt lat="44.08496" lon="0.97579">
        <ele>109.257767</ele>
        <time>2022-12-30T11:58:32.319Z</time>
      </trkpt>
      <trkpt lat="44.08488" lon="0.9759">
        <ele>109.185313</ele>
        <time>2022-12-30T11:58:35.347Z</time>
      </trkpt>
      <trkpt lat="44.08481" lon="0.97601">
        <ele>109.11551</ele>
        <time>2022-12-30T11:58:39.340Z</time>
      </trkpt>
      <trkpt lat="44.08474" lon="0.97612">
        <ele>109.048038</ele>
        <time>2022-12-30T11:58:42.338Z</time>
      </trkpt>
      <trkpt lat="44.08469" lon="0.97622">
        <ele>108.990383</ele>
        <time>2022-12-30T11:58:44.339Z</time>
      </trkpt>
      <trkpt lat="44.08462" lon="0.97632">
        <ele>108.928096</ele>
        <time>2022-12-30T11:58:46.341Z</time>
      </trkpt>
      <trkpt lat="44.08456" lon="0.97643">
        <ele>108.865097</ele>
        <time>2022-12-30T11:58:48.349Z</time>
      </trkpt>
      <trkpt lat="44.0845" lon="0.97654">
        <ele>108.799452</ele>
        <time>2022-12-30T11:58:50.337Z</time>
      </trkpt>
      <trkpt lat="44.08445" lon="0.97665">
        <ele>108.739848</ele>
        <time>2022-12-30T11:58:52.323Z</time>
      </trkpt>
      <trkpt lat="44.0844" lon="0.97675">
        <ele>108.682141</ele>
        <time>2022-12-30T11:58:54.345Z</time>
      </trkpt>
      <trkpt lat="44.08434" lon="0.97689">
        <ele>108.608376</ele>
        <time>2022-12-30T11:58:57.322Z</time>
      </trkpt>
      <trkpt lat="44.08429" lon="0.977">
        <ele>108.548455</ele>
        <time>2022-12-30T11:59:00.347Z</time>
      </trkpt>
      <trkpt lat="44.08424" lon="0.97712">
        <ele>108.486174</ele>
        <time>2022-12-30T11:59:03.338Z</time>
      </trkpt>
      <trkpt lat="44.0842" lon="0.97724">
        <ele>108.42421</ele>
        <time>2022-12-30T11:59:06.336Z</time>
      </trkpt>
      <trkpt lat="44.08416" lon="0.97736">
        <ele>108.361294</ele>
        <time>2022-12-30T11:59:09.345Z</time>
      </trkpt>
      <trkpt lat="44.08412" lon="0.97749">
        <ele>108.297694</ele>
        <time>2022-12-30T11:59:12.343Z</time>
      </trkpt>
      <trkpt lat="44.08407" lon="0.97762">
        <ele>108.23188</ele>
        <time>2022-12-30T11:59:15.337Z</time>
      </trkpt>
      <trkpt lat="44.08404" lon="0.97775">
        <ele>108.167901</ele>
        <time>2022-12-30T11:59:18.340Z</time>
      </trkpt>
      <trkpt lat="44.084" lon="0.97787">
        <ele>108.136986</ele>
        <time>2022-12-30T11:59:21.339Z</time>
      </trkpt>
      <trkpt lat="44.08396" lon="0.978">
        <ele>108.270004</ele>
        <time>2022-12-30T11:59:24.342Z</time>
      </trkpt>
      <trkpt lat="44.08394" lon="0.97813">
        <ele>108.400679</ele>
        <time>2022-12-30T11:59:27.341Z</time>
      </trkpt>
      <trkpt lat="44.08391" lon="0.97826">
        <ele>108.525772</ele>
        <time>2022-12-30T11:59:30.342Z</time>
      </trkpt>
      <trkpt lat="44.08388" lon="0.97838">
        <ele>108.650577</ele>
        <time>2022-12-30T11:59:33.348Z</time>
      </trkpt>
      <trkpt lat="44.08387" lon="0.97851">
        <ele>108.776161</ele>
        <time>2022-12-30T11:59:36.343Z</time>
      </trkpt>
      <trkpt lat="44.08385" lon="0.97863">
        <ele>108.897427</ele>
        <time>2022-12-30T11:59:39.341Z</time>
      </trkpt>
      <trkpt lat="44.08382" lon="0.97879">
        <ele>109.054209</ele>
        <time>2022-12-30T11:59:43.344Z</time>
      </trkpt>
      <trkpt lat="44.08379" lon="0.97895">
        <ele>109.2111</ele>
        <time>2022-12-30T11:59:47.338Z</time>
      </trkpt>
      <trkpt lat="44.08377" lon="0.97909">
        <ele>109.349406</ele>
        <time>2022-12-30T11:59:51.340Z</time>
      </trkpt>
      <trkpt lat="44.08375" lon="0.97922">
        <ele>109.482296</ele>
        <time>2022-12-30T11:59:55.327Z</time>
      </trkpt>
      <trkpt lat="44.08373" lon="0.97935">
        <ele>109.6089</ele>
        <time>2022-12-30T11:59:59.338Z</time>
      </trkpt>
      <trkpt lat="44.0837" lon="0.97948">
        <ele>109.736975</ele>
        <time>2022-12-30T12:00:04.346Z</time>
      </trkpt>
      <trkpt lat="44.08368" lon="0.97962">
        <ele>109.876745</ele>
        <time>2022-12-30T12:00:09.346Z</time>
      </trkpt>
      <trkpt lat="44.08365" lon="0.97978">
        <ele>110.035836</ele>
        <time>2022-12-30T12:00:13.347Z</time>
      </trkpt>
      <trkpt lat="44.08364" lon="0.97995">
        <ele>110.202438</ele>
        <time>2022-12-30T12:00:16.336Z</time>
      </trkpt>
      <trkpt lat="44.08362" lon="0.98007">
        <ele>110.322716</ele>
        <time>2022-12-30T12:00:18.337Z</time>
      </trkpt>
      <trkpt lat="44.0836" lon="0.98022">
        <ele>110.464814</ele>
        <time>2022-12-30T12:00:20.338Z</time>
      </trkpt>
      <trkpt lat="44.08358" lon="0.98037">
        <ele>110.598596</ele>
        <time>2022-12-30T12:00:22.337Z</time>
      </trkpt>
      <trkpt lat="44.08355" lon="0.98051">
        <ele>110.717265</ele>
        <time>2022-12-30T12:00:24.348Z</time>
      </trkpt>
      <trkpt lat="44.08351" lon="0.98069">
        <ele>110.86383</ele>
        <time>2022-12-30T12:00:27.344Z</time>
      </trkpt>
      <trkpt lat="44.08348" lon="0.98085">
        <ele>110.995032</ele>
        <time>2022-12-30T12:00:30.338Z</time>
      </trkpt>
      <trkpt lat="44.08347" lon="0.98099">
        <ele>111.110088</ele>
        <time>2022-12-30T12:00:33.345Z</time>
      </trkpt>
      <trkpt lat="44.08345" lon="0.98112">
        <ele>111.216483</ele>
        <time>2022-12-30T12:00:36.336Z</time>
      </trkpt>
      <trkpt lat="44.08344" lon="0.98128">
        <ele>111.348825</ele>
        <time>2022-12-30T12:00:40.347Z</time>
      </trkpt>
      <trkpt lat="44.08344" lon="0.98143">
        <ele>111.461522</ele>
        <time>2022-12-30T12:00:43.342Z</time>
      </trkpt>
      <trkpt lat="44.08344" lon="0.98158">
        <ele>111.581427</ele>
        <time>2022-12-30T12:00:46.347Z</time>
      </trkpt>
      <trkpt lat="44.08344" lon="0.98173">
        <ele>111.704755</ele>
        <time>2022-12-30T12:00:49.339Z</time>
      </trkpt>
      <trkpt lat="44.08345" lon="0.98189">
        <ele>111.835263</ele>
        <time>2022-12-30T12:00:52.336Z</time>
      </trkpt>
      <trkpt lat="44.08347" lon="0.98206">
        <ele>111.966602</ele>
        <time>2022-12-30T12:00:55.332Z</time>
      </trkpt>
      <trkpt lat="44.08349" lon="0.98222">
        <ele>112.09849</ele>
        <time>2022-12-30T12:00:58.341Z</time>
      </trkpt>
      <trkpt lat="44.08352" lon="0.98238">
        <ele>112.231474</ele>
        <time>2022-12-30T12:01:01.342Z</time>
      </trkpt>
      <trkpt lat="44.08354" lon="0.98255">
        <ele>112.369942</ele>
        <time>2022-12-30T12:01:04.336Z</time>
      </trkpt>
      <trkpt lat="44.08357" lon="0.98271">
        <ele>112.503754</ele>
        <time>2022-12-30T12:01:07.347Z</time>
      </trkpt>
      <trkpt lat="44.08359" lon="0.98287">
        <ele>112.579104</ele>
        <time>2022-12-30T12:01:10.322Z</time>
      </trkpt>
      <trkpt lat="44.08361" lon="0.98302">
        <ele>112.634269</ele>
        <time>2022-12-30T12:01:13.348Z</time>
      </trkpt>
      <trkpt lat="44.08363" lon="0.98317">
        <ele>112.689877</ele>
        <time>2022-12-30T12:01:16.330Z</time>
      </trkpt>
      <trkpt lat="44.08366" lon="0.9833">
        <ele>112.742587</ele>
        <time>2022-12-30T12:01:19.353Z</time>
      </trkpt>
      <trkpt lat="44.08369" lon="0.98345">
        <ele>112.797717</ele>
        <time>2022-12-30T12:01:22.342Z</time>
      </trkpt>
      <trkpt lat="44.08373" lon="0.9836">
        <ele>112.856477</ele>
        <time>2022-12-30T12:01:25.348Z</time>
      </trkpt>
      <trkpt lat="44.08376" lon="0.98375">
        <ele>112.916806</ele>
        <time>2022-12-30T12:01:28.330Z</time>
      </trkpt>
      <trkpt lat="44.08381" lon="0.9839">
        <ele>112.976552</ele>
        <time>2022-12-30T12:01:31.345Z</time>
      </trkpt>
      <trkpt lat="44.08385" lon="0.98405">
        <ele>113.037929</ele>
        <time>2022-12-30T12:01:34.343Z</time>
      </trkpt>
      <trkpt lat="44.08389" lon="0.9842">
        <ele>113.097231</ele>
        <time>2022-12-30T12:01:37.342Z</time>
      </trkpt>
      <trkpt lat="44.08395" lon="0.98435">
        <ele>113.157655</ele>
        <time>2022-12-30T12:01:40.341Z</time>
      </trkpt>
      <trkpt lat="44.08401" lon="0.98449">
        <ele>113.220666</ele>
        <time>2022-12-30T12:01:43.348Z</time>
      </trkpt>
      <trkpt lat="44.08408" lon="0.98463">
        <ele>113.28356</ele>
        <time>2022-12-30T12:01:46.349Z</time>
      </trkpt>
      <trkpt lat="44.08416" lon="0.98476">
        <ele>113.345087</ele>
        <time>2022-12-30T12:01:49.344Z</time>
      </trkpt>
      <trkpt lat="44.08424" lon="0.98488">
        <ele>113.407074</ele>
        <time>2022-12-30T12:01:52.343Z</time>
      </trkpt>
      <trkpt lat="44.08432" lon="0.98501">
        <ele>113.482633</ele>
        <time>2022-12-30T12:01:55.347Z</time>
      </trkpt>
      <trkpt lat="44.08441" lon="0.98514">
        <ele>113.615764</ele>
        <time>2022-12-30T12:01:58.341Z</time>
      </trkpt>
      <trkpt lat="44.08448" lon="0.98522">
        <ele>113.708782</ele>
        <time>2022-12-30T12:02:00.350Z</time>
      </trkpt>
      <trkpt lat="44.08458" lon="0.98535">
        <ele>113.843989</ele>
        <time>2022-12-30T12:02:03.338Z</time>
      </trkpt>
      <trkpt lat="44.08466" lon="0.98543">
        <ele>113.936282</ele>
        <time>2022-12-30T12:02:05.346Z</time>
      </trkpt>
      <trkpt lat="44.08472" lon="0.98551">
        <ele>114.027291</ele>
        <time>2022-12-30T12:02:07.340Z</time>
      </trkpt>
      <trkpt lat="44.08481" lon="0.98562">
        <ele>114.150649</ele>
        <time>2022-12-30T12:02:10.338Z</time>
      </trkpt>
      <trkpt lat="44.0849" lon="0.98573">
        <ele>114.269542</ele>
        <time>2022-12-30T12:02:13.348Z</time>
      </trkpt>
      <trkpt lat="44.08499" lon="0.98583">
        <ele>114.38278</ele>
        <time>2022-12-30T12:02:16.336Z</time>
      </trkpt>
      <trkpt lat="44.08507" lon="0.98595">
        <ele>114.503501</ele>
        <time>2022-12-30T12:02:19.341Z</time>
      </trkpt>
      <trkpt lat="44.08515" lon="0.98607">
        <ele>114.625258</ele>
        <time>2022-12-30T12:02:22.341Z</time>
      </trkpt>
      <trkpt lat="44.08525" lon="0.9862">
        <ele>114.759964</ele>
        <time>2022-12-30T12:02:25.350Z</time>
      </trkpt>
      <trkpt lat="44.08532" lon="0.98629">
        <ele>114.854151</ele>
        <time>2022-12-30T12:02:27.333Z</time>
      </trkpt>
      <trkpt lat="44.08539" lon="0.98638">
        <ele>114.954005</ele>
        <time>2022-12-30T12:02:29.349Z</time>
      </trkpt>
      <trkpt lat="44.08548" lon="0.98652">
        <ele>115.089598</ele>
        <time>2022-12-30T12:02:32.340Z</time>
      </trkpt>
      <trkpt lat="44.08555" lon="0.98661">
        <ele>115.185115</ele>
        <time>2022-12-30T12:02:34.348Z</time>
      </trkpt>
      <trkpt lat="44.08562" lon="0.9867">
        <ele>115.276014</ele>
        <time>2022-12-30T12:02:36.338Z</time>
      </trkpt>
      <trkpt lat="44.08568" lon="0.98678">
        <ele>115.234378</ele>
        <time>2022-12-30T12:02:38.348Z</time>
      </trkpt>
      <trkpt lat="44.08575" lon="0.98688">
        <ele>115.192755</ele>
        <time>2022-12-30T12:02:40.341Z</time>
      </trkpt>
      <trkpt lat="44.08581" lon="0.98697">
        <ele>115.149837</ele>
        <time>2022-12-30T12:02:42.348Z</time>
      </trkpt>
      <trkpt lat="44.08588" lon="0.98706">
        <ele>115.105495</ele>
        <time>2022-12-30T12:02:44.348Z</time>
      </trkpt>
      <trkpt lat="44.08595" lon="0.98716">
        <ele>115.060758</ele>
        <time>2022-12-30T12:02:46.343Z</time>
      </trkpt>
      <trkpt lat="44.08602" lon="0.98726">
        <ele>115.015138</ele>
        <time>2022-12-30T12:02:48.348Z</time>
      </trkpt>
      <trkpt lat="44.08609" lon="0.98734">
        <ele>114.972503</ele>
        <time>2022-12-30T12:02:50.347Z</time>
      </trkpt>
      <trkpt lat="44.08615" lon="0.98743">
        <ele>114.928566</ele>
        <time>2022-12-30T12:02:52.340Z</time>
      </trkpt>
      <trkpt lat="44.08622" lon="0.98752">
        <ele>114.883675</ele>
        <time>2022-12-30T12:02:54.349Z</time>
      </trkpt>
      <trkpt lat="44.0863" lon="0.98761">
        <ele>114.837848</ele>
        <time>2022-12-30T12:02:56.350Z</time>
      </trkpt>
      <trkpt lat="44.08636" lon="0.9877">
        <ele>114.79542</ele>
        <time>2022-12-30T12:02:58.345Z</time>
      </trkpt>
      <trkpt lat="44.08643" lon="0.9878">
        <ele>114.751389</ele>
        <time>2022-12-30T12:03:00.361Z</time>
      </trkpt>
      <trkpt lat="44.0865" lon="0.98789">
        <ele>114.706042</ele>
        <time>2022-12-30T12:03:02.342Z</time>
      </trkpt>
      <trkpt lat="44.08658" lon="0.98799">
        <ele>114.658548</ele>
        <time>2022-12-30T12:03:04.350Z</time>
      </trkpt>
      <trkpt lat="44.08664" lon="0.98809">
        <ele>114.614517</ele>
        <time>2022-12-30T12:03:06.351Z</time>
      </trkpt>
      <trkpt lat="44.08671" lon="0.98818">
        <ele>114.568254</ele>
        <time>2022-12-30T12:03:08.347Z</time>
      </trkpt>
      <trkpt lat="44.08679" lon="0.98828">
        <ele>114.521667</ele>
        <time>2022-12-30T12:03:10.340Z</time>
      </trkpt>
      <trkpt lat="44.08687" lon="0.98836">
        <ele>114.473382</ele>
        <time>2022-12-30T12:03:12.350Z</time>
      </trkpt>
      <trkpt lat="44.08697" lon="0.98849">
        <ele>114.418649</ele>
        <time>2022-12-30T12:03:15.346Z</time>
      </trkpt>
      <trkpt lat="44.08704" lon="0.98859">
        <ele>114.384723</ele>
        <time>2022-12-30T12:03:17.337Z</time>
      </trkpt>
      <trkpt lat="44.08711" lon="0.98867">
        <ele>114.350621</ele>
        <time>2022-12-30T12:03:19.337Z</time>
      </trkpt>
      <trkpt lat="44.08718" lon="0.98876">
        <ele>114.315007</ele>
        <time>2022-12-30T12:03:21.345Z</time>
      </trkpt>
      <trkpt lat="44.08725" lon="0.98886">
        <ele>114.280505</ele>
        <time>2022-12-30T12:03:23.321Z</time>
      </trkpt>
      <trkpt lat="44.08732" lon="0.98896">
        <ele>114.246619</ele>
        <time>2022-12-30T12:03:25.339Z</time>
      </trkpt>
      <trkpt lat="44.08738" lon="0.98905">
        <ele>114.213598</ele>
        <time>2022-12-30T12:03:27.338Z</time>
      </trkpt>
      <trkpt lat="44.08747" lon="0.98917">
        <ele>114.168069</ele>
        <time>2022-12-30T12:03:30.349Z</time>
      </trkpt>
      <trkpt lat="44.08757" lon="0.98929">
        <ele>114.122188</ele>
        <time>2022-12-30T12:03:33.334Z</time>
      </trkpt>
      <trkpt lat="44.08766" lon="0.98942">
        <ele>114.075869</ele>
        <time>2022-12-30T12:03:36.341Z</time>
      </trkpt>
      <trkpt lat="44.08775" lon="0.98955">
        <ele>114.029261</ele>
        <time>2022-12-30T12:03:39.351Z</time>
      </trkpt>
      <trkpt lat="44.08785" lon="0.98968">
        <ele>113.981921</ele>
        <time>2022-12-30T12:03:42.340Z</time>
      </trkpt>
      <trkpt lat="44.08791" lon="0.98976">
        <ele>113.949472</ele>
        <time>2022-12-30T12:03:44.348Z</time>
      </trkpt>
      <trkpt lat="44.08798" lon="0.98985">
        <ele>113.917116</ele>
        <time>2022-12-30T12:03:46.349Z</time>
      </trkpt>
      <trkpt lat="44.08805" lon="0.98994">
        <ele>113.884932</ele>
        <time>2022-12-30T12:03:48.337Z</time>
      </trkpt>
      <trkpt lat="44.08811" lon="0.99002">
        <ele>113.851878</ele>
        <time>2022-12-30T12:03:50.336Z</time>
      </trkpt>
      <trkpt lat="44.08818" lon="0.99011">
        <ele>113.818564</ele>
        <time>2022-12-30T12:03:52.347Z</time>
      </trkpt>
      <trkpt lat="44.08828" lon="0.99024">
        <ele>113.614126</ele>
        <time>2022-12-30T12:03:55.347Z</time>
      </trkpt>
      <trkpt lat="44.08834" lon="0.99033">
        <ele>113.423343</ele>
        <time>2022-12-30T12:03:57.338Z</time>
      </trkpt>
      <trkpt lat="44.08841" lon="0.99042">
        <ele>113.224752</ele>
        <time>2022-12-30T12:03:59.349Z</time>
      </trkpt>
      <trkpt lat="44.08848" lon="0.99051">
        <ele>113.024212</ele>
        <time>2022-12-30T12:04:01.347Z</time>
      </trkpt>
      <trkpt lat="44.08855" lon="0.9906">
        <ele>112.830361</ele>
        <time>2022-12-30T12:04:03.351Z</time>
      </trkpt>
      <trkpt lat="44.08865" lon="0.99073">
        <ele>112.546082</ele>
        <time>2022-12-30T12:04:06.349Z</time>
      </trkpt>
      <trkpt lat="44.08871" lon="0.99082">
        <ele>112.353771</ele>
        <time>2022-12-30T12:04:08.341Z</time>
      </trkpt>
      <trkpt lat="44.0888" lon="0.99094">
        <ele>112.097424</ele>
        <time>2022-12-30T12:04:11.348Z</time>
      </trkpt>
      <trkpt lat="44.08887" lon="0.99106">
        <ele>111.855321</ele>
        <time>2022-12-30T12:04:14.344Z</time>
      </trkpt>
      <trkpt lat="44.08895" lon="0.99116">
        <ele>111.632215</ele>
        <time>2022-12-30T12:04:17.347Z</time>
      </trkpt>
      <trkpt lat="44.08904" lon="0.99126">
        <ele>111.387667</ele>
        <time>2022-12-30T12:04:20.348Z</time>
      </trkpt>
      <trkpt lat="44.08913" lon="0.99138">
        <ele>111.128652</ele>
        <time>2022-12-30T12:04:23.343Z</time>
      </trkpt>
      <trkpt lat="44.08922" lon="0.9915">
        <ele>110.869638</ele>
        <time>2022-12-30T12:04:26.348Z</time>
      </trkpt>
      <trkpt lat="44.08931" lon="0.99163">
        <ele>110.599582</ele>
        <time>2022-12-30T12:04:29.321Z</time>
      </trkpt>
      <trkpt lat="44.08939" lon="0.99177">
        <ele>110.323826</ele>
        <time>2022-12-30T12:04:32.339Z</time>
      </trkpt>
      <trkpt lat="44.08947" lon="0.99192">
        <ele>110.049255</ele>
        <time>2022-12-30T12:04:35.340Z</time>
      </trkpt>
      <trkpt lat="44.08953" lon="0.99206">
        <ele>109.796567</ele>
        <time>2022-12-30T12:04:38.350Z</time>
      </trkpt>
      <trkpt lat="44.08961" lon="0.99223">
        <ele>109.499867</ele>
        <time>2022-12-30T12:04:41.347Z</time>
      </trkpt>
      <trkpt lat="44.08967" lon="0.99236">
        <ele>109.264479</ele>
        <time>2022-12-30T12:04:44.346Z</time>
      </trkpt>
      <trkpt lat="44.08973" lon="0.99252">
        <ele>108.99088</ele>
        <time>2022-12-30T12:04:47.347Z</time>
      </trkpt>
      <trkpt lat="44.08977" lon="0.99263">
        <ele>108.79665</ele>
        <time>2022-12-30T12:04:49.338Z</time>
      </trkpt>
      <trkpt lat="44.08982" lon="0.99275">
        <ele>108.599918</ele>
        <time>2022-12-30T12:04:51.347Z</time>
      </trkpt>
      <trkpt lat="44.08989" lon="0.9929">
        <ele>108.327681</ele>
        <time>2022-12-30T12:04:54.350Z</time>
      </trkpt>
      <trkpt lat="44.08993" lon="0.99301">
        <ele>108.133585</ele>
        <time>2022-12-30T12:04:56.342Z</time>
      </trkpt>
      <trkpt lat="44.08998" lon="0.99314">
        <ele>107.919082</ele>
        <time>2022-12-30T12:04:58.326Z</time>
      </trkpt>
      <trkpt lat="44.09003" lon="0.99325">
        <ele>107.717556</ele>
        <time>2022-12-30T12:05:00.348Z</time>
      </trkpt>
      <trkpt lat="44.09008" lon="0.99337">
        <ele>107.506155</ele>
        <time>2022-12-30T12:05:02.336Z</time>
      </trkpt>
      <trkpt lat="44.09012" lon="0.99353">
        <ele>107.259087</ele>
        <time>2022-12-30T12:05:05.347Z</time>
      </trkpt>
      <trkpt lat="44.09017" lon="0.99369">
        <ele>107.001923</ele>
        <time>2022-12-30T12:05:08.346Z</time>
      </trkpt>
      <trkpt lat="44.09021" lon="0.99383">
        <ele>106.764709</ele>
        <time>2022-12-30T12:05:11.337Z</time>
      </trkpt>
      <trkpt lat="44.09026" lon="0.99398">
        <ele>106.521459</ele>
        <time>2022-12-30T12:05:14.321Z</time>
      </trkpt>
      <trkpt lat="44.09029" lon="0.99413">
        <ele>106.275736</ele>
        <time>2022-12-30T12:05:17.347Z</time>
      </trkpt>
      <trkpt lat="44.09034" lon="0.99429">
        <ele>106.399943</ele>
        <time>2022-12-30T12:05:20.342Z</time>
      </trkpt>
      <trkpt lat="44.09036" lon="0.99447">
        <ele>106.574948</ele>
        <time>2022-12-30T12:05:23.320Z</time>
      </trkpt>
      <trkpt lat="44.09038" lon="0.99465">
        <ele>106.753584</ele>
        <time>2022-12-30T12:05:26.321Z</time>
      </trkpt>
      <trkpt lat="44.09039" lon="0.99482">
        <ele>106.927512</ele>
        <time>2022-12-30T12:05:29.332Z</time>
      </trkpt>
      <trkpt lat="44.0904" lon="0.995">
        <ele>107.104101</ele>
        <time>2022-12-30T12:05:32.336Z</time>
      </trkpt>
      <trkpt lat="44.09041" lon="0.99518">
        <ele>107.277837</ele>
        <time>2022-12-30T12:05:35.339Z</time>
      </trkpt>
      <trkpt lat="44.09041" lon="0.99536">
        <ele>107.453321</ele>
        <time>2022-12-30T12:05:38.325Z</time>
      </trkpt>
      <trkpt lat="44.09043" lon="0.99551">
        <ele>107.602774</ele>
        <time>2022-12-30T12:05:41.349Z</time>
      </trkpt>
      <trkpt lat="44.09045" lon="0.99567">
        <ele>107.764765</ele>
        <time>2022-12-30T12:05:44.348Z</time>
      </trkpt>
      <trkpt lat="44.09047" lon="0.99584">
        <ele>107.932053</ele>
        <time>2022-12-30T12:05:47.327Z</time>
      </trkpt>
      <trkpt lat="44.0905" lon="0.996">
        <ele>108.095051</ele>
        <time>2022-12-30T12:05:50.348Z</time>
      </trkpt>
      <trkpt lat="44.09052" lon="0.99617">
        <ele>108.264031</ele>
        <time>2022-12-30T12:05:53.348Z</time>
      </trkpt>
      <trkpt lat="44.09054" lon="0.99634">
        <ele>108.431202</ele>
        <time>2022-12-30T12:05:56.345Z</time>
      </trkpt>
      <trkpt lat="44.09056" lon="0.99653">
        <ele>108.615611</ele>
        <time>2022-12-30T12:05:59.337Z</time>
      </trkpt>
      <trkpt lat="44.09059" lon="0.99671">
        <ele>108.791603</ele>
        <time>2022-12-30T12:06:02.350Z</time>
      </trkpt>
      <trkpt lat="44.09061" lon="0.99688">
        <ele>108.962678</ele>
        <time>2022-12-30T12:06:05.339Z</time>
      </trkpt>
      <trkpt lat="44.09064" lon="0.99706">
        <ele>109.134012</ele>
        <time>2022-12-30T12:06:08.342Z</time>
      </trkpt>
      <trkpt lat="44.09065" lon="0.99722">
        <ele>109.284833</ele>
        <time>2022-12-30T12:06:11.342Z</time>
      </trkpt>
      <trkpt lat="44.09067" lon="0.99736">
        <ele>109.424703</ele>
        <time>2022-12-30T12:06:14.338Z</time>
      </trkpt>
      <trkpt lat="44.09068" lon="0.9975">
        <ele>109.553121</ele>
        <time>2022-12-30T12:06:17.319Z</time>
      </trkpt>
      <trkpt lat="44.0907" lon="0.99764">
        <ele>109.694077</ele>
        <time>2022-12-30T12:06:20.339Z</time>
      </trkpt>
      <trkpt lat="44.09072" lon="0.99779">
        <ele>109.837829</ele>
        <time>2022-12-30T12:06:23.349Z</time>
      </trkpt>
      <trkpt lat="44.09075" lon="0.99796">
        <ele>109.99803</ele>
        <time>2022-12-30T12:06:26.327Z</time>
      </trkpt>
      <trkpt lat="44.09076" lon="0.99812">
        <ele>110.151232</ele>
        <time>2022-12-30T12:06:29.327Z</time>
      </trkpt>
      <trkpt lat="44.09079" lon="0.99829">
        <ele>110.312747</ele>
        <time>2022-12-30T12:06:32.334Z</time>
      </trkpt>
      <trkpt lat="44.09081" lon="0.99845">
        <ele>110.471439</ele>
        <time>2022-12-30T12:06:35.344Z</time>
      </trkpt>
      <trkpt lat="44.09083" lon="0.99862">
        <ele>110.636896</ele>
        <time>2022-12-30T12:06:38.349Z</time>
      </trkpt>
      <trkpt lat="44.09084" lon="0.9988">
        <ele>110.81001</ele>
        <time>2022-12-30T12:06:41.348Z</time>
      </trkpt>
      <trkpt lat="44.09087" lon="0.99898">
        <ele>110.981528</ele>
        <time>2022-12-30T12:06:44.338Z</time>
      </trkpt>
      <trkpt lat="44.09089" lon="0.99915">
        <ele>111.094644</ele>
        <time>2022-12-30T12:06:47.346Z</time>
      </trkpt>
      <trkpt lat="44.09092" lon="0.99932">
        <ele>111.133245</ele>
        <time>2022-12-30T12:06:50.347Z</time>
      </trkpt>
      <trkpt lat="44.09095" lon="0.9995">
        <ele>111.171695</ele>
        <time>2022-12-30T12:06:53.348Z</time>
      </trkpt>
      <trkpt lat="44.09097" lon="0.99965">
        <ele>111.206529</ele>
        <time>2022-12-30T12:06:56.349Z</time>
      </trkpt>
      <trkpt lat="44.09099" lon="0.9998">
        <ele>111.239855</ele>
        <time>2022-12-30T12:06:59.355Z</time>
      </trkpt>
      <trkpt lat="44.091" lon="0.99996">
        <ele>111.275041</ele>
        <time>2022-12-30T12:07:02.337Z</time>
      </trkpt>
      <trkpt lat="44.09102" lon="1.00012">
        <ele>111.31095</ele>
        <time>2022-12-30T12:07:05.346Z</time>
      </trkpt>
      <trkpt lat="44.09104" lon="1.00028">
        <ele>111.346205</ele>
        <time>2022-12-30T12:07:08.350Z</time>
      </trkpt>
      <trkpt lat="44.09106" lon="1.00044">
        <ele>111.382382</ele>
        <time>2022-12-30T12:07:11.346Z</time>
      </trkpt>
      <trkpt lat="44.09108" lon="1.0006">
        <ele>111.418018</ele>
        <time>2022-12-30T12:07:14.349Z</time>
      </trkpt>
      <trkpt lat="44.0911" lon="1.00075">
        <ele>111.451345</ele>
        <time>2022-12-30T12:07:17.342Z</time>
      </trkpt>
      <trkpt lat="44.09112" lon="1.00089">
        <ele>111.484331</ele>
        <time>2022-12-30T12:07:20.339Z</time>
      </trkpt>
      <trkpt lat="44.09114" lon="1.00105">
        <ele>111.519535</ele>
        <time>2022-12-30T12:07:23.349Z</time>
      </trkpt>
      <trkpt lat="44.09116" lon="1.00121">
        <ele>111.555278</ele>
        <time>2022-12-30T12:07:26.344Z</time>
      </trkpt>
      <trkpt lat="44.09118" lon="1.00137">
        <ele>111.591485</ele>
        <time>2022-12-30T12:07:29.346Z</time>
      </trkpt>
      <trkpt lat="44.0912" lon="1.00154">
        <ele>111.627611</ele>
        <time>2022-12-30T12:07:32.340Z</time>
      </trkpt>
      <trkpt lat="44.09122" lon="1.00168">
        <ele>111.54643</ele>
        <time>2022-12-30T12:07:35.339Z</time>
      </trkpt>
      <trkpt lat="44.09124" lon="1.00183">
        <ele>111.45942</ele>
        <time>2022-12-30T12:07:38.328Z</time>
      </trkpt>
      <trkpt lat="44.09126" lon="1.00199">
        <ele>111.362253</ele>
        <time>2022-12-30T12:07:41.334Z</time>
      </trkpt>
      <trkpt lat="44.09127" lon="1.00216">
        <ele>111.263343</ele>
        <time>2022-12-30T12:07:44.328Z</time>
      </trkpt>
      <trkpt lat="44.0913" lon="1.00233">
        <ele>111.163882</ele>
        <time>2022-12-30T12:07:47.347Z</time>
      </trkpt>
      <trkpt lat="44.09132" lon="1.0025">
        <ele>111.061433</ele>
        <time>2022-12-30T12:07:50.341Z</time>
      </trkpt>
      <trkpt lat="44.09135" lon="1.00266">
        <ele>110.966951</ele>
        <time>2022-12-30T12:07:53.348Z</time>
      </trkpt>
      <trkpt lat="44.09136" lon="1.00282">
        <ele>110.867344</ele>
        <time>2022-12-30T12:07:56.342Z</time>
      </trkpt>
      <trkpt lat="44.09139" lon="1.003">
        <ele>110.762293</ele>
        <time>2022-12-30T12:07:59.322Z</time>
      </trkpt>
      <trkpt lat="44.09141" lon="1.00317">
        <ele>110.659266</ele>
        <time>2022-12-30T12:08:02.338Z</time>
      </trkpt>
      <trkpt lat="44.09143" lon="1.00334">
        <ele>110.561852</ele>
        <time>2022-12-30T12:08:05.346Z</time>
      </trkpt>
      <trkpt lat="44.09144" lon="1.00351">
        <ele>110.457239</ele>
        <time>2022-12-30T12:08:08.346Z</time>
      </trkpt>
      <trkpt lat="44.09147" lon="1.00366">
        <ele>110.369349</ele>
        <time>2022-12-30T12:08:11.349Z</time>
      </trkpt>
      <trkpt lat="44.09148" lon="1.0038">
        <ele>110.285799</ele>
        <time>2022-12-30T12:08:14.355Z</time>
      </trkpt>
      <trkpt lat="44.09151" lon="1.00395">
        <ele>110.194358</ele>
        <time>2022-12-30T12:08:17.321Z</time>
      </trkpt>
      <trkpt lat="44.09152" lon="1.00413">
        <ele>110.213014</ele>
        <time>2022-12-30T12:08:20.341Z</time>
      </trkpt>
      <trkpt lat="44.09155" lon="1.00429">
        <ele>110.28766</ele>
        <time>2022-12-30T12:08:23.350Z</time>
      </trkpt>
      <trkpt lat="44.09158" lon="1.00443">
        <ele>110.352844</ele>
        <time>2022-12-30T12:08:26.348Z</time>
      </trkpt>
      <trkpt lat="44.09159" lon="1.00457">
        <ele>110.415369</ele>
        <time>2022-12-30T12:08:29.334Z</time>
      </trkpt>
      <trkpt lat="44.09161" lon="1.00471">
        <ele>110.476912</ele>
        <time>2022-12-30T12:08:32.349Z</time>
      </trkpt>
      <trkpt lat="44.09162" lon="1.00486">
        <ele>110.541475</ele>
        <time>2022-12-30T12:08:35.351Z</time>
      </trkpt>
      <trkpt lat="44.09161" lon="1.00499">
        <ele>110.598974</ele>
        <time>2022-12-30T12:08:38.347Z</time>
      </trkpt>
      <trkpt lat="44.0916" lon="1.00512">
        <ele>110.656189</ele>
        <time>2022-12-30T12:08:41.340Z</time>
      </trkpt>
      <trkpt lat="44.0916" lon="1.00525">
        <ele>110.713846</ele>
        <time>2022-12-30T12:08:44.341Z</time>
      </trkpt>
      <trkpt lat="44.09158" lon="1.00538">
        <ele>110.774119</ele>
        <time>2022-12-30T12:08:47.342Z</time>
      </trkpt>
      <trkpt lat="44.09156" lon="1.00553">
        <ele>110.840312</ele>
        <time>2022-12-30T12:08:50.351Z</time>
      </trkpt>
      <trkpt lat="44.09153" lon="1.00567">
        <ele>110.907416</ele>
        <time>2022-12-30T12:08:54.350Z</time>
      </trkpt>
      <trkpt lat="44.0915" lon="1.0058">
        <ele>110.965771</ele>
        <time>2022-12-30T12:08:59.342Z</time>
      </trkpt>
      <trkpt lat="44.09149" lon="1.00593">
        <ele>111.022013</ele>
        <time>2022-12-30T12:09:03.347Z</time>
      </trkpt>
      <trkpt lat="44.09149" lon="1.00606">
        <ele>111.083439</ele>
        <time>2022-12-30T12:09:06.344Z</time>
      </trkpt>
      <trkpt lat="44.09149" lon="1.00621">
        <ele>111.149292</ele>
        <time>2022-12-30T12:09:09.349Z</time>
      </trkpt>
      <trkpt lat="44.09149" lon="1.00635">
        <ele>111.21035</ele>
        <time>2022-12-30T12:09:12.319Z</time>
      </trkpt>
      <trkpt lat="44.09147" lon="1.0065">
        <ele>111.273679</ele>
        <time>2022-12-30T12:09:16.348Z</time>
      </trkpt>
      <trkpt lat="44.09145" lon="1.00665">
        <ele>111.32274</ele>
        <time>2022-12-30T12:09:20.325Z</time>
      </trkpt>
      <trkpt lat="44.09143" lon="1.00678">
        <ele>111.362171</ele>
        <time>2022-12-30T12:09:23.346Z</time>
      </trkpt>
      <trkpt lat="44.09141" lon="1.00691">
        <ele>111.40386</ele>
        <time>2022-12-30T12:09:26.347Z</time>
      </trkpt>
      <trkpt lat="44.09139" lon="1.00706">
        <ele>111.449743</ele>
        <time>2022-12-30T12:09:29.352Z</time>
      </trkpt>
      <trkpt lat="44.09137" lon="1.00721">
        <ele>111.496825</ele>
        <time>2022-12-30T12:09:32.350Z</time>
      </trkpt>
      <trkpt lat="44.09136" lon="1.00737">
        <ele>111.545959</ele>
        <time>2022-12-30T12:09:35.349Z</time>
      </trkpt>
      <trkpt lat="44.09133" lon="1.00751">
        <ele>111.592601</ele>
        <time>2022-12-30T12:09:38.350Z</time>
      </trkpt>
      <trkpt lat="44.09131" lon="1.00766">
        <ele>111.640221</ele>
        <time>2022-12-30T12:09:41.350Z</time>
      </trkpt>
      <trkpt lat="44.09129" lon="1.00782">
        <ele>111.689809</ele>
        <time>2022-12-30T12:09:44.346Z</time>
      </trkpt>
      <trkpt lat="44.09127" lon="1.00798">
        <ele>111.739723</ele>
        <time>2022-12-30T12:09:47.348Z</time>
      </trkpt>
      <trkpt lat="44.09125" lon="1.00814">
        <ele>111.787963</ele>
        <time>2022-12-30T12:09:50.351Z</time>
      </trkpt>
      <trkpt lat="44.09123" lon="1.00829">
        <ele>111.837779</ele>
        <time>2022-12-30T12:09:53.327Z</time>
      </trkpt>
      <trkpt lat="44.09121" lon="1.00845">
        <ele>111.887974</ele>
        <time>2022-12-30T12:09:56.351Z</time>
      </trkpt>
      <trkpt lat="44.09119" lon="1.00862">
        <ele>111.94012</ele>
        <time>2022-12-30T12:09:59.342Z</time>
      </trkpt>
      <trkpt lat="44.09118" lon="1.00879">
        <ele>111.992418</ele>
        <time>2022-12-30T12:10:02.350Z</time>
      </trkpt>
      <trkpt lat="44.09117" lon="1.00896">
        <ele>112.050794</ele>
        <time>2022-12-30T12:10:05.346Z</time>
      </trkpt>
      <trkpt lat="44.09116" lon="1.00913">
        <ele>112.16612</ele>
        <time>2022-12-30T12:10:08.348Z</time>
      </trkpt>
      <trkpt lat="44.09116" lon="1.0093">
        <ele>112.280411</ele>
        <time>2022-12-30T12:10:11.350Z</time>
      </trkpt>
      <trkpt lat="44.09115" lon="1.00948">
        <ele>112.400345</ele>
        <time>2022-12-30T12:10:14.355Z</time>
      </trkpt>
      <trkpt lat="44.09114" lon="1.00966">
        <ele>112.523276</ele>
        <time>2022-12-30T12:10:17.349Z</time>
      </trkpt>
      <trkpt lat="44.09115" lon="1.00984">
        <ele>112.643078</ele>
        <time>2022-12-30T12:10:20.348Z</time>
      </trkpt>
      <trkpt lat="44.09115" lon="1.01002">
        <ele>112.764695</ele>
        <time>2022-12-30T12:10:23.345Z</time>
      </trkpt>
      <trkpt lat="44.09115" lon="1.0102">
        <ele>112.88561</ele>
        <time>2022-12-30T12:10:26.337Z</time>
      </trkpt>
      <trkpt lat="44.09116" lon="1.01038">
        <ele>113.007284</ele>
        <time>2022-12-30T12:10:29.339Z</time>
      </trkpt>
      <trkpt lat="44.09116" lon="1.01057">
        <ele>113.129572</ele>
        <time>2022-12-30T12:10:32.338Z</time>
      </trkpt>
      <trkpt lat="44.09117" lon="1.01075">
        <ele>113.251332</ele>
        <time>2022-12-30T12:10:35.350Z</time>
      </trkpt>
      <trkpt lat="44.09117" lon="1.01091">
        <ele>113.362204</ele>
        <time>2022-12-30T12:10:38.347Z</time>
      </trkpt>
      <trkpt lat="44.09118" lon="1.01108">
        <ele>113.472563</ele>
        <time>2022-12-30T12:10:41.350Z</time>
      </trkpt>
      <trkpt lat="44.09118" lon="1.01125">
        <ele>113.587429</ele>
        <time>2022-12-30T12:10:44.348Z</time>
      </trkpt>
      <trkpt lat="44.09118" lon="1.0114">
        <ele>113.688207</ele>
        <time>2022-12-30T12:10:47.341Z</time>
      </trkpt>
      <trkpt lat="44.09118" lon="1.01155">
        <ele>113.695559</ele>
        <time>2022-12-30T12:10:50.348Z</time>
      </trkpt>
      <trkpt lat="44.09118" lon="1.01171">
        <ele>113.655846</ele>
        <time>2022-12-30T12:10:53.338Z</time>
      </trkpt>
      <trkpt lat="44.09119" lon="1.01187">
        <ele>113.61403</ele>
        <time>2022-12-30T12:10:56.341Z</time>
      </trkpt>
      <trkpt lat="44.09119" lon="1.01204">
        <ele>113.570388</ele>
        <time>2022-12-30T12:10:59.346Z</time>
      </trkpt>
      <trkpt lat="44.0912" lon="1.01222">
        <ele>113.525047</ele>
        <time>2022-12-30T12:11:02.340Z</time>
      </trkpt>
      <trkpt lat="44.0912" lon="1.0124">
        <ele>113.479728</ele>
        <time>2022-12-30T12:11:05.342Z</time>
      </trkpt>
      <trkpt lat="44.0912" lon="1.01258">
        <ele>113.433354</ele>
        <time>2022-12-30T12:11:08.319Z</time>
      </trkpt>
      <trkpt lat="44.09121" lon="1.01276">
        <ele>113.38725</ele>
        <time>2022-12-30T12:11:11.343Z</time>
      </trkpt>
      <trkpt lat="44.09121" lon="1.01295">
        <ele>113.340129</ele>
        <time>2022-12-30T12:11:14.337Z</time>
      </trkpt>
      <trkpt lat="44.09121" lon="1.01308">
        <ele>113.307009</ele>
        <time>2022-12-30T12:11:16.344Z</time>
      </trkpt>
      <trkpt lat="44.09121" lon="1.01321">
        <ele>113.273598</ele>
        <time>2022-12-30T12:11:18.350Z</time>
      </trkpt>
      <trkpt lat="44.09122" lon="1.01334">
        <ele>113.241478</ele>
        <time>2022-12-30T12:11:20.340Z</time>
      </trkpt>
      <trkpt lat="44.09122" lon="1.01348">
        <ele>113.205333</ele>
        <time>2022-12-30T12:11:22.346Z</time>
      </trkpt>
      <trkpt lat="44.09123" lon="1.01362">
        <ele>113.169523</ele>
        <time>2022-12-30T12:11:24.349Z</time>
      </trkpt>
      <trkpt lat="44.09124" lon="1.01374">
        <ele>113.137327</ele>
        <time>2022-12-30T12:11:26.323Z</time>
      </trkpt>
      <trkpt lat="44.09125" lon="1.01392">
        <ele>113.092461</ele>
        <time>2022-12-30T12:11:29.345Z</time>
      </trkpt>
      <trkpt lat="44.09125" lon="1.01408">
        <ele>113.066563</ele>
        <time>2022-12-30T12:11:32.339Z</time>
      </trkpt>
      <trkpt lat="44.09125" lon="1.01423">
        <ele>113.045972</ele>
        <time>2022-12-30T12:11:35.342Z</time>
      </trkpt>
      <trkpt lat="44.09126" lon="1.01439">
        <ele>113.023615</ele>
        <time>2022-12-30T12:11:38.344Z</time>
      </trkpt>
      <trkpt lat="44.09128" lon="1.01456">
        <ele>112.999927</ele>
        <time>2022-12-30T12:11:41.342Z</time>
      </trkpt>
      <trkpt lat="44.09131" lon="1.01472">
        <ele>112.976117</ele>
        <time>2022-12-30T12:11:44.355Z</time>
      </trkpt>
      <trkpt lat="44.09134" lon="1.0149">
        <ele>112.951199</ele>
        <time>2022-12-30T12:11:47.349Z</time>
      </trkpt>
      <trkpt lat="44.09136" lon="1.01508">
        <ele>112.926069</ele>
        <time>2022-12-30T12:11:50.333Z</time>
      </trkpt>
      <trkpt lat="44.09139" lon="1.01526">
        <ele>112.900157</ele>
        <time>2022-12-30T12:11:53.348Z</time>
      </trkpt>
      <trkpt lat="44.09142" lon="1.01544">
        <ele>112.874364</ele>
        <time>2022-12-30T12:11:56.340Z</time>
      </trkpt>
      <trkpt lat="44.09147" lon="1.01561">
        <ele>112.849098</ele>
        <time>2022-12-30T12:11:59.349Z</time>
      </trkpt>
      <trkpt lat="44.09149" lon="1.01579">
        <ele>112.823149</ele>
        <time>2022-12-30T12:12:02.343Z</time>
      </trkpt>
      <trkpt lat="44.09153" lon="1.01596">
        <ele>112.799257</ele>
        <time>2022-12-30T12:12:05.336Z</time>
      </trkpt>
      <trkpt lat="44.09157" lon="1.0161">
        <ele>112.777786</ele>
        <time>2022-12-30T12:12:08.349Z</time>
      </trkpt>
      <trkpt lat="44.09161" lon="1.01625">
        <ele>112.755725</ele>
        <time>2022-12-30T12:12:11.342Z</time>
      </trkpt>
      <trkpt lat="44.09164" lon="1.01642">
        <ele>112.755238</ele>
        <time>2022-12-30T12:12:14.344Z</time>
      </trkpt>
      <trkpt lat="44.09169" lon="1.01659">
        <ele>112.849593</ele>
        <time>2022-12-30T12:12:17.342Z</time>
      </trkpt>
      <trkpt lat="44.09173" lon="1.01675">
        <ele>112.940326</ele>
        <time>2022-12-30T12:12:20.350Z</time>
      </trkpt>
      <trkpt lat="44.09178" lon="1.01691">
        <ele>113.032959</ele>
        <time>2022-12-30T12:12:23.350Z</time>
      </trkpt>
      <trkpt lat="44.09183" lon="1.01708">
        <ele>113.129051</ele>
        <time>2022-12-30T12:12:26.338Z</time>
      </trkpt>
      <trkpt lat="44.09188" lon="1.01719">
        <ele>113.197318</ele>
        <time>2022-12-30T12:12:28.319Z</time>
      </trkpt>
      <trkpt lat="44.09194" lon="1.01736">
        <ele>113.294203</ele>
        <time>2022-12-30T12:12:31.350Z</time>
      </trkpt>
      <trkpt lat="44.09201" lon="1.01752">
        <ele>113.391123</ele>
        <time>2022-12-30T12:12:34.340Z</time>
      </trkpt>
      <trkpt lat="44.09206" lon="1.01766">
        <ele>113.477657</ele>
        <time>2022-12-30T12:12:37.343Z</time>
      </trkpt>
      <trkpt lat="44.09211" lon="1.0178">
        <ele>113.557755</ele>
        <time>2022-12-30T12:12:40.351Z</time>
      </trkpt>
      <trkpt lat="44.09217" lon="1.01794">
        <ele>113.642228</ele>
        <time>2022-12-30T12:12:43.326Z</time>
      </trkpt>
      <trkpt lat="44.09223" lon="1.01808">
        <ele>113.723908</ele>
        <time>2022-12-30T12:12:46.352Z</time>
      </trkpt>
      <trkpt lat="44.09229" lon="1.01822">
        <ele>113.811471</ele>
        <time>2022-12-30T12:12:49.349Z</time>
      </trkpt>
      <trkpt lat="44.09235" lon="1.01838">
        <ele>113.90364</ele>
        <time>2022-12-30T12:12:52.350Z</time>
      </trkpt>
      <trkpt lat="44.09241" lon="1.01854">
        <ele>113.998555</ele>
        <time>2022-12-30T12:12:55.326Z</time>
      </trkpt>
      <trkpt lat="44.09248" lon="1.0187">
        <ele>114.007823</ele>
        <time>2022-12-30T12:12:58.341Z</time>
      </trkpt>
      <trkpt lat="44.09255" lon="1.01886">
        <ele>113.9389</ele>
        <time>2022-12-30T12:13:01.343Z</time>
      </trkpt>
      <trkpt lat="44.09261" lon="1.01901">
        <ele>113.871896</ele>
        <time>2022-12-30T12:13:04.350Z</time>
      </trkpt>
      <trkpt lat="44.09267" lon="1.01917">
        <ele>113.804397</ele>
        <time>2022-12-30T12:13:07.344Z</time>
      </trkpt>
      <trkpt lat="44.09274" lon="1.01933">
        <ele>113.736699</ele>
        <time>2022-12-30T12:13:10.322Z</time>
      </trkpt>
      <trkpt lat="44.0928" lon="1.01949">
        <ele>113.668773</ele>
        <time>2022-12-30T12:13:13.324Z</time>
      </trkpt>
      <trkpt lat="44.09286" lon="1.01965">
        <ele>113.60282</ele>
        <time>2022-12-30T12:13:16.349Z</time>
      </trkpt>
      <trkpt lat="44.09291" lon="1.01978">
        <ele>113.54712</ele>
        <time>2022-12-30T12:13:19.350Z</time>
      </trkpt>
      <trkpt lat="44.09297" lon="1.01992">
        <ele>113.486975</ele>
        <time>2022-12-30T12:13:22.347Z</time>
      </trkpt>
      <trkpt lat="44.09304" lon="1.02007">
        <ele>113.420558</ele>
        <time>2022-12-30T12:13:25.322Z</time>
      </trkpt>
      <trkpt lat="44.0931" lon="1.02022">
        <ele>113.354726</ele>
        <time>2022-12-30T12:13:28.351Z</time>
      </trkpt>
      <trkpt lat="44.09316" lon="1.02038">
        <ele>113.288786</ele>
        <time>2022-12-30T12:13:31.352Z</time>
      </trkpt>
      <trkpt lat="44.09322" lon="1.02053">
        <ele>113.223177</ele>
        <time>2022-12-30T12:13:34.355Z</time>
      </trkpt>
      <trkpt lat="44.09328" lon="1.02068">
        <ele>113.159283</ele>
        <time>2022-12-30T12:13:37.350Z</time>
      </trkpt>
      <trkpt lat="44.09333" lon="1.02082">
        <ele>113.114364</ele>
        <time>2022-12-30T12:13:40.348Z</time>
      </trkpt>
      <trkpt lat="44.09337" lon="1.02094">
        <ele>113.125229</ele>
        <time>2022-12-30T12:13:43.348Z</time>
      </trkpt>
      <trkpt lat="44.09341" lon="1.02107">
        <ele>113.137095</ele>
        <time>2022-12-30T12:13:47.330Z</time>
      </trkpt>
      <trkpt lat="44.09346" lon="1.02121">
        <ele>113.149819</ele>
        <time>2022-12-30T12:13:51.327Z</time>
      </trkpt>
      <trkpt lat="44.0935" lon="1.02133">
        <ele>113.160777</ele>
        <time>2022-12-30T12:13:54.340Z</time>
      </trkpt>
      <trkpt lat="44.09354" lon="1.02146">
        <ele>113.172706</ele>
        <time>2022-12-30T12:13:57.356Z</time>
      </trkpt>
      <trkpt lat="44.09359" lon="1.0216">
        <ele>113.185502</ele>
        <time>2022-12-30T12:14:00.341Z</time>
      </trkpt>
      <trkpt lat="44.09363" lon="1.02174">
        <ele>113.198374</ele>
        <time>2022-12-30T12:14:03.339Z</time>
      </trkpt>
      <trkpt lat="44.09367" lon="1.0219">
        <ele>113.211781</ele>
        <time>2022-12-30T12:14:06.349Z</time>
      </trkpt>
      <trkpt lat="44.09369" lon="1.02205">
        <ele>113.225018</ele>
        <time>2022-12-30T12:14:09.350Z</time>
      </trkpt>
      <trkpt lat="44.09372" lon="1.02222">
        <ele>113.239275</ele>
        <time>2022-12-30T12:14:12.349Z</time>
      </trkpt>
      <trkpt lat="44.09375" lon="1.02238">
        <ele>113.253</ele>
        <time>2022-12-30T12:14:15.349Z</time>
      </trkpt>
      <trkpt lat="44.09377" lon="1.02252">
        <ele>113.264882</ele>
        <time>2022-12-30T12:14:19.340Z</time>
      </trkpt>
      <trkpt lat="44.09381" lon="1.02268">
        <ele>113.278926</ele>
        <time>2022-12-30T12:14:23.348Z</time>
      </trkpt>
      <trkpt lat="44.09383" lon="1.02284">
        <ele>113.292011</ele>
        <time>2022-12-30T12:14:26.349Z</time>
      </trkpt>
      <trkpt lat="44.09385" lon="1.023">
        <ele>113.305525</ele>
        <time>2022-12-30T12:14:29.330Z</time>
      </trkpt>
      <trkpt lat="44.09387" lon="1.02317">
        <ele>113.319672</ele>
        <time>2022-12-30T12:14:32.349Z</time>
      </trkpt>
      <trkpt lat="44.09389" lon="1.02334">
        <ele>113.49537</ele>
        <time>2022-12-30T12:14:35.328Z</time>
      </trkpt>
      <trkpt lat="44.0939" lon="1.02351">
        <ele>113.676425</ele>
        <time>2022-12-30T12:14:38.342Z</time>
      </trkpt>
      <trkpt lat="44.09391" lon="1.02369">
        <ele>113.862038</ele>
        <time>2022-12-30T12:14:41.349Z</time>
      </trkpt>
      <trkpt lat="44.09392" lon="1.02386">
        <ele>114.034525</ele>
        <time>2022-12-30T12:14:44.335Z</time>
      </trkpt>
      <trkpt lat="44.09393" lon="1.02401">
        <ele>114.18806</ele>
        <time>2022-12-30T12:14:47.327Z</time>
      </trkpt>
      <trkpt lat="44.09394" lon="1.02415">
        <ele>114.332059</ele>
        <time>2022-12-30T12:14:50.327Z</time>
      </trkpt>
      <trkpt lat="44.09394" lon="1.02428">
        <ele>114.461393</ele>
        <time>2022-12-30T12:14:53.337Z</time>
      </trkpt>
      <trkpt lat="44.09394" lon="1.02442">
        <ele>114.603544</ele>
        <time>2022-12-30T12:14:56.348Z</time>
      </trkpt>
      <trkpt lat="44.09394" lon="1.02457">
        <ele>114.759278</ele>
        <time>2022-12-30T12:14:59.322Z</time>
      </trkpt>
      <trkpt lat="44.09394" lon="1.02473">
        <ele>114.919906</ele>
        <time>2022-12-30T12:15:02.325Z</time>
      </trkpt>
      <trkpt lat="44.09393" lon="1.02489">
        <ele>115.084119</ele>
        <time>2022-12-30T12:15:05.353Z</time>
      </trkpt>
      <trkpt lat="44.09393" lon="1.02505">
        <ele>115.253902</ele>
        <time>2022-12-30T12:15:08.341Z</time>
      </trkpt>
      <trkpt lat="44.09392" lon="1.02522">
        <ele>115.426153</ele>
        <time>2022-12-30T12:15:11.326Z</time>
      </trkpt>
      <trkpt lat="44.0939" lon="1.02539">
        <ele>115.596207</ele>
        <time>2022-12-30T12:15:14.346Z</time>
      </trkpt>
      <trkpt lat="44.09389" lon="1.02555">
        <ele>115.766641</ele>
        <time>2022-12-30T12:15:17.332Z</time>
      </trkpt>
      <trkpt lat="44.09387" lon="1.02572">
        <ele>115.827175</ele>
        <time>2022-12-30T12:15:20.324Z</time>
      </trkpt>
      <trkpt lat="44.09384" lon="1.0259">
        <ele>115.676506</ele>
        <time>2022-12-30T12:15:23.329Z</time>
      </trkpt>
      <trkpt lat="44.09381" lon="1.02607">
        <ele>115.52884</ele>
        <time>2022-12-30T12:15:26.340Z</time>
      </trkpt>
      <trkpt lat="44.09379" lon="1.02623">
        <ele>115.386649</ele>
        <time>2022-12-30T12:15:29.329Z</time>
      </trkpt>
      <trkpt lat="44.09376" lon="1.02639">
        <ele>115.242578</ele>
        <time>2022-12-30T12:15:32.348Z</time>
      </trkpt>
      <trkpt lat="44.09372" lon="1.02656">
        <ele>115.093885</ele>
        <time>2022-12-30T12:15:35.331Z</time>
      </trkpt>
      <trkpt lat="44.09368" lon="1.02673">
        <ele>114.943398</ele>
        <time>2022-12-30T12:15:38.325Z</time>
      </trkpt>
      <trkpt lat="44.09364" lon="1.02688">
        <ele>114.810488</ele>
        <time>2022-12-30T12:15:41.343Z</time>
      </trkpt>
      <trkpt lat="44.0936" lon="1.02704">
        <ele>114.665502</ele>
        <time>2022-12-30T12:15:44.337Z</time>
      </trkpt>
      <trkpt lat="44.09357" lon="1.0272">
        <ele>114.521395</ele>
        <time>2022-12-30T12:15:47.347Z</time>
      </trkpt>
      <trkpt lat="44.09352" lon="1.02737">
        <ele>114.369623</ele>
        <time>2022-12-30T12:15:50.350Z</time>
      </trkpt>
      <trkpt lat="44.09347" lon="1.02753">
        <ele>114.219137</ele>
        <time>2022-12-30T12:15:53.348Z</time>
      </trkpt>
      <trkpt lat="44.09342" lon="1.02767">
        <ele>114.088328</ele>
        <time>2022-12-30T12:15:56.325Z</time>
      </trkpt>
      <trkpt lat="44.09338" lon="1.02781">
        <ele>113.964013</ele>
        <time>2022-12-30T12:15:59.345Z</time>
      </trkpt>
      <trkpt lat="44.09333" lon="1.02795">
        <ele>113.828358</ele>
        <time>2022-12-30T12:16:02.344Z</time>
      </trkpt>
      <trkpt lat="44.09329" lon="1.0281">
        <ele>113.757971</ele>
        <time>2022-12-30T12:16:05.333Z</time>
      </trkpt>
      <trkpt lat="44.09325" lon="1.02825">
        <ele>113.761759</ele>
        <time>2022-12-30T12:16:08.331Z</time>
      </trkpt>
      <trkpt lat="44.0932" lon="1.02842">
        <ele>113.765787</ele>
        <time>2022-12-30T12:16:11.350Z</time>
      </trkpt>
      <trkpt lat="44.09315" lon="1.02858">
        <ele>113.769753</ele>
        <time>2022-12-30T12:16:14.335Z</time>
      </trkpt>
      <trkpt lat="44.0931" lon="1.02873">
        <ele>113.773471</ele>
        <time>2022-12-30T12:16:17.345Z</time>
      </trkpt>
      <trkpt lat="44.09305" lon="1.02887">
        <ele>113.777146</ele>
        <time>2022-12-30T12:16:20.348Z</time>
      </trkpt>
      <trkpt lat="44.093" lon="1.02902">
        <ele>113.780847</ele>
        <time>2022-12-30T12:16:23.334Z</time>
      </trkpt>
      <trkpt lat="44.09295" lon="1.02916">
        <ele>113.784466</ele>
        <time>2022-12-30T12:16:26.354Z</time>
      </trkpt>
      <trkpt lat="44.09292" lon="1.02931">
        <ele>113.787996</ele>
        <time>2022-12-30T12:16:29.336Z</time>
      </trkpt>
      <trkpt lat="44.09289" lon="1.02944">
        <ele>113.791141</ele>
        <time>2022-12-30T12:16:32.340Z</time>
      </trkpt>
      <trkpt lat="44.09284" lon="1.02959">
        <ele>113.794964</ele>
        <time>2022-12-30T12:16:35.351Z</time>
      </trkpt>
      <trkpt lat="44.09279" lon="1.02976">
        <ele>113.79896</ele>
        <time>2022-12-30T12:16:38.343Z</time>
      </trkpt>
      <trkpt lat="44.09274" lon="1.0299">
        <ele>113.802531</ele>
        <time>2022-12-30T12:16:41.344Z</time>
      </trkpt>
      <trkpt lat="44.0927" lon="1.03006">
        <ele>113.806437</ele>
        <time>2022-12-30T12:16:44.342Z</time>
      </trkpt>
      <trkpt lat="44.09265" lon="1.03021">
        <ele>113.810251</ele>
        <time>2022-12-30T12:16:47.344Z</time>
      </trkpt>
      <trkpt lat="44.0926" lon="1.03037">
        <ele>113.829427</ele>
        <time>2022-12-30T12:16:50.352Z</time>
      </trkpt>
      <trkpt lat="44.09256" lon="1.03053">
        <ele>113.910144</ele>
        <time>2022-12-30T12:16:53.341Z</time>
      </trkpt>
      <trkpt lat="44.09253" lon="1.03071">
        <ele>113.99129</ele>
        <time>2022-12-30T12:16:56.332Z</time>
      </trkpt>
      <trkpt lat="44.0925" lon="1.03087">
        <ele>114.070531</ele>
        <time>2022-12-30T12:16:59.348Z</time>
      </trkpt>
      <trkpt lat="44.09247" lon="1.03105">
        <ele>114.151883</ele>
        <time>2022-12-30T12:17:02.346Z</time>
      </trkpt>
      <trkpt lat="44.09245" lon="1.03121">
        <ele>114.229272</ele>
        <time>2022-12-30T12:17:05.344Z</time>
      </trkpt>
      <trkpt lat="44.09243" lon="1.03137">
        <ele>114.301063</ele>
        <time>2022-12-30T12:17:08.349Z</time>
      </trkpt>
      <trkpt lat="44.09242" lon="1.03151">
        <ele>114.36717</ele>
        <time>2022-12-30T12:17:11.354Z</time>
      </trkpt>
      <trkpt lat="44.0924" lon="1.03166">
        <ele>114.437056</ele>
        <time>2022-12-30T12:17:14.328Z</time>
      </trkpt>
      <trkpt lat="44.09238" lon="1.03182">
        <ele>114.511662</ele>
        <time>2022-12-30T12:17:17.321Z</time>
      </trkpt>
      <trkpt lat="44.09236" lon="1.03198">
        <ele>114.587473</ele>
        <time>2022-12-30T12:17:20.349Z</time>
      </trkpt>
      <trkpt lat="44.09235" lon="1.03214">
        <ele>114.661369</ele>
        <time>2022-12-30T12:17:23.353Z</time>
      </trkpt>
      <trkpt lat="44.09233" lon="1.0323">
        <ele>114.735856</ele>
        <time>2022-12-30T12:17:26.349Z</time>
      </trkpt>
      <trkpt lat="44.0923" lon="1.03247">
        <ele>114.814035</ele>
        <time>2022-12-30T12:17:29.351Z</time>
      </trkpt>
      <trkpt lat="44.09229" lon="1.03264">
        <ele>114.891649</ele>
        <time>2022-12-30T12:17:32.349Z</time>
      </trkpt>
      <trkpt lat="44.09227" lon="1.0328">
        <ele>114.971962</ele>
        <time>2022-12-30T12:17:35.340Z</time>
      </trkpt>
      <trkpt lat="44.09226" lon="1.03297">
        <ele>115.102708</ele>
        <time>2022-12-30T12:17:38.348Z</time>
      </trkpt>
      <trkpt lat="44.09224" lon="1.03312">
        <ele>115.22763</ele>
        <time>2022-12-30T12:17:41.348Z</time>
      </trkpt>
      <trkpt lat="44.09222" lon="1.03327">
        <ele>115.349794</ele>
        <time>2022-12-30T12:17:44.348Z</time>
      </trkpt>
      <trkpt lat="44.09221" lon="1.03343">
        <ele>115.475017</ele>
        <time>2022-12-30T12:17:47.354Z</time>
      </trkpt>
      <trkpt lat="44.09219" lon="1.03358">
        <ele>115.598818</ele>
        <time>2022-12-30T12:17:50.356Z</time>
      </trkpt>
      <trkpt lat="44.09216" lon="1.03375">
        <ele>115.732206</ele>
        <time>2022-12-30T12:17:53.342Z</time>
      </trkpt>
      <trkpt lat="44.09214" lon="1.03391">
        <ele>115.866071</ele>
        <time>2022-12-30T12:17:56.350Z</time>
      </trkpt>
      <trkpt lat="44.09211" lon="1.03408">
        <ele>116.005371</ele>
        <time>2022-12-30T12:17:59.352Z</time>
      </trkpt>
      <trkpt lat="44.09208" lon="1.03425">
        <ele>116.140012</ele>
        <time>2022-12-30T12:18:02.350Z</time>
      </trkpt>
      <trkpt lat="44.09205" lon="1.03444">
        <ele>116.296891</ele>
        <time>2022-12-30T12:18:05.349Z</time>
      </trkpt>
      <trkpt lat="44.09202" lon="1.03461">
        <ele>116.440296</ele>
        <time>2022-12-30T12:18:08.348Z</time>
      </trkpt>
      <trkpt lat="44.09199" lon="1.03477">
        <ele>116.569148</ele>
        <time>2022-12-30T12:18:11.351Z</time>
      </trkpt>
      <trkpt lat="44.09196" lon="1.0349">
        <ele>116.676694</ele>
        <time>2022-12-30T12:18:14.329Z</time>
      </trkpt>
      <trkpt lat="44.09194" lon="1.03504">
        <ele>116.789161</ele>
        <time>2022-12-30T12:18:17.350Z</time>
      </trkpt>
      <trkpt lat="44.0919" lon="1.03519">
        <ele>116.918867</ele>
        <time>2022-12-30T12:18:20.349Z</time>
      </trkpt>
      <trkpt lat="44.09186" lon="1.03533">
        <ele>116.902586</ele>
        <time>2022-12-30T12:18:23.349Z</time>
      </trkpt>
      <trkpt lat="44.09183" lon="1.03547">
        <ele>116.833403</ele>
        <time>2022-12-30T12:18:26.325Z</time>
      </trkpt>
      <trkpt lat="44.09179" lon="1.03561">
        <ele>116.763308</ele>
        <time>2022-12-30T12:18:29.341Z</time>
      </trkpt>
      <trkpt lat="44.09176" lon="1.03577">
        <ele>116.683434</ele>
        <time>2022-12-30T12:18:32.346Z</time>
      </trkpt>
      <trkpt lat="44.09173" lon="1.03592">
        <ele>116.604783</ele>
        <time>2022-12-30T12:18:35.351Z</time>
      </trkpt>
      <trkpt lat="44.09169" lon="1.03609">
        <ele>116.520201</ele>
        <time>2022-12-30T12:18:38.349Z</time>
      </trkpt>
      <trkpt lat="44.09165" lon="1.03625">
        <ele>116.440656</ele>
        <time>2022-12-30T12:18:41.350Z</time>
      </trkpt>
      <trkpt lat="44.0916" lon="1.03641">
        <ele>116.356754</ele>
        <time>2022-12-30T12:18:44.350Z</time>
      </trkpt>
      <trkpt lat="44.09155" lon="1.03658">
        <ele>116.269425</ele>
        <time>2022-12-30T12:18:47.350Z</time>
      </trkpt>
      <trkpt lat="44.0915" lon="1.03674">
        <ele>116.183684</ele>
        <time>2022-12-30T12:18:50.350Z</time>
      </trkpt>
      <trkpt lat="44.09145" lon="1.03691">
        <ele>116.096046</ele>
        <time>2022-12-30T12:18:53.350Z</time>
      </trkpt>
      <trkpt lat="44.09139" lon="1.03707">
        <ele>116.009128</ele>
        <time>2022-12-30T12:18:56.349Z</time>
      </trkpt>
      <trkpt lat="44.09133" lon="1.03723">
        <ele>115.923409</ele>
        <time>2022-12-30T12:18:59.350Z</time>
      </trkpt>
      <trkpt lat="44.09127" lon="1.03739">
        <ele>115.836926</ele>
        <time>2022-12-30T12:19:02.353Z</time>
      </trkpt>
      <trkpt lat="44.09122" lon="1.03754">
        <ele>115.75554</ele>
        <time>2022-12-30T12:19:05.342Z</time>
      </trkpt>
      <trkpt lat="44.09116" lon="1.03768">
        <ele>115.775651</ele>
        <time>2022-12-30T12:19:08.343Z</time>
      </trkpt>
      <trkpt lat="44.0911" lon="1.03782">
        <ele>115.802944</ele>
        <time>2022-12-30T12:19:11.342Z</time>
      </trkpt>
      <trkpt lat="44.09105" lon="1.03797">
        <ele>115.830245</ele>
        <time>2022-12-30T12:19:14.344Z</time>
      </trkpt>
      <trkpt lat="44.09099" lon="1.03811">
        <ele>115.856914</ele>
        <time>2022-12-30T12:19:17.348Z</time>
      </trkpt>
      <trkpt lat="44.09093" lon="1.03826">
        <ele>115.88489</ele>
        <time>2022-12-30T12:19:20.344Z</time>
      </trkpt>
      <trkpt lat="44.09087" lon="1.0384">
        <ele>115.911138</ele>
        <time>2022-12-30T12:19:23.353Z</time>
      </trkpt>
      <trkpt lat="44.09082" lon="1.03854">
        <ele>115.937495</ele>
        <time>2022-12-30T12:19:26.337Z</time>
      </trkpt>
      <trkpt lat="44.09076" lon="1.03869">
        <ele>115.965045</ele>
        <time>2022-12-30T12:19:29.347Z</time>
      </trkpt>
      <trkpt lat="44.0907" lon="1.03883">
        <ele>115.991294</ele>
        <time>2022-12-30T12:19:32.332Z</time>
      </trkpt>
      <trkpt lat="44.09064" lon="1.03897">
        <ele>116.018244</ele>
        <time>2022-12-30T12:19:35.348Z</time>
      </trkpt>
      <trkpt lat="44.09058" lon="1.03911">
        <ele>116.045477</ele>
        <time>2022-12-30T12:19:38.350Z</time>
      </trkpt>
      <trkpt lat="44.09052" lon="1.03926">
        <ele>116.073505</ele>
        <time>2022-12-30T12:19:41.343Z</time>
      </trkpt>
      <trkpt lat="44.09046" lon="1.03939">
        <ele>116.098071</ele>
        <time>2022-12-30T12:19:44.352Z</time>
      </trkpt>
      <trkpt lat="44.09042" lon="1.03951">
        <ele>116.119386</ele>
        <time>2022-12-30T12:19:47.350Z</time>
      </trkpt>
      <trkpt lat="44.09037" lon="1.03962">
        <ele>116.140839</ele>
        <time>2022-12-30T12:19:50.351Z</time>
      </trkpt>
      <trkpt lat="44.09032" lon="1.03974">
        <ele>116.169422</ele>
        <time>2022-12-30T12:19:53.334Z</time>
      </trkpt>
      <trkpt lat="44.09026" lon="1.03988">
        <ele>116.223525</ele>
        <time>2022-12-30T12:19:56.329Z</time>
      </trkpt>
      <trkpt lat="44.0902" lon="1.04001">
        <ele>116.274154</ele>
        <time>2022-12-30T12:19:59.351Z</time>
      </trkpt>
      <trkpt lat="44.09015" lon="1.04014">
        <ele>116.324489</ele>
        <time>2022-12-30T12:20:02.346Z</time>
      </trkpt>
      <trkpt lat="44.0901" lon="1.04028">
        <ele>116.376524</ele>
        <time>2022-12-30T12:20:05.349Z</time>
      </trkpt>
      <trkpt lat="44.09006" lon="1.04043">
        <ele>116.431368</ele>
        <time>2022-12-30T12:20:08.352Z</time>
      </trkpt>
      <trkpt lat="44.09002" lon="1.04058">
        <ele>116.485094</ele>
        <time>2022-12-30T12:20:11.345Z</time>
      </trkpt>
      <trkpt lat="44.08999" lon="1.04073">
        <ele>116.539718</ele>
        <time>2022-12-30T12:20:14.347Z</time>
      </trkpt>
      <trkpt lat="44.08996" lon="1.04089">
        <ele>116.594747</ele>
        <time>2022-12-30T12:20:17.352Z</time>
      </trkpt>
      <trkpt lat="44.08995" lon="1.04106">
        <ele>116.652948</ele>
        <time>2022-12-30T12:20:20.352Z</time>
      </trkpt>
      <trkpt lat="44.08993" lon="1.04124">
        <ele>116.715172</ele>
        <time>2022-12-30T12:20:23.347Z</time>
      </trkpt>
      <trkpt lat="44.08992" lon="1.04143">
        <ele>116.776995</ele>
        <time>2022-12-30T12:20:26.330Z</time>
      </trkpt>
      <trkpt lat="44.08991" lon="1.0416">
        <ele>116.837651</ele>
        <time>2022-12-30T12:20:29.332Z</time>
      </trkpt>
      <trkpt lat="44.08991" lon="1.04179">
        <ele>116.898957</ele>
        <time>2022-12-30T12:20:32.351Z</time>
      </trkpt>
      <trkpt lat="44.08993" lon="1.04196">
        <ele>116.958545</ele>
        <time>2022-12-30T12:20:35.342Z</time>
      </trkpt>
      <trkpt lat="44.08995" lon="1.04213">
        <ele>117.007618</ele>
        <time>2022-12-30T12:20:38.349Z</time>
      </trkpt>
      <trkpt lat="44.08997" lon="1.0423">
        <ele>116.995214</ele>
        <time>2022-12-30T12:20:41.349Z</time>
      </trkpt>
      <trkpt lat="44.09" lon="1.04246">
        <ele>116.982721</ele>
        <time>2022-12-30T12:20:44.345Z</time>
      </trkpt>
      <trkpt lat="44.09003" lon="1.04263">
        <ele>116.97018</ele>
        <time>2022-12-30T12:20:47.352Z</time>
      </trkpt>
      <trkpt lat="44.09005" lon="1.0428">
        <ele>116.957399</ele>
        <time>2022-12-30T12:20:50.344Z</time>
      </trkpt>
      <trkpt lat="44.09008" lon="1.04297">
        <ele>116.944963</ele>
        <time>2022-12-30T12:20:53.342Z</time>
      </trkpt>
      <trkpt lat="44.09011" lon="1.04314">
        <ele>116.932682</ele>
        <time>2022-12-30T12:20:56.338Z</time>
      </trkpt>
      <trkpt lat="44.09013" lon="1.04329">
        <ele>116.920823</ele>
        <time>2022-12-30T12:20:59.341Z</time>
      </trkpt>
      <trkpt lat="44.09016" lon="1.04346">
        <ele>116.908297</ele>
        <time>2022-12-30T12:21:02.356Z</time>
      </trkpt>
      <trkpt lat="44.09017" lon="1.04359">
        <ele>116.899127</ele>
        <time>2022-12-30T12:21:04.327Z</time>
      </trkpt>
      <trkpt lat="44.0902" lon="1.04376">
        <ele>116.886492</ele>
        <time>2022-12-30T12:21:07.349Z</time>
      </trkpt>
      <trkpt lat="44.09022" lon="1.04388">
        <ele>116.877331</ele>
        <time>2022-12-30T12:21:09.352Z</time>
      </trkpt>
      <trkpt lat="44.09024" lon="1.04406">
        <ele>116.86396</ele>
        <time>2022-12-30T12:21:12.351Z</time>
      </trkpt>
      <trkpt lat="44.09027" lon="1.04424">
        <ele>116.850355</ele>
        <time>2022-12-30T12:21:15.350Z</time>
      </trkpt>
      <trkpt lat="44.09029" lon="1.04437">
        <ele>116.840993</ele>
        <time>2022-12-30T12:21:17.350Z</time>
      </trkpt>
      <trkpt lat="44.0903" lon="1.0445">
        <ele>116.83149</ele>
        <time>2022-12-30T12:21:19.350Z</time>
      </trkpt>
      <trkpt lat="44.09033" lon="1.04467">
        <ele>116.779916</ele>
        <time>2022-12-30T12:21:22.348Z</time>
      </trkpt>
      <trkpt lat="44.09036" lon="1.04483">
        <ele>116.709709</ele>
        <time>2022-12-30T12:21:25.350Z</time>
      </trkpt>
      <trkpt lat="44.09038" lon="1.04499">
        <ele>116.639717</ele>
        <time>2022-12-30T12:21:28.356Z</time>
      </trkpt>
      <trkpt lat="44.09041" lon="1.04516">
        <ele>116.568594</ele>
        <time>2022-12-30T12:21:31.348Z</time>
      </trkpt>
      <trkpt lat="44.09043" lon="1.04532">
        <ele>116.498653</ele>
        <time>2022-12-30T12:21:34.354Z</time>
      </trkpt>
      <trkpt lat="44.09046" lon="1.04549">
        <ele>116.426261</ele>
        <time>2022-12-30T12:21:37.337Z</time>
      </trkpt>
      <trkpt lat="44.09049" lon="1.04565">
        <ele>116.355097</ele>
        <time>2022-12-30T12:21:40.351Z</time>
      </trkpt>
      <trkpt lat="44.09052" lon="1.04581">
        <ele>116.284553</ele>
        <time>2022-12-30T12:21:43.343Z</time>
      </trkpt>
      <trkpt lat="44.09056" lon="1.04597">
        <ele>116.213362</ele>
        <time>2022-12-30T12:21:46.350Z</time>
      </trkpt>
      <trkpt lat="44.09061" lon="1.04614">
        <ele>116.138394</ele>
        <time>2022-12-30T12:21:49.349Z</time>
      </trkpt>
      <trkpt lat="44.09066" lon="1.0463">
        <ele>116.062236</ele>
        <time>2022-12-30T12:21:52.340Z</time>
      </trkpt>
      <trkpt lat="44.09071" lon="1.04647">
        <ele>115.986221</ele>
        <time>2022-12-30T12:21:55.351Z</time>
      </trkpt>
      <trkpt lat="44.09076" lon="1.04662">
        <ele>115.914629</ele>
        <time>2022-12-30T12:21:58.344Z</time>
      </trkpt>
      <trkpt lat="44.09082" lon="1.04675">
        <ele>115.851119</ele>
        <time>2022-12-30T12:22:01.345Z</time>
      </trkpt>
      <trkpt lat="44.09087" lon="1.04685">
        <ele>115.79806</ele>
        <time>2022-12-30T12:22:04.349Z</time>
      </trkpt>
      <trkpt lat="44.09093" lon="1.04697">
        <ele>115.709212</ele>
        <time>2022-12-30T12:22:08.349Z</time>
      </trkpt>
      <trkpt lat="44.091" lon="1.0471">
        <ele>115.589403</ele>
        <time>2022-12-30T12:22:12.351Z</time>
      </trkpt>
      <trkpt lat="44.09106" lon="1.04724">
        <ele>115.470755</ele>
        <time>2022-12-30T12:22:16.336Z</time>
      </trkpt>
      <trkpt lat="44.09114" lon="1.04736">
        <ele>115.349037</ele>
        <time>2022-12-30T12:22:20.347Z</time>
      </trkpt>
      <trkpt lat="44.0912" lon="1.04748">
        <ele>115.24317</ele>
        <time>2022-12-30T12:22:23.335Z</time>
      </trkpt>
      <trkpt lat="44.09126" lon="1.04759">
        <ele>115.137864</ele>
        <time>2022-12-30T12:22:26.327Z</time>
      </trkpt>
      <trkpt lat="44.09132" lon="1.0477">
        <ele>115.033217</ele>
        <time>2022-12-30T12:22:29.346Z</time>
      </trkpt>
      <trkpt lat="44.09138" lon="1.04782">
        <ele>114.926756</ele>
        <time>2022-12-30T12:22:32.350Z</time>
      </trkpt>
      <trkpt lat="44.09143" lon="1.04793">
        <ele>114.828162</ele>
        <time>2022-12-30T12:22:35.347Z</time>
      </trkpt>
      <trkpt lat="44.0915" lon="1.04804">
        <ele>114.720754</ele>
        <time>2022-12-30T12:22:38.351Z</time>
      </trkpt>
      <trkpt lat="44.09156" lon="1.04817">
        <ele>114.604609</ele>
        <time>2022-12-30T12:22:41.351Z</time>
      </trkpt>
      <trkpt lat="44.09163" lon="1.04829">
        <ele>114.48787</ele>
        <time>2022-12-30T12:22:44.350Z</time>
      </trkpt>
      <trkpt lat="44.0917" lon="1.04842">
        <ele>114.369318</ele>
        <time>2022-12-30T12:22:47.349Z</time>
      </trkpt>
      <trkpt lat="44.09177" lon="1.04855">
        <ele>114.248827</ele>
        <time>2022-12-30T12:22:50.351Z</time>
      </trkpt>
      <trkpt lat="44.09184" lon="1.04869">
        <ele>114.122407</ele>
        <time>2022-12-30T12:22:53.346Z</time>
      </trkpt>
      <trkpt lat="44.09191" lon="1.04882">
        <ele>114.004447</ele>
        <time>2022-12-30T12:22:56.342Z</time>
      </trkpt>
      <trkpt lat="44.09197" lon="1.04894">
        <ele>113.931901</ele>
        <time>2022-12-30T12:22:59.352Z</time>
      </trkpt>
      <trkpt lat="44.09204" lon="1.04907">
        <ele>114.075632</ele>
        <time>2022-12-30T12:23:02.350Z</time>
      </trkpt>
      <trkpt lat="44.09211" lon="1.04919">
        <ele>114.223815</ele>
        <time>2022-12-30T12:23:05.345Z</time>
      </trkpt>
      <trkpt lat="44.09217" lon="1.04932">
        <ele>114.371987</ele>
        <time>2022-12-30T12:23:08.353Z</time>
      </trkpt>
      <trkpt lat="44.09224" lon="1.04946">
        <ele>114.526363</ele>
        <time>2022-12-30T12:23:11.351Z</time>
      </trkpt>
      <trkpt lat="44.09231" lon="1.0496">
        <ele>114.683607</ele>
        <time>2022-12-30T12:23:14.354Z</time>
      </trkpt>
      <trkpt lat="44.09238" lon="1.04974">
        <ele>114.84314</ele>
        <time>2022-12-30T12:23:17.320Z</time>
      </trkpt>
      <trkpt lat="44.09245" lon="1.04988">
        <ele>114.998876</ele>
        <time>2022-12-30T12:23:20.352Z</time>
      </trkpt>
      <trkpt lat="44.09252" lon="1.05002">
        <ele>115.156877</ele>
        <time>2022-12-30T12:23:23.348Z</time>
      </trkpt>
      <trkpt lat="44.0926" lon="1.05015">
        <ele>115.319522</ele>
        <time>2022-12-30T12:23:26.349Z</time>
      </trkpt>
      <trkpt lat="44.09267" lon="1.05028">
        <ele>115.474812</ele>
        <time>2022-12-30T12:23:29.352Z</time>
      </trkpt>
      <trkpt lat="44.09274" lon="1.0504">
        <ele>115.609427</ele>
        <time>2022-12-30T12:23:32.346Z</time>
      </trkpt>
      <trkpt lat="44.09279" lon="1.0505">
        <ele>115.730448</ele>
        <time>2022-12-30T12:23:35.331Z</time>
      </trkpt>
      <trkpt lat="44.09285" lon="1.05062">
        <ele>115.864422</ele>
        <time>2022-12-30T12:23:39.359Z</time>
      </trkpt>
      <trkpt lat="44.09291" lon="1.05074">
        <ele>116.000541</ele>
        <time>2022-12-30T12:23:43.350Z</time>
      </trkpt>
      <trkpt lat="44.09296" lon="1.05085">
        <ele>116.120915</ele>
        <time>2022-12-30T12:23:46.353Z</time>
      </trkpt>
      <trkpt lat="44.09302" lon="1.05098">
        <ele>116.233179</ele>
        <time>2022-12-30T12:23:50.352Z</time>
      </trkpt>
      <trkpt lat="44.09308" lon="1.05108">
        <ele>116.206139</ele>
        <time>2022-12-30T12:23:55.349Z</time>
      </trkpt>
      <trkpt lat="44.09314" lon="1.05121">
        <ele>116.176404</ele>
        <time>2022-12-30T12:24:00.352Z</time>
      </trkpt>
      <trkpt lat="44.0932" lon="1.05132">
        <ele>116.149026</ele>
        <time>2022-12-30T12:24:03.348Z</time>
      </trkpt>
      <trkpt lat="44.09328" lon="1.05143">
        <ele>116.118308</ele>
        <time>2022-12-30T12:24:06.352Z</time>
      </trkpt>
      <trkpt lat="44.09335" lon="1.05154">
        <ele>116.088928</ele>
        <time>2022-12-30T12:24:09.326Z</time>
      </trkpt>
      <trkpt lat="44.0934" lon="1.05167">
        <ele>116.06201</ele>
        <time>2022-12-30T12:24:12.347Z</time>
      </trkpt>
      <trkpt lat="44.09347" lon="1.05178">
        <ele>116.033312</ele>
        <time>2022-12-30T12:24:16.352Z</time>
      </trkpt>
      <trkpt lat="44.09354" lon="1.05191">
        <ele>116.00216</ele>
        <time>2022-12-30T12:24:20.350Z</time>
      </trkpt>
      <trkpt lat="44.0936" lon="1.052">
        <ele>115.97675</ele>
        <time>2022-12-30T12:24:23.348Z</time>
      </trkpt>
      <trkpt lat="44.09366" lon="1.05212">
        <ele>115.947972</ele>
        <time>2022-12-30T12:24:26.332Z</time>
      </trkpt>
      <trkpt lat="44.09372" lon="1.05225">
        <ele>115.917608</ele>
        <time>2022-12-30T12:24:29.353Z</time>
      </trkpt>
      <trkpt lat="44.09379" lon="1.05238">
        <ele>115.886772</ele>
        <time>2022-12-30T12:24:32.349Z</time>
      </trkpt>
      <trkpt lat="44.09386" lon="1.05251">
        <ele>115.854349</ele>
        <time>2022-12-30T12:24:35.350Z</time>
      </trkpt>
      <trkpt lat="44.09393" lon="1.05264">
        <ele>115.822243</ele>
        <time>2022-12-30T12:24:38.349Z</time>
      </trkpt>
      <trkpt lat="44.094" lon="1.05279">
        <ele>115.788846</ele>
        <time>2022-12-30T12:24:41.335Z</time>
      </trkpt>
      <trkpt lat="44.09406" lon="1.05293">
        <ele>115.755896</ele>
        <time>2022-12-30T12:24:44.349Z</time>
      </trkpt>
      <trkpt lat="44.09413" lon="1.05307">
        <ele>115.819399</ele>
        <time>2022-12-30T12:24:47.323Z</time>
      </trkpt>
      <trkpt lat="44.09419" lon="1.05322">
        <ele>115.915785</ele>
        <time>2022-12-30T12:24:50.332Z</time>
      </trkpt>
      <trkpt lat="44.09425" lon="1.05336">
        <ele>116.012356</ele>
        <time>2022-12-30T12:24:53.330Z</time>
      </trkpt>
      <trkpt lat="44.09431" lon="1.05351">
        <ele>116.11161</ele>
        <time>2022-12-30T12:24:56.323Z</time>
      </trkpt>
      <trkpt lat="44.09437" lon="1.05367">
        <ele>116.214609</ele>
        <time>2022-12-30T12:24:59.320Z</time>
      </trkpt>
      <trkpt lat="44.09443" lon="1.05382">
        <ele>116.312753</ele>
        <time>2022-12-30T12:25:02.323Z</time>
      </trkpt>
      <trkpt lat="44.09449" lon="1.05398">
        <ele>116.414879</ele>
        <time>2022-12-30T12:25:05.322Z</time>
      </trkpt>
      <trkpt lat="44.09455" lon="1.05415">
        <ele>116.519906</ele>
        <time>2022-12-30T12:25:08.321Z</time>
      </trkpt>
      <trkpt lat="44.0946" lon="1.05432">
        <ele>116.625262</ele>
        <time>2022-12-30T12:25:11.327Z</time>
      </trkpt>
      <trkpt lat="44.09465" lon="1.05448">
        <ele>116.726844</ele>
        <time>2022-12-30T12:25:14.323Z</time>
      </trkpt>
      <trkpt lat="44.0947" lon="1.05464">
        <ele>116.826781</ele>
        <time>2022-12-30T12:25:17.320Z</time>
      </trkpt>
      <trkpt lat="44.09475" lon="1.05481">
        <ele>116.930026</ele>
        <time>2022-12-30T12:25:20.324Z</time>
      </trkpt>
      <trkpt lat="44.09479" lon="1.05498">
        <ele>117.032343</ele>
        <time>2022-12-30T12:25:23.327Z</time>
      </trkpt>
      <trkpt lat="44.09483" lon="1.05515">
        <ele>117.137887</ele>
        <time>2022-12-30T12:25:26.334Z</time>
      </trkpt>
      <trkpt lat="44.09487" lon="1.05527">
        <ele>117.15303</ele>
        <time>2022-12-30T12:25:28.337Z</time>
      </trkpt>
      <trkpt lat="44.09491" lon="1.05545">
        <ele>117.081429</ele>
        <time>2022-12-30T12:25:31.340Z</time>
      </trkpt>
      <trkpt lat="44.09495" lon="1.05562">
        <ele>117.011753</ele>
        <time>2022-12-30T12:25:34.333Z</time>
      </trkpt>
      <trkpt lat="44.09498" lon="1.05577">
        <ele>116.949777</ele>
        <time>2022-12-30T12:25:37.332Z</time>
      </trkpt>
      <trkpt lat="44.09501" lon="1.05592">
        <ele>116.889526</ele>
        <time>2022-12-30T12:25:40.329Z</time>
      </trkpt>
      <trkpt lat="44.09504" lon="1.05608">
        <ele>116.822847</ele>
        <time>2022-12-30T12:25:43.329Z</time>
      </trkpt>
      <trkpt lat="44.09506" lon="1.05621">
        <ele>116.773597</ele>
        <time>2022-12-30T12:25:45.330Z</time>
      </trkpt>
      <trkpt lat="44.09508" lon="1.05638">
        <ele>116.703606</ele>
        <time>2022-12-30T12:25:48.352Z</time>
      </trkpt>
      <trkpt lat="44.09511" lon="1.05655">
        <ele>116.63542</ele>
        <time>2022-12-30T12:25:51.350Z</time>
      </trkpt>
      <trkpt lat="44.09514" lon="1.05673">
        <ele>116.564861</ele>
        <time>2022-12-30T12:25:54.330Z</time>
      </trkpt>
      <trkpt lat="44.09516" lon="1.05689">
        <ele>116.500521</ele>
        <time>2022-12-30T12:25:57.333Z</time>
      </trkpt>
      <trkpt lat="44.09518" lon="1.05702">
        <ele>116.449297</ele>
        <time>2022-12-30T12:25:59.355Z</time>
      </trkpt>
      <trkpt lat="44.09519" lon="1.05715">
        <ele>116.400047</ele>
        <time>2022-12-30T12:26:01.350Z</time>
      </trkpt>
      <trkpt lat="44.09521" lon="1.05732">
        <ele>116.330057</ele>
        <time>2022-12-30T12:26:04.353Z</time>
      </trkpt>
      <trkpt lat="44.09522" lon="1.05748">
        <ele>116.270326</ele>
        <time>2022-12-30T12:26:07.334Z</time>
      </trkpt>
      <trkpt lat="44.09523" lon="1.05762">
        <ele>116.214932</ele>
        <time>2022-12-30T12:26:10.351Z</time>
      </trkpt>
      <trkpt lat="44.09525" lon="1.05775">
        <ele>116.185334</ele>
        <time>2022-12-30T12:26:13.351Z</time>
      </trkpt>
      <trkpt lat="44.09526" lon="1.05789">
        <ele>116.162926</ele>
        <time>2022-12-30T12:26:16.338Z</time>
      </trkpt>
      <trkpt lat="44.09528" lon="1.05804">
        <ele>116.140293</ele>
        <time>2022-12-30T12:26:19.352Z</time>
      </trkpt>
      <trkpt lat="44.09529" lon="1.0582">
        <ele>116.115691</ele>
        <time>2022-12-30T12:26:22.346Z</time>
      </trkpt>
      <trkpt lat="44.09531" lon="1.05836">
        <ele>116.09061</ele>
        <time>2022-12-30T12:26:25.331Z</time>
      </trkpt>
      <trkpt lat="44.09532" lon="1.05854">
        <ele>116.06397</ele>
        <time>2022-12-30T12:26:28.331Z</time>
      </trkpt>
      <trkpt lat="44.09533" lon="1.0587">
        <ele>116.038585</ele>
        <time>2022-12-30T12:26:31.355Z</time>
      </trkpt>
      <trkpt lat="44.09535" lon="1.05888">
        <ele>116.011632</ele>
        <time>2022-12-30T12:26:34.350Z</time>
      </trkpt>
      <trkpt lat="44.09536" lon="1.05904">
        <ele>115.986902</ele>
        <time>2022-12-30T12:26:37.346Z</time>
      </trkpt>
      <trkpt lat="44.09537" lon="1.0592">
        <ele>115.961602</ele>
        <time>2022-12-30T12:26:40.353Z</time>
      </trkpt>
      <trkpt lat="44.09538" lon="1.05937">
        <ele>115.935676</ele>
        <time>2022-12-30T12:26:43.351Z</time>
      </trkpt>
      <trkpt lat="44.09539" lon="1.05955">
        <ele>115.9089</ele>
        <time>2022-12-30T12:26:46.351Z</time>
      </trkpt>
      <trkpt lat="44.0954" lon="1.05972">
        <ele>115.882399</ele>
        <time>2022-12-30T12:26:49.334Z</time>
      </trkpt>
      <trkpt lat="44.09542" lon="1.05989">
        <ele>115.856023</ele>
        <time>2022-12-30T12:26:52.336Z</time>
      </trkpt>
      <trkpt lat="44.09544" lon="1.06006">
        <ele>115.829315</ele>
        <time>2022-12-30T12:26:55.351Z</time>
      </trkpt>
      <trkpt lat="44.09545" lon="1.06024">
        <ele>115.838649</ele>
        <time>2022-12-30T12:26:58.339Z</time>
      </trkpt>
      <trkpt lat="44.09547" lon="1.06041">
        <ele>115.875472</ele>
        <time>2022-12-30T12:27:01.351Z</time>
      </trkpt>
      <trkpt lat="44.09548" lon="1.06059">
        <ele>115.912968</ele>
        <time>2022-12-30T12:27:04.350Z</time>
      </trkpt>
      <trkpt lat="44.09549" lon="1.06075">
        <ele>115.94761</ele>
        <time>2022-12-30T12:27:07.348Z</time>
      </trkpt>
      <trkpt lat="44.0955" lon="1.06091">
        <ele>115.980357</ele>
        <time>2022-12-30T12:27:10.350Z</time>
      </trkpt>
      <trkpt lat="44.09551" lon="1.06104">
        <ele>116.009876</ele>
        <time>2022-12-30T12:27:13.352Z</time>
      </trkpt>
      <trkpt lat="44.09553" lon="1.06119">
        <ele>116.040719</ele>
        <time>2022-12-30T12:27:16.351Z</time>
      </trkpt>
      <trkpt lat="44.09556" lon="1.06134">
        <ele>116.074556</ele>
        <time>2022-12-30T12:27:19.332Z</time>
      </trkpt>
      <trkpt lat="44.09558" lon="1.06151">
        <ele>116.111192</ele>
        <time>2022-12-30T12:27:22.352Z</time>
      </trkpt>
      <trkpt lat="44.09561" lon="1.06167">
        <ele>116.14619</ele>
        <time>2022-12-30T12:27:25.337Z</time>
      </trkpt>
      <trkpt lat="44.09564" lon="1.06184">
        <ele>116.182567</ele>
        <time>2022-12-30T12:27:28.348Z</time>
      </trkpt>
      <trkpt lat="44.09568" lon="1.062">
        <ele>116.218217</ele>
        <time>2022-12-30T12:27:31.344Z</time>
      </trkpt>
      <trkpt lat="44.09571" lon="1.06216">
        <ele>116.254765</ele>
        <time>2022-12-30T12:27:34.351Z</time>
      </trkpt>
      <trkpt lat="44.09576" lon="1.06231">
        <ele>116.289907</ele>
        <time>2022-12-30T12:27:37.332Z</time>
      </trkpt>
      <trkpt lat="44.09581" lon="1.06247">
        <ele>116.326262</ele>
        <time>2022-12-30T12:27:40.340Z</time>
      </trkpt>
      <trkpt lat="44.09587" lon="1.06264">
        <ele>116.418611</ele>
        <time>2022-12-30T12:27:43.350Z</time>
      </trkpt>
      <trkpt lat="44.09592" lon="1.06281">
        <ele>116.584521</ele>
        <time>2022-12-30T12:27:46.349Z</time>
      </trkpt>
      <trkpt lat="44.09597" lon="1.06292">
        <ele>116.699298</ele>
        <time>2022-12-30T12:27:48.349Z</time>
      </trkpt>
      <trkpt lat="44.09602" lon="1.06304">
        <ele>116.823512</ele>
        <time>2022-12-30T12:27:50.329Z</time>
      </trkpt>
      <trkpt lat="44.09607" lon="1.06316">
        <ele>116.94845</ele>
        <time>2022-12-30T12:27:52.342Z</time>
      </trkpt>
      <trkpt lat="44.09612" lon="1.06327">
        <ele>117.061765</ele>
        <time>2022-12-30T12:27:54.347Z</time>
      </trkpt>
      <trkpt lat="44.0962" lon="1.06342">
        <ele>117.227128</ele>
        <time>2022-12-30T12:27:57.350Z</time>
      </trkpt>
      <trkpt lat="44.09626" lon="1.06355">
        <ele>117.377274</ele>
        <time>2022-12-30T12:28:00.355Z</time>
      </trkpt>
      <trkpt lat="44.09634" lon="1.06368">
        <ele>117.518965</ele>
        <time>2022-12-30T12:28:03.350Z</time>
      </trkpt>
      <trkpt lat="44.09641" lon="1.06381">
        <ele>117.663336</ele>
        <time>2022-12-30T12:28:06.354Z</time>
      </trkpt>
      <trkpt lat="44.09648" lon="1.06393">
        <ele>117.806361</ele>
        <time>2022-12-30T12:28:09.364Z</time>
      </trkpt>
      <trkpt lat="44.09657" lon="1.06406">
        <ele>117.963557</ele>
        <time>2022-12-30T12:28:12.347Z</time>
      </trkpt>
      <trkpt lat="44.09666" lon="1.06419">
        <ele>118.127803</ele>
        <time>2022-12-30T12:28:15.350Z</time>
      </trkpt>
      <trkpt lat="44.09675" lon="1.06433">
        <ele>118.294084</ele>
        <time>2022-12-30T12:28:18.345Z</time>
      </trkpt>
      <trkpt lat="44.09684" lon="1.06447">
        <ele>118.464565</ele>
        <time>2022-12-30T12:28:21.349Z</time>
      </trkpt>
      <trkpt lat="44.0969" lon="1.06457">
        <ele>118.577388</ele>
        <time>2022-12-30T12:28:23.351Z</time>
      </trkpt>
      <trkpt lat="44.09699" lon="1.06471">
        <ele>118.62411</ele>
        <time>2022-12-30T12:28:26.351Z</time>
      </trkpt>
      <trkpt lat="44.09705" lon="1.0648">
        <ele>118.65187</ele>
        <time>2022-12-30T12:28:28.337Z</time>
      </trkpt>
      <trkpt lat="44.09711" lon="1.06489">
        <ele>118.679537</ele>
        <time>2022-12-30T12:28:30.355Z</time>
      </trkpt>
      <trkpt lat="44.09721" lon="1.06502">
        <ele>118.719669</ele>
        <time>2022-12-30T12:28:33.346Z</time>
      </trkpt>
      <trkpt lat="44.0973" lon="1.06515">
        <ele>118.759118</ele>
        <time>2022-12-30T12:28:36.351Z</time>
      </trkpt>
      <trkpt lat="44.09738" lon="1.06529">
        <ele>118.798854</ele>
        <time>2022-12-30T12:28:39.350Z</time>
      </trkpt>
      <trkpt lat="44.09748" lon="1.06543">
        <ele>118.839916</ele>
        <time>2022-12-30T12:28:42.347Z</time>
      </trkpt>
      <trkpt lat="44.09754" lon="1.06552">
        <ele>118.868571</ele>
        <time>2022-12-30T12:28:44.354Z</time>
      </trkpt>
      <trkpt lat="44.09761" lon="1.06561">
        <ele>118.896814</ele>
        <time>2022-12-30T12:28:46.341Z</time>
      </trkpt>
      <trkpt lat="44.09767" lon="1.06571">
        <ele>118.924732</ele>
        <time>2022-12-30T12:28:48.354Z</time>
      </trkpt>
      <trkpt lat="44.09773" lon="1.0658">
        <ele>118.953821</ele>
        <time>2022-12-30T12:28:50.350Z</time>
      </trkpt>
      <trkpt lat="44.09783" lon="1.06594">
        <ele>118.99494</ele>
        <time>2022-12-30T12:28:53.349Z</time>
      </trkpt>
      <trkpt lat="44.09789" lon="1.06603">
        <ele>119.0227</ele>
        <time>2022-12-30T12:28:55.351Z</time>
      </trkpt>
      <trkpt lat="44.09795" lon="1.06613">
        <ele>119.051057</ele>
        <time>2022-12-30T12:28:57.345Z</time>
      </trkpt>
      <trkpt lat="44.09802" lon="1.06622">
        <ele>119.079518</ele>
        <time>2022-12-30T12:28:59.346Z</time>
      </trkpt>
      <trkpt lat="44.09808" lon="1.06632">
        <ele>119.108382</ele>
        <time>2022-12-30T12:29:01.350Z</time>
      </trkpt>
      <trkpt lat="44.09817" lon="1.06645">
        <ele>119.01095</ele>
        <time>2022-12-30T12:29:04.351Z</time>
      </trkpt>
      <trkpt lat="44.09825" lon="1.06657">
        <ele>118.75044</ele>
        <time>2022-12-30T12:29:07.336Z</time>
      </trkpt>
      <trkpt lat="44.09833" lon="1.06668">
        <ele>118.494285</ele>
        <time>2022-12-30T12:29:10.350Z</time>
      </trkpt>
      <trkpt lat="44.09841" lon="1.06681">
        <ele>118.209679</ele>
        <time>2022-12-30T12:29:13.348Z</time>
      </trkpt>
      <trkpt lat="44.0985" lon="1.06695">
        <ele>117.910061</ele>
        <time>2022-12-30T12:29:16.349Z</time>
      </trkpt>
      <trkpt lat="44.09859" lon="1.0671">
        <ele>117.607415</ele>
        <time>2022-12-30T12:29:19.354Z</time>
      </trkpt>
      <trkpt lat="44.09865" lon="1.0672">
        <ele>117.396495</ele>
        <time>2022-12-30T12:29:21.329Z</time>
      </trkpt>
      <trkpt lat="44.09871" lon="1.0673">
        <ele>117.180422</ele>
        <time>2022-12-30T12:29:23.352Z</time>
      </trkpt>
      <trkpt lat="44.09878" lon="1.06739">
        <ele>116.965906</ele>
        <time>2022-12-30T12:29:25.350Z</time>
      </trkpt>
      <trkpt lat="44.09886" lon="1.06755">
        <ele>116.658561</ele>
        <time>2022-12-30T12:29:28.352Z</time>
      </trkpt>
      <trkpt lat="44.09893" lon="1.0677">
        <ele>116.363057</ele>
        <time>2022-12-30T12:29:31.353Z</time>
      </trkpt>
      <trkpt lat="44.09902" lon="1.06785">
        <ele>116.053019</ele>
        <time>2022-12-30T12:29:34.351Z</time>
      </trkpt>
      <trkpt lat="44.09907" lon="1.06795">
        <ele>115.845501</ele>
        <time>2022-12-30T12:29:36.352Z</time>
      </trkpt>
      <trkpt lat="44.09912" lon="1.06806">
        <ele>115.628778</ele>
        <time>2022-12-30T12:29:38.353Z</time>
      </trkpt>
      <trkpt lat="44.09918" lon="1.06817">
        <ele>115.422547</ele>
        <time>2022-12-30T12:29:40.350Z</time>
      </trkpt>
      <trkpt lat="44.09923" lon="1.06831">
        <ele>115.164522</ele>
        <time>2022-12-30T12:29:43.347Z</time>
      </trkpt>
      <trkpt lat="44.09929" lon="1.06844">
        <ele>115.017831</ele>
        <time>2022-12-30T12:29:46.341Z</time>
      </trkpt>
      <trkpt lat="44.09935" lon="1.06859">
        <ele>114.908554</ele>
        <time>2022-12-30T12:29:49.352Z</time>
      </trkpt>
      <trkpt lat="44.09941" lon="1.06875">
        <ele>114.796641</ele>
        <time>2022-12-30T12:29:52.353Z</time>
      </trkpt>
      <trkpt lat="44.09947" lon="1.0689">
        <ele>114.68913</ele>
        <time>2022-12-30T12:29:55.350Z</time>
      </trkpt>
      <trkpt lat="44.09953" lon="1.06905">
        <ele>114.582975</ele>
        <time>2022-12-30T12:29:58.348Z</time>
      </trkpt>
      <trkpt lat="44.09959" lon="1.0692">
        <ele>114.473541</ele>
        <time>2022-12-30T12:30:01.349Z</time>
      </trkpt>
      <trkpt lat="44.09965" lon="1.06936">
        <ele>114.359288</ele>
        <time>2022-12-30T12:30:04.353Z</time>
      </trkpt>
      <trkpt lat="44.09972" lon="1.06953">
        <ele>114.242953</ele>
        <time>2022-12-30T12:30:07.347Z</time>
      </trkpt>
      <trkpt lat="44.09978" lon="1.06968">
        <ele>114.13104</ele>
        <time>2022-12-30T12:30:10.352Z</time>
      </trkpt>
      <trkpt lat="44.09984" lon="1.06984">
        <ele>114.019956</ele>
        <time>2022-12-30T12:30:13.346Z</time>
      </trkpt>
      <trkpt lat="44.0999" lon="1.07">
        <ele>113.907622</ele>
        <time>2022-12-30T12:30:16.349Z</time>
      </trkpt>
      <trkpt lat="44.09996" lon="1.07016">
        <ele>113.794724</ele>
        <time>2022-12-30T12:30:19.357Z</time>
      </trkpt>
      <trkpt lat="44.10002" lon="1.07031">
        <ele>113.684873</ele>
        <time>2022-12-30T12:30:22.352Z</time>
      </trkpt>
      <trkpt lat="44.10006" lon="1.07043">
        <ele>113.605062</ele>
        <time>2022-12-30T12:30:24.350Z</time>
      </trkpt>
      <trkpt lat="44.10011" lon="1.07054">
        <ele>113.526836</ele>
        <time>2022-12-30T12:30:26.326Z</time>
      </trkpt>
      <trkpt lat="44.10015" lon="1.07065">
        <ele>113.61062</ele>
        <time>2022-12-30T12:30:28.362Z</time>
      </trkpt>
      <trkpt lat="44.10019" lon="1.07077">
        <ele>113.723002</ele>
        <time>2022-12-30T12:30:30.350Z</time>
      </trkpt>
      <trkpt lat="44.10024" lon="1.0709">
        <ele>113.840611</ele>
        <time>2022-12-30T12:30:32.353Z</time>
      </trkpt>
      <trkpt lat="44.10029" lon="1.07101">
        <ele>113.950685</ele>
        <time>2022-12-30T12:30:34.352Z</time>
      </trkpt>
      <trkpt lat="44.10034" lon="1.07118">
        <ele>114.097045</ele>
        <time>2022-12-30T12:30:37.350Z</time>
      </trkpt>
      <trkpt lat="44.10039" lon="1.07134">
        <ele>114.242838</ele>
        <time>2022-12-30T12:30:40.350Z</time>
      </trkpt>
      <trkpt lat="44.10044" lon="1.07147">
        <ele>114.36662</ele>
        <time>2022-12-30T12:30:43.349Z</time>
      </trkpt>
      <trkpt lat="44.10048" lon="1.0716">
        <ele>114.481993</ele>
        <time>2022-12-30T12:30:46.351Z</time>
      </trkpt>
      <trkpt lat="44.10052" lon="1.07173">
        <ele>114.59397</ele>
        <time>2022-12-30T12:30:49.354Z</time>
      </trkpt>
      <trkpt lat="44.10056" lon="1.07186">
        <ele>114.713113</ele>
        <time>2022-12-30T12:30:52.352Z</time>
      </trkpt>
      <trkpt lat="44.1006" lon="1.072">
        <ele>114.836189</ele>
        <time>2022-12-30T12:30:55.341Z</time>
      </trkpt>
      <trkpt lat="44.10064" lon="1.07215">
        <ele>114.97179</ele>
        <time>2022-12-30T12:30:58.353Z</time>
      </trkpt>
      <trkpt lat="44.10068" lon="1.07232">
        <ele>115.117912</ele>
        <time>2022-12-30T12:31:01.352Z</time>
      </trkpt>
      <trkpt lat="44.10071" lon="1.0725">
        <ele>115.266352</ele>
        <time>2022-12-30T12:31:04.350Z</time>
      </trkpt>
      <trkpt lat="44.10074" lon="1.07268">
        <ele>115.417959</ele>
        <time>2022-12-30T12:31:07.356Z</time>
      </trkpt>
      <trkpt lat="44.10076" lon="1.07281">
        <ele>115.527645</ele>
        <time>2022-12-30T12:31:09.331Z</time>
      </trkpt>
      <trkpt lat="44.10078" lon="1.07293">
        <ele>115.594884</ele>
        <time>2022-12-30T12:31:11.351Z</time>
      </trkpt>
      <trkpt lat="44.10081" lon="1.07311">
        <ele>115.640444</ele>
        <time>2022-12-30T12:31:14.347Z</time>
      </trkpt>
      <trkpt lat="44.10083" lon="1.07327">
        <ele>115.681763</ele>
        <time>2022-12-30T12:31:17.333Z</time>
      </trkpt>
      <trkpt lat="44.10084" lon="1.07343">
        <ele>115.720627</ele>
        <time>2022-12-30T12:31:20.350Z</time>
      </trkpt>
      <trkpt lat="44.10085" lon="1.07357">
        <ele>115.756379</ele>
        <time>2022-12-30T12:31:23.351Z</time>
      </trkpt>
      <trkpt lat="44.10085" lon="1.0737">
        <ele>115.788107</ele>
        <time>2022-12-30T12:31:26.349Z</time>
      </trkpt>
      <trkpt lat="44.10085" lon="1.07384">
        <ele>115.82157</ele>
        <time>2022-12-30T12:31:29.340Z</time>
      </trkpt>
      <trkpt lat="44.10083" lon="1.07397">
        <ele>115.85636</ele>
        <time>2022-12-30T12:31:32.352Z</time>
      </trkpt>
      <trkpt lat="44.10081" lon="1.07411">
        <ele>115.892036</ele>
        <time>2022-12-30T12:31:35.350Z</time>
      </trkpt>
      <trkpt lat="44.10081" lon="1.07426">
        <ele>115.928223</ele>
        <time>2022-12-30T12:31:38.354Z</time>
      </trkpt>
      <trkpt lat="44.10081" lon="1.0744">
        <ele>115.962939</ele>
        <time>2022-12-30T12:31:41.352Z</time>
      </trkpt>
      <trkpt lat="44.10081" lon="1.07455">
        <ele>116.000863</ele>
        <time>2022-12-30T12:31:44.350Z</time>
      </trkpt>
      <trkpt lat="44.10082" lon="1.07471">
        <ele>116.040864</ele>
        <time>2022-12-30T12:31:47.351Z</time>
      </trkpt>
      <trkpt lat="44.10083" lon="1.07487">
        <ele>116.078369</ele>
        <time>2022-12-30T12:31:50.330Z</time>
      </trkpt>
      <trkpt lat="44.10082" lon="1.075">
        <ele>116.112748</ele>
        <time>2022-12-30T12:31:53.351Z</time>
      </trkpt>
      <trkpt lat="44.10082" lon="1.07514">
        <ele>116.147703</ele>
        <time>2022-12-30T12:31:56.349Z</time>
      </trkpt>
      <trkpt lat="44.10081" lon="1.07529">
        <ele>116.18466</ele>
        <time>2022-12-30T12:31:59.351Z</time>
      </trkpt>
      <trkpt lat="44.10082" lon="1.07545">
        <ele>116.228634</ele>
        <time>2022-12-30T12:32:02.352Z</time>
      </trkpt>
      <trkpt lat="44.10083" lon="1.07562">
        <ele>116.276563</ele>
        <time>2022-12-30T12:32:05.351Z</time>
      </trkpt>
      <trkpt lat="44.10082" lon="1.07578">
        <ele>116.324749</ele>
        <time>2022-12-30T12:32:08.353Z</time>
      </trkpt>
      <trkpt lat="44.10082" lon="1.07594">
        <ele>116.37325</ele>
        <time>2022-12-30T12:32:11.354Z</time>
      </trkpt>
      <trkpt lat="44.10081" lon="1.07611">
        <ele>116.421492</ele>
        <time>2022-12-30T12:32:14.356Z</time>
      </trkpt>
      <trkpt lat="44.10082" lon="1.07627">
        <ele>116.469393</ele>
        <time>2022-12-30T12:32:17.354Z</time>
      </trkpt>
      <trkpt lat="44.10081" lon="1.07643">
        <ele>116.517029</ele>
        <time>2022-12-30T12:32:20.351Z</time>
      </trkpt>
      <trkpt lat="44.10082" lon="1.07659">
        <ele>116.564049</ele>
        <time>2022-12-30T12:32:23.335Z</time>
      </trkpt>
      <trkpt lat="44.10082" lon="1.07676">
        <ele>116.611935</ele>
        <time>2022-12-30T12:32:26.344Z</time>
      </trkpt>
      <trkpt lat="44.10082" lon="1.07691">
        <ele>116.658123</ele>
        <time>2022-12-30T12:32:29.326Z</time>
      </trkpt>
      <trkpt lat="44.10081" lon="1.07706">
        <ele>116.700001</ele>
        <time>2022-12-30T12:32:32.351Z</time>
      </trkpt>
      <trkpt lat="44.10082" lon="1.07718">
        <ele>116.737367</ele>
        <time>2022-12-30T12:32:35.344Z</time>
      </trkpt>
      <trkpt lat="44.10083" lon="1.07734">
        <ele>116.78343</ele>
        <time>2022-12-30T12:32:39.350Z</time>
      </trkpt>
      <trkpt lat="44.10084" lon="1.07749">
        <ele>116.827979</ele>
        <time>2022-12-30T12:32:43.351Z</time>
      </trkpt>
      <trkpt lat="44.10086" lon="1.07763">
        <ele>116.87143</ele>
        <time>2022-12-30T12:32:47.352Z</time>
      </trkpt>
      <trkpt lat="44.10088" lon="1.07776">
        <ele>116.909144</ele>
        <time>2022-12-30T12:32:51.348Z</time>
      </trkpt>
      <trkpt lat="44.10092" lon="1.0779">
        <ele>116.932023</ele>
        <time>2022-12-30T12:32:55.352Z</time>
      </trkpt>
      <trkpt lat="44.10096" lon="1.07801">
        <ele>116.922724</ele>
        <time>2022-12-30T12:32:59.353Z</time>
      </trkpt>
      <trkpt lat="44.10104" lon="1.07811">
        <ele>116.912378</ele>
        <time>2022-12-30T12:33:03.351Z</time>
      </trkpt>
      <trkpt lat="44.10113" lon="1.07821">
        <ele>116.901288</ele>
        <time>2022-12-30T12:33:06.354Z</time>
      </trkpt>
      <trkpt lat="44.1012" lon="1.07837">
        <ele>116.88829</ele>
        <time>2022-12-30T12:33:09.352Z</time>
      </trkpt>
      <trkpt lat="44.10125" lon="1.07853">
        <ele>116.876205</ele>
        <time>2022-12-30T12:33:12.353Z</time>
      </trkpt>
      <trkpt lat="44.10129" lon="1.07868">
        <ele>116.864821</ele>
        <time>2022-12-30T12:33:15.351Z</time>
      </trkpt>
      <trkpt lat="44.10132" lon="1.07882">
        <ele>116.854489</ele>
        <time>2022-12-30T12:33:18.353Z</time>
      </trkpt>
      <trkpt lat="44.10136" lon="1.07895">
        <ele>116.845072</ele>
        <time>2022-12-30T12:33:21.354Z</time>
      </trkpt>
      <trkpt lat="44.1014" lon="1.0791">
        <ele>116.833719</ele>
        <time>2022-12-30T12:33:25.350Z</time>
      </trkpt>
      <trkpt lat="44.10143" lon="1.07923">
        <ele>116.823943</ele>
        <time>2022-12-30T12:33:28.351Z</time>
      </trkpt>
      <trkpt lat="44.10147" lon="1.07935">
        <ele>116.814503</ele>
        <time>2022-12-30T12:33:31.326Z</time>
      </trkpt>
      <trkpt lat="44.10151" lon="1.07948">
        <ele>116.804885</ele>
        <time>2022-12-30T12:33:34.353Z</time>
      </trkpt>
      <trkpt lat="44.10155" lon="1.07962">
        <ele>116.794351</ele>
        <time>2022-12-30T12:33:37.351Z</time>
      </trkpt>
      <trkpt lat="44.1016" lon="1.07977">
        <ele>116.783088</ele>
        <time>2022-12-30T12:33:40.352Z</time>
      </trkpt>
      <trkpt lat="44.10164" lon="1.07993">
        <ele>116.77114</ele>
        <time>2022-12-30T12:33:43.350Z</time>
      </trkpt>
      <trkpt lat="44.10169" lon="1.08009">
        <ele>116.823701</ele>
        <time>2022-12-30T12:33:46.353Z</time>
      </trkpt>
      <trkpt lat="44.10174" lon="1.08025">
        <ele>117.277839</ele>
        <time>2022-12-30T12:33:49.353Z</time>
      </trkpt>
      <trkpt lat="44.10179" lon="1.08041">
        <ele>117.730531</ele>
        <time>2022-12-30T12:33:52.350Z</time>
      </trkpt>
      <trkpt lat="44.10184" lon="1.08058">
        <ele>118.189422</ele>
        <time>2022-12-30T12:33:55.351Z</time>
      </trkpt>
      <trkpt lat="44.10189" lon="1.08074">
        <ele>118.632181</ele>
        <time>2022-12-30T12:33:58.355Z</time>
      </trkpt>
      <trkpt lat="44.10193" lon="1.08088">
        <ele>119.014726</ele>
        <time>2022-12-30T12:34:01.351Z</time>
      </trkpt>
      <trkpt lat="44.10196" lon="1.08101">
        <ele>119.387872</ele>
        <time>2022-12-30T12:34:04.357Z</time>
      </trkpt>
      <trkpt lat="44.10201" lon="1.08115">
        <ele>119.780336</ele>
        <time>2022-12-30T12:34:07.350Z</time>
      </trkpt>
      <trkpt lat="44.10205" lon="1.0813">
        <ele>120.187115</ele>
        <time>2022-12-30T12:34:10.351Z</time>
      </trkpt>
      <trkpt lat="44.10209" lon="1.08145">
        <ele>120.588048</ele>
        <time>2022-12-30T12:34:13.344Z</time>
      </trkpt>
      <trkpt lat="44.10213" lon="1.0816">
        <ele>121.0009</ele>
        <time>2022-12-30T12:34:16.354Z</time>
      </trkpt>
      <trkpt lat="44.10217" lon="1.08175">
        <ele>121.413751</ele>
        <time>2022-12-30T12:34:19.330Z</time>
      </trkpt>
      <trkpt lat="44.10222" lon="1.0819">
        <ele>121.838661</ele>
        <time>2022-12-30T12:34:22.348Z</time>
      </trkpt>
      <trkpt lat="44.10226" lon="1.08205">
        <ele>122.245331</ele>
        <time>2022-12-30T12:34:25.353Z</time>
      </trkpt>
      <trkpt lat="44.1023" lon="1.08219">
        <ele>122.644898</ele>
        <time>2022-12-30T12:34:28.354Z</time>
      </trkpt>
      <trkpt lat="44.10232" lon="1.08233">
        <ele>123.004254</ele>
        <time>2022-12-30T12:34:31.353Z</time>
      </trkpt>
      <trkpt lat="44.10233" lon="1.08248">
        <ele>123.204887</ele>
        <time>2022-12-30T12:34:35.352Z</time>
      </trkpt>
      <trkpt lat="44.10227" lon="1.08259">
        <ele>123.240268</ele>
        <time>2022-12-30T12:34:40.346Z</time>
      </trkpt>
      <trkpt lat="44.10216" lon="1.08261">
        <ele>123.282038</ele>
        <time>2022-12-30T12:34:44.329Z</time>
      </trkpt>
      <trkpt lat="44.10207" lon="1.0826">
        <ele>123.314782</ele>
        <time>2022-12-30T12:34:48.347Z</time>
      </trkpt>
      <trkpt lat="44.10203" lon="1.08269">
        <ele>123.340975</ele>
        <time>2022-12-30T12:35:15.162Z</time>
      </trkpt>
      <trkpt lat="44.10209" lon="1.0828">
        <ele>123.376606</ele>
        <time>2022-12-30T12:38:05.333Z</time>
      </trkpt>
      <trkpt lat="44.1022" lon="1.08279">
        <ele>123.417757</ele>
        <time>2022-12-30T12:38:10.325Z</time>
      </trkpt>
      <trkpt lat="44.10232" lon="1.08277">
        <ele>123.459293</ele>
        <time>2022-12-30T12:38:14.341Z</time>
      </trkpt>
      <trkpt lat="44.10241" lon="1.08273">
        <ele>123.49381</ele>
        <time>2022-12-30T12:38:18.350Z</time>
      </trkpt>
      <trkpt lat="44.10249" lon="1.08267">
        <ele>123.52662</ele>
        <time>2022-12-30T12:38:23.329Z</time>
      </trkpt>
      <trkpt lat="44.10264" lon="1.08261">
        <ele>123.583004</ele>
        <time>2022-12-30T12:38:56.357Z</time>
      </trkpt>
      <trkpt lat="44.10274" lon="1.08258">
        <ele>123.619369</ele>
        <time>2022-12-30T12:38:59.326Z</time>
      </trkpt>
      <trkpt lat="44.10284" lon="1.08251">
        <ele>123.658871</ele>
        <time>2022-12-30T12:39:02.351Z</time>
      </trkpt>
      <trkpt lat="44.10294" lon="1.08244">
        <ele>123.697885</ele>
        <time>2022-12-30T12:39:05.335Z</time>
      </trkpt>
      <trkpt lat="44.10302" lon="1.08238">
        <ele>123.732182</ele>
        <time>2022-12-30T12:39:08.333Z</time>
      </trkpt>
      <trkpt lat="44.10312" lon="1.08233">
        <ele>123.769306</ele>
        <time>2022-12-30T12:39:12.327Z</time>
      </trkpt>
      <trkpt lat="44.1032" lon="1.08226">
        <ele>123.803827</ele>
        <time>2022-12-30T12:39:15.333Z</time>
      </trkpt>
      <trkpt lat="44.1033" lon="1.08219">
        <ele>123.798462</ele>
        <time>2022-12-30T12:39:18.332Z</time>
      </trkpt>
      <trkpt lat="44.1034" lon="1.08211">
        <ele>123.716916</ele>
        <time>2022-12-30T12:39:21.340Z</time>
      </trkpt>
      <trkpt lat="44.1035" lon="1.08205">
        <ele>123.633787</ele>
        <time>2022-12-30T12:39:24.328Z</time>
      </trkpt>
      <trkpt lat="44.10359" lon="1.082">
        <ele>123.563019</ele>
        <time>2022-12-30T12:39:27.333Z</time>
      </trkpt>
      <trkpt lat="44.10368" lon="1.08195">
        <ele>123.491554</ele>
        <time>2022-12-30T12:39:31.337Z</time>
      </trkpt>
      <trkpt lat="44.10379" lon="1.08196">
        <ele>123.411627</ele>
        <time>2022-12-30T12:39:35.339Z</time>
      </trkpt>
      <trkpt lat="44.10385" lon="1.08207">
        <ele>123.339975</ele>
        <time>2022-12-30T12:39:38.340Z</time>
      </trkpt>
      <trkpt lat="44.10392" lon="1.08218">
        <ele>123.264647</ele>
        <time>2022-12-30T12:39:41.332Z</time>
      </trkpt>
      <trkpt lat="44.10398" lon="1.08231">
        <ele>123.183385</ele>
        <time>2022-12-30T12:39:44.327Z</time>
      </trkpt>
      <trkpt lat="44.10405" lon="1.08243">
        <ele>123.105971</ele>
        <time>2022-12-30T12:39:47.327Z</time>
      </trkpt>
      <trkpt lat="44.10411" lon="1.08256">
        <ele>123.021661</ele>
        <time>2022-12-30T12:39:51.326Z</time>
      </trkpt>
      <trkpt lat="44.10416" lon="1.08267">
        <ele>122.953177</ele>
        <time>2022-12-30T12:39:56.328Z</time>
      </trkpt>
      <trkpt lat="44.10418" lon="1.08266">
        <ele>122.938774</ele>
        <time>2022-12-30T12:40:05.132Z</time>
      </trkpt>
      <trkpt lat="44.10529" lon="1.09204">
        <ele>122.368958</ele>
        <time>2022-12-30T12:59:20.354Z</time>
      </trkpt>
      <trkpt lat="44.10527" lon="1.09219">
        <ele>122.043519</ele>
        <time>2022-12-30T12:59:37.334Z</time>
      </trkpt>
      <trkpt lat="44.10532" lon="1.09231">
        <ele>121.734252</ele>
        <time>2022-12-30T12:59:41.333Z</time>
      </trkpt>
      <trkpt lat="44.10527" lon="1.09244">
        <ele>121.410978</ele>
        <time>2022-12-30T12:59:45.337Z</time>
      </trkpt>
      <trkpt lat="44.10518" lon="1.09247">
        <ele>121.118132</ele>
        <time>2022-12-30T12:59:49.326Z</time>
      </trkpt>
      <trkpt lat="44.10506" lon="1.09245">
        <ele>120.755588</ele>
        <time>2022-12-30T12:59:53.338Z</time>
      </trkpt>
      <trkpt lat="44.10494" lon="1.09244">
        <ele>120.377663</ele>
        <time>2022-12-30T12:59:57.357Z</time>
      </trkpt>
      <trkpt lat="44.10483" lon="1.09244">
        <ele>120.053467</ele>
        <time>2022-12-30T13:00:00.354Z</time>
      </trkpt>
      <trkpt lat="44.10472" lon="1.09243">
        <ele>119.691819</ele>
        <time>2022-12-30T13:00:03.354Z</time>
      </trkpt>
      <trkpt lat="44.10461" lon="1.09244">
        <ele>119.433719</ele>
        <time>2022-12-30T13:00:06.346Z</time>
      </trkpt>
      <trkpt lat="44.10451" lon="1.09243">
        <ele>119.353041</ele>
        <time>2022-12-30T13:00:09.350Z</time>
      </trkpt>
      <trkpt lat="44.1044" lon="1.09243">
        <ele>119.276971</ele>
        <time>2022-12-30T13:00:12.336Z</time>
      </trkpt>
      <trkpt lat="44.10431" lon="1.09242">
        <ele>119.205347</ele>
        <time>2022-12-30T13:00:15.332Z</time>
      </trkpt>
      <trkpt lat="44.10422" lon="1.09242">
        <ele>119.136056</ele>
        <time>2022-12-30T13:00:18.355Z</time>
      </trkpt>
      <trkpt lat="44.10411" lon="1.09245">
        <ele>119.056801</ele>
        <time>2022-12-30T13:00:22.356Z</time>
      </trkpt>
      <trkpt lat="44.10402" lon="1.09246">
        <ele>118.984447</ele>
        <time>2022-12-30T13:00:25.355Z</time>
      </trkpt>
      <trkpt lat="44.10393" lon="1.09248">
        <ele>118.913729</ele>
        <time>2022-12-30T13:00:28.345Z</time>
      </trkpt>
      <trkpt lat="44.10383" lon="1.09251">
        <ele>118.83865</ele>
        <time>2022-12-30T13:00:31.329Z</time>
      </trkpt>
      <trkpt lat="44.10373" lon="1.09253">
        <ele>118.766768</ele>
        <time>2022-12-30T13:00:34.356Z</time>
      </trkpt>
      <trkpt lat="44.10361" lon="1.09257">
        <ele>118.674315</ele>
        <time>2022-12-30T13:00:38.358Z</time>
      </trkpt>
      <trkpt lat="44.10351" lon="1.09259">
        <ele>118.596403</ele>
        <time>2022-12-30T13:00:41.341Z</time>
      </trkpt>
      <trkpt lat="44.1034" lon="1.09263">
        <ele>118.50983</ele>
        <time>2022-12-30T13:00:44.361Z</time>
      </trkpt>
      <trkpt lat="44.10328" lon="1.09268">
        <ele>118.414681</ele>
        <time>2022-12-30T13:00:47.338Z</time>
      </trkpt>
      <trkpt lat="44.10316" lon="1.09274">
        <ele>118.320582</ele>
        <time>2022-12-30T13:00:50.334Z</time>
      </trkpt>
      <trkpt lat="44.10304" lon="1.0928">
        <ele>118.223288</ele>
        <time>2022-12-30T13:00:53.353Z</time>
      </trkpt>
      <trkpt lat="44.10292" lon="1.09286">
        <ele>118.129899</ele>
        <time>2022-12-30T13:00:56.346Z</time>
      </trkpt>
      <trkpt lat="44.10281" lon="1.09293">
        <ele>118.028424</ele>
        <time>2022-12-30T13:00:59.352Z</time>
      </trkpt>
      <trkpt lat="44.1027" lon="1.09298">
        <ele>117.935036</ele>
        <time>2022-12-30T13:01:02.355Z</time>
      </trkpt>
      <trkpt lat="44.10261" lon="1.09303">
        <ele>117.85702</ele>
        <time>2022-12-30T13:01:05.355Z</time>
      </trkpt>
      <trkpt lat="44.1025" lon="1.0931">
        <ele>117.757091</ele>
        <time>2022-12-30T13:01:09.356Z</time>
      </trkpt>
      <trkpt lat="44.10242" lon="1.09315">
        <ele>117.681347</ele>
        <time>2022-12-30T13:01:12.355Z</time>
      </trkpt>
      <trkpt lat="44.10231" lon="1.0932">
        <ele>117.587991</ele>
        <time>2022-12-30T13:01:16.354Z</time>
      </trkpt>
      <trkpt lat="44.10221" lon="1.0932">
        <ele>117.505451</ele>
        <time>2022-12-30T13:01:19.338Z</time>
      </trkpt>
      <trkpt lat="44.10209" lon="1.0932">
        <ele>117.408206</ele>
        <time>2022-12-30T13:01:22.337Z</time>
      </trkpt>
      <trkpt lat="44.10198" lon="1.09321">
        <ele>117.311764</ele>
        <time>2022-12-30T13:01:25.335Z</time>
      </trkpt>
      <trkpt lat="44.10186" lon="1.09322">
        <ele>117.213487</ele>
        <time>2022-12-30T13:01:28.353Z</time>
      </trkpt>
      <trkpt lat="44.10174" lon="1.09322">
        <ele>117.121186</ele>
        <time>2022-12-30T13:01:31.340Z</time>
      </trkpt>
      <trkpt lat="44.10164" lon="1.09322">
        <ele>117.031348</ele>
        <time>2022-12-30T13:01:34.356Z</time>
      </trkpt>
      <trkpt lat="44.10152" lon="1.09323">
        <ele>116.938184</ele>
        <time>2022-12-30T13:01:37.331Z</time>
      </trkpt>
      <trkpt lat="44.1014" lon="1.09323">
        <ele>116.83765</ele>
        <time>2022-12-30T13:01:40.354Z</time>
      </trkpt>
      <trkpt lat="44.10128" lon="1.09322">
        <ele>116.73612</ele>
        <time>2022-12-30T13:01:43.334Z</time>
      </trkpt>
      <trkpt lat="44.10115" lon="1.09321">
        <ele>116.633006</ele>
        <time>2022-12-30T13:01:46.356Z</time>
      </trkpt>
      <trkpt lat="44.10103" lon="1.09318">
        <ele>116.671075</ele>
        <time>2022-12-30T13:01:49.335Z</time>
      </trkpt>
      <trkpt lat="44.10092" lon="1.09316">
        <ele>116.730551</ele>
        <time>2022-12-30T13:01:52.361Z</time>
      </trkpt>
      <trkpt lat="44.1008" lon="1.09313">
        <ele>116.792943</ele>
        <time>2022-12-30T13:01:55.334Z</time>
      </trkpt>
      <trkpt lat="44.10069" lon="1.0931">
        <ele>116.853811</ele>
        <time>2022-12-30T13:01:58.353Z</time>
      </trkpt>
      <trkpt lat="44.10059" lon="1.09306">
        <ele>116.907677</ele>
        <time>2022-12-30T13:02:01.338Z</time>
      </trkpt>
      <trkpt lat="44.10048" lon="1.09305">
        <ele>116.96505</ele>
        <time>2022-12-30T13:02:04.331Z</time>
      </trkpt>
      <trkpt lat="44.10036" lon="1.09302">
        <ele>117.026081</ele>
        <time>2022-12-30T13:02:07.366Z</time>
      </trkpt>
      <trkpt lat="44.10025" lon="1.09299">
        <ele>117.082893</ele>
        <time>2022-12-30T13:02:10.351Z</time>
      </trkpt>
      <trkpt lat="44.10016" lon="1.09296">
        <ele>117.13339</ele>
        <time>2022-12-30T13:02:13.337Z</time>
      </trkpt>
      <trkpt lat="44.10005" lon="1.09291">
        <ele>117.19006</ele>
        <time>2022-12-30T13:02:17.331Z</time>
      </trkpt>
      <trkpt lat="44.09996" lon="1.09287">
        <ele>117.24025</ele>
        <time>2022-12-30T13:02:21.329Z</time>
      </trkpt>
      <trkpt lat="44.09994" lon="1.09274">
        <ele>117.290846</ele>
        <time>2022-12-30T13:02:25.343Z</time>
      </trkpt>
      <trkpt lat="44.09995" lon="1.0926">
        <ele>117.343252</ele>
        <time>2022-12-30T13:02:29.354Z</time>
      </trkpt>
      <trkpt lat="44.09996" lon="1.09245">
        <ele>117.398505</ele>
        <time>2022-12-30T13:02:34.362Z</time>
      </trkpt>
      <trkpt lat="44.09999" lon="1.09233">
        <ele>117.44633</ele>
        <time>2022-12-30T13:02:38.353Z</time>
      </trkpt>
      <trkpt lat="44.10001" lon="1.09219">
        <ele>117.498955</ele>
        <time>2022-12-30T13:02:43.338Z</time>
      </trkpt>
      <trkpt lat="44.10005" lon="1.09207">
        <ele>117.546608</ele>
        <time>2022-12-30T13:02:47.333Z</time>
      </trkpt>
      <trkpt lat="44.10009" lon="1.09194">
        <ele>117.729493</ele>
        <time>2022-12-30T13:02:52.336Z</time>
      </trkpt>
      <trkpt lat="44.1001" lon="1.09181">
        <ele>117.89702</ele>
        <time>2022-12-30T13:03:07.337Z</time>
      </trkpt>
      <trkpt lat="44.1" lon="1.09176">
        <ele>118.078355</ele>
        <time>2022-12-30T13:03:19.328Z</time>
      </trkpt>
      <trkpt lat="44.09994" lon="1.09186">
        <ele>118.248009</ele>
        <time>2022-12-30T13:03:29.337Z</time>
      </trkpt>
      <trkpt lat="44.09989" lon="1.09199">
        <ele>118.451789</ele>
        <time>2022-12-30T13:03:34.333Z</time>
      </trkpt>
      <trkpt lat="44.09985" lon="1.09213">
        <ele>118.644257</ele>
        <time>2022-12-30T13:03:38.333Z</time>
      </trkpt>
      <trkpt lat="44.09981" lon="1.09225">
        <ele>118.817694</ele>
        <time>2022-12-30T13:03:42.353Z</time>
      </trkpt>
      <trkpt lat="44.09977" lon="1.09238">
        <ele>119.00828</ele>
        <time>2022-12-30T13:03:47.354Z</time>
      </trkpt>
      <trkpt lat="44.09971" lon="1.09247">
        <ele>119.162743</ele>
        <time>2022-12-30T13:03:59.396Z</time>
      </trkpt>
      <trkpt lat="44.0997" lon="1.09262">
        <ele>119.348128</ele>
        <time>2022-12-30T13:20:42.330Z</time>
      </trkpt>
      <trkpt lat="44.09967" lon="1.09273">
        <ele>119.517953</ele>
        <time>2022-12-30T13:20:47.333Z</time>
      </trkpt>
      <trkpt lat="44.09962" lon="1.09287">
        <ele>119.715694</ele>
        <time>2022-12-30T13:20:51.362Z</time>
      </trkpt>
      <trkpt lat="44.09957" lon="1.09301">
        <ele>119.922017</ele>
        <time>2022-12-30T13:20:55.355Z</time>
      </trkpt>
      <trkpt lat="44.09954" lon="1.09314">
        <ele>120.096504</ele>
        <time>2022-12-30T13:20:59.357Z</time>
      </trkpt>
      <trkpt lat="44.09949" lon="1.09328">
        <ele>120.301273</ele>
        <time>2022-12-30T13:21:03.363Z</time>
      </trkpt>
      <trkpt lat="44.09946" lon="1.0934">
        <ele>120.46657</ele>
        <time>2022-12-30T13:21:06.352Z</time>
      </trkpt>
      <trkpt lat="44.09943" lon="1.09352">
        <ele>120.637287</ele>
        <time>2022-12-30T13:21:09.354Z</time>
      </trkpt>
      <trkpt lat="44.09939" lon="1.09364">
        <ele>120.802475</ele>
        <time>2022-12-30T13:21:12.350Z</time>
      </trkpt>
      <trkpt lat="44.09936" lon="1.09376">
        <ele>120.763844</ele>
        <time>2022-12-30T13:21:15.357Z</time>
      </trkpt>
      <trkpt lat="44.09932" lon="1.0939">
        <ele>120.6742</ele>
        <time>2022-12-30T13:21:18.345Z</time>
      </trkpt>
      <trkpt lat="44.09928" lon="1.09404">
        <ele>120.581861</ele>
        <time>2022-12-30T13:21:21.363Z</time>
      </trkpt>
      <trkpt lat="44.09924" lon="1.09418">
        <ele>120.486566</ele>
        <time>2022-12-30T13:21:24.356Z</time>
      </trkpt>
      <trkpt lat="44.0992" lon="1.09433">
        <ele>120.388465</ele>
        <time>2022-12-30T13:21:27.357Z</time>
      </trkpt>
      <trkpt lat="44.09916" lon="1.09447">
        <ele>120.294115</ele>
        <time>2022-12-30T13:21:30.359Z</time>
      </trkpt>
      <trkpt lat="44.09911" lon="1.09462">
        <ele>120.194201</ele>
        <time>2022-12-30T13:21:33.336Z</time>
      </trkpt>
      <trkpt lat="44.09907" lon="1.09477">
        <ele>120.09839</ele>
        <time>2022-12-30T13:21:36.357Z</time>
      </trkpt>
      <trkpt lat="44.09904" lon="1.09491">
        <ele>120.004901</ele>
        <time>2022-12-30T13:21:39.351Z</time>
      </trkpt>
      <trkpt lat="44.09899" lon="1.09506">
        <ele>119.904558</ele>
        <time>2022-12-30T13:21:43.359Z</time>
      </trkpt>
      <trkpt lat="44.09896" lon="1.09519">
        <ele>119.824625</ele>
        <time>2022-12-30T13:21:46.353Z</time>
      </trkpt>
      <trkpt lat="44.09892" lon="1.09535">
        <ele>119.71729</ele>
        <time>2022-12-30T13:21:50.355Z</time>
      </trkpt>
      <trkpt lat="44.09887" lon="1.09549">
        <ele>119.620865</ele>
        <time>2022-12-30T13:21:53.360Z</time>
      </trkpt>
      <trkpt lat="44.09883" lon="1.09561">
        <ele>119.539546</ele>
        <time>2022-12-30T13:21:56.359Z</time>
      </trkpt>
      <trkpt lat="44.0988" lon="1.09576">
        <ele>119.445951</ele>
        <time>2022-12-30T13:22:00.349Z</time>
      </trkpt>
      <trkpt lat="44.09876" lon="1.09589">
        <ele>119.361351</ele>
        <time>2022-12-30T13:22:03.356Z</time>
      </trkpt>
      <trkpt lat="44.09872" lon="1.09603">
        <ele>119.254323</ele>
        <time>2022-12-30T13:22:06.335Z</time>
      </trkpt>
      <trkpt lat="44.09868" lon="1.09617">
        <ele>119.121291</ele>
        <time>2022-12-30T13:22:09.352Z</time>
      </trkpt>
      <trkpt lat="44.09864" lon="1.09632">
        <ele>118.973195</ele>
        <time>2022-12-30T13:22:12.361Z</time>
      </trkpt>
      <trkpt lat="44.09859" lon="1.09646">
        <ele>118.836902</ele>
        <time>2022-12-30T13:22:15.358Z</time>
      </trkpt>
      <trkpt lat="44.09855" lon="1.09659">
        <ele>118.71461</ele>
        <time>2022-12-30T13:22:18.357Z</time>
      </trkpt>
      <trkpt lat="44.09851" lon="1.0967">
        <ele>118.602369</ele>
        <time>2022-12-30T13:22:21.358Z</time>
      </trkpt>
      <trkpt lat="44.09848" lon="1.09684">
        <ele>118.478533</ele>
        <time>2022-12-30T13:22:24.354Z</time>
      </trkpt>
      <trkpt lat="44.09844" lon="1.09697">
        <ele>118.353884</ele>
        <time>2022-12-30T13:22:27.357Z</time>
      </trkpt>
      <trkpt lat="44.0984" lon="1.09711">
        <ele>118.216557</ele>
        <time>2022-12-30T13:22:30.343Z</time>
      </trkpt>
      <trkpt lat="44.09837" lon="1.09727">
        <ele>118.069586</ele>
        <time>2022-12-30T13:22:33.356Z</time>
      </trkpt>
      <trkpt lat="44.09833" lon="1.0974">
        <ele>117.947397</ele>
        <time>2022-12-30T13:22:36.355Z</time>
      </trkpt>
      <trkpt lat="44.09829" lon="1.09755">
        <ele>117.803236</ele>
        <time>2022-12-30T13:22:39.355Z</time>
      </trkpt>
      <trkpt lat="44.09825" lon="1.09769">
        <ele>117.666439</ele>
        <time>2022-12-30T13:22:42.351Z</time>
      </trkpt>
      <trkpt lat="44.0982" lon="1.09783">
        <ele>117.530755</ele>
        <time>2022-12-30T13:22:45.355Z</time>
      </trkpt>
      <trkpt lat="44.09817" lon="1.09797">
        <ele>117.402753</ele>
        <time>2022-12-30T13:22:48.356Z</time>
      </trkpt>
      <trkpt lat="44.09813" lon="1.09811">
        <ele>117.265552</ele>
        <time>2022-12-30T13:22:51.364Z</time>
      </trkpt>
      <trkpt lat="44.09809" lon="1.09826">
        <ele>117.122694</ele>
        <time>2022-12-30T13:22:54.358Z</time>
      </trkpt>
      <trkpt lat="44.09804" lon="1.0984">
        <ele>117.14059</ele>
        <time>2022-12-30T13:22:57.343Z</time>
      </trkpt>
      <trkpt lat="44.09801" lon="1.09853">
        <ele>117.24632</ele>
        <time>2022-12-30T13:23:00.333Z</time>
      </trkpt>
      <trkpt lat="44.09798" lon="1.09866">
        <ele>117.357825</ele>
        <time>2022-12-30T13:23:03.354Z</time>
      </trkpt>
      <trkpt lat="44.09794" lon="1.0988">
        <ele>117.467543</ele>
        <time>2022-12-30T13:23:06.349Z</time>
      </trkpt>
      <trkpt lat="44.0979" lon="1.09892">
        <ele>117.571605</ele>
        <time>2022-12-30T13:23:09.361Z</time>
      </trkpt>
      <trkpt lat="44.09786" lon="1.09905">
        <ele>117.680936</ele>
        <time>2022-12-30T13:23:13.355Z</time>
      </trkpt>
      <trkpt lat="44.09782" lon="1.09919">
        <ele>117.795449</ele>
        <time>2022-12-30T13:23:17.359Z</time>
      </trkpt>
      <trkpt lat="44.09778" lon="1.09932">
        <ele>117.906274</ele>
        <time>2022-12-30T13:23:20.334Z</time>
      </trkpt>
      <trkpt lat="44.09774" lon="1.09946">
        <ele>118.022223</ele>
        <time>2022-12-30T13:23:23.358Z</time>
      </trkpt>
      <trkpt lat="44.09771" lon="1.09958">
        <ele>118.125353</ele>
        <time>2022-12-30T13:23:26.336Z</time>
      </trkpt>
      <trkpt lat="44.09767" lon="1.0997">
        <ele>118.225241</ele>
        <time>2022-12-30T13:23:29.358Z</time>
      </trkpt>
      <trkpt lat="44.09764" lon="1.09984">
        <ele>118.342207</ele>
        <time>2022-12-30T13:23:32.331Z</time>
      </trkpt>
      <trkpt lat="44.0976" lon="1.09998">
        <ele>118.453714</ele>
        <time>2022-12-30T13:23:35.356Z</time>
      </trkpt>
      <trkpt lat="44.09756" lon="1.10011">
        <ele>118.56721</ele>
        <time>2022-12-30T13:23:38.355Z</time>
      </trkpt>
      <trkpt lat="44.09752" lon="1.10027">
        <ele>118.695947</ele>
        <time>2022-12-30T13:23:41.359Z</time>
      </trkpt>
      <trkpt lat="44.09747" lon="1.10041">
        <ele>118.819577</ele>
        <time>2022-12-30T13:23:44.352Z</time>
      </trkpt>
      <trkpt lat="44.09742" lon="1.10056">
        <ele>118.94004</ele>
        <time>2022-12-30T13:23:47.346Z</time>
      </trkpt>
      <trkpt lat="44.09738" lon="1.1007">
        <ele>118.934595</ele>
        <time>2022-12-30T13:23:50.336Z</time>
      </trkpt>
      <trkpt lat="44.09735" lon="1.10086">
        <ele>118.766097</ele>
        <time>2022-12-30T13:23:53.362Z</time>
      </trkpt>
      <trkpt lat="44.0973" lon="1.10101">
        <ele>118.589497</ele>
        <time>2022-12-30T13:23:56.357Z</time>
      </trkpt>
      <trkpt lat="44.09726" lon="1.10116">
        <ele>118.426403</ele>
        <time>2022-12-30T13:23:59.355Z</time>
      </trkpt>
      <trkpt lat="44.09723" lon="1.1013">
        <ele>118.274607</ele>
        <time>2022-12-30T13:24:02.347Z</time>
      </trkpt>
      <trkpt lat="44.09719" lon="1.10145">
        <ele>118.108551</ele>
        <time>2022-12-30T13:24:05.341Z</time>
      </trkpt>
      <trkpt lat="44.09714" lon="1.1016">
        <ele>117.936502</ele>
        <time>2022-12-30T13:24:08.358Z</time>
      </trkpt>
      <trkpt lat="44.09709" lon="1.10174">
        <ele>117.771035</ele>
        <time>2022-12-30T13:24:11.358Z</time>
      </trkpt>
      <trkpt lat="44.09704" lon="1.10187">
        <ele>117.614419</ele>
        <time>2022-12-30T13:24:14.356Z</time>
      </trkpt>
      <trkpt lat="44.09699" lon="1.10198">
        <ele>117.483339</ele>
        <time>2022-12-30T13:24:16.354Z</time>
      </trkpt>
      <trkpt lat="44.09692" lon="1.10212">
        <ele>117.30017</ele>
        <time>2022-12-30T13:24:19.336Z</time>
      </trkpt>
      <trkpt lat="44.09685" lon="1.10225">
        <ele>117.129616</ele>
        <time>2022-12-30T13:24:22.361Z</time>
      </trkpt>
      <trkpt lat="44.09677" lon="1.10237">
        <ele>116.967976</ele>
        <time>2022-12-30T13:24:25.360Z</time>
      </trkpt>
      <trkpt lat="44.09669" lon="1.10249">
        <ele>116.791023</ele>
        <time>2022-12-30T13:24:28.358Z</time>
      </trkpt>
      <trkpt lat="44.09662" lon="1.10259">
        <ele>116.645396</ele>
        <time>2022-12-30T13:24:31.343Z</time>
      </trkpt>
      <trkpt lat="44.09654" lon="1.10267">
        <ele>116.506138</ele>
        <time>2022-12-30T13:24:34.334Z</time>
      </trkpt>
      <trkpt lat="44.09647" lon="1.10275">
        <ele>116.375703</ele>
        <time>2022-12-30T13:24:37.357Z</time>
      </trkpt>
      <trkpt lat="44.09638" lon="1.10283">
        <ele>116.265694</ele>
        <time>2022-12-30T13:24:40.358Z</time>
      </trkpt>
      <trkpt lat="44.0963" lon="1.1029">
        <ele>116.168702</ele>
        <time>2022-12-30T13:24:43.340Z</time>
      </trkpt>
      <trkpt lat="44.09621" lon="1.10296">
        <ele>116.059576</ele>
        <time>2022-12-30T13:24:46.358Z</time>
      </trkpt>
      <trkpt lat="44.0961" lon="1.10303">
        <ele>115.93543</ele>
        <time>2022-12-30T13:24:49.334Z</time>
      </trkpt>
      <trkpt lat="44.09599" lon="1.10309">
        <ele>115.809079</ele>
        <time>2022-12-30T13:24:52.344Z</time>
      </trkpt>
      <trkpt lat="44.09588" lon="1.10314">
        <ele>115.68363</ele>
        <time>2022-12-30T13:24:55.351Z</time>
      </trkpt>
      <trkpt lat="44.09575" lon="1.10318">
        <ele>115.550353</ele>
        <time>2022-12-30T13:24:58.351Z</time>
      </trkpt>
      <trkpt lat="44.09564" lon="1.10321">
        <ele>115.426758</ele>
        <time>2022-12-30T13:25:01.355Z</time>
      </trkpt>
      <trkpt lat="44.09551" lon="1.10322">
        <ele>115.292334</ele>
        <time>2022-12-30T13:25:04.365Z</time>
      </trkpt>
      <trkpt lat="44.09539" lon="1.10322">
        <ele>115.159366</ele>
        <time>2022-12-30T13:25:07.356Z</time>
      </trkpt>
      <trkpt lat="44.09527" lon="1.10321">
        <ele>115.037872</ele>
        <time>2022-12-30T13:25:10.342Z</time>
      </trkpt>
      <trkpt lat="44.09517" lon="1.10319">
        <ele>114.930614</ele>
        <time>2022-12-30T13:25:13.345Z</time>
      </trkpt>
      <trkpt lat="44.09505" lon="1.10318">
        <ele>114.800193</ele>
        <time>2022-12-30T13:25:16.357Z</time>
      </trkpt>
      <trkpt lat="44.09492" lon="1.10314">
        <ele>114.667125</ele>
        <time>2022-12-30T13:25:19.339Z</time>
      </trkpt>
      <trkpt lat="44.09481" lon="1.10313">
        <ele>114.547353</ele>
        <time>2022-12-30T13:25:22.342Z</time>
      </trkpt>
      <trkpt lat="44.09472" lon="1.10311">
        <ele>114.624621</ele>
        <time>2022-12-30T13:25:25.354Z</time>
      </trkpt>
      <trkpt lat="44.09462" lon="1.10308">
        <ele>114.916946</ele>
        <time>2022-12-30T13:25:30.353Z</time>
      </trkpt>
      <trkpt lat="44.09453" lon="1.10305">
        <ele>115.187841</ele>
        <time>2022-12-30T13:25:35.339Z</time>
      </trkpt>
      <trkpt lat="44.09442" lon="1.10303">
        <ele>115.486888</ele>
        <time>2022-12-30T13:25:40.337Z</time>
      </trkpt>
      <trkpt lat="44.09431" lon="1.103">
        <ele>115.82838</ele>
        <time>2022-12-30T13:25:44.341Z</time>
      </trkpt>
      <trkpt lat="44.09421" lon="1.10298">
        <ele>116.112396</ele>
        <time>2022-12-30T13:25:48.344Z</time>
      </trkpt>
      <trkpt lat="44.09412" lon="1.10296">
        <ele>116.386026</ele>
        <time>2022-12-30T13:25:51.341Z</time>
      </trkpt>
      <trkpt lat="44.09402" lon="1.10293">
        <ele>116.680714</ele>
        <time>2022-12-30T13:25:54.332Z</time>
      </trkpt>
      <trkpt lat="44.09393" lon="1.10291">
        <ele>116.943264</ele>
        <time>2022-12-30T13:25:57.347Z</time>
      </trkpt>
      <trkpt lat="44.09382" lon="1.1029">
        <ele>117.250199</ele>
        <time>2022-12-30T13:26:00.347Z</time>
      </trkpt>
      <trkpt lat="44.09371" lon="1.10288">
        <ele>117.567787</ele>
        <time>2022-12-30T13:26:04.341Z</time>
      </trkpt>
      <trkpt lat="44.09361" lon="1.10286">
        <ele>117.856762</ele>
        <time>2022-12-30T13:26:09.394Z</time>
      </trkpt>
      <trkpt lat="44.09351" lon="1.10286">
        <ele>118.14544</ele>
        <time>2022-12-30T13:26:16.341Z</time>
      </trkpt>
      <trkpt lat="44.09343" lon="1.10281">
        <ele>118.408907</ele>
        <time>2022-12-30T13:26:25.341Z</time>
      </trkpt>
      <trkpt lat="44.0933" lon="1.10277">
        <ele>118.772983</ele>
        <time>2022-12-30T13:26:48.342Z</time>
      </trkpt>
      <trkpt lat="44.09321" lon="1.10281">
        <ele>119.063267</ele>
        <time>2022-12-30T13:26:56.344Z</time>
      </trkpt>
      <trkpt lat="44.09311" lon="1.10278">
        <ele>119.331741</ele>
        <time>2022-12-30T13:27:04.343Z</time>
      </trkpt>
      <trkpt lat="44.09302" lon="1.10276">
        <ele>119.619939</ele>
        <time>2022-12-30T13:27:13.345Z</time>
      </trkpt>
      <trkpt lat="44.09293" lon="1.10274">
        <ele>119.750139</ele>
        <time>2022-12-30T13:27:21.339Z</time>
      </trkpt>
      <trkpt lat="44.09283" lon="1.10271">
        <ele>119.851423</ele>
        <time>2022-12-30T13:27:29.335Z</time>
      </trkpt>
      <trkpt lat="44.09273" lon="1.10268">
        <ele>119.951335</ele>
        <time>2022-12-30T13:27:37.335Z</time>
      </trkpt>
      <trkpt lat="44.09264" lon="1.10267">
        <ele>120.046432</ele>
        <time>2022-12-30T13:27:45.346Z</time>
      </trkpt>
      <trkpt lat="44.09254" lon="1.10265">
        <ele>120.14464</ele>
        <time>2022-12-30T13:27:53.340Z</time>
      </trkpt>
      <trkpt lat="44.09245" lon="1.10263">
        <ele>120.243951</ele>
        <time>2022-12-30T13:28:01.345Z</time>
      </trkpt>
      <trkpt lat="44.09236" lon="1.10261">
        <ele>120.33647</ele>
        <time>2022-12-30T13:28:09.353Z</time>
      </trkpt>
      <trkpt lat="44.09226" lon="1.10258">
        <ele>120.436383</ele>
        <time>2022-12-30T13:28:17.339Z</time>
      </trkpt>
      <trkpt lat="44.09217" lon="1.10256">
        <ele>120.527364</ele>
        <time>2022-12-30T13:28:25.332Z</time>
      </trkpt>
      <trkpt lat="44.09207" lon="1.10254">
        <ele>120.626889</ele>
        <time>2022-12-30T13:28:33.347Z</time>
      </trkpt>
      <trkpt lat="44.09198" lon="1.10252">
        <ele>120.721079</ele>
        <time>2022-12-30T13:28:41.346Z</time>
      </trkpt>
      <trkpt lat="44.09188" lon="1.1025">
        <ele>120.820838</ele>
        <time>2022-12-30T13:28:49.345Z</time>
      </trkpt>
      <trkpt lat="44.09179" lon="1.10248">
        <ele>120.913021</ele>
        <time>2022-12-30T13:28:56.351Z</time>
      </trkpt>
      <trkpt lat="44.0917" lon="1.10245">
        <ele>121.008497</ele>
        <time>2022-12-30T13:29:04.337Z</time>
      </trkpt>
      <trkpt lat="44.09161" lon="1.10243">
        <ele>121.101837</ele>
        <time>2022-12-30T13:29:12.340Z</time>
      </trkpt>
      <trkpt lat="44.09152" lon="1.1024">
        <ele>121.198862</ele>
        <time>2022-12-30T13:29:20.338Z</time>
      </trkpt>
      <trkpt lat="44.09143" lon="1.10238">
        <ele>121.289919</ele>
        <time>2022-12-30T13:29:28.328Z</time>
      </trkpt>
      <trkpt lat="44.09134" lon="1.10234">
        <ele>121.386059</ele>
        <time>2022-12-30T13:29:36.347Z</time>
      </trkpt>
      <trkpt lat="44.09124" lon="1.10232">
        <ele>121.485475</ele>
        <time>2022-12-30T13:29:44.343Z</time>
      </trkpt>
      <trkpt lat="44.09115" lon="1.1023">
        <ele>121.400013</ele>
        <time>2022-12-30T13:29:52.337Z</time>
      </trkpt>
      <trkpt lat="44.09105" lon="1.10227">
        <ele>121.278652</ele>
        <time>2022-12-30T13:30:00.345Z</time>
      </trkpt>
      <trkpt lat="44.09095" lon="1.10225">
        <ele>121.153427</ele>
        <time>2022-12-30T13:30:09.355Z</time>
      </trkpt>
      <trkpt lat="44.09087" lon="1.10223">
        <ele>121.040821</ele>
        <time>2022-12-30T13:30:17.337Z</time>
      </trkpt>
      <trkpt lat="44.09077" lon="1.1022">
        <ele>120.919794</ele>
        <time>2022-12-30T13:30:25.344Z</time>
      </trkpt>
      <trkpt lat="44.09068" lon="1.10218">
        <ele>120.800892</ele>
        <time>2022-12-30T13:30:33.337Z</time>
      </trkpt>
      <trkpt lat="44.09058" lon="1.10215">
        <ele>120.680582</ele>
        <time>2022-12-30T13:30:41.333Z</time>
      </trkpt>
      <trkpt lat="44.09049" lon="1.10212">
        <ele>120.558475</ele>
        <time>2022-12-30T13:30:49.347Z</time>
      </trkpt>
      <trkpt lat="44.09041" lon="1.10207">
        <ele>120.444015</ele>
        <time>2022-12-30T13:30:57.343Z</time>
      </trkpt>
      <trkpt lat="44.09032" lon="1.10203">
        <ele>120.327325</ele>
        <time>2022-12-30T13:31:05.334Z</time>
      </trkpt>
      <trkpt lat="44.09022" lon="1.10199">
        <ele>120.206511</ele>
        <time>2022-12-30T13:31:13.345Z</time>
      </trkpt>
      <trkpt lat="44.09013" lon="1.10194">
        <ele>120.081315</ele>
        <time>2022-12-30T13:31:22.342Z</time>
      </trkpt>
      <trkpt lat="44.09004" lon="1.10191">
        <ele>119.959575</ele>
        <time>2022-12-30T13:31:31.346Z</time>
      </trkpt>
      <trkpt lat="44.08989" lon="1.10188">
        <ele>119.770988</ele>
        <time>2022-12-30T13:33:11.339Z</time>
      </trkpt>
      <trkpt lat="44.08978" lon="1.10187">
        <ele>119.632443</ele>
        <time>2022-12-30T13:33:15.366Z</time>
      </trkpt>
      <trkpt lat="44.08968" lon="1.10183">
        <ele>119.505047</ele>
        <time>2022-12-30T13:33:18.349Z</time>
      </trkpt>
      <trkpt lat="44.08958" lon="1.10181">
        <ele>119.377998</ele>
        <time>2022-12-30T13:33:21.351Z</time>
      </trkpt>
      <trkpt lat="44.08948" lon="1.10179">
        <ele>119.254091</ele>
        <time>2022-12-30T13:33:24.368Z</time>
      </trkpt>
      <trkpt lat="44.08938" lon="1.10177">
        <ele>119.074585</ele>
        <time>2022-12-30T13:33:27.335Z</time>
      </trkpt>
      <trkpt lat="44.08927" lon="1.10174">
        <ele>118.886609</ele>
        <time>2022-12-30T13:33:30.350Z</time>
      </trkpt>
      <trkpt lat="44.08917" lon="1.10172">
        <ele>118.70631</ele>
        <time>2022-12-30T13:33:33.351Z</time>
      </trkpt>
      <trkpt lat="44.08905" lon="1.1017">
        <ele>118.508602</ele>
        <time>2022-12-30T13:33:36.359Z</time>
      </trkpt>
      <trkpt lat="44.08893" lon="1.10167">
        <ele>118.302747</ele>
        <time>2022-12-30T13:33:39.342Z</time>
      </trkpt>
      <trkpt lat="44.08881" lon="1.10164">
        <ele>118.081885</ele>
        <time>2022-12-30T13:33:42.365Z</time>
      </trkpt>
      <trkpt lat="44.08868" lon="1.1016">
        <ele>117.863707</ele>
        <time>2022-12-30T13:33:45.358Z</time>
      </trkpt>
      <trkpt lat="44.08856" lon="1.10157">
        <ele>117.646008</ele>
        <time>2022-12-30T13:33:48.336Z</time>
      </trkpt>
      <trkpt lat="44.08844" lon="1.10154">
        <ele>117.42952</ele>
        <time>2022-12-30T13:33:51.329Z</time>
      </trkpt>
      <trkpt lat="44.08832" lon="1.10151">
        <ele>117.225931</ele>
        <time>2022-12-30T13:33:54.351Z</time>
      </trkpt>
      <trkpt lat="44.0882" lon="1.10148">
        <ele>117.0072</ele>
        <time>2022-12-30T13:33:57.351Z</time>
      </trkpt>
      <trkpt lat="44.08807" lon="1.10144">
        <ele>116.78152</ele>
        <time>2022-12-30T13:34:00.338Z</time>
      </trkpt>
      <trkpt lat="44.08794" lon="1.10141">
        <ele>116.556752</ele>
        <time>2022-12-30T13:34:03.349Z</time>
      </trkpt>
      <trkpt lat="44.08782" lon="1.10139">
        <ele>116.346935</ele>
        <time>2022-12-30T13:34:06.352Z</time>
      </trkpt>
      <trkpt lat="44.0877" lon="1.10136">
        <ele>116.144531</ele>
        <time>2022-12-30T13:34:09.353Z</time>
      </trkpt>
      <trkpt lat="44.08758" lon="1.10133">
        <ele>116.14157</ele>
        <time>2022-12-30T13:34:12.355Z</time>
      </trkpt>
      <trkpt lat="44.08746" lon="1.1013">
        <ele>116.138533</ele>
        <time>2022-12-30T13:34:15.350Z</time>
      </trkpt>
      <trkpt lat="44.08734" lon="1.10128">
        <ele>116.135515</ele>
        <time>2022-12-30T13:34:18.353Z</time>
      </trkpt>
      <trkpt lat="44.08725" lon="1.10125">
        <ele>116.13325</ele>
        <time>2022-12-30T13:34:20.354Z</time>
      </trkpt>
      <trkpt lat="44.08713" lon="1.10122">
        <ele>116.13017</ele>
        <time>2022-12-30T13:34:23.350Z</time>
      </trkpt>
      <trkpt lat="44.08702" lon="1.1012">
        <ele>116.127345</ele>
        <time>2022-12-30T13:34:26.355Z</time>
      </trkpt>
      <trkpt lat="44.08689" lon="1.10116">
        <ele>116.123999</ele>
        <time>2022-12-30T13:34:29.353Z</time>
      </trkpt>
      <trkpt lat="44.08674" lon="1.10112">
        <ele>116.120246</ele>
        <time>2022-12-30T13:34:32.355Z</time>
      </trkpt>
      <trkpt lat="44.08662" lon="1.1011">
        <ele>116.117106</ele>
        <time>2022-12-30T13:34:35.335Z</time>
      </trkpt>
      <trkpt lat="44.08649" lon="1.10106">
        <ele>116.11377</ele>
        <time>2022-12-30T13:34:38.353Z</time>
      </trkpt>
      <trkpt lat="44.08636" lon="1.10103">
        <ele>116.110533</ele>
        <time>2022-12-30T13:34:41.358Z</time>
      </trkpt>
      <trkpt lat="44.08624" lon="1.101">
        <ele>116.107541</ele>
        <time>2022-12-30T13:34:44.356Z</time>
      </trkpt>
      <trkpt lat="44.08615" lon="1.10096">
        <ele>116.105118</ele>
        <time>2022-12-30T13:34:46.333Z</time>
      </trkpt>
      <trkpt lat="44.08606" lon="1.10094">
        <ele>116.10279</ele>
        <time>2022-12-30T13:34:48.351Z</time>
      </trkpt>
      <trkpt lat="44.08597" lon="1.10091">
        <ele>116.100525</ele>
        <time>2022-12-30T13:34:50.334Z</time>
      </trkpt>
      <trkpt lat="44.08588" lon="1.1009">
        <ele>116.146079</ele>
        <time>2022-12-30T13:34:52.359Z</time>
      </trkpt>
      <trkpt lat="44.08575" lon="1.10088">
        <ele>116.24598</ele>
        <time>2022-12-30T13:34:55.355Z</time>
      </trkpt>
      <trkpt lat="44.08563" lon="1.10085">
        <ele>116.346259</ele>
        <time>2022-12-30T13:34:58.341Z</time>
      </trkpt>
      <trkpt lat="44.0855" lon="1.10081">
        <ele>116.453009</ele>
        <time>2022-12-30T13:35:01.332Z</time>
      </trkpt>
      <trkpt lat="44.08541" lon="1.10078">
        <ele>116.52822</ele>
        <time>2022-12-30T13:35:03.339Z</time>
      </trkpt>
      <trkpt lat="44.08529" lon="1.10075">
        <ele>116.624915</ele>
        <time>2022-12-30T13:35:06.354Z</time>
      </trkpt>
      <trkpt lat="44.0852" lon="1.10073">
        <ele>116.69775</ele>
        <time>2022-12-30T13:35:08.353Z</time>
      </trkpt>
      <trkpt lat="44.08508" lon="1.1007">
        <ele>116.79058</ele>
        <time>2022-12-30T13:35:11.364Z</time>
      </trkpt>
      <trkpt lat="44.08496" lon="1.10067">
        <ele>116.892054</ele>
        <time>2022-12-30T13:35:14.358Z</time>
      </trkpt>
      <trkpt lat="44.08484" lon="1.10065">
        <ele>116.982434</ele>
        <time>2022-12-30T13:35:17.348Z</time>
      </trkpt>
      <trkpt lat="44.08472" lon="1.10063">
        <ele>117.080087</ele>
        <time>2022-12-30T13:35:20.353Z</time>
      </trkpt>
      <trkpt lat="44.08459" lon="1.1006">
        <ele>117.184883</ele>
        <time>2022-12-30T13:35:23.355Z</time>
      </trkpt>
      <trkpt lat="44.0845" lon="1.10058">
        <ele>117.256469</ele>
        <time>2022-12-30T13:35:25.349Z</time>
      </trkpt>
      <trkpt lat="44.08437" lon="1.10055">
        <ele>117.364592</ele>
        <time>2022-12-30T13:35:28.350Z</time>
      </trkpt>
      <trkpt lat="44.08424" lon="1.10051">
        <ele>117.46865</ele>
        <time>2022-12-30T13:35:31.351Z</time>
      </trkpt>
      <trkpt lat="44.08412" lon="1.10048">
        <ele>117.548482</ele>
        <time>2022-12-30T13:35:34.352Z</time>
      </trkpt>
      <trkpt lat="44.084" lon="1.10045">
        <ele>117.597727</ele>
        <time>2022-12-30T13:35:37.331Z</time>
      </trkpt>
      <trkpt lat="44.08389" lon="1.10042">
        <ele>117.638805</ele>
        <time>2022-12-30T13:35:39.350Z</time>
      </trkpt>
      <trkpt lat="44.0838" lon="1.10039">
        <ele>117.67485</ele>
        <time>2022-12-30T13:35:41.351Z</time>
      </trkpt>
      <trkpt lat="44.08367" lon="1.10036">
        <ele>117.72551</ele>
        <time>2022-12-30T13:35:44.354Z</time>
      </trkpt>
      <trkpt lat="44.08358" lon="1.10033">
        <ele>117.762231</ele>
        <time>2022-12-30T13:35:46.355Z</time>
      </trkpt>
      <trkpt lat="44.08346" lon="1.1003">
        <ele>117.809575</ele>
        <time>2022-12-30T13:35:49.345Z</time>
      </trkpt>
      <trkpt lat="44.08337" lon="1.10027">
        <ele>117.846452</ele>
        <time>2022-12-30T13:35:51.352Z</time>
      </trkpt>
      <trkpt lat="44.08324" lon="1.10026">
        <ele>117.897964</ele>
        <time>2022-12-30T13:35:54.351Z</time>
      </trkpt>
      <trkpt lat="44.08315" lon="1.10023">
        <ele>117.933816</ele>
        <time>2022-12-30T13:35:56.353Z</time>
      </trkpt>
      <trkpt lat="44.08302" lon="1.10019">
        <ele>117.983385</ele>
        <time>2022-12-30T13:35:59.353Z</time>
      </trkpt>
      <trkpt lat="44.08293" lon="1.10017">
        <ele>118.02049</ele>
        <time>2022-12-30T13:36:01.353Z</time>
      </trkpt>
      <trkpt lat="44.0828" lon="1.10014">
        <ele>118.071974</ele>
        <time>2022-12-30T13:36:04.351Z</time>
      </trkpt>
      <trkpt lat="44.08267" lon="1.10011">
        <ele>118.121818</ele>
        <time>2022-12-30T13:36:07.353Z</time>
      </trkpt>
      <trkpt lat="44.08258" lon="1.10008">
        <ele>118.158809</ele>
        <time>2022-12-30T13:36:09.350Z</time>
      </trkpt>
      <trkpt lat="44.08245" lon="1.10004">
        <ele>118.210832</ele>
        <time>2022-12-30T13:36:12.353Z</time>
      </trkpt>
      <trkpt lat="44.08232" lon="1.10002">
        <ele>118.280625</ele>
        <time>2022-12-30T13:36:15.354Z</time>
      </trkpt>
      <trkpt lat="44.0822" lon="1.09999">
        <ele>118.363667</ele>
        <time>2022-12-30T13:36:18.351Z</time>
      </trkpt>
      <trkpt lat="44.08207" lon="1.09996">
        <ele>118.454217</ele>
        <time>2022-12-30T13:36:21.352Z</time>
      </trkpt>
      <trkpt lat="44.08197" lon="1.09993">
        <ele>118.518393</ele>
        <time>2022-12-30T13:36:23.354Z</time>
      </trkpt>
      <trkpt lat="44.08187" lon="1.09991">
        <ele>118.585451</ele>
        <time>2022-12-30T13:36:25.353Z</time>
      </trkpt>
      <trkpt lat="44.08175" lon="1.09988">
        <ele>118.668767</ele>
        <time>2022-12-30T13:36:28.345Z</time>
      </trkpt>
      <trkpt lat="44.08163" lon="1.09984">
        <ele>118.755525</ele>
        <time>2022-12-30T13:36:31.352Z</time>
      </trkpt>
      <trkpt lat="44.08149" lon="1.09981">
        <ele>118.847988</ele>
        <time>2022-12-30T13:36:34.359Z</time>
      </trkpt>
      <trkpt lat="44.0814" lon="1.09979">
        <ele>118.909018</ele>
        <time>2022-12-30T13:36:36.344Z</time>
      </trkpt>
      <trkpt lat="44.08127" lon="1.09976">
        <ele>118.999935</ele>
        <time>2022-12-30T13:36:39.348Z</time>
      </trkpt>
      <trkpt lat="44.08115" lon="1.09973">
        <ele>119.078112</ele>
        <time>2022-12-30T13:36:42.347Z</time>
      </trkpt>
      <trkpt lat="44.08106" lon="1.0997">
        <ele>119.141497</ele>
        <time>2022-12-30T13:36:44.353Z</time>
      </trkpt>
      <trkpt lat="44.08093" lon="1.09967">
        <ele>119.225397</ele>
        <time>2022-12-30T13:36:47.354Z</time>
      </trkpt>
      <trkpt lat="44.08082" lon="1.09964">
        <ele>119.300457</ele>
        <time>2022-12-30T13:36:50.353Z</time>
      </trkpt>
      <trkpt lat="44.08072" lon="1.09962">
        <ele>119.370236</ele>
        <time>2022-12-30T13:36:53.330Z</time>
      </trkpt>
      <trkpt lat="44.0806" lon="1.0996">
        <ele>119.451669</ele>
        <time>2022-12-30T13:36:56.352Z</time>
      </trkpt>
      <trkpt lat="44.08047" lon="1.09958">
        <ele>119.537125</ele>
        <time>2022-12-30T13:36:59.351Z</time>
      </trkpt>
      <trkpt lat="44.08037" lon="1.09955">
        <ele>119.599033</ele>
        <time>2022-12-30T13:37:01.351Z</time>
      </trkpt>
      <trkpt lat="44.08027" lon="1.09951">
        <ele>119.667507</ele>
        <time>2022-12-30T13:37:03.352Z</time>
      </trkpt>
      <trkpt lat="44.08014" lon="1.09948">
        <ele>119.755114</ele>
        <time>2022-12-30T13:37:06.353Z</time>
      </trkpt>
      <trkpt lat="44.08001" lon="1.09945">
        <ele>119.83544</ele>
        <time>2022-12-30T13:37:09.363Z</time>
      </trkpt>
      <trkpt lat="44.07988" lon="1.09941">
        <ele>119.923227</ele>
        <time>2022-12-30T13:37:12.354Z</time>
      </trkpt>
      <trkpt lat="44.07975" lon="1.09938">
        <ele>120.005365</ele>
        <time>2022-12-30T13:37:15.353Z</time>
      </trkpt>
      <trkpt lat="44.07966" lon="1.09935">
        <ele>120.068692</ele>
        <time>2022-12-30T13:37:17.356Z</time>
      </trkpt>
      <trkpt lat="44.07953" lon="1.09933">
        <ele>120.151164</ele>
        <time>2022-12-30T13:37:20.340Z</time>
      </trkpt>
      <trkpt lat="44.07941" lon="1.09929">
        <ele>120.230791</ele>
        <time>2022-12-30T13:37:23.331Z</time>
      </trkpt>
      <trkpt lat="44.0793" lon="1.09926">
        <ele>120.302494</ele>
        <time>2022-12-30T13:37:26.353Z</time>
      </trkpt>
      <trkpt lat="44.0792" lon="1.09924">
        <ele>120.366292</ele>
        <time>2022-12-30T13:37:29.351Z</time>
      </trkpt>
      <trkpt lat="44.07911" lon="1.09922">
        <ele>120.427335</ele>
        <time>2022-12-30T13:37:32.351Z</time>
      </trkpt>
      <trkpt lat="44.079" lon="1.0992">
        <ele>120.498674</ele>
        <time>2022-12-30T13:37:35.351Z</time>
      </trkpt>
      <trkpt lat="44.07887" lon="1.09917">
        <ele>120.578681</ele>
        <time>2022-12-30T13:37:38.334Z</time>
      </trkpt>
      <trkpt lat="44.07874" lon="1.09913">
        <ele>120.462762</ele>
        <time>2022-12-30T13:37:41.333Z</time>
      </trkpt>
      <trkpt lat="44.07862" lon="1.09909">
        <ele>120.327144</ele>
        <time>2022-12-30T13:37:44.351Z</time>
      </trkpt>
      <trkpt lat="44.07853" lon="1.09907">
        <ele>120.230156</ele>
        <time>2022-12-30T13:37:46.350Z</time>
      </trkpt>
      <trkpt lat="44.0784" lon="1.09904">
        <ele>120.089879</ele>
        <time>2022-12-30T13:37:49.353Z</time>
      </trkpt>
      <trkpt lat="44.07827" lon="1.09901">
        <ele>119.953276</ele>
        <time>2022-12-30T13:37:52.353Z</time>
      </trkpt>
      <trkpt lat="44.07814" lon="1.09897">
        <ele>119.815186</ele>
        <time>2022-12-30T13:37:55.353Z</time>
      </trkpt>
      <trkpt lat="44.07802" lon="1.09894">
        <ele>119.685791</ele>
        <time>2022-12-30T13:37:58.353Z</time>
      </trkpt>
      <trkpt lat="44.07793" lon="1.09891">
        <ele>119.586432</ele>
        <time>2022-12-30T13:38:00.353Z</time>
      </trkpt>
      <trkpt lat="44.0778" lon="1.09888">
        <ele>119.438026</ele>
        <time>2022-12-30T13:38:03.348Z</time>
      </trkpt>
      <trkpt lat="44.07766" lon="1.09885">
        <ele>119.294592</ele>
        <time>2022-12-30T13:38:06.353Z</time>
      </trkpt>
      <trkpt lat="44.07757" lon="1.09882">
        <ele>119.195765</ele>
        <time>2022-12-30T13:38:08.352Z</time>
      </trkpt>
      <trkpt lat="44.07744" lon="1.09879">
        <ele>119.048678</ele>
        <time>2022-12-30T13:38:11.352Z</time>
      </trkpt>
      <trkpt lat="44.07734" lon="1.09876">
        <ele>118.947458</ele>
        <time>2022-12-30T13:38:13.349Z</time>
      </trkpt>
      <trkpt lat="44.07721" lon="1.09873">
        <ele>118.80575</ele>
        <time>2022-12-30T13:38:16.353Z</time>
      </trkpt>
      <trkpt lat="44.07712" lon="1.09871">
        <ele>118.705111</ele>
        <time>2022-12-30T13:38:18.335Z</time>
      </trkpt>
      <trkpt lat="44.07699" lon="1.09867">
        <ele>118.697985</ele>
        <time>2022-12-30T13:38:21.334Z</time>
      </trkpt>
      <trkpt lat="44.07686" lon="1.09864">
        <ele>118.730091</ele>
        <time>2022-12-30T13:38:24.354Z</time>
      </trkpt>
      <trkpt lat="44.07672" lon="1.0986">
        <ele>118.765305</ele>
        <time>2022-12-30T13:38:27.351Z</time>
      </trkpt>
      <trkpt lat="44.0766" lon="1.09858">
        <ele>118.794563</ele>
        <time>2022-12-30T13:38:30.354Z</time>
      </trkpt>
      <trkpt lat="44.07651" lon="1.09857">
        <ele>118.817878</ele>
        <time>2022-12-30T13:38:32.352Z</time>
      </trkpt>
      <trkpt lat="44.07639" lon="1.09855">
        <ele>118.848381</ele>
        <time>2022-12-30T13:38:35.353Z</time>
      </trkpt>
      <trkpt lat="44.07628" lon="1.09853">
        <ele>118.876086</ele>
        <time>2022-12-30T13:38:38.358Z</time>
      </trkpt>
      <trkpt lat="44.07617" lon="1.09849">
        <ele>118.90398</ele>
        <time>2022-12-30T13:38:41.350Z</time>
      </trkpt>
      <trkpt lat="44.07605" lon="1.09845">
        <ele>118.934081</ele>
        <time>2022-12-30T13:38:44.353Z</time>
      </trkpt>
      <trkpt lat="44.07592" lon="1.09844">
        <ele>118.965968</ele>
        <time>2022-12-30T13:38:47.363Z</time>
      </trkpt>
      <trkpt lat="44.07578" lon="1.09843">
        <ele>118.999064</ele>
        <time>2022-12-30T13:38:50.353Z</time>
      </trkpt>
      <trkpt lat="44.07569" lon="1.09842">
        <ele>119.021592</ele>
        <time>2022-12-30T13:38:52.352Z</time>
      </trkpt>
      <trkpt lat="44.0756" lon="1.09842">
        <ele>119.044529</ele>
        <time>2022-12-30T13:38:54.341Z</time>
      </trkpt>
      <trkpt lat="44.07551" lon="1.09843">
        <ele>119.067244</ele>
        <time>2022-12-30T13:38:56.354Z</time>
      </trkpt>
      <trkpt lat="44.07542" lon="1.09843">
        <ele>119.089688</ele>
        <time>2022-12-30T13:38:58.351Z</time>
      </trkpt>
      <trkpt lat="44.07532" lon="1.09843">
        <ele>119.113367</ele>
        <time>2022-12-30T13:39:00.351Z</time>
      </trkpt>
      <trkpt lat="44.07523" lon="1.09844">
        <ele>119.153262</ele>
        <time>2022-12-30T13:39:02.352Z</time>
      </trkpt>
      <trkpt lat="44.07513" lon="1.09846">
        <ele>119.198765</ele>
        <time>2022-12-30T13:39:04.351Z</time>
      </trkpt>
      <trkpt lat="44.07504" lon="1.09847">
        <ele>119.243973</ele>
        <time>2022-12-30T13:39:06.353Z</time>
      </trkpt>
      <trkpt lat="44.07494" lon="1.09849">
        <ele>119.288096</ele>
        <time>2022-12-30T13:39:08.338Z</time>
      </trkpt>
      <trkpt lat="44.07481" lon="1.09852">
        <ele>119.348285</ele>
        <time>2022-12-30T13:39:11.333Z</time>
      </trkpt>
      <trkpt lat="44.07469" lon="1.09856">
        <ele>119.409374</ele>
        <time>2022-12-30T13:39:14.333Z</time>
      </trkpt>
      <trkpt lat="44.07457" lon="1.0986">
        <ele>119.465804</ele>
        <time>2022-12-30T13:39:17.335Z</time>
      </trkpt>
      <trkpt lat="44.07445" lon="1.09863">
        <ele>119.520487</ele>
        <time>2022-12-30T13:39:20.356Z</time>
      </trkpt>
      <trkpt lat="44.07433" lon="1.09867">
        <ele>119.578634</ele>
        <time>2022-12-30T13:39:23.354Z</time>
      </trkpt>
      <trkpt lat="44.07421" lon="1.09871">
        <ele>119.637543</ele>
        <time>2022-12-30T13:39:26.339Z</time>
      </trkpt>
      <trkpt lat="44.07409" lon="1.09875">
        <ele>119.695274</ele>
        <time>2022-12-30T13:39:29.332Z</time>
      </trkpt>
      <trkpt lat="44.07396" lon="1.09879">
        <ele>119.755869</ele>
        <time>2022-12-30T13:39:32.354Z</time>
      </trkpt>
      <trkpt lat="44.07383" lon="1.09883">
        <ele>119.817566</ele>
        <time>2022-12-30T13:39:35.332Z</time>
      </trkpt>
      <trkpt lat="44.07374" lon="1.09886">
        <ele>119.860183</ele>
        <time>2022-12-30T13:39:37.344Z</time>
      </trkpt>
      <trkpt lat="44.07365" lon="1.09889">
        <ele>119.903702</ele>
        <time>2022-12-30T13:39:39.337Z</time>
      </trkpt>
      <trkpt lat="44.07352" lon="1.09894">
        <ele>119.951309</ele>
        <time>2022-12-30T13:39:42.364Z</time>
      </trkpt>
      <trkpt lat="44.07343" lon="1.09897">
        <ele>119.947706</ele>
        <time>2022-12-30T13:39:44.338Z</time>
      </trkpt>
      <trkpt lat="44.07334" lon="1.099">
        <ele>119.944117</ele>
        <time>2022-12-30T13:39:46.357Z</time>
      </trkpt>
      <trkpt lat="44.07325" lon="1.09904">
        <ele>119.940669</ele>
        <time>2022-12-30T13:39:48.353Z</time>
      </trkpt>
      <trkpt lat="44.07316" lon="1.09906">
        <ele>119.937071</ele>
        <time>2022-12-30T13:39:50.354Z</time>
      </trkpt>
      <trkpt lat="44.07307" lon="1.0991">
        <ele>119.933616</ele>
        <time>2022-12-30T13:39:52.354Z</time>
      </trkpt>
      <trkpt lat="44.07298" lon="1.09912">
        <ele>119.930001</ele>
        <time>2022-12-30T13:39:54.353Z</time>
      </trkpt>
      <trkpt lat="44.07289" lon="1.09916">
        <ele>119.926501</ele>
        <time>2022-12-30T13:39:56.339Z</time>
      </trkpt>
      <trkpt lat="44.0728" lon="1.09919">
        <ele>119.923011</ele>
        <time>2022-12-30T13:39:58.352Z</time>
      </trkpt>
      <trkpt lat="44.07267" lon="1.09923">
        <ele>119.917826</ele>
        <time>2022-12-30T13:40:01.354Z</time>
      </trkpt>
      <trkpt lat="44.07258" lon="1.09926">
        <ele>119.914286</ele>
        <time>2022-12-30T13:40:03.348Z</time>
      </trkpt>
      <trkpt lat="44.07249" lon="1.09929">
        <ele>119.910758</ele>
        <time>2022-12-30T13:40:05.356Z</time>
      </trkpt>
      <trkpt lat="44.0724" lon="1.09932">
        <ele>119.907255</ele>
        <time>2022-12-30T13:40:07.353Z</time>
      </trkpt>
      <trkpt lat="44.07227" lon="1.09936">
        <ele>119.902153</ele>
        <time>2022-12-30T13:40:10.356Z</time>
      </trkpt>
      <trkpt lat="44.07214" lon="1.09939">
        <ele>119.897068</ele>
        <time>2022-12-30T13:40:13.352Z</time>
      </trkpt>
      <trkpt lat="44.07202" lon="1.09943">
        <ele>119.892234</ele>
        <time>2022-12-30T13:40:16.336Z</time>
      </trkpt>
      <trkpt lat="44.07191" lon="1.09947">
        <ele>119.887885</ele>
        <time>2022-12-30T13:40:19.354Z</time>
      </trkpt>
      <trkpt lat="44.07181" lon="1.0995">
        <ele>119.883958</ele>
        <time>2022-12-30T13:40:22.354Z</time>
      </trkpt>
      <trkpt lat="44.0717" lon="1.09954">
        <ele>120.043936</ele>
        <time>2022-12-30T13:40:25.349Z</time>
      </trkpt>
      <trkpt lat="44.07159" lon="1.09957">
        <ele>120.247122</ele>
        <time>2022-12-30T13:40:28.356Z</time>
      </trkpt>
      <trkpt lat="44.07146" lon="1.09961">
        <ele>120.464244</ele>
        <time>2022-12-30T13:40:31.356Z</time>
      </trkpt>
      <trkpt lat="44.07137" lon="1.09964">
        <ele>120.618751</ele>
        <time>2022-12-30T13:40:33.351Z</time>
      </trkpt>
      <trkpt lat="44.07125" lon="1.09969">
        <ele>120.825123</ele>
        <time>2022-12-30T13:40:36.353Z</time>
      </trkpt>
      <trkpt lat="44.07114" lon="1.09973">
        <ele>121.028312</ele>
        <time>2022-12-30T13:40:39.352Z</time>
      </trkpt>
      <trkpt lat="44.07102" lon="1.09978">
        <ele>121.229607</ele>
        <time>2022-12-30T13:40:42.354Z</time>
      </trkpt>
      <trkpt lat="44.07092" lon="1.09982">
        <ele>121.40775</ele>
        <time>2022-12-30T13:40:45.352Z</time>
      </trkpt>
      <trkpt lat="44.07082" lon="1.09985">
        <ele>121.587203</ele>
        <time>2022-12-30T13:40:49.355Z</time>
      </trkpt>
      <trkpt lat="44.07065" lon="1.09988">
        <ele>121.875498</ele>
        <time>2022-12-30T13:41:49.372Z</time>
      </trkpt>
      <trkpt lat="44.07055" lon="1.09991">
        <ele>122.043743</ele>
        <time>2022-12-30T13:41:52.355Z</time>
      </trkpt>
      <trkpt lat="44.07045" lon="1.09994">
        <ele>122.223119</ele>
        <time>2022-12-30T13:41:55.355Z</time>
      </trkpt>
      <trkpt lat="44.07035" lon="1.09998">
        <ele>122.392185</ele>
        <time>2022-12-30T13:41:58.355Z</time>
      </trkpt>
      <trkpt lat="44.07024" lon="1.10001">
        <ele>122.574598</ele>
        <time>2022-12-30T13:42:01.352Z</time>
      </trkpt>
      <trkpt lat="44.07013" lon="1.10004">
        <ele>122.765502</ele>
        <time>2022-12-30T13:42:04.354Z</time>
      </trkpt>
      <trkpt lat="44.07002" lon="1.10008">
        <ele>122.903595</ele>
        <time>2022-12-30T13:42:07.353Z</time>
      </trkpt>
      <trkpt lat="44.06991" lon="1.10012">
        <ele>122.866443</ele>
        <time>2022-12-30T13:42:10.334Z</time>
      </trkpt>
      <trkpt lat="44.06979" lon="1.10016">
        <ele>122.826972</ele>
        <time>2022-12-30T13:42:13.356Z</time>
      </trkpt>
      <trkpt lat="44.06967" lon="1.10021">
        <ele>122.788628</ele>
        <time>2022-12-30T13:42:16.352Z</time>
      </trkpt>
      <trkpt lat="44.06955" lon="1.10024">
        <ele>122.750026</ele>
        <time>2022-12-30T13:42:19.352Z</time>
      </trkpt>
      <trkpt lat="44.06943" lon="1.10027">
        <ele>122.711683</ele>
        <time>2022-12-30T13:42:22.354Z</time>
      </trkpt>
      <trkpt lat="44.06931" lon="1.10031">
        <ele>122.671572</ele>
        <time>2022-12-30T13:42:25.353Z</time>
      </trkpt>
      <trkpt lat="44.06918" lon="1.10035">
        <ele>122.631068</ele>
        <time>2022-12-30T13:42:28.364Z</time>
      </trkpt>
      <trkpt lat="44.06906" lon="1.10039">
        <ele>122.590051</ele>
        <time>2022-12-30T13:42:31.355Z</time>
      </trkpt>
      <trkpt lat="44.06893" lon="1.10044">
        <ele>122.549508</ele>
        <time>2022-12-30T13:42:34.329Z</time>
      </trkpt>
      <trkpt lat="44.06881" lon="1.10047">
        <ele>122.509876</ele>
        <time>2022-12-30T13:42:37.341Z</time>
      </trkpt>
      <trkpt lat="44.06869" lon="1.10051">
        <ele>122.469626</ele>
        <time>2022-12-30T13:42:40.354Z</time>
      </trkpt>
      <trkpt lat="44.06857" lon="1.10055">
        <ele>122.429739</ele>
        <time>2022-12-30T13:42:43.336Z</time>
      </trkpt>
      <trkpt lat="44.06844" lon="1.1006">
        <ele>122.388146</ele>
        <time>2022-12-30T13:42:46.353Z</time>
      </trkpt>
      <trkpt lat="44.06831" lon="1.10064">
        <ele>122.347051</ele>
        <time>2022-12-30T13:42:49.356Z</time>
      </trkpt>
      <trkpt lat="44.06818" lon="1.10067">
        <ele>122.696993</ele>
        <time>2022-12-30T13:42:52.355Z</time>
      </trkpt>
      <trkpt lat="44.06806" lon="1.10072">
        <ele>123.102343</ele>
        <time>2022-12-30T13:42:55.354Z</time>
      </trkpt>
      <trkpt lat="44.06793" lon="1.10076">
        <ele>123.502049</ele>
        <time>2022-12-30T13:42:58.354Z</time>
      </trkpt>
      <trkpt lat="44.06784" lon="1.10079">
        <ele>123.780508</ele>
        <time>2022-12-30T13:43:00.355Z</time>
      </trkpt>
      <trkpt lat="44.06773" lon="1.10083">
        <ele>124.124581</ele>
        <time>2022-12-30T13:43:03.357Z</time>
      </trkpt>
      <trkpt lat="44.06762" lon="1.10086">
        <ele>124.47468</ele>
        <time>2022-12-30T13:43:06.352Z</time>
      </trkpt>
      <trkpt lat="44.0675" lon="1.1009">
        <ele>124.851142</ele>
        <time>2022-12-30T13:43:09.355Z</time>
      </trkpt>
      <trkpt lat="44.06738" lon="1.10094">
        <ele>125.237422</ele>
        <time>2022-12-30T13:43:12.355Z</time>
      </trkpt>
      <trkpt lat="44.06726" lon="1.10098">
        <ele>125.61475</ele>
        <time>2022-12-30T13:43:15.338Z</time>
      </trkpt>
      <trkpt lat="44.06715" lon="1.10102">
        <ele>125.952349</ele>
        <time>2022-12-30T13:43:18.354Z</time>
      </trkpt>
      <trkpt lat="44.06706" lon="1.10106">
        <ele>126.251063</ele>
        <time>2022-12-30T13:43:22.352Z</time>
      </trkpt>
      <trkpt lat="44.06696" lon="1.1011">
        <ele>126.561476</ele>
        <time>2022-12-30T13:43:25.358Z</time>
      </trkpt>
      <trkpt lat="44.06685" lon="1.10115">
        <ele>126.910889</ele>
        <time>2022-12-30T13:43:28.354Z</time>
      </trkpt>
      <trkpt lat="44.06673" lon="1.10119">
        <ele>127.303142</ele>
        <time>2022-12-30T13:43:31.351Z</time>
      </trkpt>
      <trkpt lat="44.0666" lon="1.10122">
        <ele>127.709009</ele>
        <time>2022-12-30T13:43:34.356Z</time>
      </trkpt>
      <trkpt lat="44.06647" lon="1.10126">
        <ele>127.8865</ele>
        <time>2022-12-30T13:43:37.333Z</time>
      </trkpt>
      <trkpt lat="44.06635" lon="1.1013">
        <ele>127.939502</ele>
        <time>2022-12-30T13:43:40.353Z</time>
      </trkpt>
      <trkpt lat="44.06623" lon="1.10133">
        <ele>127.993036</ele>
        <time>2022-12-30T13:43:43.354Z</time>
      </trkpt>
      <trkpt lat="44.06612" lon="1.10138">
        <ele>128.047138</ele>
        <time>2022-12-30T13:43:46.353Z</time>
      </trkpt>
      <trkpt lat="44.06599" lon="1.10141">
        <ele>128.102095</ele>
        <time>2022-12-30T13:43:49.352Z</time>
      </trkpt>
      <trkpt lat="44.06587" lon="1.10146">
        <ele>128.158413</ele>
        <time>2022-12-30T13:43:52.331Z</time>
      </trkpt>
      <trkpt lat="44.06574" lon="1.1015">
        <ele>128.215922</ele>
        <time>2022-12-30T13:43:55.359Z</time>
      </trkpt>
      <trkpt lat="44.06562" lon="1.10153">
        <ele>128.273731</ele>
        <time>2022-12-30T13:43:58.351Z</time>
      </trkpt>
      <trkpt lat="44.06549" lon="1.10157">
        <ele>128.329876</ele>
        <time>2022-12-30T13:44:01.352Z</time>
      </trkpt>
      <trkpt lat="44.06537" lon="1.10162">
        <ele>128.386025</ele>
        <time>2022-12-30T13:44:04.343Z</time>
      </trkpt>
      <trkpt lat="44.06524" lon="1.10167">
        <ele>128.443364</ele>
        <time>2022-12-30T13:44:07.352Z</time>
      </trkpt>
      <trkpt lat="44.06512" lon="1.10171">
        <ele>128.501086</ele>
        <time>2022-12-30T13:44:10.358Z</time>
      </trkpt>
      <trkpt lat="44.06499" lon="1.10175">
        <ele>128.558028</ele>
        <time>2022-12-30T13:44:13.355Z</time>
      </trkpt>
      <trkpt lat="44.06486" lon="1.1018">
        <ele>128.617502</ele>
        <time>2022-12-30T13:44:16.352Z</time>
      </trkpt>
      <trkpt lat="44.06473" lon="1.10184">
        <ele>128.628956</ele>
        <time>2022-12-30T13:44:19.352Z</time>
      </trkpt>
      <trkpt lat="44.06461" lon="1.10188">
        <ele>128.600389</ele>
        <time>2022-12-30T13:44:22.333Z</time>
      </trkpt>
      <trkpt lat="44.06452" lon="1.10191">
        <ele>128.579857</ele>
        <time>2022-12-30T13:44:24.353Z</time>
      </trkpt>
      <trkpt lat="44.06443" lon="1.10194">
        <ele>128.560017</ele>
        <time>2022-12-30T13:44:26.354Z</time>
      </trkpt>
      <trkpt lat="44.06429" lon="1.10198">
        <ele>128.52981</ele>
        <time>2022-12-30T13:44:29.353Z</time>
      </trkpt>
      <trkpt lat="44.06417" lon="1.10202">
        <ele>128.500917</ele>
        <time>2022-12-30T13:44:32.334Z</time>
      </trkpt>
      <trkpt lat="44.06405" lon="1.10207">
        <ele>128.47415</ele>
        <time>2022-12-30T13:44:35.354Z</time>
      </trkpt>
      <trkpt lat="44.06396" lon="1.1021">
        <ele>128.454042</ele>
        <time>2022-12-30T13:44:37.357Z</time>
      </trkpt>
      <trkpt lat="44.06386" lon="1.10215">
        <ele>128.43109</ele>
        <time>2022-12-30T13:44:39.345Z</time>
      </trkpt>
      <trkpt lat="44.06375" lon="1.10217">
        <ele>128.405656</ele>
        <time>2022-12-30T13:44:42.347Z</time>
      </trkpt>
      <trkpt lat="44.06365" lon="1.1022">
        <ele>128.383042</ele>
        <time>2022-12-30T13:44:45.355Z</time>
      </trkpt>
      <trkpt lat="44.06353" lon="1.10222">
        <ele>128.356545</ele>
        <time>2022-12-30T13:44:48.355Z</time>
      </trkpt>
      <trkpt lat="44.0634" lon="1.10226">
        <ele>128.327794</ele>
        <time>2022-12-30T13:44:51.352Z</time>
      </trkpt>
      <trkpt lat="44.06327" lon="1.1023">
        <ele>128.298902</ele>
        <time>2022-12-30T13:44:54.352Z</time>
      </trkpt>
      <trkpt lat="44.06315" lon="1.10234">
        <ele>128.271162</ele>
        <time>2022-12-30T13:44:57.355Z</time>
      </trkpt>
      <trkpt lat="44.06303" lon="1.10241">
        <ele>128.290383</ele>
        <time>2022-12-30T13:45:00.334Z</time>
      </trkpt>
      <trkpt lat="44.06291" lon="1.10248">
        <ele>128.503099</ele>
        <time>2022-12-30T13:45:03.345Z</time>
      </trkpt>
      <trkpt lat="44.06278" lon="1.10251">
        <ele>128.71487</ele>
        <time>2022-12-30T13:45:06.351Z</time>
      </trkpt>
      <trkpt lat="44.06265" lon="1.10255">
        <ele>128.928235</ele>
        <time>2022-12-30T13:45:09.364Z</time>
      </trkpt>
      <trkpt lat="44.06253" lon="1.10258">
        <ele>129.139757</ele>
        <time>2022-12-30T13:45:12.352Z</time>
      </trkpt>
      <trkpt lat="44.0624" lon="1.10262">
        <ele>129.351529</ele>
        <time>2022-12-30T13:45:15.358Z</time>
      </trkpt>
      <trkpt lat="44.06227" lon="1.10267">
        <ele>129.564246</ele>
        <time>2022-12-30T13:45:18.358Z</time>
      </trkpt>
      <trkpt lat="44.06215" lon="1.10272">
        <ele>129.781701</ele>
        <time>2022-12-30T13:45:21.353Z</time>
      </trkpt>
      <trkpt lat="44.06202" lon="1.10277">
        <ele>129.997869</ele>
        <time>2022-12-30T13:45:24.354Z</time>
      </trkpt>
      <trkpt lat="44.06189" lon="1.10281">
        <ele>130.210743</ele>
        <time>2022-12-30T13:45:27.338Z</time>
      </trkpt>
      <trkpt lat="44.0618" lon="1.10284">
        <ele>130.358846</ele>
        <time>2022-12-30T13:45:29.355Z</time>
      </trkpt>
      <trkpt lat="44.06167" lon="1.10289">
        <ele>130.585054</ele>
        <time>2022-12-30T13:45:32.356Z</time>
      </trkpt>
      <trkpt lat="44.06158" lon="1.10292">
        <ele>130.734445</ele>
        <time>2022-12-30T13:45:34.336Z</time>
      </trkpt>
      <trkpt lat="44.06149" lon="1.10295">
        <ele>130.884361</ele>
        <time>2022-12-30T13:45:36.353Z</time>
      </trkpt>
      <trkpt lat="44.06136" lon="1.10299">
        <ele>131.092447</ele>
        <time>2022-12-30T13:45:39.355Z</time>
      </trkpt>
      <trkpt lat="44.06127" lon="1.10302">
        <ele>131.147293</ele>
        <time>2022-12-30T13:45:41.354Z</time>
      </trkpt>
      <trkpt lat="44.06119" lon="1.10306">
        <ele>131.079529</ele>
        <time>2022-12-30T13:45:43.339Z</time>
      </trkpt>
      <trkpt lat="44.06106" lon="1.1031">
        <ele>130.982707</ele>
        <time>2022-12-30T13:45:46.336Z</time>
      </trkpt>
      <trkpt lat="44.06097" lon="1.10313">
        <ele>130.914363</ele>
        <time>2022-12-30T13:45:48.357Z</time>
      </trkpt>
      <trkpt lat="44.06089" lon="1.10316">
        <ele>130.846578</ele>
        <time>2022-12-30T13:45:50.354Z</time>
      </trkpt>
      <trkpt lat="44.0608" lon="1.10318">
        <ele>130.778033</ele>
        <time>2022-12-30T13:45:52.355Z</time>
      </trkpt>
      <trkpt lat="44.0607" lon="1.10322">
        <ele>130.70632</ele>
        <time>2022-12-30T13:45:54.357Z</time>
      </trkpt>
      <trkpt lat="44.06057" lon="1.10325">
        <ele>130.606291</ele>
        <time>2022-12-30T13:45:57.336Z</time>
      </trkpt>
      <trkpt lat="44.06046" lon="1.10329">
        <ele>130.51655</ele>
        <time>2022-12-30T13:46:00.354Z</time>
      </trkpt>
      <trkpt lat="44.06034" lon="1.10332">
        <ele>130.427185</ele>
        <time>2022-12-30T13:46:03.338Z</time>
      </trkpt>
      <trkpt lat="44.06022" lon="1.10337">
        <ele>130.333401</ele>
        <time>2022-12-30T13:46:06.355Z</time>
      </trkpt>
      <trkpt lat="44.06013" lon="1.1034">
        <ele>130.26533</ele>
        <time>2022-12-30T13:46:08.354Z</time>
      </trkpt>
      <trkpt lat="44.06" lon="1.10344">
        <ele>130.166712</ele>
        <time>2022-12-30T13:46:11.364Z</time>
      </trkpt>
      <trkpt lat="44.05991" lon="1.10347">
        <ele>130.097556</ele>
        <time>2022-12-30T13:46:13.332Z</time>
      </trkpt>
      <trkpt lat="44.05982" lon="1.1035">
        <ele>130.029614</ele>
        <time>2022-12-30T13:46:15.354Z</time>
      </trkpt>
      <trkpt lat="44.0597" lon="1.10354">
        <ele>129.9344</ele>
        <time>2022-12-30T13:46:18.354Z</time>
      </trkpt>
      <trkpt lat="44.05958" lon="1.10358">
        <ele>129.840479</ele>
        <time>2022-12-30T13:46:21.353Z</time>
      </trkpt>
      <trkpt lat="44.05946" lon="1.10364">
        <ele>129.881507</ele>
        <time>2022-12-30T13:46:24.351Z</time>
      </trkpt>
      <trkpt lat="44.05933" lon="1.10368">
        <ele>129.943499</ele>
        <time>2022-12-30T13:46:27.353Z</time>
      </trkpt>
      <trkpt lat="44.05921" lon="1.10372">
        <ele>130.001399</ele>
        <time>2022-12-30T13:46:30.355Z</time>
      </trkpt>
      <trkpt lat="44.05908" lon="1.10376">
        <ele>130.063849</ele>
        <time>2022-12-30T13:46:33.352Z</time>
      </trkpt>
      <trkpt lat="44.05895" lon="1.1038">
        <ele>130.124877</ele>
        <time>2022-12-30T13:46:36.356Z</time>
      </trkpt>
      <trkpt lat="44.05882" lon="1.10385">
        <ele>130.187977</ele>
        <time>2022-12-30T13:46:39.354Z</time>
      </trkpt>
      <trkpt lat="44.05869" lon="1.1039">
        <ele>130.250738</ele>
        <time>2022-12-30T13:46:42.350Z</time>
      </trkpt>
      <trkpt lat="44.05856" lon="1.10394">
        <ele>130.313719</ele>
        <time>2022-12-30T13:46:45.351Z</time>
      </trkpt>
      <trkpt lat="44.05843" lon="1.10399">
        <ele>130.377184</ele>
        <time>2022-12-30T13:46:48.354Z</time>
      </trkpt>
      <trkpt lat="44.0583" lon="1.10403">
        <ele>130.439786</ele>
        <time>2022-12-30T13:46:51.358Z</time>
      </trkpt>
      <trkpt lat="44.05821" lon="1.10406">
        <ele>130.484382</ele>
        <time>2022-12-30T13:46:53.354Z</time>
      </trkpt>
      <trkpt lat="44.05812" lon="1.1041">
        <ele>130.527804</ele>
        <time>2022-12-30T13:46:55.338Z</time>
      </trkpt>
      <trkpt lat="44.05802" lon="1.10413">
        <ele>130.575042</ele>
        <time>2022-12-30T13:46:57.352Z</time>
      </trkpt>
      <trkpt lat="44.05792" lon="1.10416">
        <ele>130.620862</ele>
        <time>2022-12-30T13:46:59.354Z</time>
      </trkpt>
      <trkpt lat="44.05783" lon="1.10419">
        <ele>130.664835</ele>
        <time>2022-12-30T13:47:01.354Z</time>
      </trkpt>
      <trkpt lat="44.05774" lon="1.10422">
        <ele>130.718045</ele>
        <time>2022-12-30T13:47:03.352Z</time>
      </trkpt>
      <trkpt lat="44.05761" lon="1.10426">
        <ele>130.79652</ele>
        <time>2022-12-30T13:47:06.354Z</time>
      </trkpt>
      <trkpt lat="44.05752" lon="1.10429">
        <ele>130.853139</ele>
        <time>2022-12-30T13:47:08.355Z</time>
      </trkpt>
      <trkpt lat="44.05743" lon="1.10432">
        <ele>130.907322</ele>
        <time>2022-12-30T13:47:10.354Z</time>
      </trkpt>
      <trkpt lat="44.05734" lon="1.10435">
        <ele>130.960829</ele>
        <time>2022-12-30T13:47:12.356Z</time>
      </trkpt>
      <trkpt lat="44.05724" lon="1.10439">
        <ele>131.021834</ele>
        <time>2022-12-30T13:47:14.332Z</time>
      </trkpt>
      <trkpt lat="44.05714" lon="1.10442">
        <ele>131.079888</ele>
        <time>2022-12-30T13:47:16.351Z</time>
      </trkpt>
      <trkpt lat="44.05705" lon="1.10445">
        <ele>131.137388</ele>
        <time>2022-12-30T13:47:18.353Z</time>
      </trkpt>
      <trkpt lat="44.05695" lon="1.10448">
        <ele>131.193631</ele>
        <time>2022-12-30T13:47:20.353Z</time>
      </trkpt>
      <trkpt lat="44.05686" lon="1.10451">
        <ele>131.250067</ele>
        <time>2022-12-30T13:47:22.339Z</time>
      </trkpt>
      <trkpt lat="44.05676" lon="1.10455">
        <ele>131.309114</ele>
        <time>2022-12-30T13:47:24.357Z</time>
      </trkpt>
      <trkpt lat="44.05666" lon="1.10457">
        <ele>131.371075</ele>
        <time>2022-12-30T13:47:26.348Z</time>
      </trkpt>
      <trkpt lat="44.05656" lon="1.10461">
        <ele>131.429107</ele>
        <time>2022-12-30T13:47:28.355Z</time>
      </trkpt>
      <trkpt lat="44.05647" lon="1.10464">
        <ele>131.488203</ele>
        <time>2022-12-30T13:47:30.338Z</time>
      </trkpt>
      <trkpt lat="44.05637" lon="1.10468">
        <ele>131.547708</ele>
        <time>2022-12-30T13:47:32.346Z</time>
      </trkpt>
      <trkpt lat="44.05627" lon="1.10471">
        <ele>131.604623</ele>
        <time>2022-12-30T13:47:34.347Z</time>
      </trkpt>
      <trkpt lat="44.05618" lon="1.10474">
        <ele>131.659832</ele>
        <time>2022-12-30T13:47:36.354Z</time>
      </trkpt>
      <trkpt lat="44.05606" lon="1.10477">
        <ele>131.725798</ele>
        <time>2022-12-30T13:47:39.354Z</time>
      </trkpt>
      <trkpt lat="44.05597" lon="1.10481">
        <ele>131.713337</ele>
        <time>2022-12-30T13:47:41.353Z</time>
      </trkpt>
      <trkpt lat="44.05586" lon="1.10485">
        <ele>131.696741</ele>
        <time>2022-12-30T13:47:44.360Z</time>
      </trkpt>
      <trkpt lat="44.05575" lon="1.10488">
        <ele>131.681913</ele>
        <time>2022-12-30T13:47:47.336Z</time>
      </trkpt>
      <trkpt lat="44.05566" lon="1.10491">
        <ele>131.669628</ele>
        <time>2022-12-30T13:47:49.362Z</time>
      </trkpt>
      <trkpt lat="44.05553" lon="1.10496">
        <ele>131.651225</ele>
        <time>2022-12-30T13:47:52.358Z</time>
      </trkpt>
      <trkpt lat="44.0554" lon="1.105">
        <ele>131.633205</ele>
        <time>2022-12-30T13:47:55.356Z</time>
      </trkpt>
      <trkpt lat="44.05531" lon="1.10503">
        <ele>131.620609</ele>
        <time>2022-12-30T13:47:57.352Z</time>
      </trkpt>
      <trkpt lat="44.05521" lon="1.10507">
        <ele>131.606865</ele>
        <time>2022-12-30T13:47:59.350Z</time>
      </trkpt>
      <trkpt lat="44.05512" lon="1.1051">
        <ele>131.594221</ele>
        <time>2022-12-30T13:48:01.352Z</time>
      </trkpt>
      <trkpt lat="44.05503" lon="1.10513">
        <ele>131.581626</ele>
        <time>2022-12-30T13:48:03.338Z</time>
      </trkpt>
      <trkpt lat="44.05494" lon="1.10516">
        <ele>131.568347</ele>
        <time>2022-12-30T13:48:05.362Z</time>
      </trkpt>
      <trkpt lat="44.05485" lon="1.10519">
        <ele>131.555643</ele>
        <time>2022-12-30T13:48:07.353Z</time>
      </trkpt>
      <trkpt lat="44.05475" lon="1.10523">
        <ele>131.542424</ele>
        <time>2022-12-30T13:48:09.357Z</time>
      </trkpt>
      <trkpt lat="44.05465" lon="1.10526">
        <ele>131.528833</ele>
        <time>2022-12-30T13:48:11.355Z</time>
      </trkpt>
      <trkpt lat="44.05456" lon="1.10528">
        <ele>131.515508</ele>
        <time>2022-12-30T13:48:13.353Z</time>
      </trkpt>
      <trkpt lat="44.05446" lon="1.10531">
        <ele>131.502507</ele>
        <time>2022-12-30T13:48:15.354Z</time>
      </trkpt>
      <trkpt lat="44.05437" lon="1.10534">
        <ele>131.489469</ele>
        <time>2022-12-30T13:48:17.356Z</time>
      </trkpt>
      <trkpt lat="44.05428" lon="1.10537">
        <ele>131.496781</ele>
        <time>2022-12-30T13:48:19.359Z</time>
      </trkpt>
      <trkpt lat="44.05418" lon="1.1054">
        <ele>131.526028</ele>
        <time>2022-12-30T13:48:21.354Z</time>
      </trkpt>
      <trkpt lat="44.05408" lon="1.10543">
        <ele>131.554416</ele>
        <time>2022-12-30T13:48:23.354Z</time>
      </trkpt>
      <trkpt lat="44.05399" lon="1.10546">
        <ele>131.582423</ele>
        <time>2022-12-30T13:48:25.355Z</time>
      </trkpt>
      <trkpt lat="44.0539" lon="1.10549">
        <ele>131.609354</ele>
        <time>2022-12-30T13:48:27.357Z</time>
      </trkpt>
      <trkpt lat="44.05381" lon="1.10553">
        <ele>131.636111</ele>
        <time>2022-12-30T13:48:29.355Z</time>
      </trkpt>
      <trkpt lat="44.05371" lon="1.10556">
        <ele>131.664269</ele>
        <time>2022-12-30T13:48:31.356Z</time>
      </trkpt>
      <trkpt lat="44.05362" lon="1.10559">
        <ele>131.693406</ele>
        <time>2022-12-30T13:48:33.355Z</time>
      </trkpt>
      <trkpt lat="44.05351" lon="1.10562">
        <ele>131.724156</ele>
        <time>2022-12-30T13:48:35.351Z</time>
      </trkpt>
      <trkpt lat="44.05342" lon="1.10565">
        <ele>131.75301</ele>
        <time>2022-12-30T13:48:37.354Z</time>
      </trkpt>
      <trkpt lat="44.05333" lon="1.10569">
        <ele>131.78</ele>
        <time>2022-12-30T13:48:39.355Z</time>
      </trkpt>
      <trkpt lat="44.05323" lon="1.10573">
        <ele>131.80983</ele>
        <time>2022-12-30T13:48:41.354Z</time>
      </trkpt>
      <trkpt lat="44.05313" lon="1.10576">
        <ele>131.839393</ele>
        <time>2022-12-30T13:48:43.337Z</time>
      </trkpt>
      <trkpt lat="44.05303" lon="1.10579">
        <ele>131.869707</ele>
        <time>2022-12-30T13:48:45.352Z</time>
      </trkpt>
      <trkpt lat="44.05293" lon="1.10583">
        <ele>131.899481</ele>
        <time>2022-12-30T13:48:47.351Z</time>
      </trkpt>
      <trkpt lat="44.05283" lon="1.10587">
        <ele>131.929311</ele>
        <time>2022-12-30T13:48:49.337Z</time>
      </trkpt>
      <trkpt lat="44.05273" lon="1.10591">
        <ele>131.959819</ele>
        <time>2022-12-30T13:48:51.359Z</time>
      </trkpt>
      <trkpt lat="44.05262" lon="1.10593">
        <ele>131.98992</ele>
        <time>2022-12-30T13:48:53.352Z</time>
      </trkpt>
      <trkpt lat="44.05253" lon="1.10596">
        <ele>132.006116</ele>
        <time>2022-12-30T13:48:55.333Z</time>
      </trkpt>
      <trkpt lat="44.05243" lon="1.10599">
        <ele>132.010518</ele>
        <time>2022-12-30T13:48:57.353Z</time>
      </trkpt>
      <trkpt lat="44.05233" lon="1.10601">
        <ele>132.014715</ele>
        <time>2022-12-30T13:48:59.353Z</time>
      </trkpt>
      <trkpt lat="44.05224" lon="1.10604">
        <ele>132.018631</ele>
        <time>2022-12-30T13:49:01.352Z</time>
      </trkpt>
      <trkpt lat="44.05214" lon="1.10608">
        <ele>132.022804</ele>
        <time>2022-12-30T13:49:03.354Z</time>
      </trkpt>
      <trkpt lat="44.05205" lon="1.10611">
        <ele>132.027063</ele>
        <time>2022-12-30T13:49:05.355Z</time>
      </trkpt>
      <trkpt lat="44.05192" lon="1.10615">
        <ele>132.032573</ele>
        <time>2022-12-30T13:49:08.353Z</time>
      </trkpt>
      <trkpt lat="44.05182" lon="1.10618">
        <ele>132.036623</ele>
        <time>2022-12-30T13:49:10.356Z</time>
      </trkpt>
      <trkpt lat="44.05173" lon="1.10622">
        <ele>132.040681</ele>
        <time>2022-12-30T13:49:12.354Z</time>
      </trkpt>
      <trkpt lat="44.05159" lon="1.10626">
        <ele>132.046484</ele>
        <time>2022-12-30T13:49:15.357Z</time>
      </trkpt>
      <trkpt lat="44.0515" lon="1.10629">
        <ele>132.05064</ele>
        <time>2022-12-30T13:49:17.356Z</time>
      </trkpt>
      <trkpt lat="44.0514" lon="1.10632">
        <ele>132.054907</ele>
        <time>2022-12-30T13:49:19.353Z</time>
      </trkpt>
      <trkpt lat="44.0513" lon="1.10636">
        <ele>132.059071</ele>
        <time>2022-12-30T13:49:21.352Z</time>
      </trkpt>
      <trkpt lat="44.05121" lon="1.10639">
        <ele>132.063198</ele>
        <time>2022-12-30T13:49:23.355Z</time>
      </trkpt>
      <trkpt lat="44.05111" lon="1.10642">
        <ele>132.067394</ele>
        <time>2022-12-30T13:49:25.355Z</time>
      </trkpt>
      <trkpt lat="44.05101" lon="1.10645">
        <ele>132.071522</ele>
        <time>2022-12-30T13:49:27.357Z</time>
      </trkpt>
      <trkpt lat="44.05092" lon="1.10648">
        <ele>132.075615</ele>
        <time>2022-12-30T13:49:29.356Z</time>
      </trkpt>
      <trkpt lat="44.05083" lon="1.10651">
        <ele>132.079398</ele>
        <time>2022-12-30T13:49:31.361Z</time>
      </trkpt>
      <trkpt lat="44.05072" lon="1.10656">
        <ele>132.11501</ele>
        <time>2022-12-30T13:49:34.358Z</time>
      </trkpt>
      <trkpt lat="44.05064" lon="1.1066">
        <ele>132.145543</ele>
        <time>2022-12-30T13:49:37.355Z</time>
      </trkpt>
      <trkpt lat="44.05054" lon="1.10664">
        <ele>132.177226</ele>
        <time>2022-12-30T13:49:40.356Z</time>
      </trkpt>
      <trkpt lat="44.05044" lon="1.10665">
        <ele>132.209912</ele>
        <time>2022-12-30T13:49:43.355Z</time>
      </trkpt>
      <trkpt lat="44.05035" lon="1.10668">
        <ele>132.242846</ele>
        <time>2022-12-30T13:49:46.353Z</time>
      </trkpt>
      <trkpt lat="44.05024" lon="1.10671">
        <ele>132.2785</ele>
        <time>2022-12-30T13:49:49.355Z</time>
      </trkpt>
      <trkpt lat="44.05013" lon="1.10675">
        <ele>132.315218</ele>
        <time>2022-12-30T13:49:52.355Z</time>
      </trkpt>
      <trkpt lat="44.05002" lon="1.10679">
        <ele>132.353112</ele>
        <time>2022-12-30T13:49:55.354Z</time>
      </trkpt>
      <trkpt lat="44.04991" lon="1.10683">
        <ele>132.389214</ele>
        <time>2022-12-30T13:49:58.353Z</time>
      </trkpt>
      <trkpt lat="44.04981" lon="1.10686">
        <ele>132.423052</ele>
        <time>2022-12-30T13:50:01.356Z</time>
      </trkpt>
      <trkpt lat="44.0497" lon="1.1069">
        <ele>132.460143</ele>
        <time>2022-12-30T13:50:04.355Z</time>
      </trkpt>
      <trkpt lat="44.04959" lon="1.10693">
        <ele>132.499432</ele>
        <time>2022-12-30T13:50:07.356Z</time>
      </trkpt>
      <trkpt lat="44.04947" lon="1.10698">
        <ele>132.540159</ele>
        <time>2022-12-30T13:50:10.347Z</time>
      </trkpt>
      <trkpt lat="44.04935" lon="1.10703">
        <ele>132.579136</ele>
        <time>2022-12-30T13:50:13.339Z</time>
      </trkpt>
      <trkpt lat="44.04925" lon="1.10705">
        <ele>132.613546</ele>
        <time>2022-12-30T13:50:16.353Z</time>
      </trkpt>
      <trkpt lat="44.04915" lon="1.10707">
        <ele>132.648415</ele>
        <time>2022-12-30T13:50:19.354Z</time>
      </trkpt>
      <trkpt lat="44.04903" lon="1.10711">
        <ele>132.68911</ele>
        <time>2022-12-30T13:50:22.337Z</time>
      </trkpt>
      <trkpt lat="44.04891" lon="1.10716">
        <ele>132.734517</ele>
        <time>2022-12-30T13:50:25.352Z</time>
      </trkpt>
      <trkpt lat="44.04879" lon="1.1072">
        <ele>132.781166</ele>
        <time>2022-12-30T13:50:28.338Z</time>
      </trkpt>
      <trkpt lat="44.04867" lon="1.10723">
        <ele>132.827102</ele>
        <time>2022-12-30T13:50:31.357Z</time>
      </trkpt>
      <trkpt lat="44.04855" lon="1.10727">
        <ele>132.872003</ele>
        <time>2022-12-30T13:50:34.333Z</time>
      </trkpt>
      <trkpt lat="44.04844" lon="1.10731">
        <ele>132.917082</ele>
        <time>2022-12-30T13:50:37.357Z</time>
      </trkpt>
      <trkpt lat="44.04832" lon="1.10734">
        <ele>132.962496</ele>
        <time>2022-12-30T13:50:40.353Z</time>
      </trkpt>
      <trkpt lat="44.04819" lon="1.10738">
        <ele>133.009084</ele>
        <time>2022-12-30T13:50:43.363Z</time>
      </trkpt>
      <trkpt lat="44.04807" lon="1.10742">
        <ele>133.055568</ele>
        <time>2022-12-30T13:50:46.355Z</time>
      </trkpt>
      <trkpt lat="44.04796" lon="1.10746">
        <ele>133.099523</ele>
        <time>2022-12-30T13:50:49.365Z</time>
      </trkpt>
      <trkpt lat="44.04783" lon="1.10749">
        <ele>133.146296</ele>
        <time>2022-12-30T13:50:52.356Z</time>
      </trkpt>
      <trkpt lat="44.04771" lon="1.10755">
        <ele>133.193446</ele>
        <time>2022-12-30T13:50:55.352Z</time>
      </trkpt>
      <trkpt lat="44.04759" lon="1.1076">
        <ele>133.241227</ele>
        <time>2022-12-30T13:50:58.356Z</time>
      </trkpt>
      <trkpt lat="44.04747" lon="1.10765">
        <ele>133.289288</ele>
        <time>2022-12-30T13:51:01.356Z</time>
      </trkpt>
      <trkpt lat="44.04735" lon="1.10769">
        <ele>133.33348</ele>
        <time>2022-12-30T13:51:04.356Z</time>
      </trkpt>
      <trkpt lat="44.04724" lon="1.10772">
        <ele>133.345649</ele>
        <time>2022-12-30T13:51:07.355Z</time>
      </trkpt>
      <trkpt lat="44.04711" lon="1.10775">
        <ele>133.353295</ele>
        <time>2022-12-30T13:51:10.343Z</time>
      </trkpt>
      <trkpt lat="44.04699" lon="1.10779">
        <ele>133.361028</ele>
        <time>2022-12-30T13:51:13.357Z</time>
      </trkpt>
      <trkpt lat="44.04687" lon="1.10782">
        <ele>133.368523</ele>
        <time>2022-12-30T13:51:16.356Z</time>
      </trkpt>
      <trkpt lat="44.04675" lon="1.10785">
        <ele>133.37614</ele>
        <time>2022-12-30T13:51:19.339Z</time>
      </trkpt>
      <trkpt lat="44.04663" lon="1.10789">
        <ele>133.383753</ele>
        <time>2022-12-30T13:51:22.356Z</time>
      </trkpt>
      <trkpt lat="44.04651" lon="1.10794">
        <ele>133.391573</ele>
        <time>2022-12-30T13:51:25.355Z</time>
      </trkpt>
      <trkpt lat="44.04639" lon="1.10799">
        <ele>133.399369</ele>
        <time>2022-12-30T13:51:28.352Z</time>
      </trkpt>
      <trkpt lat="44.04628" lon="1.10803">
        <ele>133.406035</ele>
        <time>2022-12-30T13:51:31.354Z</time>
      </trkpt>
      <trkpt lat="44.04617" lon="1.10806">
        <ele>133.413006</ele>
        <time>2022-12-30T13:51:34.351Z</time>
      </trkpt>
      <trkpt lat="44.04607" lon="1.10811">
        <ele>133.419911</ele>
        <time>2022-12-30T13:51:37.344Z</time>
      </trkpt>
      <trkpt lat="44.04595" lon="1.10816">
        <ele>133.427233</ele>
        <time>2022-12-30T13:51:40.357Z</time>
      </trkpt>
      <trkpt lat="44.04583" lon="1.10819">
        <ele>133.434928</ele>
        <time>2022-12-30T13:51:43.353Z</time>
      </trkpt>
      <trkpt lat="44.04571" lon="1.10824">
        <ele>133.442535</ele>
        <time>2022-12-30T13:51:46.355Z</time>
      </trkpt>
      <trkpt lat="44.0456" lon="1.10829">
        <ele>133.449998</ele>
        <time>2022-12-30T13:51:49.353Z</time>
      </trkpt>
      <trkpt lat="44.04547" lon="1.10833">
        <ele>133.347418</ele>
        <time>2022-12-30T13:51:52.364Z</time>
      </trkpt>
      <trkpt lat="44.04535" lon="1.10836">
        <ele>133.238155</ele>
        <time>2022-12-30T13:51:55.354Z</time>
      </trkpt>
      <trkpt lat="44.04523" lon="1.1084">
        <ele>133.128758</ele>
        <time>2022-12-30T13:51:58.354Z</time>
      </trkpt>
      <trkpt lat="44.0451" lon="1.10844">
        <ele>133.015416</ele>
        <time>2022-12-30T13:52:01.362Z</time>
      </trkpt>
      <trkpt lat="44.04497" lon="1.10848">
        <ele>132.903475</ele>
        <time>2022-12-30T13:52:04.351Z</time>
      </trkpt>
      <trkpt lat="44.04485" lon="1.10853">
        <ele>132.791887</ele>
        <time>2022-12-30T13:52:07.351Z</time>
      </trkpt>
      <trkpt lat="44.04473" lon="1.10857">
        <ele>132.67978</ele>
        <time>2022-12-30T13:52:10.354Z</time>
      </trkpt>
      <trkpt lat="44.0446" lon="1.10862">
        <ele>132.571348</ele>
        <time>2022-12-30T13:52:13.354Z</time>
      </trkpt>
      <trkpt lat="44.0445" lon="1.10864">
        <ele>132.479603</ele>
        <time>2022-12-30T13:52:16.355Z</time>
      </trkpt>
      <trkpt lat="44.04441" lon="1.10867">
        <ele>132.398106</ele>
        <time>2022-12-30T13:52:19.355Z</time>
      </trkpt>
      <trkpt lat="44.0443" lon="1.10872">
        <ele>132.298648</ele>
        <time>2022-12-30T13:52:23.354Z</time>
      </trkpt>
      <trkpt lat="44.0442" lon="1.10875">
        <ele>132.208073</ele>
        <time>2022-12-30T13:52:26.345Z</time>
      </trkpt>
      <trkpt lat="44.04408" lon="1.10877">
        <ele>132.106812</ele>
        <time>2022-12-30T13:52:29.351Z</time>
      </trkpt>
      <trkpt lat="44.04397" lon="1.1088">
        <ele>132.004984</ele>
        <time>2022-12-30T13:52:32.353Z</time>
      </trkpt>
      <trkpt lat="44.04384" lon="1.10885">
        <ele>131.893874</ele>
        <time>2022-12-30T13:52:35.334Z</time>
      </trkpt>
      <trkpt lat="44.04372" lon="1.10889">
        <ele>132.002726</ele>
        <time>2022-12-30T13:52:38.336Z</time>
      </trkpt>
      <trkpt lat="44.04361" lon="1.10893">
        <ele>132.118011</ele>
        <time>2022-12-30T13:52:41.353Z</time>
      </trkpt>
      <trkpt lat="44.04349" lon="1.10897">
        <ele>132.23441</ele>
        <time>2022-12-30T13:52:44.356Z</time>
      </trkpt>
      <trkpt lat="44.04337" lon="1.10901">
        <ele>132.359914</ele>
        <time>2022-12-30T13:52:47.338Z</time>
      </trkpt>
      <trkpt lat="44.04324" lon="1.10906">
        <ele>132.485286</ele>
        <time>2022-12-30T13:52:50.354Z</time>
      </trkpt>
      <trkpt lat="44.04312" lon="1.10911">
        <ele>132.611674</ele>
        <time>2022-12-30T13:52:53.350Z</time>
      </trkpt>
      <trkpt lat="44.043" lon="1.10918">
        <ele>132.739696</ele>
        <time>2022-12-30T13:52:56.337Z</time>
      </trkpt>
      <trkpt lat="44.04287" lon="1.10924">
        <ele>132.865158</ele>
        <time>2022-12-30T13:52:59.357Z</time>
      </trkpt>
      <trkpt lat="44.04277" lon="1.1093">
        <ele>132.971535</ele>
        <time>2022-12-30T13:53:02.354Z</time>
      </trkpt>
      <trkpt lat="44.04267" lon="1.10937">
        <ele>133.084604</ele>
        <time>2022-12-30T13:53:05.335Z</time>
      </trkpt>
      <trkpt lat="44.04256" lon="1.10946">
        <ele>133.209173</ele>
        <time>2022-12-30T13:53:08.355Z</time>
      </trkpt>
      <trkpt lat="44.04244" lon="1.10955">
        <ele>133.337997</ele>
        <time>2022-12-30T13:53:11.334Z</time>
      </trkpt>
      <trkpt lat="44.04233" lon="1.10965">
        <ele>133.468237</ele>
        <time>2022-12-30T13:53:14.357Z</time>
      </trkpt>
      <trkpt lat="44.04222" lon="1.10975">
        <ele>133.595031</ele>
        <time>2022-12-30T13:53:17.334Z</time>
      </trkpt>
      <trkpt lat="44.04211" lon="1.10985">
        <ele>133.51257</ele>
        <time>2022-12-30T13:53:20.367Z</time>
      </trkpt>
      <trkpt lat="44.04201" lon="1.10997">
        <ele>133.331768</ele>
        <time>2022-12-30T13:53:23.341Z</time>
      </trkpt>
      <trkpt lat="44.04194" lon="1.11005">
        <ele>133.205478</ele>
        <time>2022-12-30T13:53:25.358Z</time>
      </trkpt>
      <trkpt lat="44.04187" lon="1.11015">
        <ele>133.074936</ele>
        <time>2022-12-30T13:53:27.359Z</time>
      </trkpt>
      <trkpt lat="44.04177" lon="1.11025">
        <ele>132.909458</ele>
        <time>2022-12-30T13:53:30.357Z</time>
      </trkpt>
      <trkpt lat="44.04169" lon="1.11036">
        <ele>132.755527</ele>
        <time>2022-12-30T13:53:33.361Z</time>
      </trkpt>
      <trkpt lat="44.04164" lon="1.11047">
        <ele>132.622979</ele>
        <time>2022-12-30T13:53:36.363Z</time>
      </trkpt>
      <trkpt lat="44.04159" lon="1.11059">
        <ele>132.490065</ele>
        <time>2022-12-30T13:53:40.351Z</time>
      </trkpt>
      <trkpt lat="44.0415" lon="1.11064">
        <ele>132.359627</ele>
        <time>2022-12-30T13:53:45.356Z</time>
      </trkpt>
      <trkpt lat="44.04139" lon="1.11064">
        <ele>132.214374</ele>
        <time>2022-12-30T13:53:50.360Z</time>
      </trkpt>
      <trkpt lat="44.04129" lon="1.11061">
        <ele>132.067117</ele>
        <time>2022-12-30T13:53:54.337Z</time>
      </trkpt>
      <trkpt lat="44.04118" lon="1.11058">
        <ele>131.918304</ele>
        <time>2022-12-30T13:53:58.347Z</time>
      </trkpt>
      <trkpt lat="44.04109" lon="1.1105">
        <ele>131.774488</ele>
        <time>2022-12-30T13:54:03.335Z</time>
      </trkpt>
      <trkpt lat="44.04102" lon="1.1104">
        <ele>131.64114</ele>
        <time>2022-12-30T13:54:08.338Z</time>
      </trkpt>
      <trkpt lat="44.04093" lon="1.11048">
        <ele>131.49621</ele>
        <time>2022-12-30T13:54:12.335Z</time>
      </trkpt>
      <trkpt lat="44.04085" lon="1.11059">
        <ele>131.345713</ele>
        <time>2022-12-30T13:54:15.337Z</time>
      </trkpt>
      <trkpt lat="44.04076" lon="1.1107">
        <ele>131.199687</ele>
        <time>2022-12-30T13:54:18.356Z</time>
      </trkpt>
      <trkpt lat="44.04067" lon="1.1108">
        <ele>131.285386</ele>
        <time>2022-12-30T13:54:21.368Z</time>
      </trkpt>
      <trkpt lat="44.0406" lon="1.1109">
        <ele>131.352843</ele>
        <time>2022-12-30T13:54:23.364Z</time>
      </trkpt>
      <trkpt lat="44.04054" lon="1.11099">
        <ele>131.418826</ele>
        <time>2022-12-30T13:54:25.343Z</time>
      </trkpt>
      <trkpt lat="44.04047" lon="1.11107">
        <ele>131.48508</ele>
        <time>2022-12-30T13:54:27.366Z</time>
      </trkpt>
      <trkpt lat="44.04036" lon="1.11119">
        <ele>131.581104</ele>
        <time>2022-12-30T13:54:30.359Z</time>
      </trkpt>
      <trkpt lat="44.04029" lon="1.11128">
        <ele>131.652805</ele>
        <time>2022-12-30T13:54:32.369Z</time>
      </trkpt>
      <trkpt lat="44.04021" lon="1.11137">
        <ele>131.725313</ele>
        <time>2022-12-30T13:54:34.369Z</time>
      </trkpt>
      <trkpt lat="44.04014" lon="1.11146">
        <ele>131.792448</ele>
        <time>2022-12-30T13:54:36.358Z</time>
      </trkpt>
      <trkpt lat="44.04007" lon="1.11154">
        <ele>131.858053</ele>
        <time>2022-12-30T13:54:38.355Z</time>
      </trkpt>
      <trkpt lat="44.03999" lon="1.11163">
        <ele>131.930816</ele>
        <time>2022-12-30T13:54:40.356Z</time>
      </trkpt>
      <trkpt lat="44.03993" lon="1.11172">
        <ele>131.995351</ele>
        <time>2022-12-30T13:54:42.354Z</time>
      </trkpt>
      <trkpt lat="44.03984" lon="1.11184">
        <ele>132.084549</ele>
        <time>2022-12-30T13:54:45.364Z</time>
      </trkpt>
      <trkpt lat="44.03975" lon="1.11193">
        <ele>132.162334</ele>
        <time>2022-12-30T13:54:48.353Z</time>
      </trkpt>
      <trkpt lat="44.03966" lon="1.11203">
        <ele>132.242669</ele>
        <time>2022-12-30T13:54:51.353Z</time>
      </trkpt>
      <trkpt lat="44.03959" lon="1.11213">
        <ele>132.316309</ele>
        <time>2022-12-30T13:54:54.369Z</time>
      </trkpt>
      <trkpt lat="44.03953" lon="1.11225">
        <ele>132.391252</ele>
        <time>2022-12-30T13:54:57.358Z</time>
      </trkpt>
      <trkpt lat="44.03949" lon="1.11239">
        <ele>132.47015</ele>
        <time>2022-12-30T13:55:00.354Z</time>
      </trkpt>
      <trkpt lat="44.03948" lon="1.11253">
        <ele>132.465296</ele>
        <time>2022-12-30T13:55:03.354Z</time>
      </trkpt>
      <trkpt lat="44.03945" lon="1.11269">
        <ele>132.442</ele>
        <time>2022-12-30T13:55:07.363Z</time>
      </trkpt>
      <trkpt lat="44.03944" lon="1.11282">
        <ele>132.42372</ele>
        <time>2022-12-30T13:55:10.357Z</time>
      </trkpt>
      <trkpt lat="44.03944" lon="1.11297">
        <ele>132.401964</ele>
        <time>2022-12-30T13:55:14.355Z</time>
      </trkpt>
      <trkpt lat="44.03942" lon="1.11311">
        <ele>132.382594</ele>
        <time>2022-12-30T13:55:18.352Z</time>
      </trkpt>
      <trkpt lat="44.03933" lon="1.11321">
        <ele>132.358951</ele>
        <time>2022-12-30T13:55:22.357Z</time>
      </trkpt>
      <trkpt lat="44.03925" lon="1.11334">
        <ele>132.335817</ele>
        <time>2022-12-30T13:55:25.367Z</time>
      </trkpt>
      <trkpt lat="44.03919" lon="1.11343">
        <ele>132.31696</ele>
        <time>2022-12-30T13:55:28.358Z</time>
      </trkpt>
      <trkpt lat="44.03912" lon="1.11353">
        <ele>132.297694</ele>
        <time>2022-12-30T13:55:31.354Z</time>
      </trkpt>
      <trkpt lat="44.03905" lon="1.11362">
        <ele>132.278722</ele>
        <time>2022-12-30T13:55:34.352Z</time>
      </trkpt>
      <trkpt lat="44.03897" lon="1.11371">
        <ele>132.25915</ele>
        <time>2022-12-30T13:55:37.339Z</time>
      </trkpt>
      <trkpt lat="44.03889" lon="1.11381">
        <ele>132.237733</ele>
        <time>2022-12-30T13:55:40.350Z</time>
      </trkpt>
      <trkpt lat="44.03881" lon="1.11391">
        <ele>132.21685</ele>
        <time>2022-12-30T13:55:43.332Z</time>
      </trkpt>
      <trkpt lat="44.03873" lon="1.114">
        <ele>132.196112</ele>
        <time>2022-12-30T13:55:46.343Z</time>
      </trkpt>
      <trkpt lat="44.03864" lon="1.11409">
        <ele>132.174544</ele>
        <time>2022-12-30T13:55:49.338Z</time>
      </trkpt>
      <trkpt lat="44.03856" lon="1.11419">
        <ele>132.153942</ele>
        <time>2022-12-30T13:55:52.337Z</time>
      </trkpt>
      <trkpt lat="44.03848" lon="1.11429">
        <ele>132.132913</ele>
        <time>2022-12-30T13:55:55.335Z</time>
      </trkpt>
      <trkpt lat="44.0384" lon="1.11438">
        <ele>132.204689</ele>
        <time>2022-12-30T13:55:58.355Z</time>
      </trkpt>
      <trkpt lat="44.03833" lon="1.11448">
        <ele>132.30555</ele>
        <time>2022-12-30T13:56:01.358Z</time>
      </trkpt>
      <trkpt lat="44.03825" lon="1.11457">
        <ele>132.411309</ele>
        <time>2022-12-30T13:56:04.353Z</time>
      </trkpt>
      <trkpt lat="44.03818" lon="1.11468">
        <ele>132.51805</ele>
        <time>2022-12-30T13:56:07.360Z</time>
      </trkpt>
      <trkpt lat="44.03811" lon="1.11477">
        <ele>132.614633</ele>
        <time>2022-12-30T13:56:10.351Z</time>
      </trkpt>
      <trkpt lat="44.03805" lon="1.11487">
        <ele>132.70709</ele>
        <time>2022-12-30T13:56:13.374Z</time>
      </trkpt>
      <trkpt lat="44.03799" lon="1.11498">
        <ele>132.804761</ele>
        <time>2022-12-30T13:56:16.371Z</time>
      </trkpt>
      <trkpt lat="44.03792" lon="1.1151">
        <ele>132.919055</ele>
        <time>2022-12-30T13:56:20.354Z</time>
      </trkpt>
      <trkpt lat="44.03785" lon="1.1152">
        <ele>133.01802</ele>
        <time>2022-12-30T13:56:25.354Z</time>
      </trkpt>
      <trkpt lat="44.03791" lon="1.11536">
        <ele>133.153718</ele>
        <time>2022-12-30T13:57:07.410Z</time>
      </trkpt>
      <trkpt lat="44.038" lon="1.11545">
        <ele>133.263548</ele>
        <time>2022-12-30T13:57:16.355Z</time>
      </trkpt>
      <trkpt lat="44.03808" lon="1.11554">
        <ele>133.364284</ele>
        <time>2022-12-30T13:57:20.356Z</time>
      </trkpt>
      <trkpt lat="44.03812" lon="1.11568">
        <ele>133.471801</ele>
        <time>2022-12-30T13:57:24.349Z</time>
      </trkpt>
      <trkpt lat="44.03809" lon="1.11582">
        <ele>133.575523</ele>
        <time>2022-12-30T13:57:27.358Z</time>
      </trkpt>
      <trkpt lat="44.03801" lon="1.11594">
        <ele>133.695784</ele>
        <time>2022-12-30T13:57:30.346Z</time>
      </trkpt>
      <trkpt lat="44.0379" lon="1.11602">
        <ele>133.820247</ele>
        <time>2022-12-30T13:57:33.359Z</time>
      </trkpt>
      <trkpt lat="44.03778" lon="1.11606">
        <ele>133.896637</ele>
        <time>2022-12-30T13:57:36.347Z</time>
      </trkpt>
      <trkpt lat="44.03772" lon="1.11617">
        <ele>133.625257</ele>
        <time>2022-12-30T13:57:39.362Z</time>
      </trkpt>
      <trkpt lat="44.03762" lon="1.11644">
        <ele>133.03933</ele>
        <time>2022-12-30T13:58:13.353Z</time>
      </trkpt>
      <trkpt lat="44.03758" lon="1.11656">
        <ele>132.767079</ele>
        <time>2022-12-30T13:58:17.362Z</time>
      </trkpt>
      <trkpt lat="44.03754" lon="1.11668">
        <ele>132.513815</ele>
        <time>2022-12-30T13:58:20.356Z</time>
      </trkpt>
      <trkpt lat="44.03751" lon="1.11681">
        <ele>132.248383</ele>
        <time>2022-12-30T13:58:23.362Z</time>
      </trkpt>
      <trkpt lat="44.03747" lon="1.11694">
        <ele>131.964944</ele>
        <time>2022-12-30T13:58:26.364Z</time>
      </trkpt>
      <trkpt lat="44.03743" lon="1.11709">
        <ele>131.655053</ele>
        <time>2022-12-30T13:58:29.366Z</time>
      </trkpt>
      <trkpt lat="44.03739" lon="1.11724">
        <ele>131.339527</ele>
        <time>2022-12-30T13:58:32.359Z</time>
      </trkpt>
      <trkpt lat="44.03734" lon="1.11739">
        <ele>131.01534</ele>
        <time>2022-12-30T13:58:35.367Z</time>
      </trkpt>
      <trkpt lat="44.03729" lon="1.11754">
        <ele>130.689704</ele>
        <time>2022-12-30T13:58:38.366Z</time>
      </trkpt>
      <trkpt lat="44.03725" lon="1.11769">
        <ele>130.377389</ele>
        <time>2022-12-30T13:58:41.358Z</time>
      </trkpt>
      <trkpt lat="44.03721" lon="1.11782">
        <ele>130.100014</ele>
        <time>2022-12-30T13:58:44.355Z</time>
      </trkpt>
      <trkpt lat="44.03716" lon="1.11796">
        <ele>129.794841</ele>
        <time>2022-12-30T13:58:48.369Z</time>
      </trkpt>
      <trkpt lat="44.03713" lon="1.1181">
        <ele>129.511137</ele>
        <time>2022-12-30T13:58:52.356Z</time>
      </trkpt>
      <trkpt lat="44.03709" lon="1.11821">
        <ele>129.260157</ele>
        <time>2022-12-30T13:58:55.338Z</time>
      </trkpt>
      <trkpt lat="44.03705" lon="1.11835">
        <ele>129.019895</ele>
        <time>2022-12-30T13:58:58.336Z</time>
      </trkpt>
      <trkpt lat="44.037" lon="1.1185">
        <ele>129.038115</ele>
        <time>2022-12-30T13:59:01.351Z</time>
      </trkpt>
      <trkpt lat="44.03696" lon="1.11867">
        <ele>129.057543</ele>
        <time>2022-12-30T13:59:04.342Z</time>
      </trkpt>
      <trkpt lat="44.03691" lon="1.11882">
        <ele>129.076623</ele>
        <time>2022-12-30T13:59:07.363Z</time>
      </trkpt>
      <trkpt lat="44.03686" lon="1.11899">
        <ele>129.096279</ele>
        <time>2022-12-30T13:59:10.365Z</time>
      </trkpt>
      <trkpt lat="44.03681" lon="1.11914">
        <ele>129.115275</ele>
        <time>2022-12-30T13:59:13.365Z</time>
      </trkpt>
      <trkpt lat="44.03677" lon="1.1193">
        <ele>129.133944</ele>
        <time>2022-12-30T13:59:16.364Z</time>
      </trkpt>
      <trkpt lat="44.03671" lon="1.11946">
        <ele>129.153566</ele>
        <time>2022-12-30T13:59:19.353Z</time>
      </trkpt>
      <trkpt lat="44.03666" lon="1.11961">
        <ele>129.173058</ele>
        <time>2022-12-30T13:59:22.363Z</time>
      </trkpt>
      <trkpt lat="44.03661" lon="1.11977">
        <ele>129.192526</ele>
        <time>2022-12-30T13:59:25.366Z</time>
      </trkpt>
      <trkpt lat="44.03656" lon="1.11994">
        <ele>129.21235</ele>
        <time>2022-12-30T13:59:28.358Z</time>
      </trkpt>
      <trkpt lat="44.0365" lon="1.1201">
        <ele>129.232746</ele>
        <time>2022-12-30T13:59:31.368Z</time>
      </trkpt>
      <trkpt lat="44.03645" lon="1.12026">
        <ele>129.25234</ele>
        <time>2022-12-30T13:59:34.355Z</time>
      </trkpt>
      <trkpt lat="44.0364" lon="1.12043">
        <ele>129.272506</ele>
        <time>2022-12-30T13:59:37.341Z</time>
      </trkpt>
      <trkpt lat="44.03635" lon="1.12059">
        <ele>129.292737</ele>
        <time>2022-12-30T13:59:40.346Z</time>
      </trkpt>
      <trkpt lat="44.0363" lon="1.12076">
        <ele>129.50344</ele>
        <time>2022-12-30T13:59:43.350Z</time>
      </trkpt>
      <trkpt lat="44.03625" lon="1.12092">
        <ele>129.746774</ele>
        <time>2022-12-30T13:59:46.369Z</time>
      </trkpt>
      <trkpt lat="44.03621" lon="1.12109">
        <ele>129.992631</ele>
        <time>2022-12-30T13:59:49.351Z</time>
      </trkpt>
      <trkpt lat="44.03616" lon="1.12125">
        <ele>130.236686</ele>
        <time>2022-12-30T13:59:52.362Z</time>
      </trkpt>
      <trkpt lat="44.03611" lon="1.12141">
        <ele>130.482221</ele>
        <time>2022-12-30T13:59:55.355Z</time>
      </trkpt>
      <trkpt lat="44.03606" lon="1.12157">
        <ele>130.727234</ele>
        <time>2022-12-30T13:59:58.357Z</time>
      </trkpt>
      <trkpt lat="44.03601" lon="1.12174">
        <ele>130.982978</ele>
        <time>2022-12-30T14:00:01.354Z</time>
      </trkpt>
      <trkpt lat="44.03596" lon="1.12186">
        <ele>131.169925</ele>
        <time>2022-12-30T14:00:03.336Z</time>
      </trkpt>
      <trkpt lat="44.03593" lon="1.12198">
        <ele>131.348065</ele>
        <time>2022-12-30T14:00:05.358Z</time>
      </trkpt>
      <trkpt lat="44.03588" lon="1.12215">
        <ele>131.608215</ele>
        <time>2022-12-30T14:00:08.356Z</time>
      </trkpt>
      <trkpt lat="44.03584" lon="1.1223">
        <ele>131.833039</ele>
        <time>2022-12-30T14:00:11.356Z</time>
      </trkpt>
      <trkpt lat="44.03579" lon="1.12246">
        <ele>132.071656</ele>
        <time>2022-12-30T14:00:14.367Z</time>
      </trkpt>
      <trkpt lat="44.03574" lon="1.12259">
        <ele>132.28262</ele>
        <time>2022-12-30T14:00:17.345Z</time>
      </trkpt>
      <trkpt lat="44.03569" lon="1.12271">
        <ele>132.480425</ele>
        <time>2022-12-30T14:00:20.369Z</time>
      </trkpt>
      <trkpt lat="44.03564" lon="1.12282">
        <ele>132.66224</ele>
        <time>2022-12-30T14:00:23.357Z</time>
      </trkpt>
      <trkpt lat="44.03558" lon="1.12296">
        <ele>132.856392</ele>
        <time>2022-12-30T14:00:28.337Z</time>
      </trkpt>
      <trkpt lat="44.03556" lon="1.12308">
        <ele>132.981099</ele>
        <time>2022-12-30T14:00:31.379Z</time>
      </trkpt>
      <trkpt lat="44.03552" lon="1.12322">
        <ele>133.116398</ele>
        <time>2022-12-30T14:00:34.342Z</time>
      </trkpt>
      <trkpt lat="44.03549" lon="1.12336">
        <ele>133.25751</ele>
        <time>2022-12-30T14:00:37.343Z</time>
      </trkpt>
      <trkpt lat="44.03545" lon="1.12351">
        <ele>133.41151</ele>
        <time>2022-12-30T14:00:40.349Z</time>
      </trkpt>
      <trkpt lat="44.0354" lon="1.12366">
        <ele>133.576418</ele>
        <time>2022-12-30T14:00:43.340Z</time>
      </trkpt>
      <trkpt lat="44.03535" lon="1.12382">
        <ele>133.737122</ele>
        <time>2022-12-30T14:00:46.353Z</time>
      </trkpt>
      <trkpt lat="44.03531" lon="1.12398">
        <ele>133.901375</ele>
        <time>2022-12-30T14:00:49.345Z</time>
      </trkpt>
      <trkpt lat="44.03526" lon="1.12413">
        <ele>134.056136</ele>
        <time>2022-12-30T14:00:52.361Z</time>
      </trkpt>
      <trkpt lat="44.03521" lon="1.12428">
        <ele>134.211737</ele>
        <time>2022-12-30T14:00:55.358Z</time>
      </trkpt>
      <trkpt lat="44.03517" lon="1.12442">
        <ele>134.360666</ele>
        <time>2022-12-30T14:00:58.358Z</time>
      </trkpt>
      <trkpt lat="44.03513" lon="1.12458">
        <ele>134.525728</ele>
        <time>2022-12-30T14:01:01.358Z</time>
      </trkpt>
      <trkpt lat="44.03508" lon="1.12475">
        <ele>134.70264</ele>
        <time>2022-12-30T14:01:04.354Z</time>
      </trkpt>
      <trkpt lat="44.03503" lon="1.12491">
        <ele>134.868283</ele>
        <time>2022-12-30T14:01:07.360Z</time>
      </trkpt>
      <trkpt lat="44.03498" lon="1.12507">
        <ele>135.040846</ele>
        <time>2022-12-30T14:01:10.356Z</time>
      </trkpt>
      <trkpt lat="44.03493" lon="1.12523">
        <ele>135.17525</ele>
        <time>2022-12-30T14:01:13.356Z</time>
      </trkpt>
      <trkpt lat="44.03489" lon="1.12537">
        <ele>134.997774</ele>
        <time>2022-12-30T14:01:16.368Z</time>
      </trkpt>
      <trkpt lat="44.03483" lon="1.12556">
        <ele>134.766706</ele>
        <time>2022-12-30T14:01:19.350Z</time>
      </trkpt>
      <trkpt lat="44.03479" lon="1.12574">
        <ele>134.556155</ele>
        <time>2022-12-30T14:01:22.356Z</time>
      </trkpt>
      <trkpt lat="44.03474" lon="1.1259">
        <ele>134.358507</ele>
        <time>2022-12-30T14:01:25.367Z</time>
      </trkpt>
      <trkpt lat="44.03469" lon="1.12607">
        <ele>134.150678</ele>
        <time>2022-12-30T14:01:28.357Z</time>
      </trkpt>
      <trkpt lat="44.03465" lon="1.12623">
        <ele>133.951999</ele>
        <time>2022-12-30T14:01:31.349Z</time>
      </trkpt>
      <trkpt lat="44.03462" lon="1.12635">
        <ele>133.808754</ele>
        <time>2022-12-30T14:01:33.348Z</time>
      </trkpt>
      <trkpt lat="44.03456" lon="1.12652">
        <ele>133.605016</ele>
        <time>2022-12-30T14:01:36.357Z</time>
      </trkpt>
      <trkpt lat="44.03452" lon="1.12664">
        <ele>133.454001</ele>
        <time>2022-12-30T14:01:38.366Z</time>
      </trkpt>
      <trkpt lat="44.03446" lon="1.1268">
        <ele>133.24478</ele>
        <time>2022-12-30T14:01:41.365Z</time>
      </trkpt>
      <trkpt lat="44.03442" lon="1.12697">
        <ele>133.045591</ele>
        <time>2022-12-30T14:01:44.356Z</time>
      </trkpt>
      <trkpt lat="44.03436" lon="1.12713">
        <ele>132.837379</ele>
        <time>2022-12-30T14:01:47.356Z</time>
      </trkpt>
      <trkpt lat="44.0343" lon="1.12729">
        <ele>132.638046</ele>
        <time>2022-12-30T14:01:50.356Z</time>
      </trkpt>
      <trkpt lat="44.03425" lon="1.12745">
        <ele>132.440223</ele>
        <time>2022-12-30T14:01:53.362Z</time>
      </trkpt>
      <trkpt lat="44.03419" lon="1.12761">
        <ele>132.405902</ele>
        <time>2022-12-30T14:01:56.356Z</time>
      </trkpt>
      <trkpt lat="44.03414" lon="1.12778">
        <ele>132.491289</ele>
        <time>2022-12-30T14:01:59.339Z</time>
      </trkpt>
      <trkpt lat="44.03411" lon="1.1279">
        <ele>132.549112</ele>
        <time>2022-12-30T14:02:01.356Z</time>
      </trkpt>
      <trkpt lat="44.03406" lon="1.12807">
        <ele>132.633107</ele>
        <time>2022-12-30T14:02:04.367Z</time>
      </trkpt>
      <trkpt lat="44.034" lon="1.12823">
        <ele>132.716245</ele>
        <time>2022-12-30T14:02:07.356Z</time>
      </trkpt>
      <trkpt lat="44.03396" lon="1.12839">
        <ele>132.794449</ele>
        <time>2022-12-30T14:02:10.366Z</time>
      </trkpt>
      <trkpt lat="44.03391" lon="1.12856">
        <ele>132.875626</ele>
        <time>2022-12-30T14:02:13.368Z</time>
      </trkpt>
      <trkpt lat="44.03387" lon="1.12868">
        <ele>132.933531</ele>
        <time>2022-12-30T14:02:15.355Z</time>
      </trkpt>
      <trkpt lat="44.03382" lon="1.12884">
        <ele>133.01721</ele>
        <time>2022-12-30T14:02:18.354Z</time>
      </trkpt>
      <trkpt lat="44.03376" lon="1.12901">
        <ele>133.100347</ele>
        <time>2022-12-30T14:02:21.342Z</time>
      </trkpt>
      <trkpt lat="44.03373" lon="1.12914">
        <ele>133.164547</ele>
        <time>2022-12-30T14:02:23.352Z</time>
      </trkpt>
      <trkpt lat="44.03369" lon="1.12926">
        <ele>133.226182</ele>
        <time>2022-12-30T14:02:25.357Z</time>
      </trkpt>
      <trkpt lat="44.03366" lon="1.12939">
        <ele>133.288049</ele>
        <time>2022-12-30T14:02:27.358Z</time>
      </trkpt>
      <trkpt lat="44.03362" lon="1.12952">
        <ele>133.349731</ele>
        <time>2022-12-30T14:02:29.357Z</time>
      </trkpt>
      <trkpt lat="44.03358" lon="1.12963">
        <ele>133.409811</ele>
        <time>2022-12-30T14:02:31.354Z</time>
      </trkpt>
      <trkpt lat="44.03354" lon="1.12976">
        <ele>133.471493</ele>
        <time>2022-12-30T14:02:33.366Z</time>
      </trkpt>
      <trkpt lat="44.0335" lon="1.12988">
        <ele>133.48331</ele>
        <time>2022-12-30T14:02:35.337Z</time>
      </trkpt>
      <trkpt lat="44.03346" lon="1.13">
        <ele>133.453995</ele>
        <time>2022-12-30T14:02:37.355Z</time>
      </trkpt>
      <trkpt lat="44.03342" lon="1.13012">
        <ele>133.42485</ele>
        <time>2022-12-30T14:02:39.361Z</time>
      </trkpt>
      <trkpt lat="44.03337" lon="1.1303">
        <ele>133.382933</ele>
        <time>2022-12-30T14:02:42.355Z</time>
      </trkpt>
      <trkpt lat="44.03333" lon="1.13042">
        <ele>133.354675</ele>
        <time>2022-12-30T14:02:44.358Z</time>
      </trkpt>
      <trkpt lat="44.03329" lon="1.13053">
        <ele>133.326617</ele>
        <time>2022-12-30T14:02:46.364Z</time>
      </trkpt>
      <trkpt lat="44.03323" lon="1.1307">
        <ele>133.285657</ele>
        <time>2022-12-30T14:02:49.343Z</time>
      </trkpt>
      <trkpt lat="44.0332" lon="1.13082">
        <ele>133.257071</ele>
        <time>2022-12-30T14:02:51.363Z</time>
      </trkpt>
      <trkpt lat="44.03316" lon="1.13093">
        <ele>133.229139</ele>
        <time>2022-12-30T14:02:53.360Z</time>
      </trkpt>
      <trkpt lat="44.03311" lon="1.1311">
        <ele>133.190213</ele>
        <time>2022-12-30T14:02:56.365Z</time>
      </trkpt>
      <trkpt lat="44.03306" lon="1.13126">
        <ele>133.150597</ele>
        <time>2022-12-30T14:02:59.358Z</time>
      </trkpt>
      <trkpt lat="44.03301" lon="1.13142">
        <ele>133.113652</ele>
        <time>2022-12-30T14:03:02.367Z</time>
      </trkpt>
      <trkpt lat="44.03297" lon="1.13158">
        <ele>133.075435</ele>
        <time>2022-12-30T14:03:05.358Z</time>
      </trkpt>
      <trkpt lat="44.03292" lon="1.13174">
        <ele>133.037237</ele>
        <time>2022-12-30T14:03:08.356Z</time>
      </trkpt>
      <trkpt lat="44.03287" lon="1.1319">
        <ele>132.998785</ele>
        <time>2022-12-30T14:03:11.362Z</time>
      </trkpt>
      <trkpt lat="44.03282" lon="1.13207">
        <ele>132.958062</ele>
        <time>2022-12-30T14:03:14.349Z</time>
      </trkpt>
      <trkpt lat="44.03278" lon="1.13219">
        <ele>132.980643</ele>
        <time>2022-12-30T14:03:16.366Z</time>
      </trkpt>
      <trkpt lat="44.03273" lon="1.13235">
        <ele>133.041646</ele>
        <time>2022-12-30T14:03:19.358Z</time>
      </trkpt>
      <trkpt lat="44.03269" lon="1.13252">
        <ele>133.104268</ele>
        <time>2022-12-30T14:03:22.360Z</time>
      </trkpt>
      <trkpt lat="44.03264" lon="1.13269">
        <ele>133.168697</ele>
        <time>2022-12-30T14:03:25.366Z</time>
      </trkpt>
      <trkpt lat="44.03259" lon="1.13284">
        <ele>133.227639</ele>
        <time>2022-12-30T14:03:28.366Z</time>
      </trkpt>
      <trkpt lat="44.03254" lon="1.13299">
        <ele>133.282451</ele>
        <time>2022-12-30T14:03:31.359Z</time>
      </trkpt>
      <trkpt lat="44.0325" lon="1.13311">
        <ele>133.329402</ele>
        <time>2022-12-30T14:03:34.358Z</time>
      </trkpt>
      <trkpt lat="44.03246" lon="1.13324">
        <ele>133.379408</ele>
        <time>2022-12-30T14:03:37.356Z</time>
      </trkpt>
      <trkpt lat="44.03242" lon="1.13339">
        <ele>133.436873</ele>
        <time>2022-12-30T14:03:40.365Z</time>
      </trkpt>
      <trkpt lat="44.03236" lon="1.13355">
        <ele>133.496217</ele>
        <time>2022-12-30T14:03:43.357Z</time>
      </trkpt>
      <trkpt lat="44.03231" lon="1.13371">
        <ele>133.557794</ele>
        <time>2022-12-30T14:03:46.361Z</time>
      </trkpt>
      <trkpt lat="44.03226" lon="1.13388">
        <ele>133.622266</ele>
        <time>2022-12-30T14:03:49.357Z</time>
      </trkpt>
      <trkpt lat="44.03221" lon="1.13405">
        <ele>133.686876</ele>
        <time>2022-12-30T14:03:52.360Z</time>
      </trkpt>
      <trkpt lat="44.03216" lon="1.13422">
        <ele>133.752319</ele>
        <time>2022-12-30T14:03:55.358Z</time>
      </trkpt>
      <trkpt lat="44.03211" lon="1.13439">
        <ele>133.817172</ele>
        <time>2022-12-30T14:03:58.357Z</time>
      </trkpt>
      <trkpt lat="44.03207" lon="1.13455">
        <ele>133.832896</ele>
        <time>2022-12-30T14:04:01.369Z</time>
      </trkpt>
      <trkpt lat="44.03203" lon="1.13467">
        <ele>133.839754</ele>
        <time>2022-12-30T14:04:03.355Z</time>
      </trkpt>
      <trkpt lat="44.03198" lon="1.13483">
        <ele>133.849213</ele>
        <time>2022-12-30T14:04:06.358Z</time>
      </trkpt>
      <trkpt lat="44.03194" lon="1.13495">
        <ele>133.855935</ele>
        <time>2022-12-30T14:04:08.366Z</time>
      </trkpt>
      <trkpt lat="44.0319" lon="1.13507">
        <ele>133.862919</ele>
        <time>2022-12-30T14:04:10.360Z</time>
      </trkpt>
      <trkpt lat="44.03186" lon="1.13519">
        <ele>133.869936</ele>
        <time>2022-12-30T14:04:12.358Z</time>
      </trkpt>
      <trkpt lat="44.03183" lon="1.13531">
        <ele>133.877084</ele>
        <time>2022-12-30T14:04:14.367Z</time>
      </trkpt>
      <trkpt lat="44.03179" lon="1.13542">
        <ele>133.883849</ele>
        <time>2022-12-30T14:04:16.362Z</time>
      </trkpt>
      <trkpt lat="44.03174" lon="1.13555">
        <ele>133.891607</ele>
        <time>2022-12-30T14:04:18.367Z</time>
      </trkpt>
      <trkpt lat="44.03171" lon="1.13568">
        <ele>133.89911</ele>
        <time>2022-12-30T14:04:20.365Z</time>
      </trkpt>
      <trkpt lat="44.03167" lon="1.1358">
        <ele>133.906194</ele>
        <time>2022-12-30T14:04:22.357Z</time>
      </trkpt>
      <trkpt lat="44.03162" lon="1.13597">
        <ele>133.915864</ele>
        <time>2022-12-30T14:04:25.357Z</time>
      </trkpt>
      <trkpt lat="44.03159" lon="1.1361">
        <ele>133.923493</ele>
        <time>2022-12-30T14:04:27.367Z</time>
      </trkpt>
      <trkpt lat="44.03154" lon="1.13626">
        <ele>133.932421</ele>
        <time>2022-12-30T14:04:30.354Z</time>
      </trkpt>
      <trkpt lat="44.0315" lon="1.1364">
        <ele>133.940718</ele>
        <time>2022-12-30T14:04:33.355Z</time>
      </trkpt>
      <trkpt lat="44.03145" lon="1.13654">
        <ele>133.949203</ele>
        <time>2022-12-30T14:04:36.367Z</time>
      </trkpt>
      <trkpt lat="44.0314" lon="1.1367">
        <ele>133.95819</ele>
        <time>2022-12-30T14:04:39.356Z</time>
      </trkpt>
      <trkpt lat="44.03135" lon="1.13686">
        <ele>134.201972</ele>
        <time>2022-12-30T14:04:42.365Z</time>
      </trkpt>
      <trkpt lat="44.0313" lon="1.13703">
        <ele>134.48265</ele>
        <time>2022-12-30T14:04:45.357Z</time>
      </trkpt>
      <trkpt lat="44.03125" lon="1.1372">
        <ele>134.76751</ele>
        <time>2022-12-30T14:04:48.340Z</time>
      </trkpt>
      <trkpt lat="44.03121" lon="1.13732">
        <ele>134.961593</ele>
        <time>2022-12-30T14:04:50.355Z</time>
      </trkpt>
      <trkpt lat="44.03115" lon="1.13749">
        <ele>135.242905</ele>
        <time>2022-12-30T14:04:53.354Z</time>
      </trkpt>
      <trkpt lat="44.03112" lon="1.1376">
        <ele>135.432865</ele>
        <time>2022-12-30T14:04:55.366Z</time>
      </trkpt>
      <trkpt lat="44.03106" lon="1.13777">
        <ele>135.714681</ele>
        <time>2022-12-30T14:04:58.351Z</time>
      </trkpt>
      <trkpt lat="44.03101" lon="1.13795">
        <ele>136.006745</ele>
        <time>2022-12-30T14:05:01.358Z</time>
      </trkpt>
      <trkpt lat="44.03095" lon="1.13812">
        <ele>136.288562</ele>
        <time>2022-12-30T14:05:04.357Z</time>
      </trkpt>
      <trkpt lat="44.03092" lon="1.13824">
        <ele>136.477801</ele>
        <time>2022-12-30T14:05:06.357Z</time>
      </trkpt>
      <trkpt lat="44.03086" lon="1.13841">
        <ele>136.76656</ele>
        <time>2022-12-30T14:05:09.367Z</time>
      </trkpt>
      <trkpt lat="44.03082" lon="1.13853">
        <ele>136.970916</ele>
        <time>2022-12-30T14:05:11.355Z</time>
      </trkpt>
      <trkpt lat="44.03079" lon="1.13866">
        <ele>137.170134</ele>
        <time>2022-12-30T14:05:13.373Z</time>
      </trkpt>
      <trkpt lat="44.03075" lon="1.13878">
        <ele>137.370896</ele>
        <time>2022-12-30T14:05:15.360Z</time>
      </trkpt>
      <trkpt lat="44.03072" lon="1.1389">
        <ele>137.563287</ele>
        <time>2022-12-30T14:05:17.365Z</time>
      </trkpt>
      <trkpt lat="44.03066" lon="1.13907">
        <ele>137.752531</ele>
        <time>2022-12-30T14:05:20.370Z</time>
      </trkpt>
      <trkpt lat="44.03063" lon="1.13919">
        <ele>137.773591</ele>
        <time>2022-12-30T14:05:22.362Z</time>
      </trkpt>
      <trkpt lat="44.03059" lon="1.13931">
        <ele>137.7937</ele>
        <time>2022-12-30T14:05:24.369Z</time>
      </trkpt>
      <trkpt lat="44.03054" lon="1.13948">
        <ele>137.824065</ele>
        <time>2022-12-30T14:05:27.366Z</time>
      </trkpt>
      <trkpt lat="44.03051" lon="1.1396">
        <ele>137.844056</ele>
        <time>2022-12-30T14:05:29.360Z</time>
      </trkpt>
      <trkpt lat="44.03046" lon="1.13977">
        <ele>137.872891</ele>
        <time>2022-12-30T14:05:32.371Z</time>
      </trkpt>
      <trkpt lat="44.0304" lon="1.13993">
        <ele>137.90311</ele>
        <time>2022-12-30T14:05:35.347Z</time>
      </trkpt>
      <trkpt lat="44.03035" lon="1.1401">
        <ele>137.931499</ele>
        <time>2022-12-30T14:05:38.369Z</time>
      </trkpt>
      <trkpt lat="44.0303" lon="1.14024">
        <ele>137.957146</ele>
        <time>2022-12-30T14:05:41.368Z</time>
      </trkpt>
      <trkpt lat="44.03026" lon="1.14038">
        <ele>137.981025</ele>
        <time>2022-12-30T14:05:44.366Z</time>
      </trkpt>
      <trkpt lat="44.03022" lon="1.14054">
        <ele>138.007882</ele>
        <time>2022-12-30T14:05:47.367Z</time>
      </trkpt>
      <trkpt lat="44.03018" lon="1.14068">
        <ele>138.032325</ele>
        <time>2022-12-30T14:05:50.369Z</time>
      </trkpt>
      <trkpt lat="44.03014" lon="1.14082">
        <ele>138.056541</ele>
        <time>2022-12-30T14:05:53.359Z</time>
      </trkpt>
      <trkpt lat="44.0301" lon="1.14096">
        <ele>138.08101</ele>
        <time>2022-12-30T14:05:56.340Z</time>
      </trkpt>
      <trkpt lat="44.03006" lon="1.14112">
        <ele>138.107747</ele>
        <time>2022-12-30T14:05:59.341Z</time>
      </trkpt>
      <trkpt lat="44.03001" lon="1.14127">
        <ele>138.133893</ele>
        <time>2022-12-30T14:06:02.335Z</time>
      </trkpt>
      <trkpt lat="44.02996" lon="1.14142">
        <ele>138.095566</ele>
        <time>2022-12-30T14:06:05.348Z</time>
      </trkpt>
      <trkpt lat="44.02992" lon="1.14156">
        <ele>138.031625</ele>
        <time>2022-12-30T14:06:08.367Z</time>
      </trkpt>
      <trkpt lat="44.02987" lon="1.14167">
        <ele>137.978049</ele>
        <time>2022-12-30T14:06:11.355Z</time>
      </trkpt>
      <trkpt lat="44.02979" lon="1.14175">
        <ele>137.921063</ele>
        <time>2022-12-30T14:06:16.349Z</time>
      </trkpt>
      <trkpt lat="44.02974" lon="1.14187">
        <ele>137.867318</ele>
        <time>2022-12-30T14:06:22.356Z</time>
      </trkpt>
      <trkpt lat="44.02977" lon="1.142">
        <ele>137.810297</ele>
        <time>2022-12-30T14:06:28.367Z</time>
      </trkpt>
      <trkpt lat="44.02977" lon="1.14204">
        <ele>137.793936</ele>
        <time>2022-12-30T14:07:14.816Z</time>
      </trkpt>
      <trkpt lat="44.02966" lon="1.14227">
        <ele>137.685274</ele>
        <time>2022-12-30T14:10:26.343Z</time>
      </trkpt>
      <trkpt lat="44.02962" lon="1.14241">
        <ele>137.621163</ele>
        <time>2022-12-30T14:10:30.342Z</time>
      </trkpt>
      <trkpt lat="44.02959" lon="1.14254">
        <ele>137.565544</ele>
        <time>2022-12-30T14:10:33.354Z</time>
      </trkpt>
      <trkpt lat="44.02955" lon="1.14267">
        <ele>137.508457</ele>
        <time>2022-12-30T14:10:36.343Z</time>
      </trkpt>
      <trkpt lat="44.0295" lon="1.14282">
        <ele>137.442132</ele>
        <time>2022-12-30T14:10:40.344Z</time>
      </trkpt>
      <trkpt lat="44.02946" lon="1.14293">
        <ele>137.388771</ele>
        <time>2022-12-30T14:10:44.363Z</time>
      </trkpt>
      <trkpt lat="44.02943" lon="1.14306">
        <ele>137.334687</ele>
        <time>2022-12-30T14:10:48.373Z</time>
      </trkpt>
      <trkpt lat="44.0294" lon="1.14318">
        <ele>137.281953</ele>
        <time>2022-12-30T14:10:51.357Z</time>
      </trkpt>
      <trkpt lat="44.02937" lon="1.1433">
        <ele>137.22902</ele>
        <time>2022-12-30T14:10:54.356Z</time>
      </trkpt>
      <trkpt lat="44.02933" lon="1.14342">
        <ele>137.177782</ele>
        <time>2022-12-30T14:10:58.346Z</time>
      </trkpt>
      <trkpt lat="44.0293" lon="1.14356">
        <ele>137.115948</ele>
        <time>2022-12-30T14:11:13.343Z</time>
      </trkpt>
      <trkpt lat="44.02924" lon="1.1437">
        <ele>137.009698</ele>
        <time>2022-12-30T14:11:17.345Z</time>
      </trkpt>
      <trkpt lat="44.02919" lon="1.14382">
        <ele>136.918304</ele>
        <time>2022-12-30T14:11:20.349Z</time>
      </trkpt>
      <trkpt lat="44.02915" lon="1.14395">
        <ele>136.829874</ele>
        <time>2022-12-30T14:11:23.351Z</time>
      </trkpt>
      <trkpt lat="44.02913" lon="1.14407">
        <ele>136.748795</ele>
        <time>2022-12-30T14:11:26.350Z</time>
      </trkpt>
      <trkpt lat="44.02909" lon="1.1442">
        <ele>136.662231</ele>
        <time>2022-12-30T14:11:29.345Z</time>
      </trkpt>
      <trkpt lat="44.02906" lon="1.14433">
        <ele>136.571185</ele>
        <time>2022-12-30T14:11:32.357Z</time>
      </trkpt>
      <trkpt lat="44.02901" lon="1.14447">
        <ele>136.473791</ele>
        <time>2022-12-30T14:11:35.349Z</time>
      </trkpt>
      <trkpt lat="44.02896" lon="1.14459">
        <ele>136.382195</ele>
        <time>2022-12-30T14:11:38.353Z</time>
      </trkpt>
      <trkpt lat="44.02892" lon="1.14473">
        <ele>136.286157</ele>
        <time>2022-12-30T14:11:41.347Z</time>
      </trkpt>
      <trkpt lat="44.02888" lon="1.14486">
        <ele>136.195255</ele>
        <time>2022-12-30T14:11:44.395Z</time>
      </trkpt>
      <trkpt lat="44.02884" lon="1.14499">
        <ele>136.102322</ele>
        <time>2022-12-30T14:11:47.344Z</time>
      </trkpt>
      <trkpt lat="44.0288" lon="1.14513">
        <ele>136.008196</ele>
        <time>2022-12-30T14:11:50.350Z</time>
      </trkpt>
      <trkpt lat="44.02876" lon="1.14526">
        <ele>135.915595</ele>
        <time>2022-12-30T14:11:53.360Z</time>
      </trkpt>
      <trkpt lat="44.02872" lon="1.14541">
        <ele>135.814763</ele>
        <time>2022-12-30T14:11:56.356Z</time>
      </trkpt>
      <trkpt lat="44.02867" lon="1.14556">
        <ele>135.706965</ele>
        <time>2022-12-30T14:11:59.350Z</time>
      </trkpt>
      <trkpt lat="44.02862" lon="1.14571">
        <ele>135.602424</ele>
        <time>2022-12-30T14:12:02.358Z</time>
      </trkpt>
      <trkpt lat="44.02857" lon="1.14586">
        <ele>135.497947</ele>
        <time>2022-12-30T14:12:05.369Z</time>
      </trkpt>
      <trkpt lat="44.02852" lon="1.14602">
        <ele>135.417611</ele>
        <time>2022-12-30T14:12:08.363Z</time>
      </trkpt>
      <trkpt lat="44.02847" lon="1.14618">
        <ele>135.333685</ele>
        <time>2022-12-30T14:12:11.351Z</time>
      </trkpt>
      <trkpt lat="44.02842" lon="1.14635">
        <ele>135.248319</ele>
        <time>2022-12-30T14:12:14.375Z</time>
      </trkpt>
      <trkpt lat="44.02838" lon="1.14651">
        <ele>135.16571</ele>
        <time>2022-12-30T14:12:17.375Z</time>
      </trkpt>
      <trkpt lat="44.02833" lon="1.14667">
        <ele>135.086597</ele>
        <time>2022-12-30T14:12:20.342Z</time>
      </trkpt>
      <trkpt lat="44.02827" lon="1.14683">
        <ele>135.003441</ele>
        <time>2022-12-30T14:12:23.343Z</time>
      </trkpt>
      <trkpt lat="44.02822" lon="1.14699">
        <ele>134.917815</ele>
        <time>2022-12-30T14:12:26.353Z</time>
      </trkpt>
      <trkpt lat="44.02818" lon="1.14715">
        <ele>134.836329</ele>
        <time>2022-12-30T14:12:29.358Z</time>
      </trkpt>
      <trkpt lat="44.02812" lon="1.14732">
        <ele>134.750325</ele>
        <time>2022-12-30T14:12:32.342Z</time>
      </trkpt>
      <trkpt lat="44.02808" lon="1.14748">
        <ele>134.667991</ele>
        <time>2022-12-30T14:12:35.349Z</time>
      </trkpt>
      <trkpt lat="44.02803" lon="1.14765">
        <ele>134.581319</ele>
        <time>2022-12-30T14:12:38.349Z</time>
      </trkpt>
      <trkpt lat="44.02798" lon="1.14782">
        <ele>134.494646</ele>
        <time>2022-12-30T14:12:41.338Z</time>
      </trkpt>
      <trkpt lat="44.02792" lon="1.14798">
        <ele>134.408642</ele>
        <time>2022-12-30T14:12:44.348Z</time>
      </trkpt>
      <trkpt lat="44.02788" lon="1.14815">
        <ele>134.327836</ele>
        <time>2022-12-30T14:12:47.342Z</time>
      </trkpt>
      <trkpt lat="44.02783" lon="1.1483">
        <ele>134.341689</ele>
        <time>2022-12-30T14:12:50.346Z</time>
      </trkpt>
      <trkpt lat="44.02777" lon="1.14847">
        <ele>134.356509</ele>
        <time>2022-12-30T14:12:53.344Z</time>
      </trkpt>
      <trkpt lat="44.02773" lon="1.14863">
        <ele>134.370677</ele>
        <time>2022-12-30T14:12:56.341Z</time>
      </trkpt>
      <trkpt lat="44.02768" lon="1.1488">
        <ele>134.384977</ele>
        <time>2022-12-30T14:12:59.365Z</time>
      </trkpt>
      <trkpt lat="44.02764" lon="1.14891">
        <ele>134.395128</ele>
        <time>2022-12-30T14:13:01.348Z</time>
      </trkpt>
      <trkpt lat="44.02759" lon="1.14908">
        <ele>134.410216</ele>
        <time>2022-12-30T14:13:04.357Z</time>
      </trkpt>
      <trkpt lat="44.02755" lon="1.1492">
        <ele>134.420636</ele>
        <time>2022-12-30T14:13:06.347Z</time>
      </trkpt>
      <trkpt lat="44.02749" lon="1.14936">
        <ele>134.434894</ele>
        <time>2022-12-30T14:13:09.349Z</time>
      </trkpt>
      <trkpt lat="44.02744" lon="1.14952">
        <ele>134.449536</ele>
        <time>2022-12-30T14:13:12.366Z</time>
      </trkpt>
      <trkpt lat="44.0274" lon="1.14969">
        <ele>134.464198</ele>
        <time>2022-12-30T14:13:15.354Z</time>
      </trkpt>
      <trkpt lat="44.02736" lon="1.14981">
        <ele>134.47437</ele>
        <time>2022-12-30T14:13:17.357Z</time>
      </trkpt>
      <trkpt lat="44.02732" lon="1.14992">
        <ele>134.484568</ele>
        <time>2022-12-30T14:13:19.351Z</time>
      </trkpt>
      <trkpt lat="44.02727" lon="1.15009">
        <ele>134.499402</ele>
        <time>2022-12-30T14:13:22.370Z</time>
      </trkpt>
      <trkpt lat="44.02723" lon="1.1502">
        <ele>134.509572</ele>
        <time>2022-12-30T14:13:24.363Z</time>
      </trkpt>
      <trkpt lat="44.02718" lon="1.15038">
        <ele>134.525006</ele>
        <time>2022-12-30T14:13:27.356Z</time>
      </trkpt>
      <trkpt lat="44.02714" lon="1.1505">
        <ele>134.532871</ele>
        <time>2022-12-30T14:13:29.378Z</time>
      </trkpt>
      <trkpt lat="44.02709" lon="1.15066">
        <ele>134.540271</ele>
        <time>2022-12-30T14:13:32.340Z</time>
      </trkpt>
      <trkpt lat="44.02704" lon="1.15083">
        <ele>134.548115</ele>
        <time>2022-12-30T14:13:35.370Z</time>
      </trkpt>
      <trkpt lat="44.02699" lon="1.151">
        <ele>134.555832</ele>
        <time>2022-12-30T14:13:38.351Z</time>
      </trkpt>
      <trkpt lat="44.02694" lon="1.15117">
        <ele>134.563379</ele>
        <time>2022-12-30T14:13:41.340Z</time>
      </trkpt>
      <trkpt lat="44.02688" lon="1.15133">
        <ele>134.570927</ele>
        <time>2022-12-30T14:13:44.349Z</time>
      </trkpt>
      <trkpt lat="44.02683" lon="1.15148">
        <ele>134.577905</ele>
        <time>2022-12-30T14:13:47.357Z</time>
      </trkpt>
      <trkpt lat="44.02679" lon="1.15163">
        <ele>134.584783</ele>
        <time>2022-12-30T14:13:50.363Z</time>
      </trkpt>
      <trkpt lat="44.02675" lon="1.15179">
        <ele>134.591639</ele>
        <time>2022-12-30T14:13:53.349Z</time>
      </trkpt>
      <trkpt lat="44.0267" lon="1.15194">
        <ele>134.598528</ele>
        <time>2022-12-30T14:13:56.345Z</time>
      </trkpt>
      <trkpt lat="44.02665" lon="1.15209">
        <ele>134.605722</ele>
        <time>2022-12-30T14:13:59.345Z</time>
      </trkpt>
      <trkpt lat="44.02661" lon="1.15225">
        <ele>134.612606</ele>
        <time>2022-12-30T14:14:02.351Z</time>
      </trkpt>
      <trkpt lat="44.02657" lon="1.1524">
        <ele>134.619363</ele>
        <time>2022-12-30T14:14:05.348Z</time>
      </trkpt>
      <trkpt lat="44.02653" lon="1.15253">
        <ele>134.625609</ele>
        <time>2022-12-30T14:14:08.348Z</time>
      </trkpt>
      <trkpt lat="44.02648" lon="1.15268">
        <ele>134.632387</ele>
        <time>2022-12-30T14:14:11.361Z</time>
      </trkpt>
      <trkpt lat="44.02643" lon="1.15283">
        <ele>134.643348</ele>
        <time>2022-12-30T14:14:14.351Z</time>
      </trkpt>
      <trkpt lat="44.02639" lon="1.15297">
        <ele>134.656865</ele>
        <time>2022-12-30T14:14:17.351Z</time>
      </trkpt>
      <trkpt lat="44.02634" lon="1.15312">
        <ele>134.670812</ele>
        <time>2022-12-30T14:14:20.359Z</time>
      </trkpt>
      <trkpt lat="44.02629" lon="1.15328">
        <ele>134.684816</ele>
        <time>2022-12-30T14:14:23.349Z</time>
      </trkpt>
      <trkpt lat="44.02625" lon="1.1534">
        <ele>134.69685</ele>
        <time>2022-12-30T14:14:26.349Z</time>
      </trkpt>
      <trkpt lat="44.02622" lon="1.15353">
        <ele>134.708447</ele>
        <time>2022-12-30T14:14:29.360Z</time>
      </trkpt>
      <trkpt lat="44.02617" lon="1.15367">
        <ele>134.720995</ele>
        <time>2022-12-30T14:14:32.347Z</time>
      </trkpt>
      <trkpt lat="44.02613" lon="1.15382">
        <ele>134.735213</ele>
        <time>2022-12-30T14:14:35.342Z</time>
      </trkpt>
      <trkpt lat="44.02609" lon="1.15397">
        <ele>134.748381</ele>
        <time>2022-12-30T14:14:38.358Z</time>
      </trkpt>
      <trkpt lat="44.02606" lon="1.15411">
        <ele>134.760704</ele>
        <time>2022-12-30T14:14:41.349Z</time>
      </trkpt>
      <trkpt lat="44.02604" lon="1.15423">
        <ele>134.771431</ele>
        <time>2022-12-30T14:14:44.342Z</time>
      </trkpt>
      <trkpt lat="44.02603" lon="1.15437">
        <ele>134.783122</ele>
        <time>2022-12-30T14:14:48.343Z</time>
      </trkpt>
      <trkpt lat="44.02598" lon="1.15449">
        <ele>134.794797</ele>
        <time>2022-12-30T14:14:53.347Z</time>
      </trkpt>
      <trkpt lat="44.0259" lon="1.15463">
        <ele>134.80973</ele>
        <time>2022-12-30T14:14:56.363Z</time>
      </trkpt>
      <trkpt lat="44.02584" lon="1.15476">
        <ele>134.823301</ele>
        <time>2022-12-30T14:14:58.339Z</time>
      </trkpt>
      <trkpt lat="44.02578" lon="1.15491">
        <ele>134.83746</ele>
        <time>2022-12-30T14:15:00.362Z</time>
      </trkpt>
      <trkpt lat="44.02574" lon="1.15505">
        <ele>134.854588</ele>
        <time>2022-12-30T14:15:02.343Z</time>
      </trkpt>
      <trkpt lat="44.02569" lon="1.15518">
        <ele>134.882203</ele>
        <time>2022-12-30T14:15:04.357Z</time>
      </trkpt>
      <trkpt lat="44.02565" lon="1.15532">
        <ele>134.909542</ele>
        <time>2022-12-30T14:15:06.375Z</time>
      </trkpt>
      <trkpt lat="44.02561" lon="1.15544">
        <ele>134.933595</ele>
        <time>2022-12-30T14:15:08.366Z</time>
      </trkpt>
      <trkpt lat="44.02557" lon="1.15555">
        <ele>134.957344</ele>
        <time>2022-12-30T14:15:10.364Z</time>
      </trkpt>
      <trkpt lat="44.02552" lon="1.15572">
        <ele>134.991835</ele>
        <time>2022-12-30T14:15:13.358Z</time>
      </trkpt>
      <trkpt lat="44.02547" lon="1.15589">
        <ele>135.025125</ele>
        <time>2022-12-30T14:15:16.362Z</time>
      </trkpt>
      <trkpt lat="44.02542" lon="1.15606">
        <ele>135.058829</ele>
        <time>2022-12-30T14:15:19.338Z</time>
      </trkpt>
      <trkpt lat="44.02537" lon="1.15623">
        <ele>135.093945</ele>
        <time>2022-12-30T14:15:22.355Z</time>
      </trkpt>
      <trkpt lat="44.02533" lon="1.15635">
        <ele>135.11848</ele>
        <time>2022-12-30T14:15:24.382Z</time>
      </trkpt>
      <trkpt lat="44.02529" lon="1.15646">
        <ele>135.142361</ele>
        <time>2022-12-30T14:15:26.348Z</time>
      </trkpt>
      <trkpt lat="44.02525" lon="1.15659">
        <ele>135.168405</ele>
        <time>2022-12-30T14:15:28.359Z</time>
      </trkpt>
      <trkpt lat="44.02521" lon="1.15671">
        <ele>135.193005</ele>
        <time>2022-12-30T14:15:30.345Z</time>
      </trkpt>
      <trkpt lat="44.02518" lon="1.15684">
        <ele>135.217998</ele>
        <time>2022-12-30T14:15:32.356Z</time>
      </trkpt>
      <trkpt lat="44.02514" lon="1.15695">
        <ele>135.241301</ele>
        <time>2022-12-30T14:15:34.364Z</time>
      </trkpt>
      <trkpt lat="44.02508" lon="1.15712">
        <ele>135.276139</ele>
        <time>2022-12-30T14:15:37.360Z</time>
      </trkpt>
      <trkpt lat="44.02505" lon="1.15724">
        <ele>135.299612</ele>
        <time>2022-12-30T14:15:39.344Z</time>
      </trkpt>
      <trkpt lat="44.025" lon="1.15741">
        <ele>135.301815</ele>
        <time>2022-12-30T14:15:42.343Z</time>
      </trkpt>
      <trkpt lat="44.02496" lon="1.15753">
        <ele>135.288126</ele>
        <time>2022-12-30T14:15:44.376Z</time>
      </trkpt>
      <trkpt lat="44.02493" lon="1.15765">
        <ele>135.274663</ele>
        <time>2022-12-30T14:15:46.347Z</time>
      </trkpt>
      <trkpt lat="44.02487" lon="1.15781">
        <ele>135.25539</ele>
        <time>2022-12-30T14:15:49.347Z</time>
      </trkpt>
      <trkpt lat="44.02482" lon="1.15798">
        <ele>135.235687</ele>
        <time>2022-12-30T14:15:52.376Z</time>
      </trkpt>
      <trkpt lat="44.02476" lon="1.15815">
        <ele>135.216043</ele>
        <time>2022-12-30T14:15:55.362Z</time>
      </trkpt>
      <trkpt lat="44.02471" lon="1.15832">
        <ele>135.196145</ele>
        <time>2022-12-30T14:15:58.351Z</time>
      </trkpt>
      <trkpt lat="44.02467" lon="1.15844">
        <ele>135.182651</ele>
        <time>2022-12-30T14:16:00.379Z</time>
      </trkpt>
      <trkpt lat="44.02464" lon="1.15855">
        <ele>135.169097</ele>
        <time>2022-12-30T14:16:02.360Z</time>
      </trkpt>
      <trkpt lat="44.0246" lon="1.15867">
        <ele>135.155435</ele>
        <time>2022-12-30T14:16:04.359Z</time>
      </trkpt>
      <trkpt lat="44.02456" lon="1.15879">
        <ele>135.141371</ele>
        <time>2022-12-30T14:16:06.361Z</time>
      </trkpt>
      <trkpt lat="44.02451" lon="1.15896">
        <ele>135.121391</ele>
        <time>2022-12-30T14:16:09.360Z</time>
      </trkpt>
      <trkpt lat="44.02446" lon="1.15914">
        <ele>135.101574</ele>
        <time>2022-12-30T14:16:12.350Z</time>
      </trkpt>
      <trkpt lat="44.02441" lon="1.1593">
        <ele>135.083097</ele>
        <time>2022-12-30T14:16:15.348Z</time>
      </trkpt>
      <trkpt lat="44.02437" lon="1.15945">
        <ele>135.065827</ele>
        <time>2022-12-30T14:16:18.366Z</time>
      </trkpt>
      <trkpt lat="44.02432" lon="1.15961">
        <ele>135.050097</ele>
        <time>2022-12-30T14:16:21.365Z</time>
      </trkpt>
      <trkpt lat="44.02427" lon="1.15978">
        <ele>135.203478</ele>
        <time>2022-12-30T14:16:24.346Z</time>
      </trkpt>
      <trkpt lat="44.02422" lon="1.15995">
        <ele>135.360386</ele>
        <time>2022-12-30T14:16:27.362Z</time>
      </trkpt>
      <trkpt lat="44.02417" lon="1.16012">
        <ele>135.515891</ele>
        <time>2022-12-30T14:16:30.344Z</time>
      </trkpt>
      <trkpt lat="44.02411" lon="1.16028">
        <ele>135.667966</ele>
        <time>2022-12-30T14:16:33.375Z</time>
      </trkpt>
      <trkpt lat="44.02407" lon="1.16044">
        <ele>135.814524</ele>
        <time>2022-12-30T14:16:36.353Z</time>
      </trkpt>
      <trkpt lat="44.02402" lon="1.1606">
        <ele>135.959939</ele>
        <time>2022-12-30T14:16:39.363Z</time>
      </trkpt>
      <trkpt lat="44.02398" lon="1.16076">
        <ele>136.105469</ele>
        <time>2022-12-30T14:16:42.367Z</time>
      </trkpt>
      <trkpt lat="44.02393" lon="1.16091">
        <ele>136.244483</ele>
        <time>2022-12-30T14:16:45.346Z</time>
      </trkpt>
      <trkpt lat="44.02388" lon="1.16106">
        <ele>136.382843</ele>
        <time>2022-12-30T14:16:48.368Z</time>
      </trkpt>
      <trkpt lat="44.02384" lon="1.16121">
        <ele>136.519421</ele>
        <time>2022-12-30T14:16:51.350Z</time>
      </trkpt>
      <trkpt lat="44.02381" lon="1.16134">
        <ele>136.63922</ele>
        <time>2022-12-30T14:16:54.349Z</time>
      </trkpt>
      <trkpt lat="44.02377" lon="1.16149">
        <ele>136.771417</ele>
        <time>2022-12-30T14:16:58.356Z</time>
      </trkpt>
      <trkpt lat="44.02373" lon="1.16163">
        <ele>136.900024</ele>
        <time>2022-12-30T14:17:02.343Z</time>
      </trkpt>
      <trkpt lat="44.02369" lon="1.16177">
        <ele>137.025377</ele>
        <time>2022-12-30T14:17:06.349Z</time>
      </trkpt>
      <trkpt lat="44.02366" lon="1.16189">
        <ele>137.135578</ele>
        <time>2022-12-30T14:17:10.341Z</time>
      </trkpt>
      <trkpt lat="44.02359" lon="1.16201">
        <ele>137.149963</ele>
        <time>2022-12-30T14:17:16.355Z</time>
      </trkpt>
      <trkpt lat="44.02352" lon="1.16214">
        <ele>137.121358</ele>
        <time>2022-12-30T14:17:19.344Z</time>
      </trkpt>
      <trkpt lat="44.02345" lon="1.16225">
        <ele>137.093886</ele>
        <time>2022-12-30T14:17:22.342Z</time>
      </trkpt>
      <trkpt lat="44.02344" lon="1.16238">
        <ele>137.069971</ele>
        <time>2022-12-30T14:17:25.349Z</time>
      </trkpt>
      <trkpt lat="44.02342" lon="1.16251">
        <ele>137.047269</ele>
        <time>2022-12-30T14:17:28.342Z</time>
      </trkpt>
      <trkpt lat="44.02339" lon="1.16264">
        <ele>137.021719</ele>
        <time>2022-12-30T14:17:31.359Z</time>
      </trkpt>
      <trkpt lat="44.02334" lon="1.16278">
        <ele>136.994377</ele>
        <time>2022-12-30T14:17:34.358Z</time>
      </trkpt>
      <trkpt lat="44.0233" lon="1.16292">
        <ele>136.966218</ele>
        <time>2022-12-30T14:17:37.361Z</time>
      </trkpt>
      <trkpt lat="44.02324" lon="1.16306">
        <ele>136.938172</ele>
        <time>2022-12-30T14:17:40.353Z</time>
      </trkpt>
      <trkpt lat="44.02318" lon="1.16319">
        <ele>136.909905</ele>
        <time>2022-12-30T14:17:43.352Z</time>
      </trkpt>
      <trkpt lat="44.02313" lon="1.16332">
        <ele>136.88328</ele>
        <time>2022-12-30T14:17:46.365Z</time>
      </trkpt>
      <trkpt lat="44.02307" lon="1.16345">
        <ele>136.854316</ele>
        <time>2022-12-30T14:17:49.360Z</time>
      </trkpt>
      <trkpt lat="44.023" lon="1.16358">
        <ele>136.825695</ele>
        <time>2022-12-30T14:17:52.344Z</time>
      </trkpt>
      <trkpt lat="44.02293" lon="1.16371">
        <ele>136.796797</ele>
        <time>2022-12-30T14:17:55.350Z</time>
      </trkpt>
      <trkpt lat="44.02286" lon="1.16384">
        <ele>136.767275</ele>
        <time>2022-12-30T14:17:58.347Z</time>
      </trkpt>
      <trkpt lat="44.02279" lon="1.16396">
        <ele>136.738642</ele>
        <time>2022-12-30T14:18:01.349Z</time>
      </trkpt>
      <trkpt lat="44.02272" lon="1.16408">
        <ele>136.666961</ele>
        <time>2022-12-30T14:18:04.356Z</time>
      </trkpt>
      <trkpt lat="44.02264" lon="1.16419">
        <ele>136.510356</ele>
        <time>2022-12-30T14:18:07.357Z</time>
      </trkpt>
      <trkpt lat="44.02256" lon="1.16431">
        <ele>136.349571</ele>
        <time>2022-12-30T14:18:10.368Z</time>
      </trkpt>
      <trkpt lat="44.02248" lon="1.16442">
        <ele>136.179717</ele>
        <time>2022-12-30T14:18:13.347Z</time>
      </trkpt>
      <trkpt lat="44.02239" lon="1.16453">
        <ele>136.019939</ele>
        <time>2022-12-30T14:18:16.355Z</time>
      </trkpt>
      <trkpt lat="44.0223" lon="1.16464">
        <ele>135.852768</ele>
        <time>2022-12-30T14:18:19.349Z</time>
      </trkpt>
      <trkpt lat="44.02222" lon="1.16473">
        <ele>135.699564</ele>
        <time>2022-12-30T14:18:22.349Z</time>
      </trkpt>
      <trkpt lat="44.02214" lon="1.16483">
        <ele>135.545717</ele>
        <time>2022-12-30T14:18:25.367Z</time>
      </trkpt>
      <trkpt lat="44.02206" lon="1.16492">
        <ele>135.401566</ele>
        <time>2022-12-30T14:18:28.366Z</time>
      </trkpt>
      <trkpt lat="44.02198" lon="1.16502">
        <ele>135.250077</ele>
        <time>2022-12-30T14:18:31.360Z</time>
      </trkpt>
      <trkpt lat="44.0219" lon="1.16512">
        <ele>135.089204</ele>
        <time>2022-12-30T14:18:34.360Z</time>
      </trkpt>
      <trkpt lat="44.02181" lon="1.16522">
        <ele>134.927512</ele>
        <time>2022-12-30T14:18:37.357Z</time>
      </trkpt>
      <trkpt lat="44.02172" lon="1.16533">
        <ele>134.763414</ele>
        <time>2022-12-30T14:18:40.358Z</time>
      </trkpt>
      <trkpt lat="44.02163" lon="1.16544">
        <ele>134.587639</ele>
        <time>2022-12-30T14:18:43.362Z</time>
      </trkpt>
      <trkpt lat="44.02154" lon="1.16556">
        <ele>134.411084</ele>
        <time>2022-12-30T14:18:46.349Z</time>
      </trkpt>
      <trkpt lat="44.02145" lon="1.16568">
        <ele>134.234621</ele>
        <time>2022-12-30T14:18:49.353Z</time>
      </trkpt>
      <trkpt lat="44.02135" lon="1.16578">
        <ele>134.237946</ele>
        <time>2022-12-30T14:18:52.361Z</time>
      </trkpt>
      <trkpt lat="44.02126" lon="1.16589">
        <ele>134.359596</ele>
        <time>2022-12-30T14:18:55.356Z</time>
      </trkpt>
      <trkpt lat="44.02116" lon="1.166">
        <ele>134.487598</ele>
        <time>2022-12-30T14:18:58.359Z</time>
      </trkpt>
      <trkpt lat="44.02106" lon="1.16613">
        <ele>134.623716</ele>
        <time>2022-12-30T14:19:01.365Z</time>
      </trkpt>
      <trkpt lat="44.02096" lon="1.16624">
        <ele>134.759529</ele>
        <time>2022-12-30T14:19:04.366Z</time>
      </trkpt>
      <trkpt lat="44.02089" lon="1.16633">
        <ele>134.8521</ele>
        <time>2022-12-30T14:19:06.337Z</time>
      </trkpt>
      <trkpt lat="44.02079" lon="1.16645">
        <ele>134.986028</ele>
        <time>2022-12-30T14:19:09.404Z</time>
      </trkpt>
      <trkpt lat="44.02069" lon="1.16656">
        <ele>135.118407</ele>
        <time>2022-12-30T14:19:12.361Z</time>
      </trkpt>
      <trkpt lat="44.0206" lon="1.16668">
        <ele>135.243608</ele>
        <time>2022-12-30T14:19:15.337Z</time>
      </trkpt>
      <trkpt lat="44.02049" lon="1.16679">
        <ele>135.378634</ele>
        <time>2022-12-30T14:19:18.346Z</time>
      </trkpt>
      <trkpt lat="44.0204" lon="1.16691">
        <ele>135.51245</ele>
        <time>2022-12-30T14:19:21.364Z</time>
      </trkpt>
      <trkpt lat="44.02033" lon="1.167">
        <ele>135.606758</ele>
        <time>2022-12-30T14:19:23.360Z</time>
      </trkpt>
      <trkpt lat="44.02026" lon="1.16708">
        <ele>135.698618</ele>
        <time>2022-12-30T14:19:25.351Z</time>
      </trkpt>
      <trkpt lat="44.02019" lon="1.16717">
        <ele>135.795459</ele>
        <time>2022-12-30T14:19:27.347Z</time>
      </trkpt>
      <trkpt lat="44.02011" lon="1.16725">
        <ele>135.890982</ele>
        <time>2022-12-30T14:19:29.339Z</time>
      </trkpt>
      <trkpt lat="44.02001" lon="1.16737">
        <ele>135.981415</ele>
        <time>2022-12-30T14:19:32.357Z</time>
      </trkpt>
      <trkpt lat="44.01991" lon="1.16749">
        <ele>135.94715</ele>
        <time>2022-12-30T14:19:35.344Z</time>
      </trkpt>
      <trkpt lat="44.01981" lon="1.16761">
        <ele>135.91321</ele>
        <time>2022-12-30T14:19:38.357Z</time>
      </trkpt>
      <trkpt lat="44.01972" lon="1.16772">
        <ele>135.881208</ele>
        <time>2022-12-30T14:19:41.345Z</time>
      </trkpt>
      <trkpt lat="44.01962" lon="1.16784">
        <ele>135.848401</ele>
        <time>2022-12-30T14:19:44.352Z</time>
      </trkpt>
      <trkpt lat="44.01952" lon="1.16796">
        <ele>135.813583</ele>
        <time>2022-12-30T14:19:47.358Z</time>
      </trkpt>
      <trkpt lat="44.01942" lon="1.16808">
        <ele>135.780234</ele>
        <time>2022-12-30T14:19:50.341Z</time>
      </trkpt>
      <trkpt lat="44.01935" lon="1.16816">
        <ele>135.756209</ele>
        <time>2022-12-30T14:19:52.347Z</time>
      </trkpt>
      <trkpt lat="44.01928" lon="1.16825">
        <ele>135.731878</ele>
        <time>2022-12-30T14:19:54.354Z</time>
      </trkpt>
      <trkpt lat="44.01921" lon="1.16833">
        <ele>135.707899</ele>
        <time>2022-12-30T14:19:56.361Z</time>
      </trkpt>
      <trkpt lat="44.01911" lon="1.16845">
        <ele>135.674113</ele>
        <time>2022-12-30T14:19:59.370Z</time>
      </trkpt>
      <trkpt lat="44.01902" lon="1.16856">
        <ele>135.642256</ele>
        <time>2022-12-30T14:20:02.344Z</time>
      </trkpt>
      <trkpt lat="44.01892" lon="1.16868">
        <ele>135.609661</ele>
        <time>2022-12-30T14:20:05.363Z</time>
      </trkpt>
      <trkpt lat="44.01882" lon="1.16879">
        <ele>135.577066</ele>
        <time>2022-12-30T14:20:08.343Z</time>
      </trkpt>
      <trkpt lat="44.01873" lon="1.16891">
        <ele>135.543825</ele>
        <time>2022-12-30T14:20:11.344Z</time>
      </trkpt>
      <trkpt lat="44.01863" lon="1.16903">
        <ele>135.51914</ele>
        <time>2022-12-30T14:20:14.350Z</time>
      </trkpt>
      <trkpt lat="44.01853" lon="1.16914">
        <ele>135.505049</ele>
        <time>2022-12-30T14:20:17.367Z</time>
      </trkpt>
      <trkpt lat="44.01844" lon="1.16925">
        <ele>135.491264</ele>
        <time>2022-12-30T14:20:20.369Z</time>
      </trkpt>
      <trkpt lat="44.01835" lon="1.16936">
        <ele>135.477918</ele>
        <time>2022-12-30T14:20:23.352Z</time>
      </trkpt>
      <trkpt lat="44.01825" lon="1.16947">
        <ele>135.464133</ele>
        <time>2022-12-30T14:20:26.348Z</time>
      </trkpt>
      <trkpt lat="44.01817" lon="1.16958">
        <ele>135.451442</ele>
        <time>2022-12-30T14:20:29.349Z</time>
      </trkpt>
      <trkpt lat="44.01809" lon="1.16966">
        <ele>135.441301</ele>
        <time>2022-12-30T14:20:32.362Z</time>
      </trkpt>
      <trkpt lat="44.01802" lon="1.16975">
        <ele>135.430289</ele>
        <time>2022-12-30T14:20:35.342Z</time>
      </trkpt>
      <trkpt lat="44.01793" lon="1.16988">
        <ele>135.416478</ele>
        <time>2022-12-30T14:20:39.358Z</time>
      </trkpt>
      <trkpt lat="44.01787" lon="1.16996">
        <ele>135.406223</ele>
        <time>2022-12-30T14:20:42.371Z</time>
      </trkpt>
      <trkpt lat="44.01777" lon="1.17008">
        <ele>135.391988</ele>
        <time>2022-12-30T14:20:45.358Z</time>
      </trkpt>
      <trkpt lat="44.01767" lon="1.1702">
        <ele>135.377618</ele>
        <time>2022-12-30T14:20:48.363Z</time>
      </trkpt>
      <trkpt lat="44.01759" lon="1.17031">
        <ele>135.364792</ele>
        <time>2022-12-30T14:20:51.357Z</time>
      </trkpt>
      <trkpt lat="44.01748" lon="1.17043">
        <ele>135.350035</ele>
        <time>2022-12-30T14:20:54.354Z</time>
      </trkpt>
      <trkpt lat="44.01739" lon="1.17054">
        <ele>135.335906</ele>
        <time>2022-12-30T14:20:57.347Z</time>
      </trkpt>
      <trkpt lat="44.01728" lon="1.17066">
        <ele>135.354109</ele>
        <time>2022-12-30T14:21:00.346Z</time>
      </trkpt>
      <trkpt lat="44.01718" lon="1.17077">
        <ele>135.428358</ele>
        <time>2022-12-30T14:21:03.351Z</time>
      </trkpt>
      <trkpt lat="44.01709" lon="1.17088">
        <ele>135.501133</ele>
        <time>2022-12-30T14:21:06.377Z</time>
      </trkpt>
      <trkpt lat="44.01699" lon="1.171">
        <ele>135.574563</ele>
        <time>2022-12-30T14:21:09.362Z</time>
      </trkpt>
      <trkpt lat="44.0169" lon="1.17111">
        <ele>135.648091</ele>
        <time>2022-12-30T14:21:12.369Z</time>
      </trkpt>
      <trkpt lat="44.01681" lon="1.17122">
        <ele>135.716803</ele>
        <time>2022-12-30T14:21:15.348Z</time>
      </trkpt>
      <trkpt lat="44.01671" lon="1.17134">
        <ele>135.793288</ele>
        <time>2022-12-30T14:21:18.376Z</time>
      </trkpt>
      <trkpt lat="44.01661" lon="1.17146">
        <ele>135.867528</ele>
        <time>2022-12-30T14:21:21.362Z</time>
      </trkpt>
      <trkpt lat="44.01651" lon="1.17157">
        <ele>135.943097</ele>
        <time>2022-12-30T14:21:24.352Z</time>
      </trkpt>
      <trkpt lat="44.01641" lon="1.1717">
        <ele>136.020694</ele>
        <time>2022-12-30T14:21:27.360Z</time>
      </trkpt>
      <trkpt lat="44.01634" lon="1.17178">
        <ele>136.076058</ele>
        <time>2022-12-30T14:21:29.361Z</time>
      </trkpt>
      <trkpt lat="44.01624" lon="1.17189">
        <ele>136.148507</ele>
        <time>2022-12-30T14:21:32.343Z</time>
      </trkpt>
      <trkpt lat="44.01616" lon="1.17198">
        <ele>136.209729</ele>
        <time>2022-12-30T14:21:35.379Z</time>
      </trkpt>
      <trkpt lat="44.01607" lon="1.17209">
        <ele>136.276746</ele>
        <time>2022-12-30T14:21:38.354Z</time>
      </trkpt>
      <trkpt lat="44.01598" lon="1.1722">
        <ele>136.347057</ele>
        <time>2022-12-30T14:21:41.347Z</time>
      </trkpt>
      <trkpt lat="44.01588" lon="1.17232">
        <ele>136.420755</ele>
        <time>2022-12-30T14:21:44.355Z</time>
      </trkpt>
      <trkpt lat="44.01579" lon="1.17243">
        <ele>136.491221</ele>
        <time>2022-12-30T14:21:47.359Z</time>
      </trkpt>
      <trkpt lat="44.01569" lon="1.17254">
        <ele>136.560481</ele>
        <time>2022-12-30T14:21:50.347Z</time>
      </trkpt>
      <trkpt lat="44.0156" lon="1.17265">
        <ele>136.628959</ele>
        <time>2022-12-30T14:21:53.351Z</time>
      </trkpt>
      <trkpt lat="44.01552" lon="1.17276">
        <ele>136.69388</ele>
        <time>2022-12-30T14:21:56.343Z</time>
      </trkpt>
      <trkpt lat="44.01543" lon="1.17286">
        <ele>136.758753</ele>
        <time>2022-12-30T14:21:59.365Z</time>
      </trkpt>
      <trkpt lat="44.01535" lon="1.17295">
        <ele>136.813904</ele>
        <time>2022-12-30T14:22:02.347Z</time>
      </trkpt>
      <trkpt lat="44.01528" lon="1.17303">
        <ele>136.866171</ele>
        <time>2022-12-30T14:22:05.345Z</time>
      </trkpt>
      <trkpt lat="44.01519" lon="1.17313">
        <ele>136.927011</ele>
        <time>2022-12-30T14:22:09.358Z</time>
      </trkpt>
      <trkpt lat="44.01505" lon="1.17318">
        <ele>137.012634</ele>
        <time>2022-12-30T14:22:35.348Z</time>
      </trkpt>
      <trkpt lat="44.01499" lon="1.17329">
        <ele>137.067594</ele>
        <time>2022-12-30T14:22:40.348Z</time>
      </trkpt>
      <trkpt lat="44.01496" lon="1.17342">
        <ele>137.12089</ele>
        <time>2022-12-30T14:22:44.349Z</time>
      </trkpt>
      <trkpt lat="44.01488" lon="1.17351">
        <ele>137.175672</ele>
        <time>2022-12-30T14:22:48.355Z</time>
      </trkpt>
      <trkpt lat="44.01481" lon="1.1736">
        <ele>137.227586</ele>
        <time>2022-12-30T14:22:51.369Z</time>
      </trkpt>
      <trkpt lat="44.01474" lon="1.17369">
        <ele>137.284304</ele>
        <time>2022-12-30T14:22:54.347Z</time>
      </trkpt>
      <trkpt lat="44.01465" lon="1.17378">
        <ele>137.345341</ele>
        <time>2022-12-30T14:22:57.374Z</time>
      </trkpt>
      <trkpt lat="44.01456" lon="1.1739">
        <ele>137.378473</ele>
        <time>2022-12-30T14:23:00.352Z</time>
      </trkpt>
      <trkpt lat="44.01449" lon="1.17398">
        <ele>137.379006</ele>
        <time>2022-12-30T14:23:02.343Z</time>
      </trkpt>
      <trkpt lat="44.01439" lon="1.1741">
        <ele>137.379764</ele>
        <time>2022-12-30T14:23:05.370Z</time>
      </trkpt>
      <trkpt lat="44.0143" lon="1.17421">
        <ele>137.38048</ele>
        <time>2022-12-30T14:23:08.368Z</time>
      </trkpt>
      <trkpt lat="44.0142" lon="1.17433">
        <ele>137.381227</ele>
        <time>2022-12-30T14:23:11.356Z</time>
      </trkpt>
      <trkpt lat="44.0141" lon="1.17444">
        <ele>137.381973</ele>
        <time>2022-12-30T14:23:14.351Z</time>
      </trkpt>
      <trkpt lat="44.01403" lon="1.17453">
        <ele>137.382496</ele>
        <time>2022-12-30T14:23:16.341Z</time>
      </trkpt>
      <trkpt lat="44.01393" lon="1.17464">
        <ele>137.383245</ele>
        <time>2022-12-30T14:23:19.353Z</time>
      </trkpt>
      <trkpt lat="44.01384" lon="1.17476">
        <ele>137.383967</ele>
        <time>2022-12-30T14:23:22.356Z</time>
      </trkpt>
      <trkpt lat="44.01374" lon="1.17489">
        <ele>137.384734</ele>
        <time>2022-12-30T14:23:25.349Z</time>
      </trkpt>
      <trkpt lat="44.01368" lon="1.17497">
        <ele>137.385263</ele>
        <time>2022-12-30T14:23:27.347Z</time>
      </trkpt>
      <trkpt lat="44.01358" lon="1.17508">
        <ele>137.385999</ele>
        <time>2022-12-30T14:23:30.351Z</time>
      </trkpt>
      <trkpt lat="44.01348" lon="1.17521">
        <ele>137.386756</ele>
        <time>2022-12-30T14:23:33.357Z</time>
      </trkpt>
      <trkpt lat="44.01339" lon="1.17532">
        <ele>137.387494</ele>
        <time>2022-12-30T14:23:36.358Z</time>
      </trkpt>
      <trkpt lat="44.01329" lon="1.17544">
        <ele>137.388213</ele>
        <time>2022-12-30T14:23:39.352Z</time>
      </trkpt>
      <trkpt lat="44.01321" lon="1.17556">
        <ele>137.421775</ele>
        <time>2022-12-30T14:23:42.366Z</time>
      </trkpt>
      <trkpt lat="44.01311" lon="1.17568">
        <ele>137.480517</ele>
        <time>2022-12-30T14:23:45.344Z</time>
      </trkpt>
      <trkpt lat="44.01301" lon="1.17579">
        <ele>137.536992</ele>
        <time>2022-12-30T14:23:48.347Z</time>
      </trkpt>
      <trkpt lat="44.01291" lon="1.17591">
        <ele>137.595943</ele>
        <time>2022-12-30T14:23:51.342Z</time>
      </trkpt>
      <trkpt lat="44.01282" lon="1.17602">
        <ele>137.64961</ele>
        <time>2022-12-30T14:23:54.350Z</time>
      </trkpt>
      <trkpt lat="44.01272" lon="1.17614">
        <ele>137.708648</ele>
        <time>2022-12-30T14:23:57.358Z</time>
      </trkpt>
      <trkpt lat="44.01262" lon="1.17626">
        <ele>137.767522</ele>
        <time>2022-12-30T14:24:00.372Z</time>
      </trkpt>
      <trkpt lat="44.01253" lon="1.17636">
        <ele>137.818041</ele>
        <time>2022-12-30T14:24:03.355Z</time>
      </trkpt>
      <trkpt lat="44.01244" lon="1.17646">
        <ele>137.868997</ele>
        <time>2022-12-30T14:24:06.344Z</time>
      </trkpt>
      <trkpt lat="44.01236" lon="1.17657">
        <ele>137.921477</ele>
        <time>2022-12-30T14:24:09.346Z</time>
      </trkpt>
      <trkpt lat="44.01227" lon="1.17667">
        <ele>137.97295</ele>
        <time>2022-12-30T14:24:12.338Z</time>
      </trkpt>
      <trkpt lat="44.01219" lon="1.17678">
        <ele>138.020957</ele>
        <time>2022-12-30T14:24:15.366Z</time>
      </trkpt>
      <trkpt lat="44.0121" lon="1.17688">
        <ele>138.071334</ele>
        <time>2022-12-30T14:24:18.346Z</time>
      </trkpt>
      <trkpt lat="44.01201" lon="1.17698">
        <ele>138.122807</ele>
        <time>2022-12-30T14:24:21.345Z</time>
      </trkpt>
      <trkpt lat="44.01192" lon="1.17709">
        <ele>138.175654</ele>
        <time>2022-12-30T14:24:24.356Z</time>
      </trkpt>
      <trkpt lat="44.01183" lon="1.17719">
        <ele>138.161032</ele>
        <time>2022-12-30T14:24:27.340Z</time>
      </trkpt>
      <trkpt lat="44.01175" lon="1.1773">
        <ele>138.118276</ele>
        <time>2022-12-30T14:24:30.345Z</time>
      </trkpt>
      <trkpt lat="44.01166" lon="1.1774">
        <ele>138.07545</ele>
        <time>2022-12-30T14:24:33.354Z</time>
      </trkpt>
      <trkpt lat="44.01157" lon="1.17752">
        <ele>138.030464</ele>
        <time>2022-12-30T14:24:36.365Z</time>
      </trkpt>
      <trkpt lat="44.01148" lon="1.17763">
        <ele>137.987107</ele>
        <time>2022-12-30T14:24:39.373Z</time>
      </trkpt>
      <trkpt lat="44.01139" lon="1.17774">
        <ele>137.942021</ele>
        <time>2022-12-30T14:24:42.351Z</time>
      </trkpt>
      <trkpt lat="44.01129" lon="1.17785">
        <ele>137.894794</ele>
        <time>2022-12-30T14:24:45.345Z</time>
      </trkpt>
      <trkpt lat="44.01119" lon="1.17796">
        <ele>137.846872</ele>
        <time>2022-12-30T14:24:48.344Z</time>
      </trkpt>
      <trkpt lat="44.01109" lon="1.17808">
        <ele>137.799274</ele>
        <time>2022-12-30T14:24:51.362Z</time>
      </trkpt>
      <trkpt lat="44.01099" lon="1.17819">
        <ele>137.752954</ele>
        <time>2022-12-30T14:24:54.346Z</time>
      </trkpt>
      <trkpt lat="44.0109" lon="1.17831">
        <ele>137.706161</ele>
        <time>2022-12-30T14:24:57.360Z</time>
      </trkpt>
      <trkpt lat="44.0108" lon="1.17843">
        <ele>137.658289</ele>
        <time>2022-12-30T14:25:00.344Z</time>
      </trkpt>
      <trkpt lat="44.0107" lon="1.17855">
        <ele>137.610553</ele>
        <time>2022-12-30T14:25:03.336Z</time>
      </trkpt>
      <trkpt lat="44.01061" lon="1.17867">
        <ele>137.563031</ele>
        <time>2022-12-30T14:25:06.337Z</time>
      </trkpt>
      <trkpt lat="44.01051" lon="1.17878">
        <ele>137.521514</ele>
        <time>2022-12-30T14:25:09.362Z</time>
      </trkpt>
      <trkpt lat="44.01042" lon="1.17889">
        <ele>137.498174</ele>
        <time>2022-12-30T14:25:12.336Z</time>
      </trkpt>
      <trkpt lat="44.01034" lon="1.17899">
        <ele>137.476458</ele>
        <time>2022-12-30T14:25:15.334Z</time>
      </trkpt>
      <trkpt lat="44.01025" lon="1.17909">
        <ele>137.453479</ele>
        <time>2022-12-30T14:25:18.338Z</time>
      </trkpt>
      <trkpt lat="44.01016" lon="1.1792">
        <ele>137.430048</ele>
        <time>2022-12-30T14:25:21.349Z</time>
      </trkpt>
      <trkpt lat="44.01006" lon="1.17931">
        <ele>137.405707</ele>
        <time>2022-12-30T14:25:24.343Z</time>
      </trkpt>
      <trkpt lat="44.00997" lon="1.17942">
        <ele>137.381424</ele>
        <time>2022-12-30T14:25:27.347Z</time>
      </trkpt>
      <trkpt lat="44.00987" lon="1.17953">
        <ele>137.357161</ele>
        <time>2022-12-30T14:25:30.336Z</time>
      </trkpt>
      <trkpt lat="44.00978" lon="1.17964">
        <ele>137.333696</ele>
        <time>2022-12-30T14:25:33.350Z</time>
      </trkpt>
      <trkpt lat="44.00969" lon="1.17974">
        <ele>137.310264</ele>
        <time>2022-12-30T14:25:36.373Z</time>
      </trkpt>
      <trkpt lat="44.00959" lon="1.17982">
        <ele>137.287467</ele>
        <time>2022-12-30T14:25:39.351Z</time>
      </trkpt>
      <trkpt lat="44.00952" lon="1.17991">
        <ele>137.268882</ele>
        <time>2022-12-30T14:25:42.346Z</time>
      </trkpt>
      <trkpt lat="44.00945" lon="1.18002">
        <ele>137.248292</ele>
        <time>2022-12-30T14:25:45.380Z</time>
      </trkpt>
      <trkpt lat="44.00936" lon="1.18012">
        <ele>137.225195</ele>
        <time>2022-12-30T14:25:48.349Z</time>
      </trkpt>
      <trkpt lat="44.00927" lon="1.18024">
        <ele>137.200199</ele>
        <time>2022-12-30T14:25:51.334Z</time>
      </trkpt>
      <trkpt lat="44.00917" lon="1.18036">
        <ele>137.174771</ele>
        <time>2022-12-30T14:25:54.339Z</time>
      </trkpt>
      <trkpt lat="44.00907" lon="1.18048">
        <ele>137.204192</ele>
        <time>2022-12-30T14:25:57.341Z</time>
      </trkpt>
      <trkpt lat="44.00897" lon="1.1806">
        <ele>137.237301</ele>
        <time>2022-12-30T14:26:00.349Z</time>
      </trkpt>
      <trkpt lat="44.00887" lon="1.18072">
        <ele>137.270631</ele>
        <time>2022-12-30T14:26:03.344Z</time>
      </trkpt>
      <trkpt lat="44.00881" lon="1.1808">
        <ele>137.293204</ele>
        <time>2022-12-30T14:26:05.354Z</time>
      </trkpt>
      <trkpt lat="44.0087" lon="1.18092">
        <ele>137.326969</ele>
        <time>2022-12-30T14:26:08.342Z</time>
      </trkpt>
      <trkpt lat="44.0086" lon="1.18104">
        <ele>137.36023</ele>
        <time>2022-12-30T14:26:11.355Z</time>
      </trkpt>
      <trkpt lat="44.0085" lon="1.18115">
        <ele>137.391915</ele>
        <time>2022-12-30T14:26:14.337Z</time>
      </trkpt>
      <trkpt lat="44.00841" lon="1.18126">
        <ele>137.423515</ele>
        <time>2022-12-30T14:26:17.347Z</time>
      </trkpt>
      <trkpt lat="44.00831" lon="1.18138">
        <ele>137.456007</ele>
        <time>2022-12-30T14:26:20.361Z</time>
      </trkpt>
      <trkpt lat="44.00821" lon="1.18151">
        <ele>137.48946</ele>
        <time>2022-12-30T14:26:23.359Z</time>
      </trkpt>
      <trkpt lat="44.00811" lon="1.18162">
        <ele>137.522153</ele>
        <time>2022-12-30T14:26:26.360Z</time>
      </trkpt>
      <trkpt lat="44.00801" lon="1.18173">
        <ele>137.55441</ele>
        <time>2022-12-30T14:26:29.350Z</time>
      </trkpt>
      <trkpt lat="44.00791" lon="1.18185">
        <ele>137.586515</ele>
        <time>2022-12-30T14:26:32.342Z</time>
      </trkpt>
      <trkpt lat="44.00781" lon="1.18197">
        <ele>137.620219</ele>
        <time>2022-12-30T14:26:35.347Z</time>
      </trkpt>
      <trkpt lat="44.00771" lon="1.18209">
        <ele>137.663952</ele>
        <time>2022-12-30T14:26:38.351Z</time>
      </trkpt>
      <trkpt lat="44.00762" lon="1.18221">
        <ele>137.707605</ele>
        <time>2022-12-30T14:26:41.346Z</time>
      </trkpt>
      <trkpt lat="44.00752" lon="1.18233">
        <ele>137.750597</ele>
        <time>2022-12-30T14:26:44.353Z</time>
      </trkpt>
      <trkpt lat="44.00744" lon="1.18243">
        <ele>137.789795</ele>
        <time>2022-12-30T14:26:47.352Z</time>
      </trkpt>
      <trkpt lat="44.00735" lon="1.18254">
        <ele>137.83045</ele>
        <time>2022-12-30T14:26:50.345Z</time>
      </trkpt>
      <trkpt lat="44.00726" lon="1.18265">
        <ele>137.871122</ele>
        <time>2022-12-30T14:26:53.350Z</time>
      </trkpt>
      <trkpt lat="44.00717" lon="1.18276">
        <ele>137.910286</ele>
        <time>2022-12-30T14:26:56.361Z</time>
      </trkpt>
      <trkpt lat="44.00708" lon="1.18288">
        <ele>137.953689</ele>
        <time>2022-12-30T14:26:59.346Z</time>
      </trkpt>
      <trkpt lat="44.00698" lon="1.18299">
        <ele>137.995715</ele>
        <time>2022-12-30T14:27:02.346Z</time>
      </trkpt>
      <trkpt lat="44.00689" lon="1.1831">
        <ele>138.037063</ele>
        <time>2022-12-30T14:27:05.358Z</time>
      </trkpt>
      <trkpt lat="44.0068" lon="1.18321">
        <ele>138.079667</ele>
        <time>2022-12-30T14:27:08.348Z</time>
      </trkpt>
      <trkpt lat="44.0067" lon="1.18334">
        <ele>138.124492</ele>
        <time>2022-12-30T14:27:11.361Z</time>
      </trkpt>
      <trkpt lat="44.0066" lon="1.18346">
        <ele>138.169572</ele>
        <time>2022-12-30T14:27:14.355Z</time>
      </trkpt>
      <trkpt lat="44.0065" lon="1.18357">
        <ele>138.213533</ele>
        <time>2022-12-30T14:27:17.344Z</time>
      </trkpt>
      <trkpt lat="44.0064" lon="1.18369">
        <ele>138.239885</ele>
        <time>2022-12-30T14:27:20.343Z</time>
      </trkpt>
      <trkpt lat="44.0063" lon="1.18381">
        <ele>138.243299</ele>
        <time>2022-12-30T14:27:23.366Z</time>
      </trkpt>
      <trkpt lat="44.00621" lon="1.18392">
        <ele>138.246618</ele>
        <time>2022-12-30T14:27:26.363Z</time>
      </trkpt>
      <trkpt lat="44.00611" lon="1.18403">
        <ele>138.249904</ele>
        <time>2022-12-30T14:27:29.346Z</time>
      </trkpt>
      <trkpt lat="44.00601" lon="1.18415">
        <ele>138.253275</ele>
        <time>2022-12-30T14:27:32.352Z</time>
      </trkpt>
      <trkpt lat="44.00592" lon="1.18426">
        <ele>138.256526</ele>
        <time>2022-12-30T14:27:35.337Z</time>
      </trkpt>
      <trkpt lat="44.00583" lon="1.18436">
        <ele>138.259575</ele>
        <time>2022-12-30T14:27:38.344Z</time>
      </trkpt>
      <trkpt lat="44.00574" lon="1.18446">
        <ele>138.262479</ele>
        <time>2022-12-30T14:27:41.348Z</time>
      </trkpt>
      <trkpt lat="44.00565" lon="1.18455">
        <ele>138.265411</ele>
        <time>2022-12-30T14:27:44.354Z</time>
      </trkpt>
      <trkpt lat="44.00557" lon="1.18462">
        <ele>138.268031</ele>
        <time>2022-12-30T14:27:47.370Z</time>
      </trkpt>
      <trkpt lat="44.0055" lon="1.18472">
        <ele>138.270444</ele>
        <time>2022-12-30T14:27:50.349Z</time>
      </trkpt>
      <trkpt lat="44.00542" lon="1.18484">
        <ele>138.27368</ele>
        <time>2022-12-30T14:27:54.355Z</time>
      </trkpt>
      <trkpt lat="44.00535" lon="1.18493">
        <ele>138.276301</ele>
        <time>2022-12-30T14:27:57.338Z</time>
      </trkpt>
      <trkpt lat="44.00528" lon="1.18503">
        <ele>138.278869</ele>
        <time>2022-12-30T14:28:00.361Z</time>
      </trkpt>
      <trkpt lat="44.0052" lon="1.18512">
        <ele>138.281562</ele>
        <time>2022-12-30T14:28:03.342Z</time>
      </trkpt>
      <trkpt lat="44.00512" lon="1.18521">
        <ele>138.2842</ele>
        <time>2022-12-30T14:28:06.346Z</time>
      </trkpt>
      <trkpt lat="44.00504" lon="1.18531">
        <ele>138.303259</ele>
        <time>2022-12-30T14:28:09.351Z</time>
      </trkpt>
      <trkpt lat="44.00497" lon="1.1854">
        <ele>138.337709</ele>
        <time>2022-12-30T14:28:12.359Z</time>
      </trkpt>
      <trkpt lat="44.00488" lon="1.18549">
        <ele>138.373994</ele>
        <time>2022-12-30T14:28:15.350Z</time>
      </trkpt>
      <trkpt lat="44.0048" lon="1.18559">
        <ele>138.410074</ele>
        <time>2022-12-30T14:28:18.361Z</time>
      </trkpt>
      <trkpt lat="44.00472" lon="1.18569">
        <ele>138.446895</ele>
        <time>2022-12-30T14:28:21.347Z</time>
      </trkpt>
      <trkpt lat="44.00464" lon="1.18579">
        <ele>138.484625</ele>
        <time>2022-12-30T14:28:24.365Z</time>
      </trkpt>
      <trkpt lat="44.00456" lon="1.18589">
        <ele>138.522699</ele>
        <time>2022-12-30T14:28:27.355Z</time>
      </trkpt>
      <trkpt lat="44.00447" lon="1.186">
        <ele>138.562012</ele>
        <time>2022-12-30T14:28:30.363Z</time>
      </trkpt>
      <trkpt lat="44.00438" lon="1.1861">
        <ele>138.601128</ele>
        <time>2022-12-30T14:28:33.360Z</time>
      </trkpt>
      <trkpt lat="44.00429" lon="1.18621">
        <ele>138.642621</ele>
        <time>2022-12-30T14:28:36.357Z</time>
      </trkpt>
      <trkpt lat="44.0042" lon="1.18632">
        <ele>138.684468</ele>
        <time>2022-12-30T14:28:39.351Z</time>
      </trkpt>
      <trkpt lat="44.00411" lon="1.18643">
        <ele>138.725158</ele>
        <time>2022-12-30T14:28:42.337Z</time>
      </trkpt>
      <trkpt lat="44.00401" lon="1.18654">
        <ele>138.767423</ele>
        <time>2022-12-30T14:28:45.340Z</time>
      </trkpt>
      <trkpt lat="44.00392" lon="1.18665">
        <ele>138.807755</ele>
        <time>2022-12-30T14:28:48.354Z</time>
      </trkpt>
      <trkpt lat="44.00383" lon="1.18676">
        <ele>138.850021</ele>
        <time>2022-12-30T14:28:51.351Z</time>
      </trkpt>
      <trkpt lat="44.00374" lon="1.18687">
        <ele>138.892287</ele>
        <time>2022-12-30T14:28:54.351Z</time>
      </trkpt>
      <trkpt lat="44.00364" lon="1.18699">
        <ele>138.865077</ele>
        <time>2022-12-30T14:28:57.344Z</time>
      </trkpt>
      <trkpt lat="44.00355" lon="1.1871">
        <ele>138.82542</ele>
        <time>2022-12-30T14:29:00.347Z</time>
      </trkpt>
      <trkpt lat="44.00346" lon="1.18722">
        <ele>138.78594</ele>
        <time>2022-12-30T14:29:03.341Z</time>
      </trkpt>
      <trkpt lat="44.00336" lon="1.18733">
        <ele>138.74713</ele>
        <time>2022-12-30T14:29:06.365Z</time>
      </trkpt>
      <trkpt lat="44.00327" lon="1.18744">
        <ele>138.706984</ele>
        <time>2022-12-30T14:29:09.356Z</time>
      </trkpt>
      <trkpt lat="44.00318" lon="1.18755">
        <ele>138.667965</ele>
        <time>2022-12-30T14:29:12.342Z</time>
      </trkpt>
      <trkpt lat="44.00308" lon="1.18766">
        <ele>138.627076</ele>
        <time>2022-12-30T14:29:15.365Z</time>
      </trkpt>
      <trkpt lat="44.00298" lon="1.18778">
        <ele>138.584436</ele>
        <time>2022-12-30T14:29:18.366Z</time>
      </trkpt>
      <trkpt lat="44.00288" lon="1.18791">
        <ele>138.54116</ele>
        <time>2022-12-30T14:29:21.342Z</time>
      </trkpt>
      <trkpt lat="44.00278" lon="1.18802">
        <ele>138.501013</ele>
        <time>2022-12-30T14:29:24.354Z</time>
      </trkpt>
      <trkpt lat="44.00269" lon="1.18813">
        <ele>138.459432</ele>
        <time>2022-12-30T14:29:27.362Z</time>
      </trkpt>
      <trkpt lat="44.00258" lon="1.18825">
        <ele>138.417207</ele>
        <time>2022-12-30T14:29:30.341Z</time>
      </trkpt>
      <trkpt lat="44.00252" lon="1.18833">
        <ele>138.387888</ele>
        <time>2022-12-30T14:29:32.358Z</time>
      </trkpt>
      <trkpt lat="44.00242" lon="1.18845">
        <ele>138.345402</ele>
        <time>2022-12-30T14:29:35.345Z</time>
      </trkpt>
      <trkpt lat="44.00233" lon="1.18857">
        <ele>138.302109</ele>
        <time>2022-12-30T14:29:38.358Z</time>
      </trkpt>
      <trkpt lat="44.00225" lon="1.18866">
        <ele>138.258131</ele>
        <time>2022-12-30T14:29:41.341Z</time>
      </trkpt>
      <trkpt lat="44.00217" lon="1.18874">
        <ele>138.218841</ele>
        <time>2022-12-30T14:29:44.342Z</time>
      </trkpt>
      <trkpt lat="44.0021" lon="1.18882">
        <ele>138.178848</ele>
        <time>2022-12-30T14:29:47.350Z</time>
      </trkpt>
      <trkpt lat="44.00201" lon="1.18893">
        <ele>138.132102</ele>
        <time>2022-12-30T14:29:50.345Z</time>
      </trkpt>
      <trkpt lat="44.00193" lon="1.18903">
        <ele>138.083101</ele>
        <time>2022-12-30T14:29:53.347Z</time>
      </trkpt>
      <trkpt lat="44.00184" lon="1.18914">
        <ele>138.033783</ele>
        <time>2022-12-30T14:29:56.333Z</time>
      </trkpt>
      <trkpt lat="44.00175" lon="1.18925">
        <ele>137.983869</ele>
        <time>2022-12-30T14:29:59.344Z</time>
      </trkpt>
      <trkpt lat="44.00165" lon="1.18936">
        <ele>137.931466</ele>
        <time>2022-12-30T14:30:02.351Z</time>
      </trkpt>
      <trkpt lat="44.00156" lon="1.18947">
        <ele>137.880482</ele>
        <time>2022-12-30T14:30:05.338Z</time>
      </trkpt>
      <trkpt lat="44.00146" lon="1.18959">
        <ele>137.827367</ele>
        <time>2022-12-30T14:30:08.367Z</time>
      </trkpt>
      <trkpt lat="44.00137" lon="1.1897">
        <ele>137.775597</ele>
        <time>2022-12-30T14:30:11.365Z</time>
      </trkpt>
      <trkpt lat="44.00129" lon="1.18981">
        <ele>137.727845</ele>
        <time>2022-12-30T14:30:14.342Z</time>
      </trkpt>
      <trkpt lat="44.0012" lon="1.18992">
        <ele>137.678958</ele>
        <time>2022-12-30T14:30:17.360Z</time>
      </trkpt>
      <trkpt lat="44.00111" lon="1.19002">
        <ele>137.630742</ele>
        <time>2022-12-30T14:30:20.348Z</time>
      </trkpt>
      <trkpt lat="44.00102" lon="1.19012">
        <ele>137.581817</ele>
        <time>2022-12-30T14:30:23.337Z</time>
      </trkpt>
      <trkpt lat="44.00093" lon="1.19024">
        <ele>137.521062</ele>
        <time>2022-12-30T14:30:26.361Z</time>
      </trkpt>
      <trkpt lat="44.00083" lon="1.19036">
        <ele>137.45373</ele>
        <time>2022-12-30T14:30:29.357Z</time>
      </trkpt>
      <trkpt lat="44.00073" lon="1.19046">
        <ele>137.389564</ele>
        <time>2022-12-30T14:30:32.377Z</time>
      </trkpt>
      <trkpt lat="44.00063" lon="1.19058">
        <ele>137.321817</ele>
        <time>2022-12-30T14:30:35.358Z</time>
      </trkpt>
      <trkpt lat="44.00054" lon="1.19068">
        <ele>137.259088</ele>
        <time>2022-12-30T14:30:38.348Z</time>
      </trkpt>
      <trkpt lat="44.00045" lon="1.19079">
        <ele>137.200478</ele>
        <time>2022-12-30T14:30:41.364Z</time>
      </trkpt>
      <trkpt lat="44.00037" lon="1.19089">
        <ele>137.145313</ele>
        <time>2022-12-30T14:30:44.353Z</time>
      </trkpt>
      <trkpt lat="44.0003" lon="1.19097">
        <ele>137.095667</ele>
        <time>2022-12-30T14:30:47.353Z</time>
      </trkpt>
      <trkpt lat="44.00022" lon="1.19107">
        <ele>137.04149</ele>
        <time>2022-12-30T14:30:50.353Z</time>
      </trkpt>
      <trkpt lat="44.00013" lon="1.19117">
        <ele>136.982171</ele>
        <time>2022-12-30T14:30:53.360Z</time>
      </trkpt>
      <trkpt lat="44.00003" lon="1.19128">
        <ele>136.916605</ele>
        <time>2022-12-30T14:30:56.362Z</time>
      </trkpt>
      <trkpt lat="43.99993" lon="1.1914">
        <ele>136.850195</ele>
        <time>2022-12-30T14:30:59.344Z</time>
      </trkpt>
      <trkpt lat="43.99986" lon="1.19148">
        <ele>136.803007</ele>
        <time>2022-12-30T14:31:01.350Z</time>
      </trkpt>
      <trkpt lat="43.99979" lon="1.19156">
        <ele>136.755503</ele>
        <time>2022-12-30T14:31:03.365Z</time>
      </trkpt>
      <trkpt lat="43.99969" lon="1.19168">
        <ele>136.685635</ele>
        <time>2022-12-30T14:31:06.346Z</time>
      </trkpt>
      <trkpt lat="43.99962" lon="1.19177">
        <ele>136.636465</ele>
        <time>2022-12-30T14:31:08.341Z</time>
      </trkpt>
      <trkpt lat="43.99954" lon="1.19185">
        <ele>136.575744</ele>
        <time>2022-12-30T14:31:10.358Z</time>
      </trkpt>
      <trkpt lat="43.99948" lon="1.19194">
        <ele>136.518504</ele>
        <time>2022-12-30T14:31:12.346Z</time>
      </trkpt>
      <trkpt lat="43.99937" lon="1.19206">
        <ele>136.435984</ele>
        <time>2022-12-30T14:31:15.360Z</time>
      </trkpt>
      <trkpt lat="43.9993" lon="1.19214">
        <ele>136.379765</ele>
        <time>2022-12-30T14:31:17.359Z</time>
      </trkpt>
      <trkpt lat="43.99923" lon="1.19222">
        <ele>136.322963</ele>
        <time>2022-12-30T14:31:19.357Z</time>
      </trkpt>
      <trkpt lat="43.99916" lon="1.1923">
        <ele>136.265304</ele>
        <time>2022-12-30T14:31:21.349Z</time>
      </trkpt>
      <trkpt lat="43.99909" lon="1.19239">
        <ele>136.207555</ele>
        <time>2022-12-30T14:31:23.372Z</time>
      </trkpt>
      <trkpt lat="43.99902" lon="1.19247">
        <ele>136.148563</ele>
        <time>2022-12-30T14:31:25.373Z</time>
      </trkpt>
      <trkpt lat="43.99895" lon="1.19256">
        <ele>136.088902</ele>
        <time>2022-12-30T14:31:27.344Z</time>
      </trkpt>
      <trkpt lat="43.99888" lon="1.19265">
        <ele>136.029984</ele>
        <time>2022-12-30T14:31:29.370Z</time>
      </trkpt>
      <trkpt lat="43.99881" lon="1.19273">
        <ele>135.971362</ele>
        <time>2022-12-30T14:31:31.361Z</time>
      </trkpt>
      <trkpt lat="43.99873" lon="1.19282">
        <ele>135.910785</ele>
        <time>2022-12-30T14:31:33.343Z</time>
      </trkpt>
      <trkpt lat="43.99866" lon="1.1929">
        <ele>135.854657</ele>
        <time>2022-12-30T14:31:35.365Z</time>
      </trkpt>
      <trkpt lat="43.99859" lon="1.19299">
        <ele>135.796328</ele>
        <time>2022-12-30T14:31:37.347Z</time>
      </trkpt>
      <trkpt lat="43.99852" lon="1.19308">
        <ele>135.733122</ele>
        <time>2022-12-30T14:31:39.357Z</time>
      </trkpt>
      <trkpt lat="43.99844" lon="1.19317">
        <ele>135.671619</ele>
        <time>2022-12-30T14:31:41.354Z</time>
      </trkpt>
      <trkpt lat="43.99837" lon="1.19326">
        <ele>135.608121</ele>
        <time>2022-12-30T14:31:43.362Z</time>
      </trkpt>
      <trkpt lat="43.99829" lon="1.19335">
        <ele>135.547499</ele>
        <time>2022-12-30T14:31:45.362Z</time>
      </trkpt>
      <trkpt lat="43.99822" lon="1.19344">
        <ele>135.440276</ele>
        <time>2022-12-30T14:31:47.363Z</time>
      </trkpt>
      <trkpt lat="43.99815" lon="1.19353">
        <ele>135.295492</ele>
        <time>2022-12-30T14:31:49.358Z</time>
      </trkpt>
      <trkpt lat="43.99808" lon="1.19362">
        <ele>135.156208</ele>
        <time>2022-12-30T14:31:51.364Z</time>
      </trkpt>
      <trkpt lat="43.998" lon="1.19371">
        <ele>135.003609</ele>
        <time>2022-12-30T14:31:53.365Z</time>
      </trkpt>
      <trkpt lat="43.99793" lon="1.1938">
        <ele>134.86471</ele>
        <time>2022-12-30T14:31:55.339Z</time>
      </trkpt>
      <trkpt lat="43.99786" lon="1.19389">
        <ele>134.719049</ele>
        <time>2022-12-30T14:31:57.354Z</time>
      </trkpt>
      <trkpt lat="43.99778" lon="1.19397">
        <ele>134.565049</ele>
        <time>2022-12-30T14:31:59.359Z</time>
      </trkpt>
      <trkpt lat="43.99768" lon="1.19409">
        <ele>134.374838</ele>
        <time>2022-12-30T14:32:02.349Z</time>
      </trkpt>
      <trkpt lat="43.99759" lon="1.19419">
        <ele>134.198647</ele>
        <time>2022-12-30T14:32:05.339Z</time>
      </trkpt>
      <trkpt lat="43.99751" lon="1.19429">
        <ele>134.043579</ele>
        <time>2022-12-30T14:32:08.337Z</time>
      </trkpt>
      <trkpt lat="43.99743" lon="1.19438">
        <ele>133.87876</ele>
        <time>2022-12-30T14:32:11.363Z</time>
      </trkpt>
      <trkpt lat="43.99734" lon="1.19449">
        <ele>133.70233</ele>
        <time>2022-12-30T14:32:14.354Z</time>
      </trkpt>
      <trkpt lat="43.99725" lon="1.1946">
        <ele>133.518103</ele>
        <time>2022-12-30T14:32:17.355Z</time>
      </trkpt>
      <trkpt lat="43.99716" lon="1.19471">
        <ele>133.346072</ele>
        <time>2022-12-30T14:32:20.361Z</time>
      </trkpt>
      <trkpt lat="43.99707" lon="1.19481">
        <ele>133.17291</ele>
        <time>2022-12-30T14:32:23.353Z</time>
      </trkpt>
      <trkpt lat="43.99698" lon="1.19493">
        <ele>132.983275</ele>
        <time>2022-12-30T14:32:26.340Z</time>
      </trkpt>
      <trkpt lat="43.99691" lon="1.19501">
        <ele>132.846134</ele>
        <time>2022-12-30T14:32:28.359Z</time>
      </trkpt>
      <trkpt lat="43.99684" lon="1.1951">
        <ele>132.8425</ele>
        <time>2022-12-30T14:32:30.358Z</time>
      </trkpt>
      <trkpt lat="43.99674" lon="1.19521">
        <ele>132.895554</ele>
        <time>2022-12-30T14:32:33.363Z</time>
      </trkpt>
      <trkpt lat="43.99664" lon="1.19534">
        <ele>132.949368</ele>
        <time>2022-12-30T14:32:36.345Z</time>
      </trkpt>
      <trkpt lat="43.99658" lon="1.19542">
        <ele>132.985861</ele>
        <time>2022-12-30T14:32:38.355Z</time>
      </trkpt>
      <trkpt lat="43.99648" lon="1.19554">
        <ele>133.036987</ele>
        <time>2022-12-30T14:32:41.352Z</time>
      </trkpt>
      <trkpt lat="43.99639" lon="1.19566">
        <ele>133.089121</ele>
        <time>2022-12-30T14:32:44.353Z</time>
      </trkpt>
      <trkpt lat="43.99629" lon="1.19578">
        <ele>133.141835</ele>
        <time>2022-12-30T14:32:47.344Z</time>
      </trkpt>
      <trkpt lat="43.99619" lon="1.19589">
        <ele>133.194018</ele>
        <time>2022-12-30T14:32:50.357Z</time>
      </trkpt>
      <trkpt lat="43.9961" lon="1.19602">
        <ele>133.246232</ele>
        <time>2022-12-30T14:32:53.342Z</time>
      </trkpt>
      <trkpt lat="43.996" lon="1.19613">
        <ele>133.296192</ele>
        <time>2022-12-30T14:32:56.357Z</time>
      </trkpt>
      <trkpt lat="43.99592" lon="1.19622">
        <ele>133.338187</ele>
        <time>2022-12-30T14:32:59.342Z</time>
      </trkpt>
      <trkpt lat="43.99585" lon="1.19632">
        <ele>133.38002</ele>
        <time>2022-12-30T14:33:02.342Z</time>
      </trkpt>
      <trkpt lat="43.99576" lon="1.19641">
        <ele>133.424706</ele>
        <time>2022-12-30T14:33:05.341Z</time>
      </trkpt>
      <trkpt lat="43.99566" lon="1.19652">
        <ele>133.474114</ele>
        <time>2022-12-30T14:33:08.359Z</time>
      </trkpt>
      <trkpt lat="43.99557" lon="1.19662">
        <ele>133.524249</ele>
        <time>2022-12-30T14:33:11.340Z</time>
      </trkpt>
      <trkpt lat="43.99547" lon="1.19675">
        <ele>133.613252</ele>
        <time>2022-12-30T14:33:14.345Z</time>
      </trkpt>
      <trkpt lat="43.99538" lon="1.19687">
        <ele>133.72057</ele>
        <time>2022-12-30T14:33:17.367Z</time>
      </trkpt>
      <trkpt lat="43.99531" lon="1.19695">
        <ele>133.797434</ele>
        <time>2022-12-30T14:33:19.356Z</time>
      </trkpt>
      <trkpt lat="43.99523" lon="1.19703">
        <ele>133.878411</ele>
        <time>2022-12-30T14:33:21.360Z</time>
      </trkpt>
      <trkpt lat="43.99516" lon="1.19711">
        <ele>133.956435</ele>
        <time>2022-12-30T14:33:23.344Z</time>
      </trkpt>
      <trkpt lat="43.99509" lon="1.19719">
        <ele>134.036651</ele>
        <time>2022-12-30T14:33:25.369Z</time>
      </trkpt>
      <trkpt lat="43.99502" lon="1.19728">
        <ele>134.114314</ele>
        <time>2022-12-30T14:33:27.366Z</time>
      </trkpt>
      <trkpt lat="43.99495" lon="1.19736">
        <ele>134.191817</ele>
        <time>2022-12-30T14:33:29.354Z</time>
      </trkpt>
      <trkpt lat="43.99488" lon="1.19745">
        <ele>134.269963</ele>
        <time>2022-12-30T14:33:31.361Z</time>
      </trkpt>
      <trkpt lat="43.99478" lon="1.19757">
        <ele>134.382527</ele>
        <time>2022-12-30T14:33:34.363Z</time>
      </trkpt>
      <trkpt lat="43.99468" lon="1.19768">
        <ele>134.489676</ele>
        <time>2022-12-30T14:33:37.361Z</time>
      </trkpt>
      <trkpt lat="43.99461" lon="1.19776">
        <ele>134.565753</ele>
        <time>2022-12-30T14:33:39.356Z</time>
      </trkpt>
      <trkpt lat="43.99453" lon="1.19788">
        <ele>134.663874</ele>
        <time>2022-12-30T14:33:42.361Z</time>
      </trkpt>
      <trkpt lat="43.99445" lon="1.19797">
        <ele>134.753023</ele>
        <time>2022-12-30T14:33:45.357Z</time>
      </trkpt>
      <trkpt lat="43.99436" lon="1.19807">
        <ele>134.845791</ele>
        <time>2022-12-30T14:33:48.346Z</time>
      </trkpt>
      <trkpt lat="43.99428" lon="1.19818">
        <ele>134.941358</ele>
        <time>2022-12-30T14:33:51.359Z</time>
      </trkpt>
      <trkpt lat="43.99419" lon="1.19829">
        <ele>135.040834</ele>
        <time>2022-12-30T14:33:54.361Z</time>
      </trkpt>
      <trkpt lat="43.99409" lon="1.19839">
        <ele>135.326636</ele>
        <time>2022-12-30T14:33:57.350Z</time>
      </trkpt>
      <trkpt lat="43.99401" lon="1.1985">
        <ele>135.627243</ele>
        <time>2022-12-30T14:34:00.363Z</time>
      </trkpt>
      <trkpt lat="43.99392" lon="1.19859">
        <ele>135.90163</ele>
        <time>2022-12-30T14:34:03.363Z</time>
      </trkpt>
      <trkpt lat="43.99385" lon="1.19869">
        <ele>136.171209</ele>
        <time>2022-12-30T14:34:06.339Z</time>
      </trkpt>
      <trkpt lat="43.99377" lon="1.19878">
        <ele>136.432905</ele>
        <time>2022-12-30T14:34:09.364Z</time>
      </trkpt>
      <trkpt lat="43.9937" lon="1.1989">
        <ele>136.718387</ele>
        <time>2022-12-30T14:34:13.345Z</time>
      </trkpt>
      <trkpt lat="43.99363" lon="1.19898">
        <ele>136.952333</ele>
        <time>2022-12-30T14:34:17.348Z</time>
      </trkpt>
      <trkpt lat="43.99354" lon="1.19906">
        <ele>137.215416</ele>
        <time>2022-12-30T14:34:23.345Z</time>
      </trkpt>
      <trkpt lat="43.99345" lon="1.19913">
        <ele>137.494297</ele>
        <time>2022-12-30T14:34:27.341Z</time>
      </trkpt>
      <trkpt lat="43.99335" lon="1.19923">
        <ele>137.80829</ele>
        <time>2022-12-30T14:34:31.350Z</time>
      </trkpt>
      <trkpt lat="43.99328" lon="1.19933">
        <ele>138.062148</ele>
        <time>2022-12-30T14:34:34.349Z</time>
      </trkpt>
      <trkpt lat="43.99316" lon="1.19952">
        <ele>138.536517</ele>
        <time>2022-12-30T14:34:58.347Z</time>
      </trkpt>
      <trkpt lat="43.99308" lon="1.19964">
        <ele>138.846643</ele>
        <time>2022-12-30T14:35:02.342Z</time>
      </trkpt>
      <trkpt lat="43.993" lon="1.19972">
        <ele>139.097056</ele>
        <time>2022-12-30T14:35:05.339Z</time>
      </trkpt>
      <trkpt lat="43.99292" lon="1.19981">
        <ele>139.354059</ele>
        <time>2022-12-30T14:35:08.357Z</time>
      </trkpt>
      <trkpt lat="43.99284" lon="1.1999">
        <ele>139.621762</ele>
        <time>2022-12-30T14:35:11.367Z</time>
      </trkpt>
      <trkpt lat="43.99276" lon="1.19999">
        <ele>139.683827</ele>
        <time>2022-12-30T14:35:14.332Z</time>
      </trkpt>
      <trkpt lat="43.99267" lon="1.20009">
        <ele>139.658309</ele>
        <time>2022-12-30T14:35:17.359Z</time>
      </trkpt>
      <trkpt lat="43.99258" lon="1.20019">
        <ele>139.632827</ele>
        <time>2022-12-30T14:35:20.351Z</time>
      </trkpt>
      <trkpt lat="43.99248" lon="1.20029">
        <ele>139.606421</ele>
        <time>2022-12-30T14:35:23.379Z</time>
      </trkpt>
      <trkpt lat="43.99239" lon="1.2004">
        <ele>139.579414</ele>
        <time>2022-12-30T14:35:26.352Z</time>
      </trkpt>
      <trkpt lat="43.9923" lon="1.20051">
        <ele>139.553362</ele>
        <time>2022-12-30T14:35:29.362Z</time>
      </trkpt>
      <trkpt lat="43.99221" lon="1.20063">
        <ele>139.525501</ele>
        <time>2022-12-30T14:35:32.343Z</time>
      </trkpt>
      <trkpt lat="43.99211" lon="1.20075">
        <ele>139.497369</ele>
        <time>2022-12-30T14:35:35.349Z</time>
      </trkpt>
      <trkpt lat="43.99202" lon="1.20087">
        <ele>139.468272</ele>
        <time>2022-12-30T14:35:38.346Z</time>
      </trkpt>
      <trkpt lat="43.99195" lon="1.20096">
        <ele>139.448095</ele>
        <time>2022-12-30T14:35:40.363Z</time>
      </trkpt>
      <trkpt lat="43.99185" lon="1.20107">
        <ele>139.419646</ele>
        <time>2022-12-30T14:35:43.346Z</time>
      </trkpt>
      <trkpt lat="43.99174" lon="1.20119">
        <ele>139.390584</ele>
        <time>2022-12-30T14:35:46.350Z</time>
      </trkpt>
      <trkpt lat="43.99165" lon="1.20131">
        <ele>139.361793</ele>
        <time>2022-12-30T14:35:49.354Z</time>
      </trkpt>
      <trkpt lat="43.99156" lon="1.20142">
        <ele>139.335273</ele>
        <time>2022-12-30T14:35:52.351Z</time>
      </trkpt>
      <trkpt lat="43.99149" lon="1.2015">
        <ele>139.314726</ele>
        <time>2022-12-30T14:35:54.361Z</time>
      </trkpt>
      <trkpt lat="43.99138" lon="1.20163">
        <ele>139.319861</ele>
        <time>2022-12-30T14:35:57.365Z</time>
      </trkpt>
      <trkpt lat="43.99127" lon="1.20174">
        <ele>139.340325</ele>
        <time>2022-12-30T14:36:00.352Z</time>
      </trkpt>
      <trkpt lat="43.99121" lon="1.20183">
        <ele>139.354878</ele>
        <time>2022-12-30T14:36:02.362Z</time>
      </trkpt>
      <trkpt lat="43.99114" lon="1.20191">
        <ele>139.369502</ele>
        <time>2022-12-30T14:36:04.349Z</time>
      </trkpt>
      <trkpt lat="43.99104" lon="1.20203">
        <ele>139.390068</ele>
        <time>2022-12-30T14:36:07.342Z</time>
      </trkpt>
      <trkpt lat="43.99097" lon="1.20212">
        <ele>139.404961</ele>
        <time>2022-12-30T14:36:09.371Z</time>
      </trkpt>
      <trkpt lat="43.99087" lon="1.20223">
        <ele>139.424853</ele>
        <time>2022-12-30T14:36:12.345Z</time>
      </trkpt>
      <trkpt lat="43.99078" lon="1.20233">
        <ele>139.443517</ele>
        <time>2022-12-30T14:36:15.365Z</time>
      </trkpt>
      <trkpt lat="43.99068" lon="1.20245">
        <ele>139.46425</ele>
        <time>2022-12-30T14:36:18.340Z</time>
      </trkpt>
      <trkpt lat="43.99062" lon="1.20253">
        <ele>139.478756</ele>
        <time>2022-12-30T14:36:20.363Z</time>
      </trkpt>
      <trkpt lat="43.99052" lon="1.20265">
        <ele>139.499637</ele>
        <time>2022-12-30T14:36:23.376Z</time>
      </trkpt>
      <trkpt lat="43.99045" lon="1.20274">
        <ele>139.514574</ele>
        <time>2022-12-30T14:36:25.345Z</time>
      </trkpt>
      <trkpt lat="43.99034" lon="1.20285">
        <ele>139.534927</ele>
        <time>2022-12-30T14:36:28.368Z</time>
      </trkpt>
      <trkpt lat="43.99026" lon="1.20294">
        <ele>139.552726</ele>
        <time>2022-12-30T14:36:31.361Z</time>
      </trkpt>
      <trkpt lat="43.99018" lon="1.20303">
        <ele>139.568502</ele>
        <time>2022-12-30T14:36:34.355Z</time>
      </trkpt>
      <trkpt lat="43.9901" lon="1.20313">
        <ele>139.585103</ele>
        <time>2022-12-30T14:36:37.348Z</time>
      </trkpt>
      <trkpt lat="43.99003" lon="1.20323">
        <ele>139.589281</ele>
        <time>2022-12-30T14:36:40.359Z</time>
      </trkpt>
      <trkpt lat="43.98994" lon="1.20334">
        <ele>139.588211</ele>
        <time>2022-12-30T14:36:43.358Z</time>
      </trkpt>
      <trkpt lat="43.98984" lon="1.20345">
        <ele>139.587093</ele>
        <time>2022-12-30T14:36:46.362Z</time>
      </trkpt>
      <trkpt lat="43.98974" lon="1.20357">
        <ele>139.585919</ele>
        <time>2022-12-30T14:36:49.367Z</time>
      </trkpt>
      <trkpt lat="43.98968" lon="1.20366">
        <ele>139.585111</ele>
        <time>2022-12-30T14:36:51.350Z</time>
      </trkpt>
      <trkpt lat="43.98958" lon="1.20378">
        <ele>139.58392</ele>
        <time>2022-12-30T14:36:54.354Z</time>
      </trkpt>
      <trkpt lat="43.98951" lon="1.20387">
        <ele>139.583098</ele>
        <time>2022-12-30T14:36:56.346Z</time>
      </trkpt>
      <trkpt lat="43.98944" lon="1.20395">
        <ele>139.582265</ele>
        <time>2022-12-30T14:36:58.335Z</time>
      </trkpt>
      <trkpt lat="43.98934" lon="1.20407">
        <ele>139.581068</ele>
        <time>2022-12-30T14:37:01.367Z</time>
      </trkpt>
      <trkpt lat="43.98924" lon="1.20419">
        <ele>139.579869</ele>
        <time>2022-12-30T14:37:04.370Z</time>
      </trkpt>
      <trkpt lat="43.98917" lon="1.20428">
        <ele>139.579027</ele>
        <time>2022-12-30T14:37:06.342Z</time>
      </trkpt>
      <trkpt lat="43.98909" lon="1.20436">
        <ele>139.578175</ele>
        <time>2022-12-30T14:37:08.370Z</time>
      </trkpt>
      <trkpt lat="43.98902" lon="1.20445">
        <ele>139.577344</ele>
        <time>2022-12-30T14:37:10.349Z</time>
      </trkpt>
      <trkpt lat="43.98896" lon="1.20454">
        <ele>139.576515</ele>
        <time>2022-12-30T14:37:12.342Z</time>
      </trkpt>
      <trkpt lat="43.98888" lon="1.20461">
        <ele>139.575664</ele>
        <time>2022-12-30T14:37:14.359Z</time>
      </trkpt>
      <trkpt lat="43.98881" lon="1.2047">
        <ele>139.574787</ele>
        <time>2022-12-30T14:37:16.356Z</time>
      </trkpt>
      <trkpt lat="43.98873" lon="1.20479">
        <ele>139.573916</ele>
        <time>2022-12-30T14:37:18.360Z</time>
      </trkpt>
      <trkpt lat="43.98866" lon="1.20488">
        <ele>139.44967</ele>
        <time>2022-12-30T14:37:20.364Z</time>
      </trkpt>
      <trkpt lat="43.98858" lon="1.20497">
        <ele>139.301651</ele>
        <time>2022-12-30T14:37:22.351Z</time>
      </trkpt>
      <trkpt lat="43.9885" lon="1.20506">
        <ele>139.16651</ele>
        <time>2022-12-30T14:37:24.346Z</time>
      </trkpt>
      <trkpt lat="43.98843" lon="1.20514">
        <ele>139.029846</ele>
        <time>2022-12-30T14:37:26.354Z</time>
      </trkpt>
      <trkpt lat="43.98835" lon="1.20524">
        <ele>138.880774</ele>
        <time>2022-12-30T14:37:28.365Z</time>
      </trkpt>
      <trkpt lat="43.98828" lon="1.20532">
        <ele>138.746273</ele>
        <time>2022-12-30T14:37:30.350Z</time>
      </trkpt>
      <trkpt lat="43.98821" lon="1.20542">
        <ele>138.610977</ele>
        <time>2022-12-30T14:37:32.363Z</time>
      </trkpt>
      <trkpt lat="43.98815" lon="1.2055">
        <ele>138.481002</ele>
        <time>2022-12-30T14:37:34.360Z</time>
      </trkpt>
      <trkpt lat="43.98807" lon="1.20559">
        <ele>138.335371</ele>
        <time>2022-12-30T14:37:36.357Z</time>
      </trkpt>
      <trkpt lat="43.98799" lon="1.20569">
        <ele>138.187303</ele>
        <time>2022-12-30T14:37:38.359Z</time>
      </trkpt>
      <trkpt lat="43.98792" lon="1.20577">
        <ele>138.056935</ele>
        <time>2022-12-30T14:37:40.357Z</time>
      </trkpt>
      <trkpt lat="43.98784" lon="1.20585">
        <ele>137.922248</ele>
        <time>2022-12-30T14:37:42.343Z</time>
      </trkpt>
      <trkpt lat="43.98777" lon="1.20594">
        <ele>137.783567</ele>
        <time>2022-12-30T14:37:44.358Z</time>
      </trkpt>
      <trkpt lat="43.9877" lon="1.20603">
        <ele>137.646649</ele>
        <time>2022-12-30T14:37:46.346Z</time>
      </trkpt>
      <trkpt lat="43.98763" lon="1.20612">
        <ele>137.516668</ele>
        <time>2022-12-30T14:37:48.341Z</time>
      </trkpt>
      <trkpt lat="43.98753" lon="1.20624">
        <ele>137.327407</ele>
        <time>2022-12-30T14:37:51.354Z</time>
      </trkpt>
      <trkpt lat="43.98744" lon="1.20634">
        <ele>137.161497</ele>
        <time>2022-12-30T14:37:54.374Z</time>
      </trkpt>
      <trkpt lat="43.98737" lon="1.20643">
        <ele>137.022662</ele>
        <time>2022-12-30T14:37:57.362Z</time>
      </trkpt>
      <trkpt lat="43.98729" lon="1.20654">
        <ele>137.030741</ele>
        <time>2022-12-30T14:38:01.355Z</time>
      </trkpt>
      <trkpt lat="43.9872" lon="1.20665">
        <ele>137.045051</ele>
        <time>2022-12-30T14:38:05.363Z</time>
      </trkpt>
      <trkpt lat="43.98713" lon="1.20676">
        <ele>137.057519</ele>
        <time>2022-12-30T14:38:08.337Z</time>
      </trkpt>
      <trkpt lat="43.98705" lon="1.20686">
        <ele>137.070986</ele>
        <time>2022-12-30T14:38:11.340Z</time>
      </trkpt>
      <trkpt lat="43.98696" lon="1.20698">
        <ele>137.085579</ele>
        <time>2022-12-30T14:38:14.345Z</time>
      </trkpt>
      <trkpt lat="43.98686" lon="1.2071">
        <ele>137.101743</ele>
        <time>2022-12-30T14:38:17.361Z</time>
      </trkpt>
      <trkpt lat="43.98676" lon="1.20722">
        <ele>137.117324</ele>
        <time>2022-12-30T14:38:20.352Z</time>
      </trkpt>
      <trkpt lat="43.98666" lon="1.20733">
        <ele>137.133465</ele>
        <time>2022-12-30T14:38:23.361Z</time>
      </trkpt>
      <trkpt lat="43.98658" lon="1.2074">
        <ele>137.145159</ele>
        <time>2022-12-30T14:38:25.336Z</time>
      </trkpt>
      <trkpt lat="43.98647" lon="1.20753">
        <ele>137.16154</ele>
        <time>2022-12-30T14:38:28.358Z</time>
      </trkpt>
      <trkpt lat="43.98637" lon="1.20765">
        <ele>137.178001</ele>
        <time>2022-12-30T14:38:31.352Z</time>
      </trkpt>
      <trkpt lat="43.98627" lon="1.20777">
        <ele>137.194698</ele>
        <time>2022-12-30T14:38:34.361Z</time>
      </trkpt>
      <trkpt lat="43.98619" lon="1.20786">
        <ele>137.206226</ele>
        <time>2022-12-30T14:38:36.363Z</time>
      </trkpt>
      <trkpt lat="43.98609" lon="1.20798">
        <ele>137.222253</ele>
        <time>2022-12-30T14:38:39.341Z</time>
      </trkpt>
      <trkpt lat="43.98599" lon="1.2081">
        <ele>137.270642</ele>
        <time>2022-12-30T14:38:42.345Z</time>
      </trkpt>
      <trkpt lat="43.98592" lon="1.20818">
        <ele>137.404805</ele>
        <time>2022-12-30T14:38:44.357Z</time>
      </trkpt>
      <trkpt lat="43.98585" lon="1.20827">
        <ele>137.536396</ele>
        <time>2022-12-30T14:38:46.346Z</time>
      </trkpt>
      <trkpt lat="43.98578" lon="1.20835">
        <ele>137.667811</ele>
        <time>2022-12-30T14:38:48.353Z</time>
      </trkpt>
      <trkpt lat="43.9857" lon="1.20843">
        <ele>137.804499</ele>
        <time>2022-12-30T14:38:50.365Z</time>
      </trkpt>
      <trkpt lat="43.98563" lon="1.20852">
        <ele>137.942339</ele>
        <time>2022-12-30T14:38:52.362Z</time>
      </trkpt>
      <trkpt lat="43.98553" lon="1.20863">
        <ele>138.125173</ele>
        <time>2022-12-30T14:38:55.344Z</time>
      </trkpt>
      <trkpt lat="43.98544" lon="1.20874">
        <ele>138.296626</ele>
        <time>2022-12-30T14:38:58.357Z</time>
      </trkpt>
      <trkpt lat="43.98535" lon="1.20885">
        <ele>138.470105</ele>
        <time>2022-12-30T14:39:01.352Z</time>
      </trkpt>
      <trkpt lat="43.98525" lon="1.20897">
        <ele>138.650985</ele>
        <time>2022-12-30T14:39:04.353Z</time>
      </trkpt>
      <trkpt lat="43.98516" lon="1.20908">
        <ele>138.829713</ele>
        <time>2022-12-30T14:39:07.336Z</time>
      </trkpt>
      <trkpt lat="43.98509" lon="1.20916">
        <ele>138.95753</ele>
        <time>2022-12-30T14:39:09.362Z</time>
      </trkpt>
      <trkpt lat="43.98502" lon="1.20924">
        <ele>139.086873</ele>
        <time>2022-12-30T14:39:11.353Z</time>
      </trkpt>
      <trkpt lat="43.98495" lon="1.20932">
        <ele>139.21687</ele>
        <time>2022-12-30T14:39:13.347Z</time>
      </trkpt>
      <trkpt lat="43.98486" lon="1.20943">
        <ele>139.39379</ele>
        <time>2022-12-30T14:39:16.342Z</time>
      </trkpt>
      <trkpt lat="43.98477" lon="1.20953">
        <ele>139.550314</ele>
        <time>2022-12-30T14:39:19.363Z</time>
      </trkpt>
      <trkpt lat="43.98468" lon="1.20963">
        <ele>139.717163</ele>
        <time>2022-12-30T14:39:22.346Z</time>
      </trkpt>
      <trkpt lat="43.98459" lon="1.20975">
        <ele>139.786174</ele>
        <time>2022-12-30T14:39:25.354Z</time>
      </trkpt>
      <trkpt lat="43.98449" lon="1.20986">
        <ele>139.752353</ele>
        <time>2022-12-30T14:39:28.343Z</time>
      </trkpt>
      <trkpt lat="43.9844" lon="1.20998">
        <ele>139.718313</ele>
        <time>2022-12-30T14:39:31.364Z</time>
      </trkpt>
      <trkpt lat="43.9843" lon="1.2101">
        <ele>139.683241</ele>
        <time>2022-12-30T14:39:34.346Z</time>
      </trkpt>
      <trkpt lat="43.9842" lon="1.21022">
        <ele>139.64835</ele>
        <time>2022-12-30T14:39:37.362Z</time>
      </trkpt>
      <trkpt lat="43.98413" lon="1.2103">
        <ele>139.623504</ele>
        <time>2022-12-30T14:39:39.342Z</time>
      </trkpt>
      <trkpt lat="43.98406" lon="1.21038">
        <ele>139.599515</ele>
        <time>2022-12-30T14:39:41.364Z</time>
      </trkpt>
      <trkpt lat="43.98396" lon="1.21051">
        <ele>139.563069</ele>
        <time>2022-12-30T14:39:44.343Z</time>
      </trkpt>
      <trkpt lat="43.98386" lon="1.21063">
        <ele>139.527697</ele>
        <time>2022-12-30T14:39:47.361Z</time>
      </trkpt>
      <trkpt lat="43.98379" lon="1.21071">
        <ele>139.503334</ele>
        <time>2022-12-30T14:39:49.351Z</time>
      </trkpt>
      <trkpt lat="43.98369" lon="1.21083">
        <ele>139.46942</ele>
        <time>2022-12-30T14:39:52.367Z</time>
      </trkpt>
      <trkpt lat="43.98362" lon="1.21091">
        <ele>139.444655</ele>
        <time>2022-12-30T14:39:54.362Z</time>
      </trkpt>
      <trkpt lat="43.98352" lon="1.21104">
        <ele>139.409511</ele>
        <time>2022-12-30T14:39:57.353Z</time>
      </trkpt>
      <trkpt lat="43.98343" lon="1.21115">
        <ele>139.376774</ele>
        <time>2022-12-30T14:40:00.343Z</time>
      </trkpt>
      <trkpt lat="43.98334" lon="1.21125">
        <ele>139.347029</ele>
        <time>2022-12-30T14:40:03.352Z</time>
      </trkpt>
      <trkpt lat="43.98326" lon="1.21135">
        <ele>139.278704</ele>
        <time>2022-12-30T14:40:06.354Z</time>
      </trkpt>
      <trkpt lat="43.98317" lon="1.21145">
        <ele>139.095958</ele>
        <time>2022-12-30T14:40:09.362Z</time>
      </trkpt>
      <trkpt lat="43.98309" lon="1.21155">
        <ele>138.919051</ele>
        <time>2022-12-30T14:40:12.345Z</time>
      </trkpt>
      <trkpt lat="43.98302" lon="1.21163">
        <ele>138.766891</ele>
        <time>2022-12-30T14:40:15.371Z</time>
      </trkpt>
      <trkpt lat="43.98294" lon="1.21173">
        <ele>138.587403</ele>
        <time>2022-12-30T14:40:18.341Z</time>
      </trkpt>
      <trkpt lat="43.98286" lon="1.21183">
        <ele>138.416831</ele>
        <time>2022-12-30T14:40:21.359Z</time>
      </trkpt>
      <trkpt lat="43.98279" lon="1.21191">
        <ele>138.26513</ele>
        <time>2022-12-30T14:40:24.361Z</time>
      </trkpt>
      <trkpt lat="43.98271" lon="1.21201">
        <ele>138.08567</ele>
        <time>2022-12-30T14:40:29.347Z</time>
      </trkpt>
      <trkpt lat="43.98261" lon="1.21212">
        <ele>137.884252</ele>
        <time>2022-12-30T14:40:33.375Z</time>
      </trkpt>
      <trkpt lat="43.98253" lon="1.21222">
        <ele>137.699162</ele>
        <time>2022-12-30T14:40:36.342Z</time>
      </trkpt>
      <trkpt lat="43.98244" lon="1.21233">
        <ele>137.49545</ele>
        <time>2022-12-30T14:40:39.352Z</time>
      </trkpt>
      <trkpt lat="43.98234" lon="1.21244">
        <ele>137.286698</ele>
        <time>2022-12-30T14:40:42.346Z</time>
      </trkpt>
      <trkpt lat="43.98224" lon="1.21255">
        <ele>137.085279</ele>
        <time>2022-12-30T14:40:45.353Z</time>
      </trkpt>
      <trkpt lat="43.98216" lon="1.21266">
        <ele>136.894922</ele>
        <time>2022-12-30T14:40:48.360Z</time>
      </trkpt>
      <trkpt lat="43.98207" lon="1.21277">
        <ele>136.693353</ele>
        <time>2022-12-30T14:40:51.364Z</time>
      </trkpt>
      <trkpt lat="43.98198" lon="1.21288">
        <ele>136.506567</ele>
        <time>2022-12-30T14:40:54.362Z</time>
      </trkpt>
      <trkpt lat="43.9819" lon="1.21298">
        <ele>136.406488</ele>
        <time>2022-12-30T14:40:57.343Z</time>
      </trkpt>
      <trkpt lat="43.98181" lon="1.21308">
        <ele>136.579185</ele>
        <time>2022-12-30T14:41:00.358Z</time>
      </trkpt>
      <trkpt lat="43.98173" lon="1.21318">
        <ele>136.751643</ele>
        <time>2022-12-30T14:41:03.338Z</time>
      </trkpt>
      <trkpt lat="43.98165" lon="1.21329">
        <ele>136.924409</ele>
        <time>2022-12-30T14:41:07.340Z</time>
      </trkpt>
      <trkpt lat="43.98157" lon="1.21339">
        <ele>137.089597</ele>
        <time>2022-12-30T14:41:10.347Z</time>
      </trkpt>
      <trkpt lat="43.98148" lon="1.21348">
        <ele>137.251419</ele>
        <time>2022-12-30T14:41:13.363Z</time>
      </trkpt>
      <trkpt lat="43.98139" lon="1.21358">
        <ele>137.434115</ele>
        <time>2022-12-30T14:41:16.361Z</time>
      </trkpt>
      <trkpt lat="43.98129" lon="1.2137">
        <ele>137.630971</ele>
        <time>2022-12-30T14:41:19.355Z</time>
      </trkpt>
      <trkpt lat="43.9812" lon="1.21381">
        <ele>137.820312</ele>
        <time>2022-12-30T14:41:22.362Z</time>
      </trkpt>
      <trkpt lat="43.98112" lon="1.21391">
        <ele>137.989281</ele>
        <time>2022-12-30T14:41:25.371Z</time>
      </trkpt>
      <trkpt lat="43.98102" lon="1.21402">
        <ele>138.187546</ele>
        <time>2022-12-30T14:41:28.336Z</time>
      </trkpt>
      <trkpt lat="43.98093" lon="1.21412">
        <ele>138.364549</ele>
        <time>2022-12-30T14:41:31.355Z</time>
      </trkpt>
      <trkpt lat="43.98085" lon="1.21421">
        <ele>138.51809</ele>
        <time>2022-12-30T14:41:34.356Z</time>
      </trkpt>
      <trkpt lat="43.98078" lon="1.2143">
        <ele>138.660623</ele>
        <time>2022-12-30T14:41:38.361Z</time>
      </trkpt>
      <trkpt lat="43.9807" lon="1.21439">
        <ele>138.820282</ele>
        <time>2022-12-30T14:41:42.349Z</time>
      </trkpt>
      <trkpt lat="43.98063" lon="1.21448">
        <ele>138.976391</ele>
        <time>2022-12-30T14:41:46.360Z</time>
      </trkpt>
      <trkpt lat="43.98055" lon="1.21458">
        <ele>139.129926</ele>
        <time>2022-12-30T14:41:49.347Z</time>
      </trkpt>
      <trkpt lat="43.98048" lon="1.21466">
        <ele>139.230049</ele>
        <time>2022-12-30T14:41:52.360Z</time>
      </trkpt>
      <trkpt lat="43.98041" lon="1.21475">
        <ele>139.32708</ele>
        <time>2022-12-30T14:41:55.354Z</time>
      </trkpt>
      <trkpt lat="43.98034" lon="1.21483">
        <ele>139.418439</ele>
        <time>2022-12-30T14:41:58.345Z</time>
      </trkpt>
      <trkpt lat="43.98025" lon="1.21492">
        <ele>139.528701</ele>
        <time>2022-12-30T14:42:01.367Z</time>
      </trkpt>
      <trkpt lat="43.98016" lon="1.21504">
        <ele>139.650222</ele>
        <time>2022-12-30T14:42:04.341Z</time>
      </trkpt>
      <trkpt lat="43.98006" lon="1.21515">
        <ele>139.775194</ele>
        <time>2022-12-30T14:42:07.364Z</time>
      </trkpt>
      <trkpt lat="43.97997" lon="1.21526">
        <ele>139.895274</ele>
        <time>2022-12-30T14:42:10.359Z</time>
      </trkpt>
      <trkpt lat="43.97988" lon="1.21537">
        <ele>140.020984</ele>
        <time>2022-12-30T14:42:13.348Z</time>
      </trkpt>
      <trkpt lat="43.97978" lon="1.21549">
        <ele>140.149095</ele>
        <time>2022-12-30T14:42:16.354Z</time>
      </trkpt>
      <trkpt lat="43.97969" lon="1.21562">
        <ele>140.279921</ele>
        <time>2022-12-30T14:42:19.351Z</time>
      </trkpt>
      <trkpt lat="43.9796" lon="1.21574">
        <ele>140.402451</ele>
        <time>2022-12-30T14:42:22.363Z</time>
      </trkpt>
      <trkpt lat="43.97952" lon="1.21586">
        <ele>140.52165</ele>
        <time>2022-12-30T14:42:25.362Z</time>
      </trkpt>
      <trkpt lat="43.97945" lon="1.21599">
        <ele>140.636003</ele>
        <time>2022-12-30T14:42:28.342Z</time>
      </trkpt>
      <trkpt lat="43.97938" lon="1.21611">
        <ele>140.745744</ele>
        <time>2022-12-30T14:42:31.356Z</time>
      </trkpt>
      <trkpt lat="43.97932" lon="1.21623">
        <ele>140.850799</ele>
        <time>2022-12-30T14:42:34.347Z</time>
      </trkpt>
      <trkpt lat="43.97926" lon="1.21636">
        <ele>140.932343</ele>
        <time>2022-12-30T14:42:37.347Z</time>
      </trkpt>
      <trkpt lat="43.97919" lon="1.21649">
        <ele>140.925559</ele>
        <time>2022-12-30T14:42:40.345Z</time>
      </trkpt>
      <trkpt lat="43.97913" lon="1.21664">
        <ele>140.918155</ele>
        <time>2022-12-30T14:42:43.343Z</time>
      </trkpt>
      <trkpt lat="43.97906" lon="1.2168">
        <ele>140.910609</ele>
        <time>2022-12-30T14:42:46.360Z</time>
      </trkpt>
      <trkpt lat="43.97898" lon="1.21695">
        <ele>140.902879</ele>
        <time>2022-12-30T14:42:49.359Z</time>
      </trkpt>
      <trkpt lat="43.97891" lon="1.21711">
        <ele>140.895303</ele>
        <time>2022-12-30T14:42:52.357Z</time>
      </trkpt>
      <trkpt lat="43.97885" lon="1.21726">
        <ele>140.887934</ele>
        <time>2022-12-30T14:42:55.337Z</time>
      </trkpt>
      <trkpt lat="43.97877" lon="1.2174">
        <ele>140.880545</ele>
        <time>2022-12-30T14:42:58.357Z</time>
      </trkpt>
      <trkpt lat="43.9787" lon="1.21754">
        <ele>140.873695</ele>
        <time>2022-12-30T14:43:01.365Z</time>
      </trkpt>
      <trkpt lat="43.97863" lon="1.21767">
        <ele>140.866773</ele>
        <time>2022-12-30T14:43:04.338Z</time>
      </trkpt>
      <trkpt lat="43.97855" lon="1.2178">
        <ele>140.859455</ele>
        <time>2022-12-30T14:43:07.356Z</time>
      </trkpt>
      <trkpt lat="43.97846" lon="1.21794">
        <ele>140.85186</ele>
        <time>2022-12-30T14:43:10.358Z</time>
      </trkpt>
      <trkpt lat="43.97837" lon="1.21807">
        <ele>140.844231</ele>
        <time>2022-12-30T14:43:13.359Z</time>
      </trkpt>
      <trkpt lat="43.97827" lon="1.2182">
        <ele>140.836629</ele>
        <time>2022-12-30T14:43:16.342Z</time>
      </trkpt>
      <trkpt lat="43.97818" lon="1.21833">
        <ele>140.828359</ele>
        <time>2022-12-30T14:43:19.343Z</time>
      </trkpt>
      <trkpt lat="43.97811" lon="1.21841">
        <ele>140.820436</ele>
        <time>2022-12-30T14:43:21.346Z</time>
      </trkpt>
      <trkpt lat="43.97804" lon="1.2185">
        <ele>140.81233</ele>
        <time>2022-12-30T14:43:23.346Z</time>
      </trkpt>
      <trkpt lat="43.97794" lon="1.21862">
        <ele>140.801433</ele>
        <time>2022-12-30T14:43:26.362Z</time>
      </trkpt>
      <trkpt lat="43.97786" lon="1.21873">
        <ele>140.791148</ele>
        <time>2022-12-30T14:43:29.362Z</time>
      </trkpt>
      <trkpt lat="43.97778" lon="1.21883">
        <ele>140.781908</ele>
        <time>2022-12-30T14:43:32.353Z</time>
      </trkpt>
      <trkpt lat="43.9777" lon="1.21893">
        <ele>140.772964</ele>
        <time>2022-12-30T14:43:35.344Z</time>
      </trkpt>
      <trkpt lat="43.97761" lon="1.21904">
        <ele>140.762738</ele>
        <time>2022-12-30T14:43:38.348Z</time>
      </trkpt>
      <trkpt lat="43.97751" lon="1.21915">
        <ele>140.752368</ele>
        <time>2022-12-30T14:43:41.339Z</time>
      </trkpt>
      <trkpt lat="43.97742" lon="1.21925">
        <ele>140.742047</ele>
        <time>2022-12-30T14:43:44.336Z</time>
      </trkpt>
      <trkpt lat="43.97733" lon="1.21936">
        <ele>140.731447</ele>
        <time>2022-12-30T14:43:47.360Z</time>
      </trkpt>
      <trkpt lat="43.97724" lon="1.21949">
        <ele>140.720548</ele>
        <time>2022-12-30T14:43:50.355Z</time>
      </trkpt>
      <trkpt lat="43.97714" lon="1.21961">
        <ele>140.70955</ele>
        <time>2022-12-30T14:43:53.361Z</time>
      </trkpt>
      <trkpt lat="43.97708" lon="1.2197">
        <ele>140.701881</ele>
        <time>2022-12-30T14:43:55.356Z</time>
      </trkpt>
      <trkpt lat="43.97698" lon="1.21983">
        <ele>140.690182</ele>
        <time>2022-12-30T14:43:58.360Z</time>
      </trkpt>
      <trkpt lat="43.97689" lon="1.21996">
        <ele>140.679047</ele>
        <time>2022-12-30T14:44:01.343Z</time>
      </trkpt>
      <trkpt lat="43.97679" lon="1.22008">
        <ele>140.604311</ele>
        <time>2022-12-30T14:44:04.345Z</time>
      </trkpt>
      <trkpt lat="43.9767" lon="1.2202">
        <ele>140.507747</ele>
        <time>2022-12-30T14:44:07.360Z</time>
      </trkpt>
      <trkpt lat="43.97662" lon="1.2203">
        <ele>140.423114</ele>
        <time>2022-12-30T14:44:10.365Z</time>
      </trkpt>
      <trkpt lat="43.97654" lon="1.2204">
        <ele>140.343169</ele>
        <time>2022-12-30T14:44:13.363Z</time>
      </trkpt>
      <trkpt lat="43.97646" lon="1.2205">
        <ele>140.259836</ele>
        <time>2022-12-30T14:44:16.342Z</time>
      </trkpt>
      <trkpt lat="43.97637" lon="1.22062">
        <ele>140.167521</ele>
        <time>2022-12-30T14:44:19.345Z</time>
      </trkpt>
      <trkpt lat="43.97629" lon="1.22073">
        <ele>140.077492</ele>
        <time>2022-12-30T14:44:22.356Z</time>
      </trkpt>
      <trkpt lat="43.9762" lon="1.22084">
        <ele>139.98464</ele>
        <time>2022-12-30T14:44:25.353Z</time>
      </trkpt>
      <trkpt lat="43.97611" lon="1.22096">
        <ele>139.890687</ele>
        <time>2022-12-30T14:44:28.351Z</time>
      </trkpt>
      <trkpt lat="43.97601" lon="1.22107">
        <ele>139.796325</ele>
        <time>2022-12-30T14:44:31.365Z</time>
      </trkpt>
      <trkpt lat="43.97592" lon="1.22118">
        <ele>139.703107</ele>
        <time>2022-12-30T14:44:34.355Z</time>
      </trkpt>
      <trkpt lat="43.97583" lon="1.2213">
        <ele>139.610255</ele>
        <time>2022-12-30T14:44:37.348Z</time>
      </trkpt>
      <trkpt lat="43.97575" lon="1.2214">
        <ele>139.522281</ele>
        <time>2022-12-30T14:44:40.330Z</time>
      </trkpt>
      <trkpt lat="43.97566" lon="1.22151">
        <ele>139.433901</ele>
        <time>2022-12-30T14:44:43.349Z</time>
      </trkpt>
      <trkpt lat="43.97557" lon="1.22163">
        <ele>139.341586</ele>
        <time>2022-12-30T14:44:46.339Z</time>
      </trkpt>
      <trkpt lat="43.97548" lon="1.22174">
        <ele>139.3166</ele>
        <time>2022-12-30T14:44:49.364Z</time>
      </trkpt>
      <trkpt lat="43.97539" lon="1.22186">
        <ele>139.342923</ele>
        <time>2022-12-30T14:44:52.338Z</time>
      </trkpt>
      <trkpt lat="43.97529" lon="1.22198">
        <ele>139.369556</ele>
        <time>2022-12-30T14:44:55.339Z</time>
      </trkpt>
      <trkpt lat="43.97519" lon="1.22211">
        <ele>139.396285</ele>
        <time>2022-12-30T14:44:58.350Z</time>
      </trkpt>
      <trkpt lat="43.97512" lon="1.22219">
        <ele>139.414641</ele>
        <time>2022-12-30T14:45:00.343Z</time>
      </trkpt>
      <trkpt lat="43.97502" lon="1.22232">
        <ele>139.441964</ele>
        <time>2022-12-30T14:45:03.361Z</time>
      </trkpt>
      <trkpt lat="43.97495" lon="1.22241">
        <ele>139.461003</ele>
        <time>2022-12-30T14:45:05.361Z</time>
      </trkpt>
      <trkpt lat="43.97486" lon="1.22253">
        <ele>139.487079</ele>
        <time>2022-12-30T14:45:08.352Z</time>
      </trkpt>
      <trkpt lat="43.97477" lon="1.22264">
        <ele>139.51165</ele>
        <time>2022-12-30T14:45:11.348Z</time>
      </trkpt>
      <trkpt lat="43.97468" lon="1.22275">
        <ele>139.535803</ele>
        <time>2022-12-30T14:45:14.358Z</time>
      </trkpt>
      <trkpt lat="43.97459" lon="1.22286">
        <ele>139.559627</ele>
        <time>2022-12-30T14:45:17.342Z</time>
      </trkpt>
      <trkpt lat="43.9745" lon="1.22297">
        <ele>139.58383</ele>
        <time>2022-12-30T14:45:20.346Z</time>
      </trkpt>
      <trkpt lat="43.97441" lon="1.22308">
        <ele>139.609016</ele>
        <time>2022-12-30T14:45:23.343Z</time>
      </trkpt>
      <trkpt lat="43.97432" lon="1.2232">
        <ele>139.635043</ele>
        <time>2022-12-30T14:45:26.349Z</time>
      </trkpt>
      <trkpt lat="43.97422" lon="1.22333">
        <ele>139.661268</ele>
        <time>2022-12-30T14:45:29.366Z</time>
      </trkpt>
      <trkpt lat="43.97413" lon="1.22345">
        <ele>139.782803</ele>
        <time>2022-12-30T14:45:32.346Z</time>
      </trkpt>
      <trkpt lat="43.97403" lon="1.22357">
        <ele>139.935943</ele>
        <time>2022-12-30T14:45:35.342Z</time>
      </trkpt>
      <trkpt lat="43.97394" lon="1.2237">
        <ele>140.08971</ele>
        <time>2022-12-30T14:45:38.362Z</time>
      </trkpt>
      <trkpt lat="43.97385" lon="1.22382">
        <ele>140.238639</ele>
        <time>2022-12-30T14:45:41.352Z</time>
      </trkpt>
      <trkpt lat="43.97376" lon="1.22393">
        <ele>140.369583</ele>
        <time>2022-12-30T14:45:44.347Z</time>
      </trkpt>
      <trkpt lat="43.97369" lon="1.22402">
        <ele>140.482883</ele>
        <time>2022-12-30T14:45:47.343Z</time>
      </trkpt>
      <trkpt lat="43.97363" lon="1.22412">
        <ele>140.590302</ele>
        <time>2022-12-30T14:45:50.357Z</time>
      </trkpt>
      <trkpt lat="43.97356" lon="1.22422">
        <ele>140.708965</ele>
        <time>2022-12-30T14:45:53.351Z</time>
      </trkpt>
      <trkpt lat="43.97348" lon="1.22433">
        <ele>140.836689</ele>
        <time>2022-12-30T14:45:56.356Z</time>
      </trkpt>
      <trkpt lat="43.9734" lon="1.22445">
        <ele>140.973278</ele>
        <time>2022-12-30T14:45:59.345Z</time>
      </trkpt>
      <trkpt lat="43.97332" lon="1.22456">
        <ele>141.10852</ele>
        <time>2022-12-30T14:46:02.362Z</time>
      </trkpt>
      <trkpt lat="43.97324" lon="1.22467">
        <ele>141.234674</ele>
        <time>2022-12-30T14:46:05.354Z</time>
      </trkpt>
      <trkpt lat="43.97316" lon="1.22476">
        <ele>141.362691</ele>
        <time>2022-12-30T14:46:09.354Z</time>
      </trkpt>
      <trkpt lat="43.97308" lon="1.22486">
        <ele>141.483411</ele>
        <time>2022-12-30T14:46:13.339Z</time>
      </trkpt>
      <trkpt lat="43.97299" lon="1.22496">
        <ele>141.615578</ele>
        <time>2022-12-30T14:46:17.350Z</time>
      </trkpt>
      <trkpt lat="43.97291" lon="1.22504">
        <ele>141.731469</ele>
        <time>2022-12-30T14:46:21.360Z</time>
      </trkpt>
      <trkpt lat="43.97282" lon="1.22512">
        <ele>141.919988</ele>
        <time>2022-12-30T14:46:26.362Z</time>
      </trkpt>
      <trkpt lat="43.97273" lon="1.22508">
        <ele>142.103306</ele>
        <time>2022-12-30T14:46:31.341Z</time>
      </trkpt>
      <trkpt lat="43.97268" lon="1.22497">
        <ele>142.285757</ele>
        <time>2022-12-30T14:46:35.337Z</time>
      </trkpt>
      <trkpt lat="43.97261" lon="1.22486">
        <ele>142.485557</ele>
        <time>2022-12-30T14:46:40.351Z</time>
      </trkpt>
      <trkpt lat="43.97255" lon="1.22475">
        <ele>142.679347</ele>
        <time>2022-12-30T14:46:44.343Z</time>
      </trkpt>
      <trkpt lat="43.97246" lon="1.22468">
        <ele>142.885404</ele>
        <time>2022-12-30T14:46:48.351Z</time>
      </trkpt>
      <trkpt lat="43.97234" lon="1.2247">
        <ele>143.112175</ele>
        <time>2022-12-30T14:46:52.340Z</time>
      </trkpt>
      <trkpt lat="43.97226" lon="1.22477">
        <ele>143.294636</ele>
        <time>2022-12-30T14:46:55.349Z</time>
      </trkpt>
      <trkpt lat="43.97219" lon="1.22485">
        <ele>143.473022</ele>
        <time>2022-12-30T14:46:58.349Z</time>
      </trkpt>
      <trkpt lat="43.97212" lon="1.22494">
        <ele>143.653814</ele>
        <time>2022-12-30T14:47:01.338Z</time>
      </trkpt>
      <trkpt lat="43.97206" lon="1.22503">
        <ele>143.829959</ele>
        <time>2022-12-30T14:47:04.338Z</time>
      </trkpt>
      <trkpt lat="43.97197" lon="1.22512">
        <ele>144.04684</ele>
        <time>2022-12-30T14:47:08.348Z</time>
      </trkpt>
      <trkpt lat="43.97189" lon="1.22524">
        <ele>144.263041</ele>
        <time>2022-12-30T14:47:12.342Z</time>
      </trkpt>
      <trkpt lat="43.97182" lon="1.22537">
        <ele>144.490896</ele>
        <time>2022-12-30T14:47:16.337Z</time>
      </trkpt>
      <trkpt lat="43.97176" lon="1.22547">
        <ele>144.682164</ele>
        <time>2022-12-30T14:47:20.364Z</time>
      </trkpt>
      <trkpt lat="43.97168" lon="1.22558">
        <ele>144.900156</ele>
        <time>2022-12-30T14:47:24.343Z</time>
      </trkpt>
      <trkpt lat="43.97159" lon="1.22569">
        <ele>145.126488</ele>
        <time>2022-12-30T14:47:28.356Z</time>
      </trkpt>
      <trkpt lat="43.97151" lon="1.2258">
        <ele>145.332236</ele>
        <time>2022-12-30T14:47:32.347Z</time>
      </trkpt>
      <trkpt lat="43.97143" lon="1.22587">
        <ele>145.47381</ele>
        <time>2022-12-30T14:47:35.346Z</time>
      </trkpt>
      <trkpt lat="43.97134" lon="1.22597">
        <ele>145.651729</ele>
        <time>2022-12-30T14:47:39.370Z</time>
      </trkpt>
      <trkpt lat="43.97125" lon="1.22607">
        <ele>145.828339</ele>
        <time>2022-12-30T14:47:43.342Z</time>
      </trkpt>
      <trkpt lat="43.97118" lon="1.22616">
        <ele>145.983771</ele>
        <time>2022-12-30T14:47:47.344Z</time>
      </trkpt>
      <trkpt lat="43.97111" lon="1.22627">
        <ele>146.149832</ele>
        <time>2022-12-30T14:47:52.347Z</time>
      </trkpt>
      <trkpt lat="43.97104" lon="1.22635">
        <ele>146.298088</ele>
        <time>2022-12-30T14:47:56.338Z</time>
      </trkpt>
      <trkpt lat="43.97095" lon="1.22644">
        <ele>146.468546</ele>
        <time>2022-12-30T14:48:01.340Z</time>
      </trkpt>
      <trkpt lat="43.97086" lon="1.22655">
        <ele>146.650622</ele>
        <time>2022-12-30T14:48:05.333Z</time>
      </trkpt>
      <trkpt lat="43.97078" lon="1.22664">
        <ele>146.806222</ele>
        <time>2022-12-30T14:48:08.342Z</time>
      </trkpt>
      <trkpt lat="43.9707" lon="1.22673">
        <ele>146.96794</ele>
        <time>2022-12-30T14:48:11.342Z</time>
      </trkpt>
      <trkpt lat="43.97063" lon="1.22682">
        <ele>147.124769</ele>
        <time>2022-12-30T14:48:14.357Z</time>
      </trkpt>
      <trkpt lat="43.97055" lon="1.22691">
        <ele>147.282158</ele>
        <time>2022-12-30T14:48:17.349Z</time>
      </trkpt>
      <trkpt lat="43.97048" lon="1.227">
        <ele>147.433645</ele>
        <time>2022-12-30T14:48:20.360Z</time>
      </trkpt>
      <trkpt lat="43.97041" lon="1.22709">
        <ele>147.583635</ele>
        <time>2022-12-30T14:48:23.352Z</time>
      </trkpt>
      <trkpt lat="43.97034" lon="1.22718">
        <ele>147.732279</ele>
        <time>2022-12-30T14:48:26.363Z</time>
      </trkpt>
      <trkpt lat="43.97028" lon="1.22727">
        <ele>147.873807</ele>
        <time>2022-12-30T14:48:29.348Z</time>
      </trkpt>
      <trkpt lat="43.9702" lon="1.22735">
        <ele>148.021858</ele>
        <time>2022-12-30T14:48:32.342Z</time>
      </trkpt>
      <trkpt lat="43.97011" lon="1.22745">
        <ele>148.139061</ele>
        <time>2022-12-30T14:48:36.342Z</time>
      </trkpt>
      <trkpt lat="43.97002" lon="1.22754">
        <ele>148.231933</ele>
        <time>2022-12-30T14:48:40.355Z</time>
      </trkpt>
      <trkpt lat="43.96993" lon="1.22763">
        <ele>148.323602</ele>
        <time>2022-12-30T14:48:44.361Z</time>
      </trkpt>
      <trkpt lat="43.96985" lon="1.22773">
        <ele>148.41743</ele>
        <time>2022-12-30T14:48:48.349Z</time>
      </trkpt>
      <trkpt lat="43.96976" lon="1.22782">
        <ele>148.508957</ele>
        <time>2022-12-30T14:48:52.354Z</time>
      </trkpt>
      <trkpt lat="43.96967" lon="1.22792">
        <ele>148.603533</ele>
        <time>2022-12-30T14:48:56.354Z</time>
      </trkpt>
      <trkpt lat="43.96957" lon="1.228">
        <ele>148.699164</ele>
        <time>2022-12-30T14:49:00.362Z</time>
      </trkpt>
      <trkpt lat="43.96947" lon="1.2281">
        <ele>148.797847</ele>
        <time>2022-12-30T14:49:04.365Z</time>
      </trkpt>
      <trkpt lat="43.96938" lon="1.22819">
        <ele>148.891073</ele>
        <time>2022-12-30T14:49:08.337Z</time>
      </trkpt>
      <trkpt lat="43.96929" lon="1.22828">
        <ele>148.981537</ele>
        <time>2022-12-30T14:49:12.364Z</time>
      </trkpt>
      <trkpt lat="43.96922" lon="1.22836">
        <ele>149.062851</ele>
        <time>2022-12-30T14:49:16.352Z</time>
      </trkpt>
      <trkpt lat="43.96913" lon="1.22842">
        <ele>149.141763</ele>
        <time>2022-12-30T14:49:19.358Z</time>
      </trkpt>
      <trkpt lat="43.96904" lon="1.2285">
        <ele>149.231892</ele>
        <time>2022-12-30T14:49:23.360Z</time>
      </trkpt>
      <trkpt lat="43.96894" lon="1.22858">
        <ele>149.325127</ele>
        <time>2022-12-30T14:49:27.361Z</time>
      </trkpt>
      <trkpt lat="43.96884" lon="1.22859">
        <ele>149.411421</ele>
        <time>2022-12-30T14:49:31.343Z</time>
      </trkpt>
      <trkpt lat="43.96877" lon="1.22847">
        <ele>149.50506</ele>
        <time>2022-12-30T14:49:36.357Z</time>
      </trkpt>
      <trkpt lat="43.96871" lon="1.22834">
        <ele>149.608126</ele>
        <time>2022-12-30T14:49:41.359Z</time>
      </trkpt>
      <trkpt lat="43.9686" lon="1.22837">
        <ele>149.727695</ele>
        <time>2022-12-30T14:49:47.343Z</time>
      </trkpt>
      <trkpt lat="43.96855" lon="1.22848">
        <ele>149.825881</ele>
        <time>2022-12-30T14:49:49.346Z</time>
      </trkpt>
      <trkpt lat="43.96848" lon="1.22857">
        <ele>149.927101</ele>
        <time>2022-12-30T14:49:51.341Z</time>
      </trkpt>
      <trkpt lat="43.96841" lon="1.22865">
        <ele>150.021636</ele>
        <time>2022-12-30T14:49:53.365Z</time>
      </trkpt>
      <trkpt lat="43.96833" lon="1.22876">
        <ele>150.140116</ele>
        <time>2022-12-30T14:49:56.336Z</time>
      </trkpt>
      <trkpt lat="43.96825" lon="1.22885">
        <ele>150.247434</ele>
        <time>2022-12-30T14:49:59.354Z</time>
      </trkpt>
      <trkpt lat="43.96818" lon="1.22895">
        <ele>150.354377</ele>
        <time>2022-12-30T14:50:03.350Z</time>
      </trkpt>
      <trkpt lat="43.96809" lon="1.22903">
        <ele>150.467397</ele>
        <time>2022-12-30T14:50:07.357Z</time>
      </trkpt>
      <trkpt lat="43.96802" lon="1.22912">
        <ele>150.562479</ele>
        <time>2022-12-30T14:50:10.354Z</time>
      </trkpt>
      <trkpt lat="43.96794" lon="1.2292">
        <ele>150.66532</ele>
        <time>2022-12-30T14:50:13.360Z</time>
      </trkpt>
      <trkpt lat="43.96787" lon="1.22928">
        <ele>150.761348</ele>
        <time>2022-12-30T14:50:16.364Z</time>
      </trkpt>
      <trkpt lat="43.96779" lon="1.22937">
        <ele>150.872213</ele>
        <time>2022-12-30T14:50:19.353Z</time>
      </trkpt>
      <trkpt lat="43.96771" lon="1.22947">
        <ele>150.990018</ele>
        <time>2022-12-30T14:50:22.353Z</time>
      </trkpt>
      <trkpt lat="43.96761" lon="1.22957">
        <ele>151.112723</ele>
        <time>2022-12-30T14:50:25.365Z</time>
      </trkpt>
      <trkpt lat="43.96752" lon="1.22968">
        <ele>151.235374</ele>
        <time>2022-12-30T14:50:28.346Z</time>
      </trkpt>
      <trkpt lat="43.96743" lon="1.22979">
        <ele>151.363675</ele>
        <time>2022-12-30T14:50:31.351Z</time>
      </trkpt>
      <trkpt lat="43.96734" lon="1.2299">
        <ele>151.460429</ele>
        <time>2022-12-30T14:50:34.344Z</time>
      </trkpt>
      <trkpt lat="43.96724" lon="1.23">
        <ele>151.487508</ele>
        <time>2022-12-30T14:50:37.347Z</time>
      </trkpt>
      <trkpt lat="43.96715" lon="1.23012">
        <ele>151.514088</ele>
        <time>2022-12-30T14:50:40.357Z</time>
      </trkpt>
      <trkpt lat="43.96705" lon="1.23023">
        <ele>151.541297</ele>
        <time>2022-12-30T14:50:43.353Z</time>
      </trkpt>
      <trkpt lat="43.96697" lon="1.23035">
        <ele>151.567445</ele>
        <time>2022-12-30T14:50:46.344Z</time>
      </trkpt>
      <trkpt lat="43.96687" lon="1.23047">
        <ele>151.595974</ele>
        <time>2022-12-30T14:50:49.360Z</time>
      </trkpt>
      <trkpt lat="43.96676" lon="1.23059">
        <ele>151.62443</ele>
        <time>2022-12-30T14:50:52.344Z</time>
      </trkpt>
      <trkpt lat="43.96666" lon="1.23071">
        <ele>151.653369</ele>
        <time>2022-12-30T14:50:55.350Z</time>
      </trkpt>
      <trkpt lat="43.96659" lon="1.2308">
        <ele>151.673106</ele>
        <time>2022-12-30T14:50:57.349Z</time>
      </trkpt>
      <trkpt lat="43.9665" lon="1.23091">
        <ele>151.701068</ele>
        <time>2022-12-30T14:51:00.354Z</time>
      </trkpt>
      <trkpt lat="43.9664" lon="1.23103">
        <ele>151.72901</ele>
        <time>2022-12-30T14:51:03.358Z</time>
      </trkpt>
      <trkpt lat="43.9663" lon="1.23114">
        <ele>151.756644</ele>
        <time>2022-12-30T14:51:06.362Z</time>
      </trkpt>
      <trkpt lat="43.96621" lon="1.23126">
        <ele>151.782901</ele>
        <time>2022-12-30T14:51:09.369Z</time>
      </trkpt>
      <trkpt lat="43.96612" lon="1.23136">
        <ele>151.807028</ele>
        <time>2022-12-30T14:51:12.333Z</time>
      </trkpt>
      <trkpt lat="43.96605" lon="1.23145">
        <ele>151.827077</ele>
        <time>2022-12-30T14:51:15.340Z</time>
      </trkpt>
      <trkpt lat="43.96598" lon="1.23155">
        <ele>151.80977</ele>
        <time>2022-12-30T14:51:18.356Z</time>
      </trkpt>
      <trkpt lat="43.96589" lon="1.23164">
        <ele>151.738548</ele>
        <time>2022-12-30T14:51:21.336Z</time>
      </trkpt>
      <trkpt lat="43.96582" lon="1.23173">
        <ele>151.675592</ele>
        <time>2022-12-30T14:51:24.353Z</time>
      </trkpt>
      <trkpt lat="43.96574" lon="1.23183">
        <ele>151.604434</ele>
        <time>2022-12-30T14:51:29.351Z</time>
      </trkpt>
      <trkpt lat="43.96567" lon="1.23192">
        <ele>151.538631</ele>
        <time>2022-12-30T14:51:35.343Z</time>
      </trkpt>
      <trkpt lat="43.96559" lon="1.23201">
        <ele>151.473428</ele>
        <time>2022-12-30T14:51:39.343Z</time>
      </trkpt>
      <trkpt lat="43.96551" lon="1.23211">
        <ele>151.398431</ele>
        <time>2022-12-30T14:51:43.341Z</time>
      </trkpt>
      <trkpt lat="43.96542" lon="1.23221">
        <ele>151.323016</ele>
        <time>2022-12-30T14:51:47.340Z</time>
      </trkpt>
      <trkpt lat="43.96534" lon="1.23231">
        <ele>151.250726</ele>
        <time>2022-12-30T14:51:50.359Z</time>
      </trkpt>
      <trkpt lat="43.96526" lon="1.23241">
        <ele>151.176941</ele>
        <time>2022-12-30T14:51:53.344Z</time>
      </trkpt>
      <trkpt lat="43.96516" lon="1.23252">
        <ele>151.098164</ele>
        <time>2022-12-30T14:51:56.358Z</time>
      </trkpt>
      <trkpt lat="43.96508" lon="1.23262">
        <ele>151.022044</ele>
        <time>2022-12-30T14:51:59.344Z</time>
      </trkpt>
      <trkpt lat="43.96499" lon="1.23272">
        <ele>150.946971</ele>
        <time>2022-12-30T14:52:03.363Z</time>
      </trkpt>
      <trkpt lat="43.9649" lon="1.23283">
        <ele>150.865265</ele>
        <time>2022-12-30T14:52:07.355Z</time>
      </trkpt>
      <trkpt lat="43.96481" lon="1.23294">
        <ele>150.789894</ele>
        <time>2022-12-30T14:52:10.343Z</time>
      </trkpt>
      <trkpt lat="43.96473" lon="1.23304">
        <ele>150.718587</ele>
        <time>2022-12-30T14:52:13.361Z</time>
      </trkpt>
      <trkpt lat="43.96466" lon="1.23312">
        <ele>150.656205</ele>
        <time>2022-12-30T14:52:16.361Z</time>
      </trkpt>
      <trkpt lat="43.96459" lon="1.23321">
        <ele>150.714313</ele>
        <time>2022-12-30T14:52:19.360Z</time>
      </trkpt>
      <trkpt lat="43.96451" lon="1.23331">
        <ele>150.809132</ele>
        <time>2022-12-30T14:52:22.366Z</time>
      </trkpt>
      <trkpt lat="43.96443" lon="1.23339">
        <ele>150.896218</ele>
        <time>2022-12-30T14:52:25.344Z</time>
      </trkpt>
      <trkpt lat="43.96434" lon="1.23348">
        <ele>150.991447</ele>
        <time>2022-12-30T14:52:28.367Z</time>
      </trkpt>
      <trkpt lat="43.96425" lon="1.23356">
        <ele>151.076018</ele>
        <time>2022-12-30T14:52:31.362Z</time>
      </trkpt>
      <trkpt lat="43.96418" lon="1.23365">
        <ele>151.161507</ele>
        <time>2022-12-30T14:52:35.336Z</time>
      </trkpt>
      <trkpt lat="43.9641" lon="1.23374">
        <ele>151.25164</ele>
        <time>2022-12-30T14:52:39.337Z</time>
      </trkpt>
      <trkpt lat="43.96402" lon="1.23386">
        <ele>151.355611</ele>
        <time>2022-12-30T14:52:42.342Z</time>
      </trkpt>
      <trkpt lat="43.96395" lon="1.23397">
        <ele>151.447521</ele>
        <time>2022-12-30T14:52:44.360Z</time>
      </trkpt>
      <trkpt lat="43.96387" lon="1.23407">
        <ele>151.541064</ele>
        <time>2022-12-30T14:52:46.365Z</time>
      </trkpt>
      <trkpt lat="43.96379" lon="1.23417">
        <ele>151.631642</ele>
        <time>2022-12-30T14:52:48.341Z</time>
      </trkpt>
      <trkpt lat="43.96372" lon="1.23427">
        <ele>151.717131</ele>
        <time>2022-12-30T14:52:50.344Z</time>
      </trkpt>
      <trkpt lat="43.96363" lon="1.23437">
        <ele>151.820439</ele>
        <time>2022-12-30T14:52:53.362Z</time>
      </trkpt>
      <trkpt lat="43.96355" lon="1.23445">
        <ele>151.900762</ele>
        <time>2022-12-30T14:52:56.345Z</time>
      </trkpt>
      <trkpt lat="43.96348" lon="1.23453">
        <ele>151.979692</ele>
        <time>2022-12-30T14:52:59.342Z</time>
      </trkpt>
      <trkpt lat="43.96341" lon="1.23461">
        <ele>152.05812</ele>
        <time>2022-12-30T14:53:02.341Z</time>
      </trkpt>
      <trkpt lat="43.96332" lon="1.23472">
        <ele>152.163802</ele>
        <time>2022-12-30T14:53:06.345Z</time>
      </trkpt>
      <trkpt lat="43.96324" lon="1.2348">
        <ele>152.164643</ele>
        <time>2022-12-30T14:53:09.356Z</time>
      </trkpt>
      <trkpt lat="43.96317" lon="1.23488">
        <ele>152.100129</ele>
        <time>2022-12-30T14:53:12.346Z</time>
      </trkpt>
      <trkpt lat="43.9631" lon="1.23496">
        <ele>152.037204</ele>
        <time>2022-12-30T14:53:15.364Z</time>
      </trkpt>
      <trkpt lat="43.96302" lon="1.23508">
        <ele>151.959988</ele>
        <time>2022-12-30T14:53:19.354Z</time>
      </trkpt>
      <trkpt lat="43.96293" lon="1.23518">
        <ele>151.879477</ele>
        <time>2022-12-30T14:53:23.342Z</time>
      </trkpt>
      <trkpt lat="43.96286" lon="1.23529">
        <ele>151.807741</ele>
        <time>2022-12-30T14:53:27.339Z</time>
      </trkpt>
      <trkpt lat="43.96277" lon="1.23539">
        <ele>151.730003</ele>
        <time>2022-12-30T14:53:31.340Z</time>
      </trkpt>
      <trkpt lat="43.96269" lon="1.23547">
        <ele>151.661635</ele>
        <time>2022-12-30T14:53:34.338Z</time>
      </trkpt>
      <trkpt lat="43.96261" lon="1.23552">
        <ele>151.599272</ele>
        <time>2022-12-30T14:53:37.341Z</time>
      </trkpt>
      <trkpt lat="43.96251" lon="1.23558">
        <ele>151.525249</ele>
        <time>2022-12-30T14:53:41.352Z</time>
      </trkpt>
      <trkpt lat="43.96242" lon="1.23563">
        <ele>151.458703</ele>
        <time>2022-12-30T14:53:44.362Z</time>
      </trkpt>
      <trkpt lat="43.96232" lon="1.23569">
        <ele>151.385056</ele>
        <time>2022-12-30T14:53:47.357Z</time>
      </trkpt>
      <trkpt lat="43.96222" lon="1.23575">
        <ele>151.31</ele>
        <time>2022-12-30T14:53:50.347Z</time>
      </trkpt>
      <trkpt lat="43.96212" lon="1.23581">
        <ele>151.234116</ele>
        <time>2022-12-30T14:53:53.356Z</time>
      </trkpt>
      <trkpt lat="43.96202" lon="1.23588">
        <ele>151.158997</ele>
        <time>2022-12-30T14:53:56.341Z</time>
      </trkpt>
      <trkpt lat="43.96192" lon="1.23595">
        <ele>151.083318</ele>
        <time>2022-12-30T14:53:59.360Z</time>
      </trkpt>
      <trkpt lat="43.96182" lon="1.23601">
        <ele>151.002862</ele>
        <time>2022-12-30T14:54:02.348Z</time>
      </trkpt>
      <trkpt lat="43.96171" lon="1.23608">
        <ele>150.96792</ele>
        <time>2022-12-30T14:54:05.361Z</time>
      </trkpt>
      <trkpt lat="43.9616" lon="1.23613">
        <ele>150.97178</ele>
        <time>2022-12-30T14:54:08.340Z</time>
      </trkpt>
      <trkpt lat="43.96152" lon="1.2362">
        <ele>150.975296</ele>
        <time>2022-12-30T14:54:11.362Z</time>
      </trkpt>
      <trkpt lat="43.96142" lon="1.23625">
        <ele>150.978993</ele>
        <time>2022-12-30T14:54:15.347Z</time>
      </trkpt>
      <trkpt lat="43.96133" lon="1.23629">
        <ele>150.982209</ele>
        <time>2022-12-30T14:54:19.345Z</time>
      </trkpt>
      <trkpt lat="43.96122" lon="1.23631">
        <ele>150.986016</ele>
        <time>2022-12-30T14:54:24.344Z</time>
      </trkpt>
      <trkpt lat="43.96113" lon="1.23625">
        <ele>150.98957</ele>
        <time>2022-12-30T14:54:28.345Z</time>
      </trkpt>
      <trkpt lat="43.96105" lon="1.23619">
        <ele>150.992805</ele>
        <time>2022-12-30T14:54:31.359Z</time>
      </trkpt>
      <trkpt lat="43.96096" lon="1.23614">
        <ele>150.996241</ele>
        <time>2022-12-30T14:54:35.363Z</time>
      </trkpt>
      <trkpt lat="43.96086" lon="1.23612">
        <ele>150.999752</ele>
        <time>2022-12-30T14:54:40.334Z</time>
      </trkpt>
      <trkpt lat="43.96076" lon="1.23611">
        <ele>151.003247</ele>
        <time>2022-12-30T14:54:44.347Z</time>
      </trkpt>
      <trkpt lat="43.96066" lon="1.23613">
        <ele>151.006492</ele>
        <time>2022-12-30T14:54:47.345Z</time>
      </trkpt>
      <trkpt lat="43.96056" lon="1.23618">
        <ele>151.010426</ele>
        <time>2022-12-30T14:54:51.345Z</time>
      </trkpt>
      <trkpt lat="43.96047" lon="1.23625">
        <ele>151.013826</ele>
        <time>2022-12-30T14:54:55.340Z</time>
      </trkpt>
      <trkpt lat="43.96037" lon="1.2363">
        <ele>151.017505</ele>
        <time>2022-12-30T14:54:59.354Z</time>
      </trkpt>
      <trkpt lat="43.96028" lon="1.23637">
        <ele>151.021343</ele>
        <time>2022-12-30T14:55:03.337Z</time>
      </trkpt>
      <trkpt lat="43.96019" lon="1.23644">
        <ele>151.024812</ele>
        <time>2022-12-30T14:55:07.357Z</time>
      </trkpt>
      <trkpt lat="43.96014" lon="1.23648">
        <ele>151.026815</ele>
        <time>2022-12-30T14:55:27.690Z</time>
      </trkpt>
      <trkpt lat="43.96008" lon="1.2366">
        <ele>151.041856</ele>
        <time>2022-12-30T15:02:26.338Z</time>
      </trkpt>
      <trkpt lat="43.96001" lon="1.23669">
        <ele>151.065875</ele>
        <time>2022-12-30T15:02:31.346Z</time>
      </trkpt>
      <trkpt lat="43.95994" lon="1.23681">
        <ele>151.090942</ele>
        <time>2022-12-30T15:02:36.337Z</time>
      </trkpt>
      <trkpt lat="43.95988" lon="1.23693">
        <ele>151.115366</ele>
        <time>2022-12-30T15:02:41.358Z</time>
      </trkpt>
      <trkpt lat="43.95983" lon="1.23707">
        <ele>151.14098</ele>
        <time>2022-12-30T15:02:46.354Z</time>
      </trkpt>
      <trkpt lat="43.95984" lon="1.23721">
        <ele>151.165397</ele>
        <time>2022-12-30T15:02:52.333Z</time>
      </trkpt>
      <trkpt lat="43.95982" lon="1.23734">
        <ele>151.187642</ele>
        <time>2022-12-30T15:02:57.354Z</time>
      </trkpt>
      <trkpt lat="43.95974" lon="1.23742">
        <ele>151.210524</ele>
        <time>2022-12-30T15:03:02.342Z</time>
      </trkpt>
      <trkpt lat="43.95965" lon="1.23748">
        <ele>151.233557</ele>
        <time>2022-12-30T15:03:06.340Z</time>
      </trkpt>
      <trkpt lat="43.95953" lon="1.23749">
        <ele>151.260739</ele>
        <time>2022-12-30T15:03:10.343Z</time>
      </trkpt>
      <trkpt lat="43.95941" lon="1.23744">
        <ele>151.289063</ele>
        <time>2022-12-30T15:03:14.338Z</time>
      </trkpt>
      <trkpt lat="43.95931" lon="1.23743">
        <ele>151.313229</ele>
        <time>2022-12-30T15:03:18.351Z</time>
      </trkpt>
      <trkpt lat="43.9592" lon="1.23747">
        <ele>151.338644</ele>
        <time>2022-12-30T15:03:23.347Z</time>
      </trkpt>
      <trkpt lat="43.95909" lon="1.23754">
        <ele>151.366742</ele>
        <time>2022-12-30T15:03:27.340Z</time>
      </trkpt>
      <trkpt lat="43.95901" lon="1.23759">
        <ele>151.388305</ele>
        <time>2022-12-30T15:03:30.343Z</time>
      </trkpt>
      <trkpt lat="43.95892" lon="1.23765">
        <ele>151.411339</ele>
        <time>2022-12-30T15:03:33.345Z</time>
      </trkpt>
      <trkpt lat="43.95882" lon="1.2377">
        <ele>151.435261</ele>
        <time>2022-12-30T15:03:36.346Z</time>
      </trkpt>
      <trkpt lat="43.95873" lon="1.23776">
        <ele>151.484646</ele>
        <time>2022-12-30T15:03:39.336Z</time>
      </trkpt>
      <trkpt lat="43.95864" lon="1.23784">
        <ele>151.551162</ele>
        <time>2022-12-30T15:03:42.356Z</time>
      </trkpt>
      <trkpt lat="43.95857" lon="1.23793">
        <ele>151.613023</ele>
        <time>2022-12-30T15:03:45.352Z</time>
      </trkpt>
      <trkpt lat="43.9585" lon="1.23806">
        <ele>151.689182</ele>
        <time>2022-12-30T15:03:49.347Z</time>
      </trkpt>
      <trkpt lat="43.95844" lon="1.23816">
        <ele>151.751055</ele>
        <time>2022-12-30T15:03:52.349Z</time>
      </trkpt>
      <trkpt lat="43.95838" lon="1.23827">
        <ele>151.815698</ele>
        <time>2022-12-30T15:03:55.346Z</time>
      </trkpt>
      <trkpt lat="43.95831" lon="1.23838">
        <ele>151.882877</ele>
        <time>2022-12-30T15:03:58.337Z</time>
      </trkpt>
      <trkpt lat="43.95825" lon="1.23847">
        <ele>151.941628</ele>
        <time>2022-12-30T15:04:01.343Z</time>
      </trkpt>
      <trkpt lat="43.95818" lon="1.23858">
        <ele>152.006684</ele>
        <time>2022-12-30T15:04:05.353Z</time>
      </trkpt>
      <trkpt lat="43.95812" lon="1.23868">
        <ele>152.067923</ele>
        <time>2022-12-30T15:04:09.353Z</time>
      </trkpt>
      <trkpt lat="43.95806" lon="1.23878">
        <ele>152.13304</ele>
        <time>2022-12-30T15:04:13.353Z</time>
      </trkpt>
      <trkpt lat="43.95799" lon="1.23891">
        <ele>152.206293</ele>
        <time>2022-12-30T15:04:17.334Z</time>
      </trkpt>
      <trkpt lat="43.95793" lon="1.23905">
        <ele>152.283107</ele>
        <time>2022-12-30T15:04:21.361Z</time>
      </trkpt>
      <trkpt lat="43.95787" lon="1.23915">
        <ele>152.34239</ele>
        <time>2022-12-30T15:04:24.337Z</time>
      </trkpt>
      <trkpt lat="43.95782" lon="1.23925">
        <ele>152.402082</ele>
        <time>2022-12-30T15:04:27.355Z</time>
      </trkpt>
      <trkpt lat="43.95776" lon="1.23935">
        <ele>152.46167</ele>
        <time>2022-12-30T15:04:30.354Z</time>
      </trkpt>
      <trkpt lat="43.9577" lon="1.23946">
        <ele>152.52473</ele>
        <time>2022-12-30T15:04:33.353Z</time>
      </trkpt>
      <trkpt lat="43.95764" lon="1.23956">
        <ele>152.586253</ele>
        <time>2022-12-30T15:04:36.360Z</time>
      </trkpt>
      <trkpt lat="43.95759" lon="1.23967">
        <ele>152.650089</ele>
        <time>2022-12-30T15:04:39.351Z</time>
      </trkpt>
      <trkpt lat="43.95753" lon="1.23977">
        <ele>152.71404</ele>
        <time>2022-12-30T15:04:42.343Z</time>
      </trkpt>
      <trkpt lat="43.95747" lon="1.23988">
        <ele>152.778507</ele>
        <time>2022-12-30T15:04:45.347Z</time>
      </trkpt>
      <trkpt lat="43.95741" lon="1.23998">
        <ele>152.842154</ele>
        <time>2022-12-30T15:04:48.359Z</time>
      </trkpt>
      <trkpt lat="43.95735" lon="1.2401">
        <ele>152.914837</ele>
        <time>2022-12-30T15:04:52.345Z</time>
      </trkpt>
      <trkpt lat="43.95728" lon="1.24022">
        <ele>152.986364</ele>
        <time>2022-12-30T15:04:57.341Z</time>
      </trkpt>
      <trkpt lat="43.95723" lon="1.24032">
        <ele>153.04764</ele>
        <time>2022-12-30T15:05:01.339Z</time>
      </trkpt>
      <trkpt lat="43.95717" lon="1.24044">
        <ele>153.118344</ele>
        <time>2022-12-30T15:05:06.363Z</time>
      </trkpt>
      <trkpt lat="43.9571" lon="1.24056">
        <ele>153.189836</ele>
        <time>2022-12-30T15:05:11.338Z</time>
      </trkpt>
      <trkpt lat="43.95704" lon="1.24068">
        <ele>153.262158</ele>
        <time>2022-12-30T15:05:16.335Z</time>
      </trkpt>
      <trkpt lat="43.95697" lon="1.24079">
        <ele>153.332585</ele>
        <time>2022-12-30T15:05:21.338Z</time>
      </trkpt>
      <trkpt lat="43.95691" lon="1.24089">
        <ele>153.397793</ele>
        <time>2022-12-30T15:05:26.342Z</time>
      </trkpt>
      <trkpt lat="43.95686" lon="1.241">
        <ele>153.460201</ele>
        <time>2022-12-30T15:05:31.337Z</time>
      </trkpt>
      <trkpt lat="43.95693" lon="1.24108">
        <ele>153.52212</ele>
        <time>2022-12-30T15:05:40.358Z</time>
      </trkpt>
      <trkpt lat="43.95701" lon="1.24115">
        <ele>153.588127</ele>
        <time>2022-12-30T15:05:53.338Z</time>
      </trkpt>
      <trkpt lat="43.95709" lon="1.24123">
        <ele>153.649171</ele>
        <time>2022-12-30T15:06:00.347Z</time>
      </trkpt>
      <trkpt lat="43.95703" lon="1.24134">
        <ele>153.715568</ele>
        <time>2022-12-30T15:06:13.337Z</time>
      </trkpt>
      <trkpt lat="43.95697" lon="1.24144">
        <ele>153.778573</ele>
        <time>2022-12-30T15:06:19.337Z</time>
      </trkpt>
      <trkpt lat="43.95689" lon="1.24157">
        <ele>153.781651</ele>
        <time>2022-12-30T15:06:23.360Z</time>
      </trkpt>
      <trkpt lat="43.95683" lon="1.24168">
        <ele>153.694986</ele>
        <time>2022-12-30T15:06:27.347Z</time>
      </trkpt>
      <trkpt lat="43.95677" lon="1.2418">
        <ele>153.609381</ele>
        <time>2022-12-30T15:06:31.340Z</time>
      </trkpt>
      <trkpt lat="43.95671" lon="1.24193">
        <ele>153.519906</ele>
        <time>2022-12-30T15:06:36.340Z</time>
      </trkpt>
      <trkpt lat="43.95665" lon="1.24204">
        <ele>153.438945</ele>
        <time>2022-12-30T15:06:40.350Z</time>
      </trkpt>
      <trkpt lat="43.95658" lon="1.24216">
        <ele>153.347013</ele>
        <time>2022-12-30T15:06:44.341Z</time>
      </trkpt>
      <trkpt lat="43.95652" lon="1.24227">
        <ele>153.267896</ele>
        <time>2022-12-30T15:06:47.357Z</time>
      </trkpt>
      <trkpt lat="43.95646" lon="1.24239">
        <ele>153.177497</ele>
        <time>2022-12-30T15:06:50.347Z</time>
      </trkpt>
      <trkpt lat="43.95639" lon="1.2425">
        <ele>153.095173</ele>
        <time>2022-12-30T15:06:53.344Z</time>
      </trkpt>
      <trkpt lat="43.95634" lon="1.24261">
        <ele>153.017183</ele>
        <time>2022-12-30T15:06:56.346Z</time>
      </trkpt>
      <trkpt lat="43.95628" lon="1.24271">
        <ele>152.94352</ele>
        <time>2022-12-30T15:06:59.361Z</time>
      </trkpt>
      <trkpt lat="43.95621" lon="1.24283">
        <ele>152.853528</ele>
        <time>2022-12-30T15:07:02.354Z</time>
      </trkpt>
      <trkpt lat="43.95614" lon="1.24297">
        <ele>152.747825</ele>
        <time>2022-12-30T15:07:05.335Z</time>
      </trkpt>
      <trkpt lat="43.95606" lon="1.24311">
        <ele>152.641138</ele>
        <time>2022-12-30T15:07:08.344Z</time>
      </trkpt>
      <trkpt lat="43.95598" lon="1.24325">
        <ele>152.535346</ele>
        <time>2022-12-30T15:07:11.335Z</time>
      </trkpt>
      <trkpt lat="43.95591" lon="1.24339">
        <ele>152.435867</ele>
        <time>2022-12-30T15:07:14.360Z</time>
      </trkpt>
      <trkpt lat="43.95583" lon="1.24353">
        <ele>152.372884</ele>
        <time>2022-12-30T15:07:17.361Z</time>
      </trkpt>
      <trkpt lat="43.95577" lon="1.24367">
        <ele>152.490837</ele>
        <time>2022-12-30T15:07:20.334Z</time>
      </trkpt>
      <trkpt lat="43.9557" lon="1.24379">
        <ele>152.598286</ele>
        <time>2022-12-30T15:07:23.358Z</time>
      </trkpt>
      <trkpt lat="43.95564" lon="1.2439">
        <ele>152.696443</ele>
        <time>2022-12-30T15:07:26.369Z</time>
      </trkpt>
      <trkpt lat="43.95558" lon="1.24404">
        <ele>152.814397</ele>
        <time>2022-12-30T15:07:30.337Z</time>
      </trkpt>
      <trkpt lat="43.95552" lon="1.24415">
        <ele>152.907993</ele>
        <time>2022-12-30T15:07:33.360Z</time>
      </trkpt>
      <trkpt lat="43.95547" lon="1.24426">
        <ele>153.003239</ele>
        <time>2022-12-30T15:07:36.357Z</time>
      </trkpt>
      <trkpt lat="43.9554" lon="1.24437">
        <ele>153.104332</ele>
        <time>2022-12-30T15:07:39.359Z</time>
      </trkpt>
      <trkpt lat="43.95533" lon="1.24448">
        <ele>153.211412</ele>
        <time>2022-12-30T15:07:42.342Z</time>
      </trkpt>
      <trkpt lat="43.95526" lon="1.2446">
        <ele>153.325423</ele>
        <time>2022-12-30T15:07:45.369Z</time>
      </trkpt>
      <trkpt lat="43.95517" lon="1.24473">
        <ele>153.45286</ele>
        <time>2022-12-30T15:07:48.359Z</time>
      </trkpt>
      <trkpt lat="43.9551" lon="1.24486">
        <ele>153.567895</ele>
        <time>2022-12-30T15:07:51.360Z</time>
      </trkpt>
      <trkpt lat="43.95503" lon="1.24499">
        <ele>153.678725</ele>
        <time>2022-12-30T15:07:54.358Z</time>
      </trkpt>
      <trkpt lat="43.95496" lon="1.24511">
        <ele>153.787298</ele>
        <time>2022-12-30T15:07:57.354Z</time>
      </trkpt>
      <trkpt lat="43.9549" lon="1.24521">
        <ele>153.887516</ele>
        <time>2022-12-30T15:08:00.337Z</time>
      </trkpt>
      <trkpt lat="43.95483" lon="1.24534">
        <ele>153.998347</ele>
        <time>2022-12-30T15:08:03.342Z</time>
      </trkpt>
      <trkpt lat="43.95476" lon="1.24548">
        <ele>154.116703</ele>
        <time>2022-12-30T15:08:06.367Z</time>
      </trkpt>
      <trkpt lat="43.95469" lon="1.24561">
        <ele>154.02843</ele>
        <time>2022-12-30T15:08:09.338Z</time>
      </trkpt>
      <trkpt lat="43.95461" lon="1.24574">
        <ele>153.918871</ele>
        <time>2022-12-30T15:08:12.349Z</time>
      </trkpt>
      <trkpt lat="43.95454" lon="1.24587">
        <ele>153.813085</ele>
        <time>2022-12-30T15:08:15.347Z</time>
      </trkpt>
      <trkpt lat="43.95447" lon="1.24599">
        <ele>153.708695</ele>
        <time>2022-12-30T15:08:18.345Z</time>
      </trkpt>
      <trkpt lat="43.95439" lon="1.24613">
        <ele>153.594828</ele>
        <time>2022-12-30T15:08:21.361Z</time>
      </trkpt>
      <trkpt lat="43.95432" lon="1.24626">
        <ele>153.488342</ele>
        <time>2022-12-30T15:08:24.365Z</time>
      </trkpt>
      <trkpt lat="43.95425" lon="1.24638">
        <ele>153.387857</ele>
        <time>2022-12-30T15:08:27.343Z</time>
      </trkpt>
      <trkpt lat="43.9542" lon="1.24648">
        <ele>153.306463</ele>
        <time>2022-12-30T15:08:30.339Z</time>
      </trkpt>
      <trkpt lat="43.95414" lon="1.24661">
        <ele>153.206519</ele>
        <time>2022-12-30T15:08:34.336Z</time>
      </trkpt>
      <trkpt lat="43.95408" lon="1.24674">
        <ele>153.10233</ele>
        <time>2022-12-30T15:08:38.350Z</time>
      </trkpt>
      <trkpt lat="43.95401" lon="1.24685">
        <ele>153.008787</ele>
        <time>2022-12-30T15:08:41.356Z</time>
      </trkpt>
      <trkpt lat="43.95395" lon="1.24697">
        <ele>152.908822</ele>
        <time>2022-12-30T15:08:44.349Z</time>
      </trkpt>
      <trkpt lat="43.95388" lon="1.2471">
        <ele>152.807782</ele>
        <time>2022-12-30T15:08:47.353Z</time>
      </trkpt>
      <trkpt lat="43.95381" lon="1.24722">
        <ele>152.704678</ele>
        <time>2022-12-30T15:08:50.344Z</time>
      </trkpt>
      <trkpt lat="43.95375" lon="1.24735">
        <ele>152.60103</ele>
        <time>2022-12-30T15:08:53.336Z</time>
      </trkpt>
      <trkpt lat="43.95368" lon="1.24748">
        <ele>152.496286</ele>
        <time>2022-12-30T15:08:56.343Z</time>
      </trkpt>
      <trkpt lat="43.9536" lon="1.2476">
        <ele>152.353681</ele>
        <time>2022-12-30T15:08:59.349Z</time>
      </trkpt>
      <trkpt lat="43.95352" lon="1.24772">
        <ele>152.203784</ele>
        <time>2022-12-30T15:09:02.347Z</time>
      </trkpt>
      <trkpt lat="43.95344" lon="1.24783">
        <ele>152.04978</ele>
        <time>2022-12-30T15:09:05.360Z</time>
      </trkpt>
      <trkpt lat="43.95334" lon="1.24795">
        <ele>151.894159</ele>
        <time>2022-12-30T15:09:08.342Z</time>
      </trkpt>
      <trkpt lat="43.95325" lon="1.24804">
        <ele>151.742015</ele>
        <time>2022-12-30T15:09:11.356Z</time>
      </trkpt>
      <trkpt lat="43.95314" lon="1.24813">
        <ele>151.586499</ele>
        <time>2022-12-30T15:09:14.336Z</time>
      </trkpt>
      <trkpt lat="43.95304" lon="1.24822">
        <ele>151.430833</ele>
        <time>2022-12-30T15:09:17.362Z</time>
      </trkpt>
      <trkpt lat="43.95294" lon="1.24828">
        <ele>151.285587</ele>
        <time>2022-12-30T15:09:20.358Z</time>
      </trkpt>
      <trkpt lat="43.95285" lon="1.24836">
        <ele>151.159185</ele>
        <time>2022-12-30T15:09:23.333Z</time>
      </trkpt>
      <trkpt lat="43.95277" lon="1.24842">
        <ele>151.043941</ele>
        <time>2022-12-30T15:09:26.343Z</time>
      </trkpt>
      <trkpt lat="43.95268" lon="1.2485">
        <ele>150.90847</ele>
        <time>2022-12-30T15:09:30.339Z</time>
      </trkpt>
      <trkpt lat="43.9526" lon="1.24856">
        <ele>150.787441</ele>
        <time>2022-12-30T15:09:33.348Z</time>
      </trkpt>
      <trkpt lat="43.95252" lon="1.24864">
        <ele>150.659978</ele>
        <time>2022-12-30T15:09:36.342Z</time>
      </trkpt>
      <trkpt lat="43.95243" lon="1.24871">
        <ele>150.528909</ele>
        <time>2022-12-30T15:09:39.358Z</time>
      </trkpt>
      <trkpt lat="43.95234" lon="1.24879">
        <ele>150.389362</ele>
        <time>2022-12-30T15:09:42.349Z</time>
      </trkpt>
      <trkpt lat="43.95223" lon="1.24887">
        <ele>150.239317</ele>
        <time>2022-12-30T15:09:45.343Z</time>
      </trkpt>
      <trkpt lat="43.95214" lon="1.24895">
        <ele>150.258508</ele>
        <time>2022-12-30T15:09:48.334Z</time>
      </trkpt>
      <trkpt lat="43.95204" lon="1.24902">
        <ele>150.346278</ele>
        <time>2022-12-30T15:09:51.345Z</time>
      </trkpt>
      <trkpt lat="43.95194" lon="1.24911">
        <ele>150.437658</ele>
        <time>2022-12-30T15:09:54.343Z</time>
      </trkpt>
      <trkpt lat="43.95184" lon="1.24919">
        <ele>150.533832</ele>
        <time>2022-12-30T15:09:57.339Z</time>
      </trkpt>
      <trkpt lat="43.95174" lon="1.24927">
        <ele>150.626664</ele>
        <time>2022-12-30T15:10:00.345Z</time>
      </trkpt>
      <trkpt lat="43.95163" lon="1.24937">
        <ele>150.726217</ele>
        <time>2022-12-30T15:10:03.360Z</time>
      </trkpt>
      <trkpt lat="43.95154" lon="1.24944">
        <ele>150.814437</ele>
        <time>2022-12-30T15:10:06.366Z</time>
      </trkpt>
      <trkpt lat="43.95146" lon="1.24952">
        <ele>150.894578</ele>
        <time>2022-12-30T15:10:09.357Z</time>
      </trkpt>
      <trkpt lat="43.95137" lon="1.24959">
        <ele>150.973825</ele>
        <time>2022-12-30T15:10:12.335Z</time>
      </trkpt>
      <trkpt lat="43.95128" lon="1.24965">
        <ele>151.053629</ele>
        <time>2022-12-30T15:10:15.341Z</time>
      </trkpt>
      <trkpt lat="43.95119" lon="1.24973">
        <ele>151.138376</ele>
        <time>2022-12-30T15:10:18.347Z</time>
      </trkpt>
      <trkpt lat="43.9511" lon="1.24981">
        <ele>151.225147</ele>
        <time>2022-12-30T15:10:21.339Z</time>
      </trkpt>
      <trkpt lat="43.951" lon="1.24989">
        <ele>151.313197</ele>
        <time>2022-12-30T15:10:24.356Z</time>
      </trkpt>
      <trkpt lat="43.9509" lon="1.24997">
        <ele>151.407819</ele>
        <time>2022-12-30T15:10:27.343Z</time>
      </trkpt>
      <trkpt lat="43.9508" lon="1.25005">
        <ele>151.50244</ele>
        <time>2022-12-30T15:10:30.337Z</time>
      </trkpt>
      <trkpt lat="43.9507" lon="1.25013">
        <ele>151.589974</ele>
        <time>2022-12-30T15:10:33.363Z</time>
      </trkpt>
      <trkpt lat="43.9506" lon="1.25022">
        <ele>151.771976</ele>
        <time>2022-12-30T15:10:36.337Z</time>
      </trkpt>
      <trkpt lat="43.9505" lon="1.2503">
        <ele>152.027837</ele>
        <time>2022-12-30T15:10:39.344Z</time>
      </trkpt>
      <trkpt lat="43.9504" lon="1.25039">
        <ele>152.274881</ele>
        <time>2022-12-30T15:10:42.340Z</time>
      </trkpt>
      <trkpt lat="43.9503" lon="1.25047">
        <ele>152.524522</ele>
        <time>2022-12-30T15:10:45.336Z</time>
      </trkpt>
      <trkpt lat="43.9502" lon="1.25056">
        <ele>152.77368</ele>
        <time>2022-12-30T15:10:48.343Z</time>
      </trkpt>
      <trkpt lat="43.95012" lon="1.25064">
        <ele>152.9803</ele>
        <time>2022-12-30T15:10:51.343Z</time>
      </trkpt>
      <trkpt lat="43.95004" lon="1.25071">
        <ele>153.175971</ele>
        <time>2022-12-30T15:10:54.348Z</time>
      </trkpt>
      <trkpt lat="43.94995" lon="1.25079">
        <ele>153.395833</ele>
        <time>2022-12-30T15:10:58.331Z</time>
      </trkpt>
      <trkpt lat="43.94985" lon="1.25069">
        <ele>153.666708</ele>
        <time>2022-12-30T15:11:22.332Z</time>
      </trkpt>
      <trkpt lat="43.94979" lon="1.25058">
        <ele>153.879322</ele>
        <time>2022-12-30T15:11:30.354Z</time>
      </trkpt>
      <trkpt lat="43.94968" lon="1.25057">
        <ele>154.103819</ele>
        <time>2022-12-30T15:11:34.332Z</time>
      </trkpt>
      <trkpt lat="43.94957" lon="1.25067">
        <ele>154.371239</ele>
        <time>2022-12-30T15:11:37.339Z</time>
      </trkpt>
      <trkpt lat="43.94948" lon="1.25075">
        <ele>154.614504</ele>
        <time>2022-12-30T15:11:40.338Z</time>
      </trkpt>
      <trkpt lat="43.94939" lon="1.25082">
        <ele>154.82778</ele>
        <time>2022-12-30T15:11:43.335Z</time>
      </trkpt>
      <trkpt lat="43.94931" lon="1.25088">
        <ele>155.022663</ele>
        <time>2022-12-30T15:11:46.342Z</time>
      </trkpt>
      <trkpt lat="43.94922" lon="1.25095">
        <ele>155.23739</ele>
        <time>2022-12-30T15:11:50.356Z</time>
      </trkpt>
      <trkpt lat="43.94914" lon="1.25104">
        <ele>155.438919</ele>
        <time>2022-12-30T15:11:54.336Z</time>
      </trkpt>
      <trkpt lat="43.94903" lon="1.25112">
        <ele>155.489976</ele>
        <time>2022-12-30T15:11:58.342Z</time>
      </trkpt>
      <trkpt lat="43.94895" lon="1.25119">
        <ele>155.531517</ele>
        <time>2022-12-30T15:12:01.343Z</time>
      </trkpt>
      <trkpt lat="43.94887" lon="1.25126">
        <ele>155.573749</ele>
        <time>2022-12-30T15:12:04.356Z</time>
      </trkpt>
      <trkpt lat="43.94878" lon="1.25134">
        <ele>155.618617</ele>
        <time>2022-12-30T15:12:07.334Z</time>
      </trkpt>
      <trkpt lat="43.94869" lon="1.25142">
        <ele>155.665504</ele>
        <time>2022-12-30T15:12:10.339Z</time>
      </trkpt>
      <trkpt lat="43.9486" lon="1.2515">
        <ele>155.711259</ele>
        <time>2022-12-30T15:12:13.356Z</time>
      </trkpt>
      <trkpt lat="43.9485" lon="1.25158">
        <ele>155.759565</ele>
        <time>2022-12-30T15:12:16.334Z</time>
      </trkpt>
      <trkpt lat="43.9484" lon="1.25167">
        <ele>155.808842</ele>
        <time>2022-12-30T15:12:19.349Z</time>
      </trkpt>
      <trkpt lat="43.9483" lon="1.25175">
        <ele>155.860829</ele>
        <time>2022-12-30T15:12:22.339Z</time>
      </trkpt>
      <trkpt lat="43.9482" lon="1.25183">
        <ele>155.911587</ele>
        <time>2022-12-30T15:12:25.340Z</time>
      </trkpt>
      <trkpt lat="43.94809" lon="1.25192">
        <ele>155.963415</ele>
        <time>2022-12-30T15:12:28.331Z</time>
      </trkpt>
      <trkpt lat="43.94799" lon="1.25201">
        <ele>156.016359</ele>
        <time>2022-12-30T15:12:31.359Z</time>
      </trkpt>
      <trkpt lat="43.94789" lon="1.25209">
        <ele>156.06556</ele>
        <time>2022-12-30T15:12:34.336Z</time>
      </trkpt>
      <trkpt lat="43.94778" lon="1.25217">
        <ele>156.116782</ele>
        <time>2022-12-30T15:12:37.333Z</time>
      </trkpt>
      <trkpt lat="43.94768" lon="1.25226">
        <ele>156.170832</ele>
        <time>2022-12-30T15:12:40.355Z</time>
      </trkpt>
      <trkpt lat="43.94757" lon="1.25236">
        <ele>156.220199</ele>
        <time>2022-12-30T15:12:43.350Z</time>
      </trkpt>
      <trkpt lat="43.94746" lon="1.25245">
        <ele>156.260743</ele>
        <time>2022-12-30T15:12:46.352Z</time>
      </trkpt>
      <trkpt lat="43.94736" lon="1.25253">
        <ele>156.299031</ele>
        <time>2022-12-30T15:12:49.342Z</time>
      </trkpt>
      <trkpt lat="43.94726" lon="1.25262">
        <ele>156.33671</ele>
        <time>2022-12-30T15:12:52.336Z</time>
      </trkpt>
      <trkpt lat="43.94715" lon="1.2527">
        <ele>156.374497</ele>
        <time>2022-12-30T15:12:55.362Z</time>
      </trkpt>
      <trkpt lat="43.94705" lon="1.25279">
        <ele>156.413295</ele>
        <time>2022-12-30T15:12:58.335Z</time>
      </trkpt>
      <trkpt lat="43.94694" lon="1.25288">
        <ele>156.452566</ele>
        <time>2022-12-30T15:13:01.341Z</time>
      </trkpt>
      <trkpt lat="43.94683" lon="1.25296">
        <ele>156.492632</ele>
        <time>2022-12-30T15:13:04.338Z</time>
      </trkpt>
      <trkpt lat="43.94672" lon="1.25304">
        <ele>156.532541</ele>
        <time>2022-12-30T15:13:07.332Z</time>
      </trkpt>
      <trkpt lat="43.94661" lon="1.25312">
        <ele>156.571327</ele>
        <time>2022-12-30T15:13:10.341Z</time>
      </trkpt>
      <trkpt lat="43.94649" lon="1.2532">
        <ele>156.61398</ele>
        <time>2022-12-30T15:13:13.363Z</time>
      </trkpt>
      <trkpt lat="43.94638" lon="1.25327">
        <ele>156.653967</ele>
        <time>2022-12-30T15:13:16.339Z</time>
      </trkpt>
      <trkpt lat="43.94626" lon="1.25333">
        <ele>156.693445</ele>
        <time>2022-12-30T15:13:19.334Z</time>
      </trkpt>
      <trkpt lat="43.94613" lon="1.25339">
        <ele>156.735787</ele>
        <time>2022-12-30T15:13:22.346Z</time>
      </trkpt>
      <trkpt lat="43.94602" lon="1.25344">
        <ele>156.774281</ele>
        <time>2022-12-30T15:13:25.341Z</time>
      </trkpt>
      <trkpt lat="43.94592" lon="1.25348">
        <ele>156.777399</ele>
        <time>2022-12-30T15:13:28.354Z</time>
      </trkpt>
      <trkpt lat="43.94583" lon="1.25352">
        <ele>156.776727</ele>
        <time>2022-12-30T15:13:31.344Z</time>
      </trkpt>
      <trkpt lat="43.94574" lon="1.25356">
        <ele>156.776003</ele>
        <time>2022-12-30T15:13:34.351Z</time>
      </trkpt>
      <trkpt lat="43.94563" lon="1.25359">
        <ele>156.77521</ele>
        <time>2022-12-30T15:13:37.335Z</time>
      </trkpt>
      <trkpt lat="43.94553" lon="1.25363">
        <ele>156.774431</ele>
        <time>2022-12-30T15:13:40.349Z</time>
      </trkpt>
      <trkpt lat="43.94542" lon="1.25364">
        <ele>156.773617</ele>
        <time>2022-12-30T15:13:43.352Z</time>
      </trkpt>
      <trkpt lat="43.9453" lon="1.25367">
        <ele>156.772748</ele>
        <time>2022-12-30T15:13:46.357Z</time>
      </trkpt>
      <trkpt lat="43.94519" lon="1.25368">
        <ele>156.771884</ele>
        <time>2022-12-30T15:13:49.332Z</time>
      </trkpt>
      <trkpt lat="43.94507" lon="1.2537">
        <ele>156.770998</ele>
        <time>2022-12-30T15:13:52.339Z</time>
      </trkpt>
      <trkpt lat="43.94495" lon="1.25372">
        <ele>156.770118</ele>
        <time>2022-12-30T15:13:55.345Z</time>
      </trkpt>
      <trkpt lat="43.94483" lon="1.25372">
        <ele>156.769272</ele>
        <time>2022-12-30T15:13:58.339Z</time>
      </trkpt>
      <trkpt lat="43.94471" lon="1.25372">
        <ele>156.768383</ele>
        <time>2022-12-30T15:14:01.336Z</time>
      </trkpt>
      <trkpt lat="43.94459" lon="1.25373">
        <ele>156.767471</ele>
        <time>2022-12-30T15:14:04.356Z</time>
      </trkpt>
      <trkpt lat="43.94447" lon="1.25373">
        <ele>156.766567</ele>
        <time>2022-12-30T15:14:07.359Z</time>
      </trkpt>
      <trkpt lat="43.94435" lon="1.25373">
        <ele>156.765685</ele>
        <time>2022-12-30T15:14:10.342Z</time>
      </trkpt>
      <trkpt lat="43.94423" lon="1.25372">
        <ele>156.763947</ele>
        <time>2022-12-30T15:14:13.360Z</time>
      </trkpt>
      <trkpt lat="43.94411" lon="1.25371">
        <ele>156.712866</ele>
        <time>2022-12-30T15:14:16.332Z</time>
      </trkpt>
      <trkpt lat="43.94399" lon="1.25368">
        <ele>156.658951</ele>
        <time>2022-12-30T15:14:19.347Z</time>
      </trkpt>
      <trkpt lat="43.94387" lon="1.25366">
        <ele>156.608272</ele>
        <time>2022-12-30T15:14:22.361Z</time>
      </trkpt>
      <trkpt lat="43.94376" lon="1.25365">
        <ele>156.560249</ele>
        <time>2022-12-30T15:14:25.359Z</time>
      </trkpt>
      <trkpt lat="43.94365" lon="1.25362">
        <ele>156.509896</ele>
        <time>2022-12-30T15:14:28.333Z</time>
      </trkpt>
      <trkpt lat="43.94353" lon="1.2536">
        <ele>156.457554</ele>
        <time>2022-12-30T15:14:31.362Z</time>
      </trkpt>
      <trkpt lat="43.94341" lon="1.25357">
        <ele>156.406448</ele>
        <time>2022-12-30T15:14:34.361Z</time>
      </trkpt>
      <trkpt lat="43.94328" lon="1.25355">
        <ele>156.350765</ele>
        <time>2022-12-30T15:14:37.347Z</time>
      </trkpt>
      <trkpt lat="43.94315" lon="1.25353">
        <ele>156.294187</ele>
        <time>2022-12-30T15:14:40.356Z</time>
      </trkpt>
      <trkpt lat="43.94302" lon="1.2535">
        <ele>156.236244</ele>
        <time>2022-12-30T15:14:43.352Z</time>
      </trkpt>
      <trkpt lat="43.94289" lon="1.25348">
        <ele>156.181097</ele>
        <time>2022-12-30T15:14:46.338Z</time>
      </trkpt>
      <trkpt lat="43.94277" lon="1.25346">
        <ele>156.128096</ele>
        <time>2022-12-30T15:14:49.351Z</time>
      </trkpt>
      <trkpt lat="43.94265" lon="1.25345">
        <ele>156.07565</ele>
        <time>2022-12-30T15:14:52.344Z</time>
      </trkpt>
      <trkpt lat="43.94252" lon="1.25343">
        <ele>156.018643</ele>
        <time>2022-12-30T15:14:55.339Z</time>
      </trkpt>
      <trkpt lat="43.94243" lon="1.25341">
        <ele>155.953408</ele>
        <time>2022-12-30T15:14:57.345Z</time>
      </trkpt>
      <trkpt lat="43.94232" lon="1.25339">
        <ele>155.786547</ele>
        <time>2022-12-30T15:14:59.359Z</time>
      </trkpt>
      <trkpt lat="43.94222" lon="1.25336">
        <ele>155.621911</ele>
        <time>2022-12-30T15:15:01.338Z</time>
      </trkpt>
      <trkpt lat="43.94213" lon="1.25333">
        <ele>155.471647</ele>
        <time>2022-12-30T15:15:03.361Z</time>
      </trkpt>
      <trkpt lat="43.94203" lon="1.25331">
        <ele>155.311773</ele>
        <time>2022-12-30T15:15:05.343Z</time>
      </trkpt>
      <trkpt lat="43.94192" lon="1.25328">
        <ele>155.144046</ele>
        <time>2022-12-30T15:15:07.361Z</time>
      </trkpt>
      <trkpt lat="43.94178" lon="1.25326">
        <ele>154.923004</ele>
        <time>2022-12-30T15:15:10.351Z</time>
      </trkpt>
      <trkpt lat="43.94169" lon="1.25324">
        <ele>154.772027</ele>
        <time>2022-12-30T15:15:12.367Z</time>
      </trkpt>
      <trkpt lat="43.94158" lon="1.25322">
        <ele>154.604177</ele>
        <time>2022-12-30T15:15:14.340Z</time>
      </trkpt>
      <trkpt lat="43.94146" lon="1.25319">
        <ele>154.405226</ele>
        <time>2022-12-30T15:15:17.356Z</time>
      </trkpt>
      <trkpt lat="43.94132" lon="1.25316">
        <ele>154.189854</ele>
        <time>2022-12-30T15:15:20.345Z</time>
      </trkpt>
      <trkpt lat="43.94123" lon="1.25314">
        <ele>154.036569</ele>
        <time>2022-12-30T15:15:22.339Z</time>
      </trkpt>
      <trkpt lat="43.94114" lon="1.25311">
        <ele>153.889632</ele>
        <time>2022-12-30T15:15:24.350Z</time>
      </trkpt>
      <trkpt lat="43.94102" lon="1.25308">
        <ele>153.699046</ele>
        <time>2022-12-30T15:15:27.338Z</time>
      </trkpt>
      <trkpt lat="43.9409" lon="1.25306">
        <ele>153.513683</ele>
        <time>2022-12-30T15:15:30.363Z</time>
      </trkpt>
      <trkpt lat="43.94077" lon="1.25303">
        <ele>153.305591</ele>
        <time>2022-12-30T15:15:33.347Z</time>
      </trkpt>
      <trkpt lat="43.94063" lon="1.25301">
        <ele>153.18579</ele>
        <time>2022-12-30T15:15:36.334Z</time>
      </trkpt>
      <trkpt lat="43.94054" lon="1.25301">
        <ele>153.272998</ele>
        <time>2022-12-30T15:15:38.345Z</time>
      </trkpt>
      <trkpt lat="43.94042" lon="1.25299">
        <ele>153.391122</ele>
        <time>2022-12-30T15:15:41.334Z</time>
      </trkpt>
      <trkpt lat="43.9403" lon="1.25297">
        <ele>153.509161</ele>
        <time>2022-12-30T15:15:44.344Z</time>
      </trkpt>
      <trkpt lat="43.94021" lon="1.25295">
        <ele>153.597147</ele>
        <time>2022-12-30T15:15:46.352Z</time>
      </trkpt>
      <trkpt lat="43.94008" lon="1.25294">
        <ele>153.721377</ele>
        <time>2022-12-30T15:15:49.339Z</time>
      </trkpt>
      <trkpt lat="43.93995" lon="1.25291">
        <ele>153.851484</ele>
        <time>2022-12-30T15:15:52.335Z</time>
      </trkpt>
      <trkpt lat="43.93986" lon="1.25291">
        <ele>153.938767</ele>
        <time>2022-12-30T15:15:54.358Z</time>
      </trkpt>
      <trkpt lat="43.93977" lon="1.25289">
        <ele>154.031646</ele>
        <time>2022-12-30T15:15:56.330Z</time>
      </trkpt>
      <trkpt lat="43.93965" lon="1.25288">
        <ele>154.142157</ele>
        <time>2022-12-30T15:15:58.349Z</time>
      </trkpt>
      <trkpt lat="43.93952" lon="1.25289">
        <ele>154.269125</ele>
        <time>2022-12-30T15:16:01.359Z</time>
      </trkpt>
      <trkpt lat="43.93943" lon="1.25288">
        <ele>154.359386</ele>
        <time>2022-12-30T15:16:03.339Z</time>
      </trkpt>
      <trkpt lat="43.93934" lon="1.25288">
        <ele>154.448518</ele>
        <time>2022-12-30T15:16:05.361Z</time>
      </trkpt>
      <trkpt lat="43.93919" lon="1.25289">
        <ele>154.594897</ele>
        <time>2022-12-30T15:16:08.363Z</time>
      </trkpt>
      <trkpt lat="43.93908" lon="1.25287">
        <ele>154.694589</ele>
        <time>2022-12-30T15:16:10.364Z</time>
      </trkpt>
      <trkpt lat="43.93894" lon="1.25287">
        <ele>154.834125</ele>
        <time>2022-12-30T15:16:13.345Z</time>
      </trkpt>
      <trkpt lat="43.93884" lon="1.25287">
        <ele>154.941075</ele>
        <time>2022-12-30T15:16:15.335Z</time>
      </trkpt>
      <trkpt lat="43.93875" lon="1.25288">
        <ele>155.045412</ele>
        <time>2022-12-30T15:16:17.357Z</time>
      </trkpt>
      <trkpt lat="43.93861" lon="1.25288">
        <ele>155.208134</ele>
        <time>2022-12-30T15:16:20.346Z</time>
      </trkpt>
      <trkpt lat="43.93848" lon="1.25289">
        <ele>155.357333</ele>
        <time>2022-12-30T15:16:23.350Z</time>
      </trkpt>
      <trkpt lat="43.93836" lon="1.25291">
        <ele>155.499302</ele>
        <time>2022-12-30T15:16:26.340Z</time>
      </trkpt>
      <trkpt lat="43.93823" lon="1.25294">
        <ele>155.644847</ele>
        <time>2022-12-30T15:16:29.353Z</time>
      </trkpt>
      <trkpt lat="43.93814" lon="1.25297">
        <ele>155.751657</ele>
        <time>2022-12-30T15:16:31.354Z</time>
      </trkpt>
      <trkpt lat="43.93805" lon="1.253">
        <ele>155.863237</ele>
        <time>2022-12-30T15:16:33.342Z</time>
      </trkpt>
      <trkpt lat="43.93794" lon="1.25304">
        <ele>155.989781</ele>
        <time>2022-12-30T15:16:35.355Z</time>
      </trkpt>
      <trkpt lat="43.93781" lon="1.25306">
        <ele>156.138619</ele>
        <time>2022-12-30T15:16:38.347Z</time>
      </trkpt>
      <trkpt lat="43.93769" lon="1.25308">
        <ele>156.281733</ele>
        <time>2022-12-30T15:16:41.361Z</time>
      </trkpt>
      <trkpt lat="43.93757" lon="1.25311">
        <ele>156.427278</ele>
        <time>2022-12-30T15:16:44.356Z</time>
      </trkpt>
      <trkpt lat="43.93745" lon="1.25314">
        <ele>156.567433</ele>
        <time>2022-12-30T15:16:47.337Z</time>
      </trkpt>
      <trkpt lat="43.93732" lon="1.25317">
        <ele>156.714752</ele>
        <time>2022-12-30T15:16:50.345Z</time>
      </trkpt>
      <trkpt lat="43.93719" lon="1.25321">
        <ele>156.870151</ele>
        <time>2022-12-30T15:16:53.341Z</time>
      </trkpt>
      <trkpt lat="43.93705" lon="1.25325">
        <ele>156.912797</ele>
        <time>2022-12-30T15:16:56.345Z</time>
      </trkpt>
      <trkpt lat="43.93694" lon="1.25328">
        <ele>156.802166</ele>
        <time>2022-12-30T15:16:59.355Z</time>
      </trkpt>
      <trkpt lat="43.93682" lon="1.25332">
        <ele>156.674744</ele>
        <time>2022-12-30T15:17:02.338Z</time>
      </trkpt>
      <trkpt lat="43.93672" lon="1.25336">
        <ele>156.578967</ele>
        <time>2022-12-30T15:17:04.336Z</time>
      </trkpt>
      <trkpt lat="43.93663" lon="1.25339">
        <ele>156.486033</ele>
        <time>2022-12-30T15:17:06.344Z</time>
      </trkpt>
      <trkpt lat="43.93651" lon="1.25344">
        <ele>156.35914</ele>
        <time>2022-12-30T15:17:09.340Z</time>
      </trkpt>
      <trkpt lat="43.93637" lon="1.25347">
        <ele>156.227</ele>
        <time>2022-12-30T15:17:12.339Z</time>
      </trkpt>
      <trkpt lat="43.93625" lon="1.25352">
        <ele>156.105996</ele>
        <time>2022-12-30T15:17:15.332Z</time>
      </trkpt>
      <trkpt lat="43.93615" lon="1.25356">
        <ele>156.000994</ele>
        <time>2022-12-30T15:17:18.342Z</time>
      </trkpt>
      <trkpt lat="43.93605" lon="1.25359">
        <ele>155.902993</ele>
        <time>2022-12-30T15:17:21.344Z</time>
      </trkpt>
      <trkpt lat="43.93595" lon="1.25363">
        <ele>155.796688</ele>
        <time>2022-12-30T15:17:24.351Z</time>
      </trkpt>
      <trkpt lat="43.93583" lon="1.25368">
        <ele>155.677957</ele>
        <time>2022-12-30T15:17:27.376Z</time>
      </trkpt>
      <trkpt lat="43.93572" lon="1.25374">
        <ele>155.558863</ele>
        <time>2022-12-30T15:17:30.334Z</time>
      </trkpt>
      <trkpt lat="43.93561" lon="1.2538">
        <ele>155.447064</ele>
        <time>2022-12-30T15:17:33.346Z</time>
      </trkpt>
      <trkpt lat="43.93549" lon="1.25385">
        <ele>155.321716</ele>
        <time>2022-12-30T15:17:36.342Z</time>
      </trkpt>
      <trkpt lat="43.93536" lon="1.25389">
        <ele>155.204827</ele>
        <time>2022-12-30T15:17:39.342Z</time>
      </trkpt>
      <trkpt lat="43.93524" lon="1.25393">
        <ele>155.181371</ele>
        <time>2022-12-30T15:17:42.375Z</time>
      </trkpt>
      <trkpt lat="43.93512" lon="1.25397">
        <ele>155.159421</ele>
        <time>2022-12-30T15:17:45.335Z</time>
      </trkpt>
      <trkpt lat="43.93502" lon="1.25402">
        <ele>155.139429</ele>
        <time>2022-12-30T15:17:48.332Z</time>
      </trkpt>
      <trkpt lat="43.93493" lon="1.25406">
        <ele>155.122333</ele>
        <time>2022-12-30T15:17:50.335Z</time>
      </trkpt>
      <trkpt lat="43.93484" lon="1.25409">
        <ele>155.105238</ele>
        <time>2022-12-30T15:17:52.336Z</time>
      </trkpt>
      <trkpt lat="43.93471" lon="1.25414">
        <ele>155.080873</ele>
        <time>2022-12-30T15:17:55.342Z</time>
      </trkpt>
      <trkpt lat="43.9346" lon="1.25418">
        <ele>155.059748</ele>
        <time>2022-12-30T15:17:58.345Z</time>
      </trkpt>
      <trkpt lat="43.93449" lon="1.25422">
        <ele>155.03911</ele>
        <time>2022-12-30T15:18:01.345Z</time>
      </trkpt>
      <trkpt lat="43.93438" lon="1.25429">
        <ele>155.016432</ele>
        <time>2022-12-30T15:18:04.333Z</time>
      </trkpt>
      <trkpt lat="43.93428" lon="1.25433">
        <ele>154.996361</ele>
        <time>2022-12-30T15:18:07.350Z</time>
      </trkpt>
      <trkpt lat="43.93418" lon="1.25435">
        <ele>154.978498</ele>
        <time>2022-12-30T15:18:11.334Z</time>
      </trkpt>
      <trkpt lat="43.93409" lon="1.25437">
        <ele>154.961501</ele>
        <time>2022-12-30T15:18:14.342Z</time>
      </trkpt>
      <trkpt lat="43.93399" lon="1.2544">
        <ele>154.942524</ele>
        <time>2022-12-30T15:18:17.349Z</time>
      </trkpt>
      <trkpt lat="43.93388" lon="1.25445">
        <ele>154.921459</ele>
        <time>2022-12-30T15:18:20.354Z</time>
      </trkpt>
      <trkpt lat="43.93375" lon="1.2545">
        <ele>154.897594</ele>
        <time>2022-12-30T15:18:23.342Z</time>
      </trkpt>
      <trkpt lat="43.93364" lon="1.25454">
        <ele>154.876492</ele>
        <time>2022-12-30T15:18:26.353Z</time>
      </trkpt>
      <trkpt lat="43.93353" lon="1.25457">
        <ele>154.838357</ele>
        <time>2022-12-30T15:18:29.360Z</time>
      </trkpt>
      <trkpt lat="43.93344" lon="1.2546">
        <ele>154.808069</ele>
        <time>2022-12-30T15:18:31.359Z</time>
      </trkpt>
      <trkpt lat="43.93331" lon="1.25464">
        <ele>154.765401</ele>
        <time>2022-12-30T15:18:34.354Z</time>
      </trkpt>
      <trkpt lat="43.93318" lon="1.2547">
        <ele>154.721937</ele>
        <time>2022-12-30T15:18:37.331Z</time>
      </trkpt>
      <trkpt lat="43.93306" lon="1.25475">
        <ele>154.679652</ele>
        <time>2022-12-30T15:18:40.344Z</time>
      </trkpt>
      <trkpt lat="43.93293" lon="1.25481">
        <ele>154.636287</ele>
        <time>2022-12-30T15:18:43.359Z</time>
      </trkpt>
      <trkpt lat="43.9328" lon="1.25486">
        <ele>154.591135</ele>
        <time>2022-12-30T15:18:46.342Z</time>
      </trkpt>
      <trkpt lat="43.93271" lon="1.2549">
        <ele>154.560106</ele>
        <time>2022-12-30T15:18:48.358Z</time>
      </trkpt>
      <trkpt lat="43.93262" lon="1.25493">
        <ele>154.529636</ele>
        <time>2022-12-30T15:18:50.348Z</time>
      </trkpt>
      <trkpt lat="43.9325" lon="1.25498">
        <ele>154.487574</ele>
        <time>2022-12-30T15:18:53.355Z</time>
      </trkpt>
      <trkpt lat="43.93237" lon="1.25503">
        <ele>154.445574</ele>
        <time>2022-12-30T15:18:56.340Z</time>
      </trkpt>
      <trkpt lat="43.93224" lon="1.25507">
        <ele>154.401731</ele>
        <time>2022-12-30T15:18:59.334Z</time>
      </trkpt>
      <trkpt lat="43.93215" lon="1.2551">
        <ele>154.37064</ele>
        <time>2022-12-30T15:19:01.352Z</time>
      </trkpt>
      <trkpt lat="43.93203" lon="1.25516">
        <ele>154.328823</ele>
        <time>2022-12-30T15:19:04.333Z</time>
      </trkpt>
      <trkpt lat="43.93194" lon="1.2552">
        <ele>154.298523</ele>
        <time>2022-12-30T15:19:06.338Z</time>
      </trkpt>
      <trkpt lat="43.93182" lon="1.25526">
        <ele>154.286155</ele>
        <time>2022-12-30T15:19:09.351Z</time>
      </trkpt>
      <trkpt lat="43.93169" lon="1.2553">
        <ele>154.284447</ele>
        <time>2022-12-30T15:19:12.366Z</time>
      </trkpt>
      <trkpt lat="43.93157" lon="1.25536">
        <ele>154.282721</ele>
        <time>2022-12-30T15:19:15.361Z</time>
      </trkpt>
      <trkpt lat="43.93144" lon="1.25539">
        <ele>154.281087</ele>
        <time>2022-12-30T15:19:18.351Z</time>
      </trkpt>
      <trkpt lat="43.93133" lon="1.25543">
        <ele>154.279517</ele>
        <time>2022-12-30T15:19:21.351Z</time>
      </trkpt>
      <trkpt lat="43.93122" lon="1.25548">
        <ele>154.277982</ele>
        <time>2022-12-30T15:19:24.352Z</time>
      </trkpt>
      <trkpt lat="43.93112" lon="1.25552">
        <ele>154.2767</ele>
        <time>2022-12-30T15:19:27.340Z</time>
      </trkpt>
      <trkpt lat="43.93101" lon="1.25556">
        <ele>154.275221</ele>
        <time>2022-12-30T15:19:30.357Z</time>
      </trkpt>
      <trkpt lat="43.93091" lon="1.2556">
        <ele>154.27381</ele>
        <time>2022-12-30T15:19:33.349Z</time>
      </trkpt>
      <trkpt lat="43.93079" lon="1.25565">
        <ele>154.272159</ele>
        <time>2022-12-30T15:19:36.360Z</time>
      </trkpt>
      <trkpt lat="43.93068" lon="1.2557">
        <ele>154.270632</ele>
        <time>2022-12-30T15:19:39.361Z</time>
      </trkpt>
      <trkpt lat="43.93057" lon="1.25574">
        <ele>154.269193</ele>
        <time>2022-12-30T15:19:42.350Z</time>
      </trkpt>
      <trkpt lat="43.93048" lon="1.2558">
        <ele>154.26784</ele>
        <time>2022-12-30T15:19:45.337Z</time>
      </trkpt>
      <trkpt lat="43.93038" lon="1.25583">
        <ele>154.266513</ele>
        <time>2022-12-30T15:19:48.360Z</time>
      </trkpt>
      <trkpt lat="43.93028" lon="1.25586">
        <ele>154.265176</ele>
        <time>2022-12-30T15:19:51.339Z</time>
      </trkpt>
      <trkpt lat="43.93017" lon="1.25589">
        <ele>154.263767</ele>
        <time>2022-12-30T15:19:54.346Z</time>
      </trkpt>
      <trkpt lat="43.93006" lon="1.25592">
        <ele>154.261619</ele>
        <time>2022-12-30T15:19:57.361Z</time>
      </trkpt>
      <trkpt lat="43.92995" lon="1.25596">
        <ele>154.259374</ele>
        <time>2022-12-30T15:20:00.338Z</time>
      </trkpt>
      <trkpt lat="43.92983" lon="1.256">
        <ele>154.257101</ele>
        <time>2022-12-30T15:20:03.335Z</time>
      </trkpt>
      <trkpt lat="43.92971" lon="1.25603">
        <ele>154.25475</ele>
        <time>2022-12-30T15:20:06.336Z</time>
      </trkpt>
      <trkpt lat="43.9296" lon="1.25608">
        <ele>154.252704</ele>
        <time>2022-12-30T15:20:09.339Z</time>
      </trkpt>
      <trkpt lat="43.92949" lon="1.25612">
        <ele>154.250476</ele>
        <time>2022-12-30T15:20:12.336Z</time>
      </trkpt>
      <trkpt lat="43.92938" lon="1.25617">
        <ele>154.248271</ele>
        <time>2022-12-30T15:20:15.341Z</time>
      </trkpt>
      <trkpt lat="43.92927" lon="1.25621">
        <ele>154.246106</ele>
        <time>2022-12-30T15:20:18.359Z</time>
      </trkpt>
      <trkpt lat="43.92914" lon="1.25628">
        <ele>154.243571</ele>
        <time>2022-12-30T15:20:21.340Z</time>
      </trkpt>
      <trkpt lat="43.92902" lon="1.25635">
        <ele>154.241146</ele>
        <time>2022-12-30T15:20:24.360Z</time>
      </trkpt>
      <trkpt lat="43.92892" lon="1.2564">
        <ele>154.239132</ele>
        <time>2022-12-30T15:20:27.355Z</time>
      </trkpt>
      <trkpt lat="43.92881" lon="1.25645">
        <ele>154.236966</ele>
        <time>2022-12-30T15:20:30.331Z</time>
      </trkpt>
      <trkpt lat="43.9287" lon="1.25649">
        <ele>154.2348</ele>
        <time>2022-12-30T15:20:33.339Z</time>
      </trkpt>
      <trkpt lat="43.92859" lon="1.25653">
        <ele>154.232658</ele>
        <time>2022-12-30T15:20:36.334Z</time>
      </trkpt>
      <trkpt lat="43.9285" lon="1.25657">
        <ele>154.230936</ele>
        <time>2022-12-30T15:20:38.341Z</time>
      </trkpt>
      <trkpt lat="43.92841" lon="1.25662">
        <ele>154.282883</ele>
        <time>2022-12-30T15:20:40.332Z</time>
      </trkpt>
      <trkpt lat="43.92832" lon="1.25666">
        <ele>154.374503</ele>
        <time>2022-12-30T15:20:42.340Z</time>
      </trkpt>
      <trkpt lat="43.9282" lon="1.25672">
        <ele>154.502705</ele>
        <time>2022-12-30T15:20:45.349Z</time>
      </trkpt>
      <trkpt lat="43.92808" lon="1.25678">
        <ele>154.632751</ele>
        <time>2022-12-30T15:20:48.350Z</time>
      </trkpt>
      <trkpt lat="43.92795" lon="1.25684">
        <ele>154.762652</ele>
        <time>2022-12-30T15:20:51.351Z</time>
      </trkpt>
      <trkpt lat="43.92783" lon="1.25691">
        <ele>154.89415</ele>
        <time>2022-12-30T15:20:54.344Z</time>
      </trkpt>
      <trkpt lat="43.92771" lon="1.25696">
        <ele>155.019039</ele>
        <time>2022-12-30T15:20:57.361Z</time>
      </trkpt>
      <trkpt lat="43.92763" lon="1.25701">
        <ele>155.110349</ele>
        <time>2022-12-30T15:20:59.348Z</time>
      </trkpt>
      <trkpt lat="43.92753" lon="1.25709">
        <ele>155.223648</ele>
        <time>2022-12-30T15:21:02.350Z</time>
      </trkpt>
      <trkpt lat="43.92741" lon="1.25715">
        <ele>155.349333</ele>
        <time>2022-12-30T15:21:05.352Z</time>
      </trkpt>
      <trkpt lat="43.92729" lon="1.25722">
        <ele>155.474895</ele>
        <time>2022-12-30T15:21:08.339Z</time>
      </trkpt>
      <trkpt lat="43.92717" lon="1.25729">
        <ele>155.604848</ele>
        <time>2022-12-30T15:21:11.350Z</time>
      </trkpt>
      <trkpt lat="43.92706" lon="1.25735">
        <ele>155.726928</ele>
        <time>2022-12-30T15:21:14.341Z</time>
      </trkpt>
      <trkpt lat="43.92695" lon="1.25741">
        <ele>155.838017</ele>
        <time>2022-12-30T15:21:17.341Z</time>
      </trkpt>
      <trkpt lat="43.92684" lon="1.25748">
        <ele>155.961685</ele>
        <time>2022-12-30T15:21:20.339Z</time>
      </trkpt>
      <trkpt lat="43.92672" lon="1.25754">
        <ele>156.053295</ele>
        <time>2022-12-30T15:21:23.360Z</time>
      </trkpt>
      <trkpt lat="43.92661" lon="1.25759">
        <ele>156.121312</ele>
        <time>2022-12-30T15:21:26.342Z</time>
      </trkpt>
      <trkpt lat="43.92652" lon="1.25764">
        <ele>156.170938</ele>
        <time>2022-12-30T15:21:28.353Z</time>
      </trkpt>
      <trkpt lat="43.92643" lon="1.25768">
        <ele>156.222646</ele>
        <time>2022-12-30T15:21:30.350Z</time>
      </trkpt>
      <trkpt lat="43.92635" lon="1.25772">
        <ele>156.272559</ele>
        <time>2022-12-30T15:21:32.341Z</time>
      </trkpt>
      <trkpt lat="43.92622" lon="1.25779">
        <ele>156.346858</ele>
        <time>2022-12-30T15:21:35.333Z</time>
      </trkpt>
      <trkpt lat="43.9261" lon="1.25786">
        <ele>156.422097</ele>
        <time>2022-12-30T15:21:38.350Z</time>
      </trkpt>
      <trkpt lat="43.92599" lon="1.25792">
        <ele>156.486497</ele>
        <time>2022-12-30T15:21:41.341Z</time>
      </trkpt>
      <trkpt lat="43.92587" lon="1.25797">
        <ele>156.552824</ele>
        <time>2022-12-30T15:21:44.354Z</time>
      </trkpt>
      <trkpt lat="43.92576" lon="1.25804">
        <ele>156.622425</ele>
        <time>2022-12-30T15:21:47.345Z</time>
      </trkpt>
      <trkpt lat="43.92564" lon="1.2581">
        <ele>156.690056</ele>
        <time>2022-12-30T15:21:50.362Z</time>
      </trkpt>
      <trkpt lat="43.92554" lon="1.25816">
        <ele>156.750431</ele>
        <time>2022-12-30T15:21:53.331Z</time>
      </trkpt>
      <trkpt lat="43.92545" lon="1.25821">
        <ele>156.803827</ele>
        <time>2022-12-30T15:21:56.350Z</time>
      </trkpt>
      <trkpt lat="43.92537" lon="1.25827">
        <ele>156.857575</ele>
        <time>2022-12-30T15:21:59.329Z</time>
      </trkpt>
      <trkpt lat="43.92526" lon="1.25837">
        <ele>156.927142</ele>
        <time>2022-12-30T15:22:02.344Z</time>
      </trkpt>
      <trkpt lat="43.92516" lon="1.25843">
        <ele>156.986851</ele>
        <time>2022-12-30T15:22:05.336Z</time>
      </trkpt>
      <trkpt lat="43.92507" lon="1.25847">
        <ele>156.997863</ele>
        <time>2022-12-30T15:22:08.337Z</time>
      </trkpt>
      <trkpt lat="43.92498" lon="1.2585">
        <ele>156.979528</ele>
        <time>2022-12-30T15:22:12.347Z</time>
      </trkpt>
      <trkpt lat="43.92489" lon="1.25855">
        <ele>156.961071</ele>
        <time>2022-12-30T15:22:16.330Z</time>
      </trkpt>
      <trkpt lat="43.92477" lon="1.25858">
        <ele>156.938402</ele>
        <time>2022-12-30T15:22:20.341Z</time>
      </trkpt>
      <trkpt lat="43.92467" lon="1.25863">
        <ele>156.917748</ele>
        <time>2022-12-30T15:22:23.361Z</time>
      </trkpt>
      <trkpt lat="43.92455" lon="1.25867">
        <ele>156.895659</ele>
        <time>2022-12-30T15:22:26.329Z</time>
      </trkpt>
      <trkpt lat="43.92444" lon="1.2587">
        <ele>156.872946</ele>
        <time>2022-12-30T15:22:29.338Z</time>
      </trkpt>
      <trkpt lat="43.92432" lon="1.25873">
        <ele>156.849531</ele>
        <time>2022-12-30T15:22:32.333Z</time>
      </trkpt>
      <trkpt lat="43.92419" lon="1.25876">
        <ele>156.82588</ele>
        <time>2022-12-30T15:22:35.339Z</time>
      </trkpt>
      <trkpt lat="43.92406" lon="1.25877">
        <ele>156.801293</ele>
        <time>2022-12-30T15:22:38.342Z</time>
      </trkpt>
      <trkpt lat="43.92394" lon="1.25879">
        <ele>156.778095</ele>
        <time>2022-12-30T15:22:41.338Z</time>
      </trkpt>
      <trkpt lat="43.92385" lon="1.25881">
        <ele>156.760879</ele>
        <time>2022-12-30T15:22:43.346Z</time>
      </trkpt>
      <trkpt lat="43.92376" lon="1.25881">
        <ele>156.742984</ele>
        <time>2022-12-30T15:22:45.359Z</time>
      </trkpt>
      <trkpt lat="43.92367" lon="1.25881">
        <ele>156.725297</ele>
        <time>2022-12-30T15:22:47.336Z</time>
      </trkpt>
      <trkpt lat="43.92356" lon="1.25879">
        <ele>156.705798</ele>
        <time>2022-12-30T15:22:49.363Z</time>
      </trkpt>
      <trkpt lat="43.92347" lon="1.25878">
        <ele>156.688066</ele>
        <time>2022-12-30T15:22:51.360Z</time>
      </trkpt>
      <trkpt lat="43.92337" lon="1.25876">
        <ele>156.66936</ele>
        <time>2022-12-30T15:22:53.339Z</time>
      </trkpt>
      <trkpt lat="43.92328" lon="1.25875">
        <ele>156.619828</ele>
        <time>2022-12-30T15:22:55.358Z</time>
      </trkpt>
      <trkpt lat="43.92319" lon="1.25873">
        <ele>156.567097</ele>
        <time>2022-12-30T15:22:57.362Z</time>
      </trkpt>
      <trkpt lat="43.92309" lon="1.25872">
        <ele>156.508403</ele>
        <time>2022-12-30T15:22:59.360Z</time>
      </trkpt>
      <trkpt lat="43.92299" lon="1.2587">
        <ele>156.453281</ele>
        <time>2022-12-30T15:23:01.356Z</time>
      </trkpt>
      <trkpt lat="43.92289" lon="1.25868">
        <ele>156.396829</ele>
        <time>2022-12-30T15:23:03.359Z</time>
      </trkpt>
      <trkpt lat="43.9228" lon="1.25867">
        <ele>156.341516</ele>
        <time>2022-12-30T15:23:05.360Z</time>
      </trkpt>
      <trkpt lat="43.9227" lon="1.25866">
        <ele>156.283354</ele>
        <time>2022-12-30T15:23:07.364Z</time>
      </trkpt>
      <trkpt lat="43.9226" lon="1.25864">
        <ele>156.229548</ele>
        <time>2022-12-30T15:23:09.356Z</time>
      </trkpt>
      <trkpt lat="43.9225" lon="1.25862">
        <ele>156.169385</ele>
        <time>2022-12-30T15:23:11.358Z</time>
      </trkpt>
      <trkpt lat="43.9224" lon="1.25859">
        <ele>156.11382</ele>
        <time>2022-12-30T15:23:13.370Z</time>
      </trkpt>
      <trkpt lat="43.92231" lon="1.25857">
        <ele>156.060069</ele>
        <time>2022-12-30T15:23:15.347Z</time>
      </trkpt>
      <trkpt lat="43.92218" lon="1.25855">
        <ele>155.985433</ele>
        <time>2022-12-30T15:23:18.344Z</time>
      </trkpt>
      <trkpt lat="43.92204" lon="1.25852">
        <ele>155.903981</ele>
        <time>2022-12-30T15:23:21.361Z</time>
      </trkpt>
      <trkpt lat="43.92194" lon="1.25851">
        <ele>155.846916</ele>
        <time>2022-12-30T15:23:23.367Z</time>
      </trkpt>
      <trkpt lat="43.92185" lon="1.25849">
        <ele>155.791794</ele>
        <time>2022-12-30T15:23:25.364Z</time>
      </trkpt>
      <trkpt lat="43.92176" lon="1.25847">
        <ele>155.739283</ele>
        <time>2022-12-30T15:23:27.346Z</time>
      </trkpt>
      <trkpt lat="43.92166" lon="1.25846">
        <ele>155.687006</ele>
        <time>2022-12-30T15:23:29.363Z</time>
      </trkpt>
      <trkpt lat="43.92154" lon="1.25845">
        <ele>155.605033</ele>
        <time>2022-12-30T15:23:32.361Z</time>
      </trkpt>
      <trkpt lat="43.92145" lon="1.25843">
        <ele>155.522347</ele>
        <time>2022-12-30T15:23:34.360Z</time>
      </trkpt>
      <trkpt lat="43.92136" lon="1.25842">
        <ele>155.434375</ele>
        <time>2022-12-30T15:23:36.341Z</time>
      </trkpt>
      <trkpt lat="43.92122" lon="1.25839">
        <ele>155.312354</ele>
        <time>2022-12-30T15:23:39.361Z</time>
      </trkpt>
      <trkpt lat="43.92113" lon="1.25838">
        <ele>155.226637</ele>
        <time>2022-12-30T15:23:41.340Z</time>
      </trkpt>
      <trkpt lat="43.921" lon="1.25835">
        <ele>155.102266</ele>
        <time>2022-12-30T15:23:44.346Z</time>
      </trkpt>
      <trkpt lat="43.9209" lon="1.25834">
        <ele>155.016461</ele>
        <time>2022-12-30T15:23:46.359Z</time>
      </trkpt>
      <trkpt lat="43.92081" lon="1.25832">
        <ele>154.929998</ele>
        <time>2022-12-30T15:23:48.337Z</time>
      </trkpt>
      <trkpt lat="43.92068" lon="1.2583">
        <ele>154.807523</ele>
        <time>2022-12-30T15:23:51.344Z</time>
      </trkpt>
      <trkpt lat="43.92058" lon="1.25828">
        <ele>154.716196</ele>
        <time>2022-12-30T15:23:53.344Z</time>
      </trkpt>
      <trkpt lat="43.92048" lon="1.25826">
        <ele>154.626679</ele>
        <time>2022-12-30T15:23:55.362Z</time>
      </trkpt>
      <trkpt lat="43.92039" lon="1.25823">
        <ele>154.541911</ele>
        <time>2022-12-30T15:23:57.340Z</time>
      </trkpt>
      <trkpt lat="43.9203" lon="1.25822">
        <ele>154.4571</ele>
        <time>2022-12-30T15:23:59.340Z</time>
      </trkpt>
      <trkpt lat="43.92017" lon="1.2582">
        <ele>154.338689</ele>
        <time>2022-12-30T15:24:02.353Z</time>
      </trkpt>
      <trkpt lat="43.92008" lon="1.25819">
        <ele>154.253207</ele>
        <time>2022-12-30T15:24:04.367Z</time>
      </trkpt>
      <trkpt lat="43.91998" lon="1.25817">
        <ele>154.167652</ele>
        <time>2022-12-30T15:24:06.355Z</time>
      </trkpt>
      <trkpt lat="43.91985" lon="1.25815">
        <ele>154.049947</ele>
        <time>2022-12-30T15:24:09.353Z</time>
      </trkpt>
      <trkpt lat="43.91976" lon="1.25813">
        <ele>153.918015</ele>
        <time>2022-12-30T15:24:11.337Z</time>
      </trkpt>
      <trkpt lat="43.91966" lon="1.25812">
        <ele>153.70194</ele>
        <time>2022-12-30T15:24:13.359Z</time>
      </trkpt>
      <trkpt lat="43.91957" lon="1.2581">
        <ele>153.482246</ele>
        <time>2022-12-30T15:24:15.360Z</time>
      </trkpt>
      <trkpt lat="43.91947" lon="1.25808">
        <ele>153.262047</ele>
        <time>2022-12-30T15:24:17.356Z</time>
      </trkpt>
      <trkpt lat="43.91934" lon="1.25806">
        <ele>152.963252</ele>
        <time>2022-12-30T15:24:20.333Z</time>
      </trkpt>
      <trkpt lat="43.91922" lon="1.25803">
        <ele>152.684307</ele>
        <time>2022-12-30T15:24:23.356Z</time>
      </trkpt>
      <trkpt lat="43.91911" lon="1.25802">
        <ele>152.448921</ele>
        <time>2022-12-30T15:24:26.351Z</time>
      </trkpt>
      <trkpt lat="43.91901" lon="1.25801">
        <ele>152.211387</ele>
        <time>2022-12-30T15:24:29.342Z</time>
      </trkpt>
      <trkpt lat="43.9189" lon="1.25799">
        <ele>151.951728</ele>
        <time>2022-12-30T15:24:32.353Z</time>
      </trkpt>
      <trkpt lat="43.91877" lon="1.25797">
        <ele>151.664565</ele>
        <time>2022-12-30T15:24:35.351Z</time>
      </trkpt>
      <trkpt lat="43.91864" lon="1.25794">
        <ele>151.363758</ele>
        <time>2022-12-30T15:24:38.339Z</time>
      </trkpt>
      <trkpt lat="43.91855" lon="1.25792">
        <ele>151.158886</ele>
        <time>2022-12-30T15:24:40.329Z</time>
      </trkpt>
      <trkpt lat="43.91846" lon="1.25791">
        <ele>150.954213</ele>
        <time>2022-12-30T15:24:42.337Z</time>
      </trkpt>
      <trkpt lat="43.91836" lon="1.25789">
        <ele>150.737722</ele>
        <time>2022-12-30T15:24:44.358Z</time>
      </trkpt>
      <trkpt lat="43.91827" lon="1.25787">
        <ele>150.527707</ele>
        <time>2022-12-30T15:24:46.335Z</time>
      </trkpt>
      <trkpt lat="43.91818" lon="1.25786">
        <ele>150.320793</ele>
        <time>2022-12-30T15:24:48.342Z</time>
      </trkpt>
      <trkpt lat="43.91809" lon="1.25783">
        <ele>150.104053</ele>
        <time>2022-12-30T15:24:50.335Z</time>
      </trkpt>
      <trkpt lat="43.918" lon="1.25782">
        <ele>149.947181</ele>
        <time>2022-12-30T15:24:52.362Z</time>
      </trkpt>
      <trkpt lat="43.91789" lon="1.2578">
        <ele>150.062092</ele>
        <time>2022-12-30T15:24:54.344Z</time>
      </trkpt>
      <trkpt lat="43.91779" lon="1.25778">
        <ele>150.179532</ele>
        <time>2022-12-30T15:24:56.344Z</time>
      </trkpt>
      <trkpt lat="43.91769" lon="1.25777">
        <ele>150.295217</ele>
        <time>2022-12-30T15:24:58.414Z</time>
      </trkpt>
      <trkpt lat="43.91759" lon="1.25776">
        <ele>150.408477</ele>
        <time>2022-12-30T15:25:00.348Z</time>
      </trkpt>
      <trkpt lat="43.91748" lon="1.25773">
        <ele>150.528361</ele>
        <time>2022-12-30T15:25:02.364Z</time>
      </trkpt>
      <trkpt lat="43.91738" lon="1.25772">
        <ele>150.64015</ele>
        <time>2022-12-30T15:25:04.365Z</time>
      </trkpt>
      <trkpt lat="43.91728" lon="1.2577">
        <ele>150.752355</ele>
        <time>2022-12-30T15:25:06.345Z</time>
      </trkpt>
      <trkpt lat="43.91718" lon="1.25769">
        <ele>150.862398</ele>
        <time>2022-12-30T15:25:08.346Z</time>
      </trkpt>
      <trkpt lat="43.91706" lon="1.25767">
        <ele>151.005365</ele>
        <time>2022-12-30T15:25:11.339Z</time>
      </trkpt>
      <trkpt lat="43.91692" lon="1.25766">
        <ele>151.154558</ele>
        <time>2022-12-30T15:25:14.341Z</time>
      </trkpt>
      <trkpt lat="43.91679" lon="1.25766">
        <ele>151.298907</ele>
        <time>2022-12-30T15:25:17.358Z</time>
      </trkpt>
      <trkpt lat="43.91666" lon="1.25766">
        <ele>151.447693</ele>
        <time>2022-12-30T15:25:20.346Z</time>
      </trkpt>
      <trkpt lat="43.91653" lon="1.25766">
        <ele>151.595361</ele>
        <time>2022-12-30T15:25:23.361Z</time>
      </trkpt>
      <trkpt lat="43.91643" lon="1.25767">
        <ele>151.700754</ele>
        <time>2022-12-30T15:25:25.338Z</time>
      </trkpt>
      <trkpt lat="43.91634" lon="1.25768">
        <ele>151.810517</ele>
        <time>2022-12-30T15:25:27.332Z</time>
      </trkpt>
      <trkpt lat="43.91624" lon="1.25769">
        <ele>151.917294</ele>
        <time>2022-12-30T15:25:29.347Z</time>
      </trkpt>
      <trkpt lat="43.91614" lon="1.2577">
        <ele>152.003424</ele>
        <time>2022-12-30T15:25:31.350Z</time>
      </trkpt>
      <trkpt lat="43.91604" lon="1.25772">
        <ele>152.086241</ele>
        <time>2022-12-30T15:25:33.360Z</time>
      </trkpt>
      <trkpt lat="43.91594" lon="1.25774">
        <ele>152.167603</ele>
        <time>2022-12-30T15:25:35.365Z</time>
      </trkpt>
      <trkpt lat="43.91584" lon="1.25776">
        <ele>152.24606</ele>
        <time>2022-12-30T15:25:37.336Z</time>
      </trkpt>
      <trkpt lat="43.91575" lon="1.25779">
        <ele>152.322719</ele>
        <time>2022-12-30T15:25:39.343Z</time>
      </trkpt>
      <trkpt lat="43.91565" lon="1.25782">
        <ele>152.400968</ele>
        <time>2022-12-30T15:25:41.351Z</time>
      </trkpt>
      <trkpt lat="43.91555" lon="1.25785">
        <ele>152.479442</ele>
        <time>2022-12-30T15:25:43.359Z</time>
      </trkpt>
      <trkpt lat="43.91546" lon="1.25787">
        <ele>152.554472</ele>
        <time>2022-12-30T15:25:45.354Z</time>
      </trkpt>
      <trkpt lat="43.91536" lon="1.25791">
        <ele>152.634197</ele>
        <time>2022-12-30T15:25:47.354Z</time>
      </trkpt>
      <trkpt lat="43.91523" lon="1.25797">
        <ele>152.739994</ele>
        <time>2022-12-30T15:25:50.345Z</time>
      </trkpt>
      <trkpt lat="43.91511" lon="1.25802">
        <ele>152.843517</ele>
        <time>2022-12-30T15:25:53.360Z</time>
      </trkpt>
      <trkpt lat="43.915" lon="1.25808">
        <ele>152.939884</ele>
        <time>2022-12-30T15:25:56.356Z</time>
      </trkpt>
      <trkpt lat="43.91488" lon="1.25812">
        <ele>153.031317</ele>
        <time>2022-12-30T15:25:59.345Z</time>
      </trkpt>
      <trkpt lat="43.91478" lon="1.25817">
        <ele>153.121388</ele>
        <time>2022-12-30T15:26:02.359Z</time>
      </trkpt>
      <trkpt lat="43.91467" lon="1.25823">
        <ele>153.209951</ele>
        <time>2022-12-30T15:26:05.338Z</time>
      </trkpt>
      <trkpt lat="43.91455" lon="1.25829">
        <ele>153.308743</ele>
        <time>2022-12-30T15:26:08.328Z</time>
      </trkpt>
      <trkpt lat="43.91443" lon="1.25835">
        <ele>153.423401</ele>
        <time>2022-12-30T15:26:11.340Z</time>
      </trkpt>
      <trkpt lat="43.91431" lon="1.25842">
        <ele>153.549375</ele>
        <time>2022-12-30T15:26:14.356Z</time>
      </trkpt>
      <trkpt lat="43.91419" lon="1.25848">
        <ele>153.678514</ele>
        <time>2022-12-30T15:26:17.339Z</time>
      </trkpt>
      <trkpt lat="43.91406" lon="1.25854">
        <ele>153.807015</ele>
        <time>2022-12-30T15:26:20.332Z</time>
      </trkpt>
      <trkpt lat="43.91397" lon="1.25858">
        <ele>153.898252</ele>
        <time>2022-12-30T15:26:22.332Z</time>
      </trkpt>
      <trkpt lat="43.91385" lon="1.25864">
        <ele>154.025331</ele>
        <time>2022-12-30T15:26:25.354Z</time>
      </trkpt>
      <trkpt lat="43.91376" lon="1.25869">
        <ele>154.116412</ele>
        <time>2022-12-30T15:26:27.366Z</time>
      </trkpt>
      <trkpt lat="43.91367" lon="1.25873">
        <ele>154.206944</ele>
        <time>2022-12-30T15:26:29.357Z</time>
      </trkpt>
      <trkpt lat="43.91359" lon="1.25877">
        <ele>154.295449</ele>
        <time>2022-12-30T15:26:31.338Z</time>
      </trkpt>
      <trkpt lat="43.9135" lon="1.25882">
        <ele>154.386931</ele>
        <time>2022-12-30T15:26:33.330Z</time>
      </trkpt>
      <trkpt lat="43.91339" lon="1.25887">
        <ele>154.503198</ele>
        <time>2022-12-30T15:26:36.328Z</time>
      </trkpt>
      <trkpt lat="43.91328" lon="1.25893">
        <ele>154.615858</ele>
        <time>2022-12-30T15:26:39.357Z</time>
      </trkpt>
      <trkpt lat="43.91317" lon="1.25898">
        <ele>154.724316</ele>
        <time>2022-12-30T15:26:42.336Z</time>
      </trkpt>
      <trkpt lat="43.91307" lon="1.25904">
        <ele>154.834657</ele>
        <time>2022-12-30T15:26:45.359Z</time>
      </trkpt>
      <trkpt lat="43.91295" lon="1.25909">
        <ele>154.954686</ele>
        <time>2022-12-30T15:26:48.336Z</time>
      </trkpt>
      <trkpt lat="43.91283" lon="1.25915">
        <ele>155.080607</ele>
        <time>2022-12-30T15:26:51.343Z</time>
      </trkpt>
      <trkpt lat="43.9127" lon="1.25922">
        <ele>154.955374</ele>
        <time>2022-12-30T15:26:54.336Z</time>
      </trkpt>
      <trkpt lat="43.91261" lon="1.25925">
        <ele>154.790663</ele>
        <time>2022-12-30T15:26:56.344Z</time>
      </trkpt>
      <trkpt lat="43.91252" lon="1.2593">
        <ele>154.63521</ele>
        <time>2022-12-30T15:26:58.361Z</time>
      </trkpt>
      <trkpt lat="43.9124" lon="1.25936">
        <ele>154.420299</ele>
        <time>2022-12-30T15:27:01.359Z</time>
      </trkpt>
      <trkpt lat="43.91228" lon="1.25941">
        <ele>154.210542</ele>
        <time>2022-12-30T15:27:04.333Z</time>
      </trkpt>
      <trkpt lat="43.91216" lon="1.25948">
        <ele>153.993393</ele>
        <time>2022-12-30T15:27:07.342Z</time>
      </trkpt>
      <trkpt lat="43.91204" lon="1.25954">
        <ele>153.774514</ele>
        <time>2022-12-30T15:27:10.337Z</time>
      </trkpt>
      <trkpt lat="43.91192" lon="1.25961">
        <ele>153.552887</ele>
        <time>2022-12-30T15:27:13.337Z</time>
      </trkpt>
      <trkpt lat="43.9118" lon="1.25969">
        <ele>153.339054</ele>
        <time>2022-12-30T15:27:16.360Z</time>
      </trkpt>
      <trkpt lat="43.91169" lon="1.25975">
        <ele>153.138427</ele>
        <time>2022-12-30T15:27:19.352Z</time>
      </trkpt>
      <trkpt lat="43.9116" lon="1.25981">
        <ele>152.969775</ele>
        <time>2022-12-30T15:27:22.335Z</time>
      </trkpt>
      <trkpt lat="43.91152" lon="1.25988">
        <ele>152.810445</ele>
        <time>2022-12-30T15:27:25.335Z</time>
      </trkpt>
      <trkpt lat="43.91144" lon="1.25997">
        <ele>152.638502</ele>
        <time>2022-12-30T15:27:29.334Z</time>
      </trkpt>
      <trkpt lat="43.91133" lon="1.25995">
        <ele>152.452817</ele>
        <time>2022-12-30T15:27:33.339Z</time>
      </trkpt>
      <trkpt lat="43.91124" lon="1.25997">
        <ele>152.294821</ele>
        <time>2022-12-30T15:27:36.342Z</time>
      </trkpt>
      <trkpt lat="43.91114" lon="1.26002">
        <ele>152.113214</ele>
        <time>2022-12-30T15:27:39.336Z</time>
      </trkpt>
      <trkpt lat="43.91103" lon="1.26008">
        <ele>152.172861</ele>
        <time>2022-12-30T15:27:42.349Z</time>
      </trkpt>
      <trkpt lat="43.91092" lon="1.26015">
        <ele>152.260835</ele>
        <time>2022-12-30T15:27:45.358Z</time>
      </trkpt>
      <trkpt lat="43.91081" lon="1.2602">
        <ele>152.346129</ele>
        <time>2022-12-30T15:27:48.341Z</time>
      </trkpt>
      <trkpt lat="43.91069" lon="1.26026">
        <ele>152.438159</ele>
        <time>2022-12-30T15:27:51.338Z</time>
      </trkpt>
      <trkpt lat="43.91057" lon="1.26032">
        <ele>152.525288</ele>
        <time>2022-12-30T15:27:54.339Z</time>
      </trkpt>
      <trkpt lat="43.91046" lon="1.26038">
        <ele>152.611814</ele>
        <time>2022-12-30T15:27:57.358Z</time>
      </trkpt>
      <trkpt lat="43.91034" lon="1.26044">
        <ele>152.701817</ele>
        <time>2022-12-30T15:28:00.356Z</time>
      </trkpt>
      <trkpt lat="43.91022" lon="1.2605">
        <ele>152.794708</ele>
        <time>2022-12-30T15:28:03.348Z</time>
      </trkpt>
      <trkpt lat="43.91011" lon="1.26056">
        <ele>152.874945</ele>
        <time>2022-12-30T15:28:06.345Z</time>
      </trkpt>
      <trkpt lat="43.91" lon="1.26061">
        <ele>152.960727</ele>
        <time>2022-12-30T15:28:09.371Z</time>
      </trkpt>
      <trkpt lat="43.90989" lon="1.26069">
        <ele>153.050416</ele>
        <time>2022-12-30T15:28:12.333Z</time>
      </trkpt>
      <trkpt lat="43.90979" lon="1.26072">
        <ele>153.127559</ele>
        <time>2022-12-30T15:28:15.334Z</time>
      </trkpt>
      <trkpt lat="43.90969" lon="1.26077">
        <ele>153.201321</ele>
        <time>2022-12-30T15:28:18.335Z</time>
      </trkpt>
      <trkpt lat="43.90959" lon="1.26082">
        <ele>153.277098</ele>
        <time>2022-12-30T15:28:21.335Z</time>
      </trkpt>
      <trkpt lat="43.90949" lon="1.26087">
        <ele>153.352015</ele>
        <time>2022-12-30T15:28:24.349Z</time>
      </trkpt>
      <trkpt lat="43.90939" lon="1.26093">
        <ele>153.363009</ele>
        <time>2022-12-30T15:28:27.334Z</time>
      </trkpt>
      <trkpt lat="43.90928" lon="1.26099">
        <ele>153.308224</ele>
        <time>2022-12-30T15:28:30.347Z</time>
      </trkpt>
      <trkpt lat="43.90916" lon="1.26105">
        <ele>153.250726</ele>
        <time>2022-12-30T15:28:33.359Z</time>
      </trkpt>
      <trkpt lat="43.90906" lon="1.26111">
        <ele>153.196787</ele>
        <time>2022-12-30T15:28:36.327Z</time>
      </trkpt>
      <trkpt lat="43.90895" lon="1.26118">
        <ele>153.142129</ele>
        <time>2022-12-30T15:28:39.334Z</time>
      </trkpt>
      <trkpt lat="43.90884" lon="1.26124">
        <ele>153.086793</ele>
        <time>2022-12-30T15:28:42.338Z</time>
      </trkpt>
      <trkpt lat="43.90872" lon="1.2613">
        <ele>153.02907</ele>
        <time>2022-12-30T15:28:45.335Z</time>
      </trkpt>
      <trkpt lat="43.90859" lon="1.26136">
        <ele>152.966039</ele>
        <time>2022-12-30T15:28:48.350Z</time>
      </trkpt>
      <trkpt lat="43.90847" lon="1.26142">
        <ele>152.907321</ele>
        <time>2022-12-30T15:28:51.335Z</time>
      </trkpt>
      <trkpt lat="43.90837" lon="1.26146">
        <ele>152.860238</ele>
        <time>2022-12-30T15:28:54.354Z</time>
      </trkpt>
      <trkpt lat="43.90827" lon="1.26151">
        <ele>152.814565</ele>
        <time>2022-12-30T15:28:57.345Z</time>
      </trkpt>
      <trkpt lat="43.90816" lon="1.26157">
        <ele>152.759302</ele>
        <time>2022-12-30T15:29:00.354Z</time>
      </trkpt>
      <trkpt lat="43.90805" lon="1.26164">
        <ele>152.702309</ele>
        <time>2022-12-30T15:29:03.359Z</time>
      </trkpt>
      <trkpt lat="43.90793" lon="1.26169">
        <ele>152.644811</ele>
        <time>2022-12-30T15:29:06.342Z</time>
      </trkpt>
      <trkpt lat="43.90782" lon="1.26175">
        <ele>152.589589</ele>
        <time>2022-12-30T15:29:09.337Z</time>
      </trkpt>
      <trkpt lat="43.90769" lon="1.26181">
        <ele>152.627897</ele>
        <time>2022-12-30T15:29:12.332Z</time>
      </trkpt>
      <trkpt lat="43.90757" lon="1.26187">
        <ele>152.750249</ele>
        <time>2022-12-30T15:29:15.332Z</time>
      </trkpt>
      <trkpt lat="43.90745" lon="1.26193">
        <ele>152.86978</ele>
        <time>2022-12-30T15:29:18.338Z</time>
      </trkpt>
      <trkpt lat="43.90732" lon="1.26199">
        <ele>152.988662</ele>
        <time>2022-12-30T15:29:21.340Z</time>
      </trkpt>
      <trkpt lat="43.90724" lon="1.26204">
        <ele>153.071507</ele>
        <time>2022-12-30T15:29:23.354Z</time>
      </trkpt>
      <trkpt lat="43.90711" lon="1.2621">
        <ele>153.196895</ele>
        <time>2022-12-30T15:29:26.343Z</time>
      </trkpt>
      <trkpt lat="43.90699" lon="1.26216">
        <ele>153.319734</ele>
        <time>2022-12-30T15:29:29.343Z</time>
      </trkpt>
      <trkpt lat="43.90687" lon="1.26223">
        <ele>153.439291</ele>
        <time>2022-12-30T15:29:32.334Z</time>
      </trkpt>
      <trkpt lat="43.90674" lon="1.2623">
        <ele>153.558623</ele>
        <time>2022-12-30T15:29:35.349Z</time>
      </trkpt>
      <trkpt lat="43.90663" lon="1.26235">
        <ele>153.671872</ele>
        <time>2022-12-30T15:29:38.339Z</time>
      </trkpt>
      <trkpt lat="43.9065" lon="1.2624">
        <ele>153.792117</ele>
        <time>2022-12-30T15:29:41.340Z</time>
      </trkpt>
      <trkpt lat="43.90639" lon="1.26247">
        <ele>153.904215</ele>
        <time>2022-12-30T15:29:44.339Z</time>
      </trkpt>
      <trkpt lat="43.90629" lon="1.26252">
        <ele>154.004439</ele>
        <time>2022-12-30T15:29:47.348Z</time>
      </trkpt>
      <trkpt lat="43.90618" lon="1.26257">
        <ele>154.104026</ele>
        <time>2022-12-30T15:29:50.355Z</time>
      </trkpt>
      <trkpt lat="43.90607" lon="1.26262">
        <ele>154.209194</ele>
        <time>2022-12-30T15:29:53.356Z</time>
      </trkpt>
      <trkpt lat="43.90595" lon="1.26268">
        <ele>154.062462</ele>
        <time>2022-12-30T15:29:56.337Z</time>
      </trkpt>
      <trkpt lat="43.90586" lon="1.26273">
        <ele>153.955622</ele>
        <time>2022-12-30T15:29:58.332Z</time>
      </trkpt>
      <trkpt lat="43.90578" lon="1.26278">
        <ele>153.84506</ele>
        <time>2022-12-30T15:30:00.342Z</time>
      </trkpt>
      <trkpt lat="43.90569" lon="1.26283">
        <ele>153.738812</ele>
        <time>2022-12-30T15:30:02.339Z</time>
      </trkpt>
      <trkpt lat="43.90557" lon="1.26289">
        <ele>153.589018</ele>
        <time>2022-12-30T15:30:05.359Z</time>
      </trkpt>
      <trkpt lat="43.90545" lon="1.26294">
        <ele>153.435018</ele>
        <time>2022-12-30T15:30:08.360Z</time>
      </trkpt>
      <trkpt lat="43.90533" lon="1.26301">
        <ele>153.280749</ele>
        <time>2022-12-30T15:30:11.337Z</time>
      </trkpt>
      <trkpt lat="43.90524" lon="1.26305">
        <ele>153.174208</ele>
        <time>2022-12-30T15:30:13.354Z</time>
      </trkpt>
      <trkpt lat="43.90515" lon="1.26309">
        <ele>153.066031</ele>
        <time>2022-12-30T15:30:15.339Z</time>
      </trkpt>
      <trkpt lat="43.90504" lon="1.26315">
        <ele>152.923144</ele>
        <time>2022-12-30T15:30:18.340Z</time>
      </trkpt>
      <trkpt lat="43.90493" lon="1.2632">
        <ele>152.787725</ele>
        <time>2022-12-30T15:30:21.355Z</time>
      </trkpt>
      <trkpt lat="43.90483" lon="1.26325">
        <ele>152.66451</ele>
        <time>2022-12-30T15:30:24.338Z</time>
      </trkpt>
      <trkpt lat="43.90474" lon="1.2633">
        <ele>152.546881</ele>
        <time>2022-12-30T15:30:27.360Z</time>
      </trkpt>
      <trkpt lat="43.90464" lon="1.26336">
        <ele>152.416778</ele>
        <time>2022-12-30T15:30:30.340Z</time>
      </trkpt>
      <trkpt lat="43.90452" lon="1.26342">
        <ele>152.270178</ele>
        <time>2022-12-30T15:30:33.347Z</time>
      </trkpt>
      <trkpt lat="43.9044" lon="1.26348">
        <ele>152.123985</ele>
        <time>2022-12-30T15:30:36.344Z</time>
      </trkpt>
      <trkpt lat="43.90431" lon="1.26352">
        <ele>152.055374</ele>
        <time>2022-12-30T15:30:38.351Z</time>
      </trkpt>
      <trkpt lat="43.90422" lon="1.26356">
        <ele>151.99505</ele>
        <time>2022-12-30T15:30:40.340Z</time>
      </trkpt>
      <trkpt lat="43.90414" lon="1.26361">
        <ele>151.936925</ele>
        <time>2022-12-30T15:30:42.364Z</time>
      </trkpt>
      <trkpt lat="43.90402" lon="1.26368">
        <ele>151.853989</ele>
        <time>2022-12-30T15:30:45.338Z</time>
      </trkpt>
      <trkpt lat="43.90393" lon="1.26371">
        <ele>151.793798</ele>
        <time>2022-12-30T15:30:47.354Z</time>
      </trkpt>
      <trkpt lat="43.9038" lon="1.26378">
        <ele>151.710755</ele>
        <time>2022-12-30T15:30:50.340Z</time>
      </trkpt>
      <trkpt lat="43.90368" lon="1.26384">
        <ele>151.630675</ele>
        <time>2022-12-30T15:30:53.361Z</time>
      </trkpt>
      <trkpt lat="43.90357" lon="1.26391">
        <ele>151.550917</ele>
        <time>2022-12-30T15:30:56.349Z</time>
      </trkpt>
      <trkpt lat="43.90345" lon="1.26397">
        <ele>151.46739</ele>
        <time>2022-12-30T15:30:59.336Z</time>
      </trkpt>
      <trkpt lat="43.90333" lon="1.26403">
        <ele>151.39092</ele>
        <time>2022-12-30T15:31:02.345Z</time>
      </trkpt>
      <trkpt lat="43.90322" lon="1.26409">
        <ele>151.316059</ele>
        <time>2022-12-30T15:31:05.349Z</time>
      </trkpt>
      <trkpt lat="43.90311" lon="1.26416">
        <ele>151.235892</ele>
        <time>2022-12-30T15:31:08.359Z</time>
      </trkpt>
      <trkpt lat="43.90299" lon="1.26422">
        <ele>151.155812</ele>
        <time>2022-12-30T15:31:11.347Z</time>
      </trkpt>
      <trkpt lat="43.90286" lon="1.2643">
        <ele>151.071081</ele>
        <time>2022-12-30T15:31:14.358Z</time>
      </trkpt>
      <trkpt lat="43.90274" lon="1.26435">
        <ele>150.987419</ele>
        <time>2022-12-30T15:31:17.347Z</time>
      </trkpt>
      <trkpt lat="43.90265" lon="1.26438">
        <ele>150.977344</ele>
        <time>2022-12-30T15:31:19.339Z</time>
      </trkpt>
      <trkpt lat="43.90256" lon="1.26443">
        <ele>151.00084</ele>
        <time>2022-12-30T15:31:21.368Z</time>
      </trkpt>
      <trkpt lat="43.90244" lon="1.26449">
        <ele>151.034524</ele>
        <time>2022-12-30T15:31:24.336Z</time>
      </trkpt>
      <trkpt lat="43.90234" lon="1.26453">
        <ele>151.060481</ele>
        <time>2022-12-30T15:31:26.353Z</time>
      </trkpt>
      <trkpt lat="43.90221" lon="1.26459">
        <ele>151.096051</ele>
        <time>2022-12-30T15:31:29.360Z</time>
      </trkpt>
      <trkpt lat="43.90213" lon="1.26464">
        <ele>151.119885</ele>
        <time>2022-12-30T15:31:31.347Z</time>
      </trkpt>
      <trkpt lat="43.90204" lon="1.26469">
        <ele>151.143652</ele>
        <time>2022-12-30T15:31:33.354Z</time>
      </trkpt>
      <trkpt lat="43.90195" lon="1.26473">
        <ele>151.167286</ele>
        <time>2022-12-30T15:31:35.345Z</time>
      </trkpt>
      <trkpt lat="43.90187" lon="1.26477">
        <ele>151.190978</ele>
        <time>2022-12-30T15:31:37.352Z</time>
      </trkpt>
      <trkpt lat="43.90175" lon="1.26483">
        <ele>151.222793</ele>
        <time>2022-12-30T15:31:40.338Z</time>
      </trkpt>
      <trkpt lat="43.90164" lon="1.26488">
        <ele>151.25302</ele>
        <time>2022-12-30T15:31:43.358Z</time>
      </trkpt>
      <trkpt lat="43.90153" lon="1.26493">
        <ele>151.282623</ele>
        <time>2022-12-30T15:31:46.329Z</time>
      </trkpt>
      <trkpt lat="43.90142" lon="1.26499">
        <ele>151.312596</ele>
        <time>2022-12-30T15:31:49.360Z</time>
      </trkpt>
      <trkpt lat="43.90131" lon="1.26505">
        <ele>151.343358</ele>
        <time>2022-12-30T15:31:52.350Z</time>
      </trkpt>
      <trkpt lat="43.9012" lon="1.26511">
        <ele>151.374663</ele>
        <time>2022-12-30T15:31:55.356Z</time>
      </trkpt>
      <trkpt lat="43.9011" lon="1.26517">
        <ele>151.403468</ele>
        <time>2022-12-30T15:31:58.337Z</time>
      </trkpt>
      <trkpt lat="43.90099" lon="1.26521">
        <ele>151.456265</ele>
        <time>2022-12-30T15:32:02.337Z</time>
      </trkpt>
      <trkpt lat="43.9009" lon="1.26525">
        <ele>151.631714</ele>
        <time>2022-12-30T15:32:05.334Z</time>
      </trkpt>
      <trkpt lat="43.90079" lon="1.26529">
        <ele>151.817714</ele>
        <time>2022-12-30T15:32:08.335Z</time>
      </trkpt>
      <trkpt lat="43.90068" lon="1.26534">
        <ele>152.02286</ele>
        <time>2022-12-30T15:32:11.362Z</time>
      </trkpt>
      <trkpt lat="43.90055" lon="1.26541">
        <ele>152.251081</ele>
        <time>2022-12-30T15:32:14.369Z</time>
      </trkpt>
      <trkpt lat="43.90047" lon="1.26546">
        <ele>152.407268</ele>
        <time>2022-12-30T15:32:16.340Z</time>
      </trkpt>
      <trkpt lat="43.90036" lon="1.26552">
        <ele>152.607135</ele>
        <time>2022-12-30T15:32:19.339Z</time>
      </trkpt>
      <trkpt lat="43.90026" lon="1.26558">
        <ele>152.792663</ele>
        <time>2022-12-30T15:32:22.370Z</time>
      </trkpt>
      <trkpt lat="43.90017" lon="1.26562">
        <ele>152.95465</ele>
        <time>2022-12-30T15:32:25.482Z</time>
      </trkpt>
      <trkpt lat="43.90006" lon="1.26567">
        <ele>153.155488</ele>
        <time>2022-12-30T15:32:28.333Z</time>
      </trkpt>
      <trkpt lat="43.89995" lon="1.26573">
        <ele>153.365223</ele>
        <time>2022-12-30T15:32:31.333Z</time>
      </trkpt>
      <trkpt lat="43.89983" lon="1.26579">
        <ele>153.576155</ele>
        <time>2022-12-30T15:32:34.346Z</time>
      </trkpt>
      <trkpt lat="43.89971" lon="1.26585">
        <ele>153.795211</ele>
        <time>2022-12-30T15:32:37.337Z</time>
      </trkpt>
      <trkpt lat="43.89959" lon="1.26591">
        <ele>154.021257</ele>
        <time>2022-12-30T15:32:40.338Z</time>
      </trkpt>
      <trkpt lat="43.8995" lon="1.26596">
        <ele>154.178368</ele>
        <time>2022-12-30T15:32:42.338Z</time>
      </trkpt>
      <trkpt lat="43.89941" lon="1.26601">
        <ele>154.343637</ele>
        <time>2022-12-30T15:32:44.361Z</time>
      </trkpt>
      <trkpt lat="43.89932" lon="1.26605">
        <ele>154.508468</ele>
        <time>2022-12-30T15:32:46.353Z</time>
      </trkpt>
      <trkpt lat="43.89921" lon="1.26611">
        <ele>154.554044</ele>
        <time>2022-12-30T15:32:49.348Z</time>
      </trkpt>
      <trkpt lat="43.89911" lon="1.26617">
        <ele>154.595066</ele>
        <time>2022-12-30T15:32:52.356Z</time>
      </trkpt>
      <trkpt lat="43.899" lon="1.26623">
        <ele>154.641369</ele>
        <time>2022-12-30T15:32:55.332Z</time>
      </trkpt>
      <trkpt lat="43.89887" lon="1.26629">
        <ele>154.689936</ele>
        <time>2022-12-30T15:32:58.351Z</time>
      </trkpt>
      <trkpt lat="43.89876" lon="1.26636">
        <ele>154.738045</ele>
        <time>2022-12-30T15:33:01.351Z</time>
      </trkpt>
      <trkpt lat="43.89864" lon="1.26643">
        <ele>154.787199</ele>
        <time>2022-12-30T15:33:04.337Z</time>
      </trkpt>
      <trkpt lat="43.89851" lon="1.2665">
        <ele>154.836664</ele>
        <time>2022-12-30T15:33:07.338Z</time>
      </trkpt>
      <trkpt lat="43.89843" lon="1.26655">
        <ele>154.872168</ele>
        <time>2022-12-30T15:33:09.361Z</time>
      </trkpt>
      <trkpt lat="43.89833" lon="1.26658">
        <ele>154.908087</ele>
        <time>2022-12-30T15:33:11.362Z</time>
      </trkpt>
      <trkpt lat="43.89825" lon="1.26661">
        <ele>154.942206</ele>
        <time>2022-12-30T15:33:13.357Z</time>
      </trkpt>
      <trkpt lat="43.89816" lon="1.26666">
        <ele>154.976366</ele>
        <time>2022-12-30T15:33:15.349Z</time>
      </trkpt>
      <trkpt lat="43.89804" lon="1.26672">
        <ele>155.02644</ele>
        <time>2022-12-30T15:33:18.334Z</time>
      </trkpt>
      <trkpt lat="43.89795" lon="1.26676">
        <ele>155.060623</ele>
        <time>2022-12-30T15:33:20.347Z</time>
      </trkpt>
      <trkpt lat="43.89786" lon="1.2668">
        <ele>155.094976</ele>
        <time>2022-12-30T15:33:22.339Z</time>
      </trkpt>
      <trkpt lat="43.89774" lon="1.26686">
        <ele>155.145578</ele>
        <time>2022-12-30T15:33:25.344Z</time>
      </trkpt>
      <trkpt lat="43.89761" lon="1.26693">
        <ele>155.173476</ele>
        <time>2022-12-30T15:33:28.350Z</time>
      </trkpt>
      <trkpt lat="43.89753" lon="1.26696">
        <ele>155.119915</ele>
        <time>2022-12-30T15:33:30.337Z</time>
      </trkpt>
      <trkpt lat="43.8974" lon="1.26703">
        <ele>155.041743</ele>
        <time>2022-12-30T15:33:33.351Z</time>
      </trkpt>
      <trkpt lat="43.89731" lon="1.26707">
        <ele>154.986925</ele>
        <time>2022-12-30T15:33:35.338Z</time>
      </trkpt>
      <trkpt lat="43.89723" lon="1.26711">
        <ele>154.932533</ele>
        <time>2022-12-30T15:33:37.353Z</time>
      </trkpt>
      <trkpt lat="43.89714" lon="1.26716">
        <ele>154.874434</ele>
        <time>2022-12-30T15:33:39.328Z</time>
      </trkpt>
      <trkpt lat="43.89705" lon="1.2672">
        <ele>154.82047</ele>
        <time>2022-12-30T15:33:41.358Z</time>
      </trkpt>
      <trkpt lat="43.89696" lon="1.26724">
        <ele>154.766059</ele>
        <time>2022-12-30T15:33:43.333Z</time>
      </trkpt>
      <trkpt lat="43.89684" lon="1.2673">
        <ele>154.688442</ele>
        <time>2022-12-30T15:33:46.347Z</time>
      </trkpt>
      <trkpt lat="43.89675" lon="1.26735">
        <ele>154.631394</ele>
        <time>2022-12-30T15:33:48.345Z</time>
      </trkpt>
      <trkpt lat="43.89666" lon="1.2674">
        <ele>154.577227</ele>
        <time>2022-12-30T15:33:50.361Z</time>
      </trkpt>
      <trkpt lat="43.89657" lon="1.26744">
        <ele>154.520738</ele>
        <time>2022-12-30T15:33:52.358Z</time>
      </trkpt>
      <trkpt lat="43.89648" lon="1.26748">
        <ele>154.463965</ele>
        <time>2022-12-30T15:33:54.358Z</time>
      </trkpt>
      <trkpt lat="43.8964" lon="1.26753">
        <ele>154.409402</ele>
        <time>2022-12-30T15:33:56.361Z</time>
      </trkpt>
      <trkpt lat="43.89631" lon="1.26757">
        <ele>154.35484</ele>
        <time>2022-12-30T15:33:58.339Z</time>
      </trkpt>
      <trkpt lat="43.89618" lon="1.26764">
        <ele>154.271922</ele>
        <time>2022-12-30T15:34:01.334Z</time>
      </trkpt>
      <trkpt lat="43.89605" lon="1.2677">
        <ele>154.192637</ele>
        <time>2022-12-30T15:34:04.331Z</time>
      </trkpt>
      <trkpt lat="43.89593" lon="1.26776">
        <ele>154.134563</ele>
        <time>2022-12-30T15:34:07.344Z</time>
      </trkpt>
      <trkpt lat="43.89583" lon="1.2678">
        <ele>154.21895</ele>
        <time>2022-12-30T15:34:09.371Z</time>
      </trkpt>
      <trkpt lat="43.89574" lon="1.26786">
        <ele>154.296177</ele>
        <time>2022-12-30T15:34:11.333Z</time>
      </trkpt>
      <trkpt lat="43.89565" lon="1.26791">
        <ele>154.378182</ele>
        <time>2022-12-30T15:34:13.360Z</time>
      </trkpt>
      <trkpt lat="43.89555" lon="1.26796">
        <ele>154.466264</ele>
        <time>2022-12-30T15:34:15.361Z</time>
      </trkpt>
      <trkpt lat="43.89547" lon="1.26801">
        <ele>154.540518</ele>
        <time>2022-12-30T15:34:17.359Z</time>
      </trkpt>
      <trkpt lat="43.89538" lon="1.26805">
        <ele>154.619893</ele>
        <time>2022-12-30T15:34:19.361Z</time>
      </trkpt>
      <trkpt lat="43.89528" lon="1.2681">
        <ele>154.700003</ele>
        <time>2022-12-30T15:34:21.362Z</time>
      </trkpt>
      <trkpt lat="43.89519" lon="1.26815">
        <ele>154.782109</ele>
        <time>2022-12-30T15:34:23.356Z</time>
      </trkpt>
      <trkpt lat="43.89506" lon="1.2682">
        <ele>154.893033</ele>
        <time>2022-12-30T15:34:26.358Z</time>
      </trkpt>
      <trkpt lat="43.89494" lon="1.26827">
        <ele>154.997331</ele>
        <time>2022-12-30T15:34:29.336Z</time>
      </trkpt>
      <trkpt lat="43.89484" lon="1.26832">
        <ele>155.092027</ele>
        <time>2022-12-30T15:34:32.343Z</time>
      </trkpt>
      <trkpt lat="43.89473" lon="1.26837">
        <ele>155.180306</ele>
        <time>2022-12-30T15:34:35.338Z</time>
      </trkpt>
      <trkpt lat="43.89461" lon="1.26843">
        <ele>155.284915</ele>
        <time>2022-12-30T15:34:38.347Z</time>
      </trkpt>
      <trkpt lat="43.89453" lon="1.26847">
        <ele>155.359041</ele>
        <time>2022-12-30T15:34:40.355Z</time>
      </trkpt>
      <trkpt lat="43.89443" lon="1.26851">
        <ele>155.442347</ele>
        <time>2022-12-30T15:34:42.338Z</time>
      </trkpt>
      <trkpt lat="43.89435" lon="1.26856">
        <ele>155.519421</ele>
        <time>2022-12-30T15:34:44.336Z</time>
      </trkpt>
      <trkpt lat="43.89422" lon="1.26862">
        <ele>155.604619</ele>
        <time>2022-12-30T15:34:47.341Z</time>
      </trkpt>
      <trkpt lat="43.89413" lon="1.26867">
        <ele>155.608495</ele>
        <time>2022-12-30T15:34:49.356Z</time>
      </trkpt>
      <trkpt lat="43.89404" lon="1.2687">
        <ele>155.612172</ele>
        <time>2022-12-30T15:34:51.338Z</time>
      </trkpt>
      <trkpt lat="43.89394" lon="1.26875">
        <ele>155.616325</ele>
        <time>2022-12-30T15:34:53.362Z</time>
      </trkpt>
      <trkpt lat="43.89381" lon="1.2688">
        <ele>155.621784</ele>
        <time>2022-12-30T15:34:56.357Z</time>
      </trkpt>
      <trkpt lat="43.89372" lon="1.26883">
        <ele>155.625754</ele>
        <time>2022-12-30T15:34:58.342Z</time>
      </trkpt>
      <trkpt lat="43.89358" lon="1.26885">
        <ele>155.631106</ele>
        <time>2022-12-30T15:35:01.338Z</time>
      </trkpt>
      <trkpt lat="43.89346" lon="1.26891">
        <ele>155.636302</ele>
        <time>2022-12-30T15:35:04.333Z</time>
      </trkpt>
      <trkpt lat="43.89336" lon="1.26893">
        <ele>155.640458</ele>
        <time>2022-12-30T15:35:07.332Z</time>
      </trkpt>
      <trkpt lat="43.89325" lon="1.26895">
        <ele>155.644905</ele>
        <time>2022-12-30T15:35:10.335Z</time>
      </trkpt>
      <trkpt lat="43.89314" lon="1.26898">
        <ele>155.649493</ele>
        <time>2022-12-30T15:35:13.363Z</time>
      </trkpt>
      <trkpt lat="43.89302" lon="1.269">
        <ele>155.654472</ele>
        <time>2022-12-30T15:35:16.358Z</time>
      </trkpt>
      <trkpt lat="43.89289" lon="1.26901">
        <ele>155.659813</ele>
        <time>2022-12-30T15:35:19.344Z</time>
      </trkpt>
      <trkpt lat="43.8928" lon="1.26903">
        <ele>155.663456</ele>
        <time>2022-12-30T15:35:21.350Z</time>
      </trkpt>
      <trkpt lat="43.89267" lon="1.26906">
        <ele>155.668668</ele>
        <time>2022-12-30T15:35:24.338Z</time>
      </trkpt>
      <trkpt lat="43.89256" lon="1.26907">
        <ele>155.673264</ele>
        <time>2022-12-30T15:35:27.337Z</time>
      </trkpt>
      <trkpt lat="43.89245" lon="1.26909">
        <ele>155.671129</ele>
        <time>2022-12-30T15:35:30.340Z</time>
      </trkpt>
      <trkpt lat="43.89234" lon="1.26908">
        <ele>155.65972</ele>
        <time>2022-12-30T15:35:33.360Z</time>
      </trkpt>
      <trkpt lat="43.89222" lon="1.26908">
        <ele>155.647164</ele>
        <time>2022-12-30T15:35:36.346Z</time>
      </trkpt>
      <trkpt lat="43.89209" lon="1.26908">
        <ele>155.633892</ele>
        <time>2022-12-30T15:35:39.335Z</time>
      </trkpt>
      <trkpt lat="43.89196" lon="1.26909">
        <ele>155.620918</ele>
        <time>2022-12-30T15:35:42.345Z</time>
      </trkpt>
      <trkpt lat="43.89187" lon="1.26909">
        <ele>155.611379</ele>
        <time>2022-12-30T15:35:44.345Z</time>
      </trkpt>
      <trkpt lat="43.89177" lon="1.26909">
        <ele>155.601424</ele>
        <time>2022-12-30T15:35:46.359Z</time>
      </trkpt>
      <trkpt lat="43.89168" lon="1.26909">
        <ele>155.591572</ele>
        <time>2022-12-30T15:35:48.361Z</time>
      </trkpt>
      <trkpt lat="43.89158" lon="1.26909">
        <ele>155.581202</ele>
        <time>2022-12-30T15:35:50.343Z</time>
      </trkpt>
      <trkpt lat="43.89149" lon="1.26909">
        <ele>155.571555</ele>
        <time>2022-12-30T15:35:52.346Z</time>
      </trkpt>
      <trkpt lat="43.89139" lon="1.26909">
        <ele>155.561393</ele>
        <time>2022-12-30T15:35:54.360Z</time>
      </trkpt>
      <trkpt lat="43.89129" lon="1.26909">
        <ele>155.551542</ele>
        <time>2022-12-30T15:35:56.336Z</time>
      </trkpt>
      <trkpt lat="43.89117" lon="1.26908">
        <ele>155.538374</ele>
        <time>2022-12-30T15:35:59.360Z</time>
      </trkpt>
      <trkpt lat="43.89104" lon="1.26909">
        <ele>155.52572</ele>
        <time>2022-12-30T15:36:02.358Z</time>
      </trkpt>
      <trkpt lat="43.89093" lon="1.26909">
        <ele>155.513381</ele>
        <time>2022-12-30T15:36:05.352Z</time>
      </trkpt>
      <trkpt lat="43.8908" lon="1.26909">
        <ele>155.500096</ele>
        <time>2022-12-30T15:36:08.341Z</time>
      </trkpt>
      <trkpt lat="43.89066" lon="1.26909">
        <ele>155.458766</ele>
        <time>2022-12-30T15:36:11.343Z</time>
      </trkpt>
      <trkpt lat="43.89053" lon="1.26909">
        <ele>155.322778</ele>
        <time>2022-12-30T15:36:14.365Z</time>
      </trkpt>
      <trkpt lat="43.8904" lon="1.26909">
        <ele>155.188866</ele>
        <time>2022-12-30T15:36:17.344Z</time>
      </trkpt>
      <trkpt lat="43.89027" lon="1.26909">
        <ele>155.052861</ele>
        <time>2022-12-30T15:36:20.337Z</time>
      </trkpt>
      <trkpt lat="43.89018" lon="1.26909">
        <ele>154.958395</ele>
        <time>2022-12-30T15:36:22.360Z</time>
      </trkpt>
      <trkpt lat="43.89008" lon="1.2691">
        <ele>154.856596</ele>
        <time>2022-12-30T15:36:24.332Z</time>
      </trkpt>
      <trkpt lat="43.88996" lon="1.26911">
        <ele>154.722334</ele>
        <time>2022-12-30T15:36:27.348Z</time>
      </trkpt>
      <trkpt lat="43.88984" lon="1.26912">
        <ele>154.598748</ele>
        <time>2022-12-30T15:36:30.347Z</time>
      </trkpt>
      <trkpt lat="43.88973" lon="1.26912">
        <ele>154.492842</ele>
        <time>2022-12-30T15:36:33.330Z</time>
      </trkpt>
      <trkpt lat="43.88963" lon="1.26912">
        <ele>154.382797</ele>
        <time>2022-12-30T15:36:36.361Z</time>
      </trkpt>
      <trkpt lat="43.88952" lon="1.26913">
        <ele>154.269587</ele>
        <time>2022-12-30T15:36:39.334Z</time>
      </trkpt>
      <trkpt lat="43.8894" lon="1.26913">
        <ele>154.147987</ele>
        <time>2022-12-30T15:36:42.351Z</time>
      </trkpt>
      <trkpt lat="43.88928" lon="1.26914">
        <ele>154.024376</ele>
        <time>2022-12-30T15:36:45.333Z</time>
      </trkpt>
      <trkpt lat="43.88916" lon="1.26913">
        <ele>153.891451</ele>
        <time>2022-12-30T15:36:48.339Z</time>
      </trkpt>
      <trkpt lat="43.88902" lon="1.26913">
        <ele>153.754354</ele>
        <time>2022-12-30T15:36:51.335Z</time>
      </trkpt>
      <trkpt lat="43.88892" lon="1.26913">
        <ele>153.648469</ele>
        <time>2022-12-30T15:36:53.339Z</time>
      </trkpt>
      <trkpt lat="43.8888" lon="1.26915">
        <ele>153.593962</ele>
        <time>2022-12-30T15:36:56.334Z</time>
      </trkpt>
      <trkpt lat="43.88868" lon="1.26915">
        <ele>153.561788</ele>
        <time>2022-12-30T15:36:59.338Z</time>
      </trkpt>
      <trkpt lat="43.88857" lon="1.26916">
        <ele>153.531297</ele>
        <time>2022-12-30T15:37:02.334Z</time>
      </trkpt>
      <trkpt lat="43.88846" lon="1.26916">
        <ele>153.499716</ele>
        <time>2022-12-30T15:37:05.352Z</time>
      </trkpt>
      <trkpt lat="43.88834" lon="1.26916">
        <ele>153.465621</ele>
        <time>2022-12-30T15:37:08.335Z</time>
      </trkpt>
      <trkpt lat="43.88821" lon="1.26916">
        <ele>153.429296</ele>
        <time>2022-12-30T15:37:11.348Z</time>
      </trkpt>
      <trkpt lat="43.88807" lon="1.26918">
        <ele>153.389765</ele>
        <time>2022-12-30T15:37:14.336Z</time>
      </trkpt>
      <trkpt lat="43.88798" lon="1.26918">
        <ele>153.364596</ele>
        <time>2022-12-30T15:37:16.343Z</time>
      </trkpt>
      <trkpt lat="43.88788" lon="1.26918">
        <ele>153.338861</ele>
        <time>2022-12-30T15:37:18.355Z</time>
      </trkpt>
      <trkpt lat="43.88775" lon="1.26918">
        <ele>153.301417</ele>
        <time>2022-12-30T15:37:21.360Z</time>
      </trkpt>
      <trkpt lat="43.88762" lon="1.26918">
        <ele>153.264785</ele>
        <time>2022-12-30T15:37:24.359Z</time>
      </trkpt>
      <trkpt lat="43.88753" lon="1.26919">
        <ele>153.239293</ele>
        <time>2022-12-30T15:37:26.369Z</time>
      </trkpt>
      <trkpt lat="43.8874" lon="1.2692">
        <ele>153.203778</ele>
        <time>2022-12-30T15:37:29.337Z</time>
      </trkpt>
      <trkpt lat="43.88727" lon="1.26921">
        <ele>153.166029</ele>
        <time>2022-12-30T15:37:32.345Z</time>
      </trkpt>
      <trkpt lat="43.88714" lon="1.26921">
        <ele>153.131095</ele>
        <time>2022-12-30T15:37:35.333Z</time>
      </trkpt>
      <trkpt lat="43.88702" lon="1.26921">
        <ele>153.146029</ele>
        <time>2022-12-30T15:37:38.349Z</time>
      </trkpt>
      <trkpt lat="43.8869" lon="1.26921">
        <ele>153.183056</ele>
        <time>2022-12-30T15:37:41.344Z</time>
      </trkpt>
      <trkpt lat="43.88679" lon="1.26922">
        <ele>153.221725</ele>
        <time>2022-12-30T15:37:44.355Z</time>
      </trkpt>
      <trkpt lat="43.88666" lon="1.26922">
        <ele>153.263626</ele>
        <time>2022-12-30T15:37:47.356Z</time>
      </trkpt>
      <trkpt lat="43.88653" lon="1.26921">
        <ele>153.303912</ele>
        <time>2022-12-30T15:37:50.354Z</time>
      </trkpt>
      <trkpt lat="43.8864" lon="1.26921">
        <ele>153.345487</ele>
        <time>2022-12-30T15:37:53.359Z</time>
      </trkpt>
      <trkpt lat="43.88627" lon="1.26922">
        <ele>153.388376</ele>
        <time>2022-12-30T15:37:56.360Z</time>
      </trkpt>
      <trkpt lat="43.88618" lon="1.26923">
        <ele>153.419275</ele>
        <time>2022-12-30T15:37:58.343Z</time>
      </trkpt>
      <trkpt lat="43.88609" lon="1.26922">
        <ele>153.449179</ele>
        <time>2022-12-30T15:38:00.345Z</time>
      </trkpt>
      <trkpt lat="43.88599" lon="1.26923">
        <ele>153.480107</ele>
        <time>2022-12-30T15:38:02.332Z</time>
      </trkpt>
      <trkpt lat="43.88586" lon="1.26924">
        <ele>153.522764</ele>
        <time>2022-12-30T15:38:05.335Z</time>
      </trkpt>
      <trkpt lat="43.88574" lon="1.26925">
        <ele>153.562739</ele>
        <time>2022-12-30T15:38:08.348Z</time>
      </trkpt>
      <trkpt lat="43.88561" lon="1.26925">
        <ele>153.603349</ele>
        <time>2022-12-30T15:38:11.336Z</time>
      </trkpt>
      <trkpt lat="43.88549" lon="1.26925">
        <ele>153.643951</ele>
        <time>2022-12-30T15:38:14.332Z</time>
      </trkpt>
      <trkpt lat="43.88537" lon="1.26925">
        <ele>153.683263</ele>
        <time>2022-12-30T15:38:17.352Z</time>
      </trkpt>
      <trkpt lat="43.88523" lon="1.26926">
        <ele>153.546593</ele>
        <time>2022-12-30T15:38:20.335Z</time>
      </trkpt>
      <trkpt lat="43.88514" lon="1.26926">
        <ele>153.336457</ele>
        <time>2022-12-30T15:38:22.331Z</time>
      </trkpt>
      <trkpt lat="43.88504" lon="1.26926">
        <ele>153.115039</ele>
        <time>2022-12-30T15:38:24.353Z</time>
      </trkpt>
      <trkpt lat="43.88491" lon="1.26926">
        <ele>152.816845</ele>
        <time>2022-12-30T15:38:27.353Z</time>
      </trkpt>
      <trkpt lat="43.88477" lon="1.26927">
        <ele>152.511881</ele>
        <time>2022-12-30T15:38:30.363Z</time>
      </trkpt>
      <trkpt lat="43.88465" lon="1.26928">
        <ele>152.231607</ele>
        <time>2022-12-30T15:38:33.350Z</time>
      </trkpt>
      <trkpt lat="43.88452" lon="1.26927">
        <ele>151.935759</ele>
        <time>2022-12-30T15:38:36.360Z</time>
      </trkpt>
      <trkpt lat="43.88439" lon="1.26927">
        <ele>151.646642</ele>
        <time>2022-12-30T15:38:39.355Z</time>
      </trkpt>
      <trkpt lat="43.88427" lon="1.26928">
        <ele>151.377364</ele>
        <time>2022-12-30T15:38:42.348Z</time>
      </trkpt>
      <trkpt lat="43.88417" lon="1.26928">
        <ele>151.147065</ele>
        <time>2022-12-30T15:38:45.355Z</time>
      </trkpt>
      <trkpt lat="43.88408" lon="1.26929">
        <ele>150.934324</ele>
        <time>2022-12-30T15:38:48.331Z</time>
      </trkpt>
      <trkpt lat="43.88398" lon="1.26929">
        <ele>150.710775</ele>
        <time>2022-12-30T15:38:51.334Z</time>
      </trkpt>
      <trkpt lat="43.88387" lon="1.2693">
        <ele>150.466489</ele>
        <time>2022-12-30T15:38:54.333Z</time>
      </trkpt>
      <trkpt lat="43.88376" lon="1.26932">
        <ele>150.22026</ele>
        <time>2022-12-30T15:38:57.347Z</time>
      </trkpt>
      <trkpt lat="43.88364" lon="1.26935">
        <ele>149.944957</ele>
        <time>2022-12-30T15:39:00.335Z</time>
      </trkpt>
      <trkpt lat="43.88352" lon="1.26937">
        <ele>149.672706</ele>
        <time>2022-12-30T15:39:03.346Z</time>
      </trkpt>
      <trkpt lat="43.88341" lon="1.26941">
        <ele>149.516204</ele>
        <time>2022-12-30T15:39:06.339Z</time>
      </trkpt>
      <trkpt lat="43.88331" lon="1.26944">
        <ele>149.390272</ele>
        <time>2022-12-30T15:39:09.331Z</time>
      </trkpt>
      <trkpt lat="43.88321" lon="1.2695">
        <ele>149.259562</ele>
        <time>2022-12-30T15:39:13.350Z</time>
      </trkpt>
      <trkpt lat="43.88311" lon="1.26955">
        <ele>149.119823</ele>
        <time>2022-12-30T15:39:17.349Z</time>
      </trkpt>
      <trkpt lat="43.883" lon="1.26959">
        <ele>148.982516</ele>
        <time>2022-12-30T15:39:20.348Z</time>
      </trkpt>
      <trkpt lat="43.88287" lon="1.26965">
        <ele>148.816249</ele>
        <time>2022-12-30T15:39:23.349Z</time>
      </trkpt>
      <trkpt lat="43.88275" lon="1.26972">
        <ele>148.653409</ele>
        <time>2022-12-30T15:39:26.329Z</time>
      </trkpt>
      <trkpt lat="43.88263" lon="1.2698">
        <ele>148.491151</ele>
        <time>2022-12-30T15:39:29.351Z</time>
      </trkpt>
      <trkpt lat="43.88252" lon="1.26989">
        <ele>148.329414</ele>
        <time>2022-12-30T15:39:32.342Z</time>
      </trkpt>
      <trkpt lat="43.8824" lon="1.26998">
        <ele>148.164226</ele>
        <time>2022-12-30T15:39:35.336Z</time>
      </trkpt>
      <trkpt lat="43.8823" lon="1.27006">
        <ele>148.016847</ele>
        <time>2022-12-30T15:39:38.341Z</time>
      </trkpt>
      <trkpt lat="43.88218" lon="1.27015">
        <ele>147.849919</ele>
        <time>2022-12-30T15:39:41.343Z</time>
      </trkpt>
      <trkpt lat="43.8821" lon="1.27021">
        <ele>147.738566</ele>
        <time>2022-12-30T15:39:43.344Z</time>
      </trkpt>
      <trkpt lat="43.88201" lon="1.27026">
        <ele>147.622371</ele>
        <time>2022-12-30T15:39:45.340Z</time>
      </trkpt>
      <trkpt lat="43.88192" lon="1.2703">
        <ele>147.509793</ele>
        <time>2022-12-30T15:39:47.355Z</time>
      </trkpt>
      <trkpt lat="43.8818" lon="1.27036">
        <ele>147.455649</ele>
        <time>2022-12-30T15:39:50.361Z</time>
      </trkpt>
      <trkpt lat="43.88168" lon="1.2704">
        <ele>147.53382</ele>
        <time>2022-12-30T15:39:53.334Z</time>
      </trkpt>
      <trkpt lat="43.88155" lon="1.27044">
        <ele>147.607274</ele>
        <time>2022-12-30T15:39:56.338Z</time>
      </trkpt>
      <trkpt lat="43.88143" lon="1.27046">
        <ele>147.682063</ele>
        <time>2022-12-30T15:39:59.330Z</time>
      </trkpt>
      <trkpt lat="43.8813" lon="1.27048">
        <ele>147.757247</ele>
        <time>2022-12-30T15:40:02.372Z</time>
      </trkpt>
      <trkpt lat="43.88118" lon="1.27048">
        <ele>147.833253</ele>
        <time>2022-12-30T15:40:05.329Z</time>
      </trkpt>
      <trkpt lat="43.88105" lon="1.27048">
        <ele>147.909827</ele>
        <time>2022-12-30T15:40:08.334Z</time>
      </trkpt>
      <trkpt lat="43.88092" lon="1.27045">
        <ele>147.986223</ele>
        <time>2022-12-30T15:40:11.351Z</time>
      </trkpt>
      <trkpt lat="43.8808" lon="1.27042">
        <ele>148.05709</ele>
        <time>2022-12-30T15:40:14.332Z</time>
      </trkpt>
      <trkpt lat="43.8807" lon="1.2704">
        <ele>148.118823</ele>
        <time>2022-12-30T15:40:17.328Z</time>
      </trkpt>
      <trkpt lat="43.8806" lon="1.27036">
        <ele>148.17827</ele>
        <time>2022-12-30T15:40:20.357Z</time>
      </trkpt>
      <trkpt lat="43.88049" lon="1.27032">
        <ele>148.245353</ele>
        <time>2022-12-30T15:40:23.341Z</time>
      </trkpt>
      <trkpt lat="43.88038" lon="1.27029">
        <ele>148.313985</ele>
        <time>2022-12-30T15:40:26.339Z</time>
      </trkpt>
      <trkpt lat="43.88027" lon="1.27024">
        <ele>148.38457</ele>
        <time>2022-12-30T15:40:29.348Z</time>
      </trkpt>
      <trkpt lat="43.88014" lon="1.2702">
        <ele>148.461115</ele>
        <time>2022-12-30T15:40:32.341Z</time>
      </trkpt>
      <trkpt lat="43.88005" lon="1.27017">
        <ele>148.496966</ele>
        <time>2022-12-30T15:40:34.332Z</time>
      </trkpt>
      <trkpt lat="43.87993" lon="1.27012">
        <ele>148.51962</ele>
        <time>2022-12-30T15:40:37.358Z</time>
      </trkpt>
      <trkpt lat="43.87983" lon="1.27009">
        <ele>148.535804</ele>
        <time>2022-12-30T15:40:39.334Z</time>
      </trkpt>
      <trkpt lat="43.87971" lon="1.27005">
        <ele>148.558638</ele>
        <time>2022-12-30T15:40:42.348Z</time>
      </trkpt>
      <trkpt lat="43.87962" lon="1.27002">
        <ele>148.574129</ele>
        <time>2022-12-30T15:40:44.341Z</time>
      </trkpt>
      <trkpt lat="43.87951" lon="1.26997">
        <ele>148.593798</ele>
        <time>2022-12-30T15:40:47.342Z</time>
      </trkpt>
      <trkpt lat="43.87939" lon="1.26993">
        <ele>148.615326</ele>
        <time>2022-12-30T15:40:50.333Z</time>
      </trkpt>
      <trkpt lat="43.87929" lon="1.2699">
        <ele>148.631968</ele>
        <time>2022-12-30T15:40:53.346Z</time>
      </trkpt>
      <trkpt lat="43.87919" lon="1.26987">
        <ele>148.649745</ele>
        <time>2022-12-30T15:40:56.357Z</time>
      </trkpt>
      <trkpt lat="43.87907" lon="1.26983">
        <ele>148.672107</ele>
        <time>2022-12-30T15:40:59.351Z</time>
      </trkpt>
      <trkpt lat="43.87894" lon="1.26979">
        <ele>148.695108</ele>
        <time>2022-12-30T15:41:02.339Z</time>
      </trkpt>
      <trkpt lat="43.87881" lon="1.26974">
        <ele>148.717501</ele>
        <time>2022-12-30T15:41:05.353Z</time>
      </trkpt>
      <trkpt lat="43.87872" lon="1.26971">
        <ele>148.732997</ele>
        <time>2022-12-30T15:41:07.348Z</time>
      </trkpt>
      <trkpt lat="43.8786" lon="1.26966">
        <ele>148.755718</ele>
        <time>2022-12-30T15:41:10.351Z</time>
      </trkpt>
      <trkpt lat="43.87851" lon="1.26962">
        <ele>148.771473</ele>
        <time>2022-12-30T15:41:12.360Z</time>
      </trkpt>
      <trkpt lat="43.87842" lon="1.26959">
        <ele>148.78704</ele>
        <time>2022-12-30T15:41:14.361Z</time>
      </trkpt>
      <trkpt lat="43.87829" lon="1.26955">
        <ele>148.895939</ele>
        <time>2022-12-30T15:41:17.372Z</time>
      </trkpt>
      <trkpt lat="43.8782" lon="1.26952">
        <ele>149.039279</ele>
        <time>2022-12-30T15:41:19.354Z</time>
      </trkpt>
      <trkpt lat="43.87811" lon="1.2695">
        <ele>149.174935</ele>
        <time>2022-12-30T15:41:21.344Z</time>
      </trkpt>
      <trkpt lat="43.87801" lon="1.26948">
        <ele>149.320897</ele>
        <time>2022-12-30T15:41:23.358Z</time>
      </trkpt>
      <trkpt lat="43.87788" lon="1.26945">
        <ele>149.523632</ele>
        <time>2022-12-30T15:41:26.341Z</time>
      </trkpt>
      <trkpt lat="43.87779" lon="1.26945">
        <ele>149.659713</ele>
        <time>2022-12-30T15:41:28.351Z</time>
      </trkpt>
      <trkpt lat="43.8777" lon="1.26944">
        <ele>149.801869</ele>
        <time>2022-12-30T15:41:30.331Z</time>
      </trkpt>
      <trkpt lat="43.87761" lon="1.26943">
        <ele>149.940044</ele>
        <time>2022-12-30T15:41:32.340Z</time>
      </trkpt>
      <trkpt lat="43.87751" lon="1.26942">
        <ele>150.088855</ele>
        <time>2022-12-30T15:41:34.334Z</time>
      </trkpt>
      <trkpt lat="43.87741" lon="1.26942">
        <ele>150.237026</ele>
        <time>2022-12-30T15:41:36.358Z</time>
      </trkpt>
      <trkpt lat="43.87732" lon="1.26943">
        <ele>150.37616</ele>
        <time>2022-12-30T15:41:38.332Z</time>
      </trkpt>
      <trkpt lat="43.87723" lon="1.26943">
        <ele>150.515333</ele>
        <time>2022-12-30T15:41:40.360Z</time>
      </trkpt>
      <trkpt lat="43.87714" lon="1.26944">
        <ele>150.653236</ele>
        <time>2022-12-30T15:41:42.358Z</time>
      </trkpt>
      <trkpt lat="43.87705" lon="1.26944">
        <ele>150.789296</ele>
        <time>2022-12-30T15:41:44.351Z</time>
      </trkpt>
      <trkpt lat="43.87695" lon="1.26944">
        <ele>150.932934</ele>
        <time>2022-12-30T15:41:46.358Z</time>
      </trkpt>
      <trkpt lat="43.87685" lon="1.26944">
        <ele>151.084096</ele>
        <time>2022-12-30T15:41:48.357Z</time>
      </trkpt>
      <trkpt lat="43.87676" lon="1.26943">
        <ele>151.223371</ele>
        <time>2022-12-30T15:41:50.344Z</time>
      </trkpt>
      <trkpt lat="43.87666" lon="1.26944">
        <ele>151.374592</ele>
        <time>2022-12-30T15:41:52.345Z</time>
      </trkpt>
      <trkpt lat="43.87656" lon="1.26945">
        <ele>151.514548</ele>
        <time>2022-12-30T15:41:54.357Z</time>
      </trkpt>
      <trkpt lat="43.87646" lon="1.26945">
        <ele>151.300571</ele>
        <time>2022-12-30T15:41:56.351Z</time>
      </trkpt>
      <trkpt lat="43.87637" lon="1.26945">
        <ele>151.095195</ele>
        <time>2022-12-30T15:41:58.329Z</time>
      </trkpt>
      <trkpt lat="43.87627" lon="1.26946">
        <ele>150.889623</ele>
        <time>2022-12-30T15:42:00.364Z</time>
      </trkpt>
      <trkpt lat="43.87618" lon="1.26945">
        <ele>150.688609</ele>
        <time>2022-12-30T15:42:02.340Z</time>
      </trkpt>
      <trkpt lat="43.87608" lon="1.26946">
        <ele>150.474661</ele>
        <time>2022-12-30T15:42:04.357Z</time>
      </trkpt>
      <trkpt lat="43.87599" lon="1.26946">
        <ele>150.280027</ele>
        <time>2022-12-30T15:42:06.337Z</time>
      </trkpt>
      <trkpt lat="43.8759" lon="1.26946">
        <ele>150.072532</ele>
        <time>2022-12-30T15:42:08.359Z</time>
      </trkpt>
      <trkpt lat="43.8758" lon="1.26946">
        <ele>149.860745</ele>
        <time>2022-12-30T15:42:10.355Z</time>
      </trkpt>
      <trkpt lat="43.87567" lon="1.26947">
        <ele>149.575086</ele>
        <time>2022-12-30T15:42:13.346Z</time>
      </trkpt>
      <trkpt lat="43.87557" lon="1.26947">
        <ele>149.376231</ele>
        <time>2022-12-30T15:42:15.354Z</time>
      </trkpt>
      <trkpt lat="43.87546" lon="1.26948">
        <ele>149.120865</ele>
        <time>2022-12-30T15:42:18.342Z</time>
      </trkpt>
      <trkpt lat="43.87534" lon="1.26948">
        <ele>148.876682</ele>
        <time>2022-12-30T15:42:21.353Z</time>
      </trkpt>
      <trkpt lat="43.87522" lon="1.26948">
        <ele>148.6217</ele>
        <time>2022-12-30T15:42:24.359Z</time>
      </trkpt>
      <trkpt lat="43.8751" lon="1.26948">
        <ele>148.349414</ele>
        <time>2022-12-30T15:42:27.334Z</time>
      </trkpt>
      <trkpt lat="43.87497" lon="1.2695">
        <ele>148.069408</ele>
        <time>2022-12-30T15:42:30.340Z</time>
      </trkpt>
      <trkpt lat="43.87484" lon="1.2695">
        <ele>147.788388</ele>
        <time>2022-12-30T15:42:33.345Z</time>
      </trkpt>
      <trkpt lat="43.87471" lon="1.26951">
        <ele>147.615402</ele>
        <time>2022-12-30T15:42:36.340Z</time>
      </trkpt>
      <trkpt lat="43.8746" lon="1.26952">
        <ele>147.582162</ele>
        <time>2022-12-30T15:42:39.355Z</time>
      </trkpt>
      <trkpt lat="43.8745" lon="1.26953">
        <ele>147.554409</ele>
        <time>2022-12-30T15:42:42.330Z</time>
      </trkpt>
      <trkpt lat="43.8744" lon="1.26955">
        <ele>147.523247</ele>
        <time>2022-12-30T15:42:46.345Z</time>
      </trkpt>
      <trkpt lat="43.87431" lon="1.26957">
        <ele>147.496375</ele>
        <time>2022-12-30T15:42:49.356Z</time>
      </trkpt>
      <trkpt lat="43.8742" lon="1.26959">
        <ele>147.464226</ele>
        <time>2022-12-30T15:42:52.355Z</time>
      </trkpt>
      <trkpt lat="43.87408" lon="1.26962">
        <ele>147.428238</ele>
        <time>2022-12-30T15:42:55.332Z</time>
      </trkpt>
      <trkpt lat="43.87399" lon="1.26964">
        <ele>147.40172</ele>
        <time>2022-12-30T15:42:57.364Z</time>
      </trkpt>
      <trkpt lat="43.87385" lon="1.26967">
        <ele>147.362853</ele>
        <time>2022-12-30T15:43:00.338Z</time>
      </trkpt>
      <trkpt lat="43.87373" lon="1.26969">
        <ele>147.326222</ele>
        <time>2022-12-30T15:43:03.357Z</time>
      </trkpt>
      <trkpt lat="43.87361" lon="1.26971">
        <ele>147.291374</ele>
        <time>2022-12-30T15:43:06.356Z</time>
      </trkpt>
      <trkpt lat="43.8735" lon="1.26974">
        <ele>147.258008</ele>
        <time>2022-12-30T15:43:09.331Z</time>
      </trkpt>
      <trkpt lat="43.87338" lon="1.26978">
        <ele>147.221852</ele>
        <time>2022-12-30T15:43:12.341Z</time>
      </trkpt>
      <trkpt lat="43.87329" lon="1.26982">
        <ele>147.195242</ele>
        <time>2022-12-30T15:43:14.339Z</time>
      </trkpt>
      <trkpt lat="43.87316" lon="1.26986">
        <ele>147.157022</ele>
        <time>2022-12-30T15:43:17.330Z</time>
      </trkpt>
      <trkpt lat="43.87307" lon="1.26989">
        <ele>147.12985</ele>
        <time>2022-12-30T15:43:19.340Z</time>
      </trkpt>
      <trkpt lat="43.87298" lon="1.26992">
        <ele>147.086043</ele>
        <time>2022-12-30T15:43:21.356Z</time>
      </trkpt>
      <trkpt lat="43.87289" lon="1.26995">
        <ele>146.985198</ele>
        <time>2022-12-30T15:43:23.347Z</time>
      </trkpt>
      <trkpt lat="43.87278" lon="1.27">
        <ele>146.861967</ele>
        <time>2022-12-30T15:43:26.341Z</time>
      </trkpt>
      <trkpt lat="43.87269" lon="1.27004">
        <ele>146.764307</ele>
        <time>2022-12-30T15:43:28.335Z</time>
      </trkpt>
      <trkpt lat="43.87256" lon="1.27009">
        <ele>146.6167</ele>
        <time>2022-12-30T15:43:31.343Z</time>
      </trkpt>
      <trkpt lat="43.87247" lon="1.27014">
        <ele>146.516268</ele>
        <time>2022-12-30T15:43:33.356Z</time>
      </trkpt>
      <trkpt lat="43.87235" lon="1.27017">
        <ele>146.377727</ele>
        <time>2022-12-30T15:43:36.348Z</time>
      </trkpt>
      <trkpt lat="43.87223" lon="1.27022">
        <ele>146.245229</ele>
        <time>2022-12-30T15:43:39.330Z</time>
      </trkpt>
      <trkpt lat="43.87212" lon="1.27027">
        <ele>146.120159</ele>
        <time>2022-12-30T15:43:42.356Z</time>
      </trkpt>
      <trkpt lat="43.87201" lon="1.27034">
        <ele>145.996811</ele>
        <time>2022-12-30T15:43:45.337Z</time>
      </trkpt>
      <trkpt lat="43.8719" lon="1.27042">
        <ele>145.862962</ele>
        <time>2022-12-30T15:43:48.341Z</time>
      </trkpt>
      <trkpt lat="43.87178" lon="1.27048">
        <ele>145.723723</ele>
        <time>2022-12-30T15:43:51.342Z</time>
      </trkpt>
      <trkpt lat="43.87169" lon="1.27052">
        <ele>145.626152</ele>
        <time>2022-12-30T15:43:53.359Z</time>
      </trkpt>
      <trkpt lat="43.87161" lon="1.27056">
        <ele>145.528559</ele>
        <time>2022-12-30T15:43:55.348Z</time>
      </trkpt>
      <trkpt lat="43.87152" lon="1.2706">
        <ele>145.425147</ele>
        <time>2022-12-30T15:43:57.335Z</time>
      </trkpt>
      <trkpt lat="43.87139" lon="1.27067">
        <ele>145.28356</ele>
        <time>2022-12-30T15:44:00.335Z</time>
      </trkpt>
      <trkpt lat="43.87128" lon="1.27074">
        <ele>145.176399</ele>
        <time>2022-12-30T15:44:03.360Z</time>
      </trkpt>
      <trkpt lat="43.87119" lon="1.27079">
        <ele>145.19283</ele>
        <time>2022-12-30T15:44:05.361Z</time>
      </trkpt>
      <trkpt lat="43.87108" lon="1.27086">
        <ele>145.215436</ele>
        <time>2022-12-30T15:44:08.331Z</time>
      </trkpt>
      <trkpt lat="43.87096" lon="1.27092">
        <ele>145.238161</ele>
        <time>2022-12-30T15:44:11.330Z</time>
      </trkpt>
      <trkpt lat="43.87084" lon="1.27099">
        <ele>145.26098</ele>
        <time>2022-12-30T15:44:14.341Z</time>
      </trkpt>
      <trkpt lat="43.87072" lon="1.27108">
        <ele>145.284781</ele>
        <time>2022-12-30T15:44:17.334Z</time>
      </trkpt>
      <trkpt lat="43.8706" lon="1.27116">
        <ele>145.307022</ele>
        <time>2022-12-30T15:44:20.352Z</time>
      </trkpt>
      <trkpt lat="43.87051" lon="1.27123">
        <ele>145.326283</ele>
        <time>2022-12-30T15:44:23.366Z</time>
      </trkpt>
      <trkpt lat="43.87041" lon="1.2713">
        <ele>145.345591</ele>
        <time>2022-12-30T15:44:27.330Z</time>
      </trkpt>
      <trkpt lat="43.8703" lon="1.27138">
        <ele>145.366988</ele>
        <time>2022-12-30T15:44:31.356Z</time>
      </trkpt>
      <trkpt lat="43.87022" lon="1.27145">
        <ele>145.383823</ele>
        <time>2022-12-30T15:44:34.333Z</time>
      </trkpt>
      <trkpt lat="43.87012" lon="1.27154">
        <ele>145.405255</ele>
        <time>2022-12-30T15:44:38.337Z</time>
      </trkpt>
      <trkpt lat="43.87002" lon="1.27162">
        <ele>145.426364</ele>
        <time>2022-12-30T15:44:41.330Z</time>
      </trkpt>
      <trkpt lat="43.8699" lon="1.27171">
        <ele>145.449149</ele>
        <time>2022-12-30T15:44:44.354Z</time>
      </trkpt>
      <trkpt lat="43.86982" lon="1.27178">
        <ele>145.465422</ele>
        <time>2022-12-30T15:44:46.356Z</time>
      </trkpt>
      <trkpt lat="43.86975" lon="1.27185">
        <ele>145.481872</ele>
        <time>2022-12-30T15:44:48.342Z</time>
      </trkpt>
      <trkpt lat="43.86964" lon="1.27196">
        <ele>145.574504</ele>
        <time>2022-12-30T15:44:51.330Z</time>
      </trkpt>
      <trkpt lat="43.86954" lon="1.27203">
        <ele>145.681453</ele>
        <time>2022-12-30T15:44:54.341Z</time>
      </trkpt>
      <trkpt lat="43.86943" lon="1.27212">
        <ele>145.803867</ele>
        <time>2022-12-30T15:44:57.358Z</time>
      </trkpt>
      <trkpt lat="43.86933" lon="1.27219">
        <ele>145.911903</ele>
        <time>2022-12-30T15:45:00.335Z</time>
      </trkpt>
      <trkpt lat="43.86922" lon="1.27227">
        <ele>146.030923</ele>
        <time>2022-12-30T15:45:03.357Z</time>
      </trkpt>
      <trkpt lat="43.86911" lon="1.27235">
        <ele>146.149484</ele>
        <time>2022-12-30T15:45:06.348Z</time>
      </trkpt>
      <trkpt lat="43.86903" lon="1.27245">
        <ele>146.253477</ele>
        <time>2022-12-30T15:45:09.334Z</time>
      </trkpt>
      <trkpt lat="43.86894" lon="1.27252">
        <ele>146.348825</ele>
        <time>2022-12-30T15:45:12.333Z</time>
      </trkpt>
      <trkpt lat="43.86885" lon="1.27261">
        <ele>146.459073</ele>
        <time>2022-12-30T15:45:15.333Z</time>
      </trkpt>
      <trkpt lat="43.86877" lon="1.27268">
        <ele>146.545002</ele>
        <time>2022-12-30T15:45:17.341Z</time>
      </trkpt>
      <trkpt lat="43.86866" lon="1.27276">
        <ele>146.666987</ele>
        <time>2022-12-30T15:45:20.355Z</time>
      </trkpt>
      <trkpt lat="43.86858" lon="1.27282">
        <ele>146.755041</ele>
        <time>2022-12-30T15:45:22.347Z</time>
      </trkpt>
      <trkpt lat="43.86846" lon="1.27289">
        <ele>146.874135</ele>
        <time>2022-12-30T15:45:25.333Z</time>
      </trkpt>
      <trkpt lat="43.86836" lon="1.27296">
        <ele>146.984262</ele>
        <time>2022-12-30T15:45:28.333Z</time>
      </trkpt>
      <trkpt lat="43.86826" lon="1.27304">
        <ele>147.089304</ele>
        <time>2022-12-30T15:45:31.339Z</time>
      </trkpt>
      <trkpt lat="43.86815" lon="1.27313">
        <ele>147.232694</ele>
        <time>2022-12-30T15:45:34.362Z</time>
      </trkpt>
      <trkpt lat="43.86805" lon="1.27321">
        <ele>147.543792</ele>
        <time>2022-12-30T15:45:36.357Z</time>
      </trkpt>
      <trkpt lat="43.86798" lon="1.27327">
        <ele>147.792544</ele>
        <time>2022-12-30T15:45:38.338Z</time>
      </trkpt>
      <trkpt lat="43.86787" lon="1.27336">
        <ele>148.131634</ele>
        <time>2022-12-30T15:45:41.344Z</time>
      </trkpt>
      <trkpt lat="43.8678" lon="1.27343">
        <ele>148.382258</ele>
        <time>2022-12-30T15:45:43.331Z</time>
      </trkpt>
      <trkpt lat="43.8677" lon="1.27351">
        <ele>148.702508</ele>
        <time>2022-12-30T15:45:46.359Z</time>
      </trkpt>
      <trkpt lat="43.86762" lon="1.27358">
        <ele>148.963869</ele>
        <time>2022-12-30T15:45:49.356Z</time>
      </trkpt>
      <trkpt lat="43.86752" lon="1.27365">
        <ele>149.260129</ele>
        <time>2022-12-30T15:45:52.354Z</time>
      </trkpt>
      <trkpt lat="43.86742" lon="1.27373">
        <ele>149.589005</ele>
        <time>2022-12-30T15:45:55.337Z</time>
      </trkpt>
      <trkpt lat="43.86732" lon="1.27382">
        <ele>149.929124</ele>
        <time>2022-12-30T15:45:58.333Z</time>
      </trkpt>
      <trkpt lat="43.86721" lon="1.27391">
        <ele>150.284216</ele>
        <time>2022-12-30T15:46:01.352Z</time>
      </trkpt>
      <trkpt lat="43.8671" lon="1.27401">
        <ele>150.62596</ele>
        <time>2022-12-30T15:46:04.352Z</time>
      </trkpt>
      <trkpt lat="43.86701" lon="1.27408">
        <ele>150.934826</ele>
        <time>2022-12-30T15:46:08.353Z</time>
      </trkpt>
      <trkpt lat="43.86691" lon="1.27415">
        <ele>151.235516</ele>
        <time>2022-12-30T15:46:12.361Z</time>
      </trkpt>
      <trkpt lat="43.86681" lon="1.27423">
        <ele>151.553591</ele>
        <time>2022-12-30T15:46:16.341Z</time>
      </trkpt>
      <trkpt lat="43.86672" lon="1.27431">
        <ele>151.838644</ele>
        <time>2022-12-30T15:46:19.332Z</time>
      </trkpt>
      <trkpt lat="43.86663" lon="1.27437">
        <ele>152.124717</ele>
        <time>2022-12-30T15:46:22.343Z</time>
      </trkpt>
      <trkpt lat="43.86654" lon="1.27444">
        <ele>152.337181</ele>
        <time>2022-12-30T15:46:25.336Z</time>
      </trkpt>
      <trkpt lat="43.86644" lon="1.27449">
        <ele>152.534752</ele>
        <time>2022-12-30T15:46:28.335Z</time>
      </trkpt>
      <trkpt lat="43.86634" lon="1.27455">
        <ele>152.73135</ele>
        <time>2022-12-30T15:46:31.328Z</time>
      </trkpt>
      <trkpt lat="43.86625" lon="1.2746">
        <ele>152.906543</ele>
        <time>2022-12-30T15:46:34.346Z</time>
      </trkpt>
      <trkpt lat="43.86615" lon="1.27467">
        <ele>153.111652</ele>
        <time>2022-12-30T15:46:38.328Z</time>
      </trkpt>
      <trkpt lat="43.86607" lon="1.27474">
        <ele>153.288621</ele>
        <time>2022-12-30T15:46:42.331Z</time>
      </trkpt>
      <trkpt lat="43.86599" lon="1.2748">
        <ele>153.461118</ele>
        <time>2022-12-30T15:46:46.355Z</time>
      </trkpt>
      <trkpt lat="43.8659" lon="1.27487">
        <ele>153.649877</ele>
        <time>2022-12-30T15:46:51.344Z</time>
      </trkpt>
      <trkpt lat="43.86581" lon="1.27494">
        <ele>153.831914</ele>
        <time>2022-12-30T15:46:55.342Z</time>
      </trkpt>
      <trkpt lat="43.86571" lon="1.27502">
        <ele>154.048516</ele>
        <time>2022-12-30T15:46:59.359Z</time>
      </trkpt>
      <trkpt lat="43.86561" lon="1.27511">
        <ele>154.271341</ele>
        <time>2022-12-30T15:47:03.330Z</time>
      </trkpt>
      <trkpt lat="43.86552" lon="1.27517">
        <ele>154.443246</ele>
        <time>2022-12-30T15:47:06.334Z</time>
      </trkpt>
      <trkpt lat="43.86543" lon="1.27524">
        <ele>154.628443</ele>
        <time>2022-12-30T15:47:09.357Z</time>
      </trkpt>
      <trkpt lat="43.86534" lon="1.2753">
        <ele>154.813135</ele>
        <time>2022-12-30T15:47:12.330Z</time>
      </trkpt>
      <trkpt lat="43.86526" lon="1.27537">
        <ele>154.98749</ele>
        <time>2022-12-30T15:47:15.351Z</time>
      </trkpt>
      <trkpt lat="43.86518" lon="1.27543">
        <ele>155.15538</ele>
        <time>2022-12-30T15:47:18.330Z</time>
      </trkpt>
      <trkpt lat="43.86509" lon="1.27552">
        <ele>155.352655</ele>
        <time>2022-12-30T15:47:21.360Z</time>
      </trkpt>
      <trkpt lat="43.86501" lon="1.27559">
        <ele>155.511648</ele>
        <time>2022-12-30T15:47:24.338Z</time>
      </trkpt>
      <trkpt lat="43.8649" lon="1.27568">
        <ele>155.619007</ele>
        <time>2022-12-30T15:47:28.343Z</time>
      </trkpt>
      <trkpt lat="43.86481" lon="1.27575">
        <ele>155.714224</ele>
        <time>2022-12-30T15:47:31.331Z</time>
      </trkpt>
      <trkpt lat="43.86472" lon="1.27585">
        <ele>155.81845</ele>
        <time>2022-12-30T15:47:34.335Z</time>
      </trkpt>
      <trkpt lat="43.86463" lon="1.27597">
        <ele>155.923269</ele>
        <time>2022-12-30T15:47:37.346Z</time>
      </trkpt>
      <trkpt lat="43.86456" lon="1.27607">
        <ele>156.017209</ele>
        <time>2022-12-30T15:47:40.330Z</time>
      </trkpt>
      <trkpt lat="43.86451" lon="1.27619">
        <ele>156.099852</ele>
        <time>2022-12-30T15:47:43.346Z</time>
      </trkpt>
      <trkpt lat="43.86444" lon="1.27627">
        <ele>156.18488</ele>
        <time>2022-12-30T15:47:47.330Z</time>
      </trkpt>
      <trkpt lat="43.86434" lon="1.27627">
        <ele>156.272324</ele>
        <time>2022-12-30T15:47:51.334Z</time>
      </trkpt>
      <trkpt lat="43.86425" lon="1.27631">
        <ele>156.357418</ele>
        <time>2022-12-30T15:47:54.345Z</time>
      </trkpt>
      <trkpt lat="43.86415" lon="1.27638">
        <ele>156.454183</ele>
        <time>2022-12-30T15:47:57.333Z</time>
      </trkpt>
      <trkpt lat="43.86405" lon="1.27646">
        <ele>156.551572</ele>
        <time>2022-12-30T15:48:00.332Z</time>
      </trkpt>
      <trkpt lat="43.86396" lon="1.27653">
        <ele>156.644724</ele>
        <time>2022-12-30T15:48:03.335Z</time>
      </trkpt>
      <trkpt lat="43.86387" lon="1.27661">
        <ele>156.742972</ele>
        <time>2022-12-30T15:48:06.334Z</time>
      </trkpt>
      <trkpt lat="43.86377" lon="1.27669">
        <ele>156.846764</ele>
        <time>2022-12-30T15:48:09.336Z</time>
      </trkpt>
      <trkpt lat="43.86366" lon="1.27677">
        <ele>156.95272</ele>
        <time>2022-12-30T15:48:12.326Z</time>
      </trkpt>
      <trkpt lat="43.86355" lon="1.27686">
        <ele>157.064857</ele>
        <time>2022-12-30T15:48:15.350Z</time>
      </trkpt>
      <trkpt lat="43.86344" lon="1.27695">
        <ele>156.948311</ele>
        <time>2022-12-30T15:48:18.331Z</time>
      </trkpt>
      <trkpt lat="43.86333" lon="1.27703">
        <ele>156.799549</ele>
        <time>2022-12-30T15:48:21.346Z</time>
      </trkpt>
      <trkpt lat="43.86326" lon="1.2771">
        <ele>156.695394</ele>
        <time>2022-12-30T15:48:23.352Z</time>
      </trkpt>
      <trkpt lat="43.86317" lon="1.27717">
        <ele>156.584662</ele>
        <time>2022-12-30T15:48:25.343Z</time>
      </trkpt>
      <trkpt lat="43.8631" lon="1.27724">
        <ele>156.47784</ele>
        <time>2022-12-30T15:48:27.358Z</time>
      </trkpt>
      <trkpt lat="43.86302" lon="1.27731">
        <ele>156.372373</ele>
        <time>2022-12-30T15:48:29.359Z</time>
      </trkpt>
      <trkpt lat="43.8629" lon="1.2774">
        <ele>156.217744</ele>
        <time>2022-12-30T15:48:32.357Z</time>
      </trkpt>
      <trkpt lat="43.86278" lon="1.27749">
        <ele>156.056168</ele>
        <time>2022-12-30T15:48:35.362Z</time>
      </trkpt>
      <trkpt lat="43.86268" lon="1.27759">
        <ele>155.906354</ele>
        <time>2022-12-30T15:48:38.358Z</time>
      </trkpt>
      <trkpt lat="43.86257" lon="1.27768">
        <ele>155.756881</ele>
        <time>2022-12-30T15:48:41.327Z</time>
      </trkpt>
      <trkpt lat="43.86246" lon="1.27776">
        <ele>155.612769</ele>
        <time>2022-12-30T15:48:44.335Z</time>
      </trkpt>
      <trkpt lat="43.86234" lon="1.27786">
        <ele>155.455464</ele>
        <time>2022-12-30T15:48:47.340Z</time>
      </trkpt>
      <trkpt lat="43.86222" lon="1.27795">
        <ele>155.298581</ele>
        <time>2022-12-30T15:48:50.333Z</time>
      </trkpt>
      <trkpt lat="43.8621" lon="1.27804">
        <ele>155.142333</ele>
        <time>2022-12-30T15:48:53.355Z</time>
      </trkpt>
      <trkpt lat="43.86199" lon="1.27812">
        <ele>154.996161</ele>
        <time>2022-12-30T15:48:56.357Z</time>
      </trkpt>
      <trkpt lat="43.86189" lon="1.2782">
        <ele>154.881183</ele>
        <time>2022-12-30T15:48:59.353Z</time>
      </trkpt>
      <trkpt lat="43.86179" lon="1.27826">
        <ele>154.779349</ele>
        <time>2022-12-30T15:49:02.335Z</time>
      </trkpt>
      <trkpt lat="43.8617" lon="1.27834">
        <ele>154.671237</ele>
        <time>2022-12-30T15:49:05.358Z</time>
      </trkpt>
      <trkpt lat="43.86158" lon="1.27843">
        <ele>154.544146</ele>
        <time>2022-12-30T15:49:08.338Z</time>
      </trkpt>
      <trkpt lat="43.86148" lon="1.27851">
        <ele>154.425472</ele>
        <time>2022-12-30T15:49:11.333Z</time>
      </trkpt>
      <trkpt lat="43.86137" lon="1.27858">
        <ele>154.311532</ele>
        <time>2022-12-30T15:49:14.333Z</time>
      </trkpt>
      <trkpt lat="43.86128" lon="1.27865">
        <ele>154.206735</ele>
        <time>2022-12-30T15:49:17.337Z</time>
      </trkpt>
      <trkpt lat="43.86119" lon="1.27871">
        <ele>154.110781</ele>
        <time>2022-12-30T15:49:20.359Z</time>
      </trkpt>
      <trkpt lat="43.86112" lon="1.27876">
        <ele>154.038816</ele>
        <time>2022-12-30T15:49:30.310Z</time>
      </trkpt>
      <trkpt lat="43.85767" lon="1.28103">
        <ele>148.673905</ele>
        <time>2022-12-30T15:59:32.330Z</time>
      </trkpt>
      <trkpt lat="43.85757" lon="1.28109">
        <ele>148.584146</ele>
        <time>2022-12-30T15:59:36.338Z</time>
      </trkpt>
      <trkpt lat="43.85748" lon="1.28115">
        <ele>148.505207</ele>
        <time>2022-12-30T15:59:39.338Z</time>
      </trkpt>
      <trkpt lat="43.85738" lon="1.28121">
        <ele>148.41913</ele>
        <time>2022-12-30T15:59:42.358Z</time>
      </trkpt>
      <trkpt lat="43.85728" lon="1.28128">
        <ele>148.326307</ele>
        <time>2022-12-30T15:59:45.352Z</time>
      </trkpt>
      <trkpt lat="43.85718" lon="1.28135">
        <ele>148.229396</ele>
        <time>2022-12-30T15:59:48.344Z</time>
      </trkpt>
      <trkpt lat="43.85706" lon="1.28143">
        <ele>148.320606</ele>
        <time>2022-12-30T15:59:51.358Z</time>
      </trkpt>
      <trkpt lat="43.85695" lon="1.2815">
        <ele>148.535234</ele>
        <time>2022-12-30T15:59:54.349Z</time>
      </trkpt>
      <trkpt lat="43.85684" lon="1.28157">
        <ele>148.747819</ele>
        <time>2022-12-30T15:59:57.351Z</time>
      </trkpt>
      <trkpt lat="43.85673" lon="1.28164">
        <ele>148.959754</ele>
        <time>2022-12-30T16:00:00.337Z</time>
      </trkpt>
      <trkpt lat="43.85662" lon="1.28171">
        <ele>149.168017</ele>
        <time>2022-12-30T16:00:03.366Z</time>
      </trkpt>
      <trkpt lat="43.8565" lon="1.28178">
        <ele>149.384201</ele>
        <time>2022-12-30T16:00:06.341Z</time>
      </trkpt>
      <trkpt lat="43.85639" lon="1.28186">
        <ele>149.602434</ele>
        <time>2022-12-30T16:00:09.355Z</time>
      </trkpt>
      <trkpt lat="43.85627" lon="1.28194">
        <ele>149.827509</ele>
        <time>2022-12-30T16:00:12.335Z</time>
      </trkpt>
      <trkpt lat="43.85616" lon="1.28202">
        <ele>150.053129</ele>
        <time>2022-12-30T16:00:15.360Z</time>
      </trkpt>
      <trkpt lat="43.85604" lon="1.28208">
        <ele>150.276758</ele>
        <time>2022-12-30T16:00:18.340Z</time>
      </trkpt>
      <trkpt lat="43.85592" lon="1.28216">
        <ele>150.496608</ele>
        <time>2022-12-30T16:00:21.344Z</time>
      </trkpt>
      <trkpt lat="43.8558" lon="1.28223">
        <ele>150.72171</ele>
        <time>2022-12-30T16:00:24.360Z</time>
      </trkpt>
      <trkpt lat="43.85569" lon="1.28231">
        <ele>150.949989</ele>
        <time>2022-12-30T16:00:27.357Z</time>
      </trkpt>
      <trkpt lat="43.85557" lon="1.2824">
        <ele>151.183811</ele>
        <time>2022-12-30T16:00:30.352Z</time>
      </trkpt>
      <trkpt lat="43.85548" lon="1.28246">
        <ele>151.317671</ele>
        <time>2022-12-30T16:00:32.357Z</time>
      </trkpt>
      <trkpt lat="43.85539" lon="1.28252">
        <ele>151.358055</ele>
        <time>2022-12-30T16:00:34.359Z</time>
      </trkpt>
      <trkpt lat="43.85531" lon="1.28257">
        <ele>151.395904</ele>
        <time>2022-12-30T16:00:36.359Z</time>
      </trkpt>
      <trkpt lat="43.85523" lon="1.28262">
        <ele>151.43388</ele>
        <time>2022-12-30T16:00:38.349Z</time>
      </trkpt>
      <trkpt lat="43.85511" lon="1.2827">
        <ele>151.490135</ele>
        <time>2022-12-30T16:00:41.340Z</time>
      </trkpt>
      <trkpt lat="43.85499" lon="1.28279">
        <ele>151.546276</ele>
        <time>2022-12-30T16:00:44.342Z</time>
      </trkpt>
      <trkpt lat="43.85491" lon="1.28284">
        <ele>151.584371</ele>
        <time>2022-12-30T16:00:46.361Z</time>
      </trkpt>
      <trkpt lat="43.85478" lon="1.28292">
        <ele>151.642034</ele>
        <time>2022-12-30T16:00:49.342Z</time>
      </trkpt>
      <trkpt lat="43.85467" lon="1.28299">
        <ele>151.693098</ele>
        <time>2022-12-30T16:00:52.338Z</time>
      </trkpt>
      <trkpt lat="43.85457" lon="1.28306">
        <ele>151.741504</ele>
        <time>2022-12-30T16:00:55.340Z</time>
      </trkpt>
      <trkpt lat="43.85445" lon="1.28313">
        <ele>151.794176</ele>
        <time>2022-12-30T16:00:58.345Z</time>
      </trkpt>
      <trkpt lat="43.85433" lon="1.28321">
        <ele>151.849674</ele>
        <time>2022-12-30T16:01:01.351Z</time>
      </trkpt>
      <trkpt lat="43.85425" lon="1.28327">
        <ele>151.887918</ele>
        <time>2022-12-30T16:01:03.352Z</time>
      </trkpt>
      <trkpt lat="43.85417" lon="1.28333">
        <ele>151.925574</ele>
        <time>2022-12-30T16:01:05.357Z</time>
      </trkpt>
      <trkpt lat="43.85409" lon="1.28338">
        <ele>151.964067</ele>
        <time>2022-12-30T16:01:07.356Z</time>
      </trkpt>
      <trkpt lat="43.85397" lon="1.28347">
        <ele>152.020104</ele>
        <time>2022-12-30T16:01:10.375Z</time>
      </trkpt>
      <trkpt lat="43.85385" lon="1.28353">
        <ele>151.99316</ele>
        <time>2022-12-30T16:01:13.368Z</time>
      </trkpt>
      <trkpt lat="43.85376" lon="1.28359">
        <ele>151.786402</ele>
        <time>2022-12-30T16:01:15.360Z</time>
      </trkpt>
      <trkpt lat="43.85365" lon="1.28367">
        <ele>151.513293</ele>
        <time>2022-12-30T16:01:18.359Z</time>
      </trkpt>
      <trkpt lat="43.85355" lon="1.28374">
        <ele>151.274604</ele>
        <time>2022-12-30T16:01:21.342Z</time>
      </trkpt>
      <trkpt lat="43.85345" lon="1.2838">
        <ele>151.048503</ele>
        <time>2022-12-30T16:01:24.336Z</time>
      </trkpt>
      <trkpt lat="43.85335" lon="1.28387">
        <ele>150.810823</ele>
        <time>2022-12-30T16:01:27.355Z</time>
      </trkpt>
      <trkpt lat="43.85324" lon="1.28393">
        <ele>150.560901</ele>
        <time>2022-12-30T16:01:30.339Z</time>
      </trkpt>
      <trkpt lat="43.85313" lon="1.284">
        <ele>150.307551</ele>
        <time>2022-12-30T16:01:33.341Z</time>
      </trkpt>
      <trkpt lat="43.85303" lon="1.28407">
        <ele>150.055699</ele>
        <time>2022-12-30T16:01:36.337Z</time>
      </trkpt>
      <trkpt lat="43.85292" lon="1.28413">
        <ele>149.815432</ele>
        <time>2022-12-30T16:01:39.352Z</time>
      </trkpt>
      <trkpt lat="43.85281" lon="1.28419">
        <ele>149.563804</ele>
        <time>2022-12-30T16:01:42.338Z</time>
      </trkpt>
      <trkpt lat="43.8527" lon="1.28426">
        <ele>149.309267</ele>
        <time>2022-12-30T16:01:45.355Z</time>
      </trkpt>
      <trkpt lat="43.85259" lon="1.28433">
        <ele>149.036152</ele>
        <time>2022-12-30T16:01:48.350Z</time>
      </trkpt>
      <trkpt lat="43.8525" lon="1.28439">
        <ele>148.821303</ele>
        <time>2022-12-30T16:01:50.359Z</time>
      </trkpt>
      <trkpt lat="43.85242" lon="1.28445">
        <ele>148.624646</ele>
        <time>2022-12-30T16:01:52.344Z</time>
      </trkpt>
      <trkpt lat="43.85229" lon="1.28453">
        <ele>148.332851</ele>
        <time>2022-12-30T16:01:55.353Z</time>
      </trkpt>
      <trkpt lat="43.85218" lon="1.28459">
        <ele>148.401359</ele>
        <time>2022-12-30T16:01:58.338Z</time>
      </trkpt>
      <trkpt lat="43.85206" lon="1.28467">
        <ele>148.685208</ele>
        <time>2022-12-30T16:02:01.353Z</time>
      </trkpt>
      <trkpt lat="43.85194" lon="1.28474">
        <ele>148.965403</ele>
        <time>2022-12-30T16:02:04.360Z</time>
      </trkpt>
      <trkpt lat="43.85182" lon="1.28481">
        <ele>149.252091</ele>
        <time>2022-12-30T16:02:07.342Z</time>
      </trkpt>
      <trkpt lat="43.8517" lon="1.28488">
        <ele>149.531962</ele>
        <time>2022-12-30T16:02:10.359Z</time>
      </trkpt>
      <trkpt lat="43.85161" lon="1.28494">
        <ele>149.758113</ele>
        <time>2022-12-30T16:02:12.364Z</time>
      </trkpt>
      <trkpt lat="43.8515" lon="1.28502">
        <ele>150.032867</ele>
        <time>2022-12-30T16:02:15.342Z</time>
      </trkpt>
      <trkpt lat="43.85139" lon="1.28511">
        <ele>150.320593</ele>
        <time>2022-12-30T16:02:18.341Z</time>
      </trkpt>
      <trkpt lat="43.85127" lon="1.28519">
        <ele>150.611772</ele>
        <time>2022-12-30T16:02:21.359Z</time>
      </trkpt>
      <trkpt lat="43.85116" lon="1.28526">
        <ele>150.877977</ele>
        <time>2022-12-30T16:02:24.355Z</time>
      </trkpt>
      <trkpt lat="43.85106" lon="1.28533">
        <ele>151.118051</ele>
        <time>2022-12-30T16:02:27.355Z</time>
      </trkpt>
      <trkpt lat="43.85097" lon="1.2854">
        <ele>151.34689</ele>
        <time>2022-12-30T16:02:30.346Z</time>
      </trkpt>
      <trkpt lat="43.85088" lon="1.28546">
        <ele>151.568193</ele>
        <time>2022-12-30T16:02:33.352Z</time>
      </trkpt>
      <trkpt lat="43.8508" lon="1.28551">
        <ele>151.767076</ele>
        <time>2022-12-30T16:02:36.336Z</time>
      </trkpt>
      <trkpt lat="43.85069" lon="1.28557">
        <ele>152.024484</ele>
        <time>2022-12-30T16:02:40.340Z</time>
      </trkpt>
      <trkpt lat="43.8506" lon="1.28562">
        <ele>152.201896</ele>
        <time>2022-12-30T16:02:44.346Z</time>
      </trkpt>
      <trkpt lat="43.85043" lon="1.28568">
        <ele>152.287135</ele>
        <time>2022-12-30T16:03:47.354Z</time>
      </trkpt>
      <trkpt lat="43.85034" lon="1.28573">
        <ele>152.331304</ele>
        <time>2022-12-30T16:03:51.334Z</time>
      </trkpt>
      <trkpt lat="43.85023" lon="1.28577">
        <ele>152.382868</ele>
        <time>2022-12-30T16:03:56.339Z</time>
      </trkpt>
      <trkpt lat="43.85026" lon="1.2859">
        <ele>152.429222</ele>
        <time>2022-12-30T16:04:03.349Z</time>
      </trkpt>
      <trkpt lat="43.85031" lon="1.28601">
        <ele>152.472219</ele>
        <time>2022-12-30T16:04:08.339Z</time>
      </trkpt>
      <trkpt lat="43.85036" lon="1.28613">
        <ele>152.51972</ele>
        <time>2022-12-30T16:04:13.332Z</time>
      </trkpt>
      <trkpt lat="43.85041" lon="1.28628">
        <ele>152.576186</ele>
        <time>2022-12-30T16:04:18.339Z</time>
      </trkpt>
      <trkpt lat="43.85047" lon="1.2864">
        <ele>152.625782</ele>
        <time>2022-12-30T16:04:21.355Z</time>
      </trkpt>
      <trkpt lat="43.85055" lon="1.28651">
        <ele>152.678832</ele>
        <time>2022-12-30T16:04:24.338Z</time>
      </trkpt>
      <trkpt lat="43.85064" lon="1.28664">
        <ele>152.741026</ele>
        <time>2022-12-30T16:04:27.337Z</time>
      </trkpt>
      <trkpt lat="43.85071" lon="1.28673">
        <ele>152.784293</ele>
        <time>2022-12-30T16:04:29.337Z</time>
      </trkpt>
      <trkpt lat="43.85079" lon="1.28684">
        <ele>152.837115</ele>
        <time>2022-12-30T16:04:32.340Z</time>
      </trkpt>
      <trkpt lat="43.85085" lon="1.28694">
        <ele>152.880778</ele>
        <time>2022-12-30T16:04:35.341Z</time>
      </trkpt>
      <trkpt lat="43.8509" lon="1.28704">
        <ele>152.925189</ele>
        <time>2022-12-30T16:04:40.333Z</time>
      </trkpt>
      <trkpt lat="43.85096" lon="1.28714">
        <ele>152.967825</ele>
        <time>2022-12-30T16:04:44.348Z</time>
      </trkpt>
      <trkpt lat="43.85103" lon="1.28725">
        <ele>153.016918</ele>
        <time>2022-12-30T16:04:48.356Z</time>
      </trkpt>
      <trkpt lat="43.8511" lon="1.28733">
        <ele>153.213752</ele>
        <time>2022-12-30T16:04:52.339Z</time>
      </trkpt>
      <trkpt lat="43.85114" lon="1.28745">
        <ele>153.606816</ele>
        <time>2022-12-30T16:04:56.338Z</time>
      </trkpt>
      <trkpt lat="43.85118" lon="1.28756">
        <ele>154.011563</ele>
        <time>2022-12-30T16:05:01.334Z</time>
      </trkpt>
      <trkpt lat="43.85124" lon="1.28768">
        <ele>154.459696</ele>
        <time>2022-12-30T16:05:05.338Z</time>
      </trkpt>
      <trkpt lat="43.85129" lon="1.2878">
        <ele>154.927913</ele>
        <time>2022-12-30T16:05:09.339Z</time>
      </trkpt>
      <trkpt lat="43.85137" lon="1.28791">
        <ele>155.395544</ele>
        <time>2022-12-30T16:05:13.355Z</time>
      </trkpt>
      <trkpt lat="43.85143" lon="1.28803">
        <ele>155.850576</ele>
        <time>2022-12-30T16:05:17.336Z</time>
      </trkpt>
      <trkpt lat="43.85149" lon="1.28815">
        <ele>156.300514</ele>
        <time>2022-12-30T16:05:21.331Z</time>
      </trkpt>
      <trkpt lat="43.85155" lon="1.28827">
        <ele>156.77882</ele>
        <time>2022-12-30T16:05:26.344Z</time>
      </trkpt>
      <trkpt lat="43.85161" lon="1.2884">
        <ele>157.259747</ele>
        <time>2022-12-30T16:05:31.342Z</time>
      </trkpt>
      <trkpt lat="43.85167" lon="1.28852">
        <ele>157.712298</ele>
        <time>2022-12-30T16:05:36.338Z</time>
      </trkpt>
      <trkpt lat="43.85172" lon="1.28862">
        <ele>158.118826</ele>
        <time>2022-12-30T16:05:41.343Z</time>
      </trkpt>
      <trkpt lat="43.85177" lon="1.28875">
        <ele>158.568733</ele>
        <time>2022-12-30T16:05:47.345Z</time>
      </trkpt>
      <trkpt lat="43.85182" lon="1.28886">
        <ele>158.999614</ele>
        <time>2022-12-30T16:05:53.346Z</time>
      </trkpt>
      <trkpt lat="43.85184" lon="1.28899">
        <ele>159.39433</ele>
        <time>2022-12-30T16:05:58.344Z</time>
      </trkpt>
      <trkpt lat="43.85184" lon="1.28911">
        <ele>159.794596</ele>
        <time>2022-12-30T16:06:03.350Z</time>
      </trkpt>
      <trkpt lat="43.85182" lon="1.28925">
        <ele>160.24619</ele>
        <time>2022-12-30T16:06:10.334Z</time>
      </trkpt>
      <trkpt lat="43.85179" lon="1.28938">
        <ele>160.665723</ele>
        <time>2022-12-30T16:06:16.334Z</time>
      </trkpt>
      <trkpt lat="43.85175" lon="1.28951">
        <ele>161.245673</ele>
        <time>2022-12-30T16:06:22.338Z</time>
      </trkpt>
      <trkpt lat="43.85171" lon="1.28963">
        <ele>161.973636</ele>
        <time>2022-12-30T16:06:28.340Z</time>
      </trkpt>
      <trkpt lat="43.85168" lon="1.28976">
        <ele>162.74697</ele>
        <time>2022-12-30T16:06:34.332Z</time>
      </trkpt>
      <trkpt lat="43.85164" lon="1.28989">
        <ele>163.473615</ele>
        <time>2022-12-30T16:06:40.335Z</time>
      </trkpt>
      <trkpt lat="43.8516" lon="1.29001">
        <ele>164.213281</ele>
        <time>2022-12-30T16:06:46.347Z</time>
      </trkpt>
      <trkpt lat="43.85156" lon="1.29013">
        <ele>164.951925</ele>
        <time>2022-12-30T16:06:52.349Z</time>
      </trkpt>
      <trkpt lat="43.85153" lon="1.29025">
        <ele>165.643477</ele>
        <time>2022-12-30T16:06:58.344Z</time>
      </trkpt>
      <trkpt lat="43.85149" lon="1.29038">
        <ele>166.391582</ele>
        <time>2022-12-30T16:07:04.331Z</time>
      </trkpt>
      <trkpt lat="43.85145" lon="1.29051">
        <ele>167.183407</ele>
        <time>2022-12-30T16:07:10.337Z</time>
      </trkpt>
      <trkpt lat="43.85143" lon="1.29065">
        <ele>167.931723</ele>
        <time>2022-12-30T16:07:16.335Z</time>
      </trkpt>
      <trkpt lat="43.85138" lon="1.29077">
        <ele>168.692461</ele>
        <time>2022-12-30T16:07:22.341Z</time>
      </trkpt>
      <trkpt lat="43.85134" lon="1.29091">
        <ele>169.493042</ele>
        <time>2022-12-30T16:07:28.343Z</time>
      </trkpt>
      <trkpt lat="43.8513" lon="1.29104">
        <ele>170.257645</ele>
        <time>2022-12-30T16:07:34.336Z</time>
      </trkpt>
      <trkpt lat="43.85125" lon="1.29116">
        <ele>171.043416</ele>
        <time>2022-12-30T16:07:40.332Z</time>
      </trkpt>
      <trkpt lat="43.85119" lon="1.29127">
        <ele>171.812013</ele>
        <time>2022-12-30T16:07:46.334Z</time>
      </trkpt>
      <trkpt lat="43.8512" lon="1.29142">
        <ele>172.59432</ele>
        <time>2022-12-30T16:07:52.331Z</time>
      </trkpt>
      <trkpt lat="43.85124" lon="1.29153">
        <ele>173.28295</ele>
        <time>2022-12-30T16:07:57.346Z</time>
      </trkpt>
      <trkpt lat="43.85133" lon="1.29162">
        <ele>174.078516</ele>
        <time>2022-12-30T16:08:03.330Z</time>
      </trkpt>
      <trkpt lat="43.85142" lon="1.29165">
        <ele>174.775457</ele>
        <time>2022-12-30T16:08:08.343Z</time>
      </trkpt>
      <trkpt lat="43.85151" lon="1.29162">
        <ele>175.457184</ele>
        <time>2022-12-30T16:08:14.338Z</time>
      </trkpt>
      <trkpt lat="43.85159" lon="1.29156">
        <ele>176.14875</ele>
        <time>2022-12-30T16:08:19.335Z</time>
      </trkpt>
      <trkpt lat="43.85166" lon="1.29146">
        <ele>176.893162</ele>
        <time>2022-12-30T16:08:25.338Z</time>
      </trkpt>
      <trkpt lat="43.85172" lon="1.29135">
        <ele>177.635456</ele>
        <time>2022-12-30T16:08:31.345Z</time>
      </trkpt>
      <trkpt lat="43.85179" lon="1.29126">
        <ele>178.300245</ele>
        <time>2022-12-30T16:08:37.351Z</time>
      </trkpt>
      <trkpt lat="43.85177" lon="1.29138">
        <ele>178.956697</ele>
        <time>2022-12-30T16:09:08.336Z</time>
      </trkpt>
      <trkpt lat="43.85172" lon="1.29152">
        <ele>179.779247</ele>
        <time>2022-12-30T16:09:13.346Z</time>
      </trkpt>
      <trkpt lat="43.85168" lon="1.29164">
        <ele>180.453971</ele>
        <time>2022-12-30T16:09:17.330Z</time>
      </trkpt>
      <trkpt lat="43.85174" lon="1.29184">
        <ele>181.600932</ele>
        <time>2022-12-30T16:10:17.352Z</time>
      </trkpt>
      <trkpt lat="43.85184" lon="1.29192">
        <ele>182.424057</ele>
        <time>2022-12-30T16:10:22.334Z</time>
      </trkpt>
      <trkpt lat="43.85193" lon="1.29199">
        <ele>183.18186</ele>
        <time>2022-12-30T16:10:26.347Z</time>
      </trkpt>
      <trkpt lat="43.85202" lon="1.29203">
        <ele>183.886649</ele>
        <time>2022-12-30T16:10:30.332Z</time>
      </trkpt>
      <trkpt lat="43.85213" lon="1.29206">
        <ele>184.65117</ele>
        <time>2022-12-30T16:10:34.337Z</time>
      </trkpt>
      <trkpt lat="43.85223" lon="1.29208">
        <ele>185.414932</ele>
        <time>2022-12-30T16:10:38.338Z</time>
      </trkpt>
      <trkpt lat="43.85233" lon="1.29209">
        <ele>186.109795</ele>
        <time>2022-12-30T16:10:42.351Z</time>
      </trkpt>
      <trkpt lat="43.85241" lon="1.29212">
        <ele>186.777488</ele>
        <time>2022-12-30T16:10:46.338Z</time>
      </trkpt>
      <trkpt lat="43.85252" lon="1.29214">
        <ele>187.56641</ele>
        <time>2022-12-30T16:10:51.343Z</time>
      </trkpt>
      <trkpt lat="43.85261" lon="1.29217">
        <ele>187.48033</ele>
        <time>2022-12-30T16:10:55.335Z</time>
      </trkpt>
      <trkpt lat="43.85268" lon="1.29227">
        <ele>187.354698</ele>
        <time>2022-12-30T16:10:59.344Z</time>
      </trkpt>
      <trkpt lat="43.85271" lon="1.29239">
        <ele>187.226631</ele>
        <time>2022-12-30T16:11:02.344Z</time>
      </trkpt>
      <trkpt lat="43.85274" lon="1.29253">
        <ele>187.089571</ele>
        <time>2022-12-30T16:11:05.339Z</time>
      </trkpt>
      <trkpt lat="43.85277" lon="1.29267">
        <ele>186.948841</ele>
        <time>2022-12-30T16:11:08.362Z</time>
      </trkpt>
      <trkpt lat="43.85281" lon="1.29281">
        <ele>186.802616</ele>
        <time>2022-12-30T16:11:11.345Z</time>
      </trkpt>
      <trkpt lat="43.85286" lon="1.29294">
        <ele>186.663431</ele>
        <time>2022-12-30T16:11:14.366Z</time>
      </trkpt>
      <trkpt lat="43.8529" lon="1.29306">
        <ele>186.535194</ele>
        <time>2022-12-30T16:11:17.406Z</time>
      </trkpt>
      <trkpt lat="43.85293" lon="1.29318">
        <ele>186.409542</ele>
        <time>2022-12-30T16:11:20.330Z</time>
      </trkpt>
      <trkpt lat="43.85296" lon="1.29333">
        <ele>186.263775</ele>
        <time>2022-12-30T16:11:24.336Z</time>
      </trkpt>
      <trkpt lat="43.85296" lon="1.29347">
        <ele>186.13004</ele>
        <time>2022-12-30T16:11:28.349Z</time>
      </trkpt>
      <trkpt lat="43.85291" lon="1.29359">
        <ele>186.000308</ele>
        <time>2022-12-30T16:11:33.334Z</time>
      </trkpt>
      <trkpt lat="43.85285" lon="1.29369">
        <ele>185.871702</ele>
        <time>2022-12-30T16:11:37.337Z</time>
      </trkpt>
      <trkpt lat="43.85281" lon="1.29385">
        <ele>185.715315</ele>
        <time>2022-12-30T16:11:41.334Z</time>
      </trkpt>
      <trkpt lat="43.85284" lon="1.29397">
        <ele>185.589926</ele>
        <time>2022-12-30T16:11:44.349Z</time>
      </trkpt>
      <trkpt lat="43.85292" lon="1.29406">
        <ele>185.453855</ele>
        <time>2022-12-30T16:11:47.332Z</time>
      </trkpt>
      <trkpt lat="43.85301" lon="1.29411">
        <ele>185.322529</ele>
        <time>2022-12-30T16:11:50.334Z</time>
      </trkpt>
      <trkpt lat="43.85312" lon="1.29416">
        <ele>185.168714</ele>
        <time>2022-12-30T16:11:53.340Z</time>
      </trkpt>
      <trkpt lat="43.85321" lon="1.29426">
        <ele>184.971842</ele>
        <time>2022-12-30T16:11:56.354Z</time>
      </trkpt>
      <trkpt lat="43.85328" lon="1.29439">
        <ele>184.765141</ele>
        <time>2022-12-30T16:11:59.342Z</time>
      </trkpt>
      <trkpt lat="43.85336" lon="1.29453">
        <ele>184.543396</ele>
        <time>2022-12-30T16:12:02.345Z</time>
      </trkpt>
      <trkpt lat="43.85342" lon="1.29463">
        <ele>184.379441</ele>
        <time>2022-12-30T16:12:04.349Z</time>
      </trkpt>
      <trkpt lat="43.85348" lon="1.29473">
        <ele>184.223673</ele>
        <time>2022-12-30T16:12:06.343Z</time>
      </trkpt>
      <trkpt lat="43.85356" lon="1.29487">
        <ele>183.998382</ele>
        <time>2022-12-30T16:12:09.341Z</time>
      </trkpt>
      <trkpt lat="43.85362" lon="1.29497">
        <ele>183.842924</ele>
        <time>2022-12-30T16:12:11.338Z</time>
      </trkpt>
      <trkpt lat="43.85371" lon="1.29511">
        <ele>183.613875</ele>
        <time>2022-12-30T16:12:14.363Z</time>
      </trkpt>
      <trkpt lat="43.8538" lon="1.29524">
        <ele>183.396591</ele>
        <time>2022-12-30T16:12:17.362Z</time>
      </trkpt>
      <trkpt lat="43.85388" lon="1.29537">
        <ele>183.180327</ele>
        <time>2022-12-30T16:12:20.341Z</time>
      </trkpt>
      <trkpt lat="43.85397" lon="1.29549">
        <ele>182.976745</ele>
        <time>2022-12-30T16:12:23.345Z</time>
      </trkpt>
      <trkpt lat="43.85404" lon="1.29559">
        <ele>182.796196</ele>
        <time>2022-12-30T16:12:26.342Z</time>
      </trkpt>
      <trkpt lat="43.85412" lon="1.2957">
        <ele>182.606823</ele>
        <time>2022-12-30T16:12:29.346Z</time>
      </trkpt>
      <trkpt lat="43.8542" lon="1.2958">
        <ele>182.424321</ele>
        <time>2022-12-30T16:12:32.338Z</time>
      </trkpt>
      <trkpt lat="43.85427" lon="1.2959">
        <ele>182.250877</ele>
        <time>2022-12-30T16:12:35.362Z</time>
      </trkpt>
      <trkpt lat="43.85434" lon="1.29601">
        <ele>182.144936</ele>
        <time>2022-12-30T16:12:38.349Z</time>
      </trkpt>
      <trkpt lat="43.85441" lon="1.29611">
        <ele>182.175638</ele>
        <time>2022-12-30T16:12:41.361Z</time>
      </trkpt>
      <trkpt lat="43.85448" lon="1.2962">
        <ele>182.202845</ele>
        <time>2022-12-30T16:12:44.342Z</time>
      </trkpt>
      <trkpt lat="43.85454" lon="1.2963">
        <ele>182.231405</ele>
        <time>2022-12-30T16:12:47.362Z</time>
      </trkpt>
      <trkpt lat="43.8546" lon="1.29641">
        <ele>182.2588</ele>
        <time>2022-12-30T16:12:50.368Z</time>
      </trkpt>
      <trkpt lat="43.85465" lon="1.29654">
        <ele>182.292666</ele>
        <time>2022-12-30T16:12:54.348Z</time>
      </trkpt>
      <trkpt lat="43.85467" lon="1.2967">
        <ele>182.32536</ele>
        <time>2022-12-30T16:12:58.359Z</time>
      </trkpt>
      <trkpt lat="43.85464" lon="1.29683">
        <ele>182.353883</ele>
        <time>2022-12-30T16:13:01.351Z</time>
      </trkpt>
      <trkpt lat="43.8546" lon="1.29695">
        <ele>182.383786</ele>
        <time>2022-12-30T16:13:04.359Z</time>
      </trkpt>
      <trkpt lat="43.85455" lon="1.29708">
        <ele>182.416057</ele>
        <time>2022-12-30T16:13:07.350Z</time>
      </trkpt>
      <trkpt lat="43.85449" lon="1.29721">
        <ele>182.448147</ele>
        <time>2022-12-30T16:13:10.362Z</time>
      </trkpt>
      <trkpt lat="43.85444" lon="1.29734">
        <ele>182.479714</ele>
        <time>2022-12-30T16:13:13.365Z</time>
      </trkpt>
      <trkpt lat="43.85439" lon="1.29746">
        <ele>182.509356</ele>
        <time>2022-12-30T16:13:16.340Z</time>
      </trkpt>
      <trkpt lat="43.85432" lon="1.29759">
        <ele>182.543332</ele>
        <time>2022-12-30T16:13:19.352Z</time>
      </trkpt>
      <trkpt lat="43.85427" lon="1.29773">
        <ele>182.577903</ele>
        <time>2022-12-30T16:13:22.344Z</time>
      </trkpt>
      <trkpt lat="43.85421" lon="1.29787">
        <ele>182.612295</ele>
        <time>2022-12-30T16:13:25.351Z</time>
      </trkpt>
      <trkpt lat="43.85415" lon="1.29801">
        <ele>182.646396</ele>
        <time>2022-12-30T16:13:28.336Z</time>
      </trkpt>
      <trkpt lat="43.85411" lon="1.29816">
        <ele>182.641968</ele>
        <time>2022-12-30T16:13:31.335Z</time>
      </trkpt>
      <trkpt lat="43.85408" lon="1.29832">
        <ele>182.585197</ele>
        <time>2022-12-30T16:13:34.344Z</time>
      </trkpt>
      <trkpt lat="43.8541" lon="1.29848">
        <ele>182.526764</ele>
        <time>2022-12-30T16:13:37.327Z</time>
      </trkpt>
      <trkpt lat="43.85416" lon="1.29862">
        <ele>182.465541</ele>
        <time>2022-12-30T16:13:40.366Z</time>
      </trkpt>
      <trkpt lat="43.85423" lon="1.29876">
        <ele>182.404706</ele>
        <time>2022-12-30T16:13:43.336Z</time>
      </trkpt>
      <trkpt lat="43.8543" lon="1.2989">
        <ele>182.346801</ele>
        <time>2022-12-30T16:13:46.337Z</time>
      </trkpt>
      <trkpt lat="43.85436" lon="1.29902">
        <ele>182.293174</ele>
        <time>2022-12-30T16:13:49.348Z</time>
      </trkpt>
      <trkpt lat="43.85441" lon="1.29915">
        <ele>182.238793</ele>
        <time>2022-12-30T16:13:52.332Z</time>
      </trkpt>
      <trkpt lat="43.85447" lon="1.29928">
        <ele>182.186872</ele>
        <time>2022-12-30T16:13:55.335Z</time>
      </trkpt>
      <trkpt lat="43.85453" lon="1.29938">
        <ele>182.13794</ele>
        <time>2022-12-30T16:13:58.342Z</time>
      </trkpt>
      <trkpt lat="43.85458" lon="1.2995">
        <ele>182.089649</ele>
        <time>2022-12-30T16:14:01.336Z</time>
      </trkpt>
      <trkpt lat="43.85463" lon="1.29961">
        <ele>182.041924</ele>
        <time>2022-12-30T16:14:04.363Z</time>
      </trkpt>
      <trkpt lat="43.85469" lon="1.29973">
        <ele>181.988074</ele>
        <time>2022-12-30T16:14:07.336Z</time>
      </trkpt>
      <trkpt lat="43.85477" lon="1.29987">
        <ele>181.92755</ele>
        <time>2022-12-30T16:14:10.335Z</time>
      </trkpt>
      <trkpt lat="43.85483" lon="1.30001">
        <ele>181.866339</ele>
        <time>2022-12-30T16:14:13.340Z</time>
      </trkpt>
      <trkpt lat="43.8549" lon="1.30015">
        <ele>181.807852</ele>
        <time>2022-12-30T16:14:16.337Z</time>
      </trkpt>
      <trkpt lat="43.85496" lon="1.30027">
        <ele>181.825402</ele>
        <time>2022-12-30T16:14:19.337Z</time>
      </trkpt>
      <trkpt lat="43.85502" lon="1.3004">
        <ele>182.000182</ele>
        <time>2022-12-30T16:14:22.338Z</time>
      </trkpt>
      <trkpt lat="43.8551" lon="1.30051">
        <ele>182.172036</ele>
        <time>2022-12-30T16:14:25.338Z</time>
      </trkpt>
      <trkpt lat="43.85517" lon="1.30063">
        <ele>182.338319</ele>
        <time>2022-12-30T16:14:28.338Z</time>
      </trkpt>
      <trkpt lat="43.85522" lon="1.30075">
        <ele>182.503679</ele>
        <time>2022-12-30T16:14:31.338Z</time>
      </trkpt>
      <trkpt lat="43.85527" lon="1.30089">
        <ele>182.667392</ele>
        <time>2022-12-30T16:14:34.338Z</time>
      </trkpt>
      <trkpt lat="43.85528" lon="1.30103">
        <ele>182.832991</ele>
        <time>2022-12-30T16:14:37.338Z</time>
      </trkpt>
      <trkpt lat="43.8553" lon="1.30118">
        <ele>183.002724</ele>
        <time>2022-12-30T16:14:40.344Z</time>
      </trkpt>
      <trkpt lat="43.85532" lon="1.30133">
        <ele>183.162833</ele>
        <time>2022-12-30T16:14:43.337Z</time>
      </trkpt>
      <trkpt lat="43.85533" lon="1.30145">
        <ele>183.303802</ele>
        <time>2022-12-30T16:14:46.336Z</time>
      </trkpt>
      <trkpt lat="43.85534" lon="1.30158">
        <ele>183.443748</ele>
        <time>2022-12-30T16:14:49.350Z</time>
      </trkpt>
      <trkpt lat="43.85535" lon="1.30171">
        <ele>183.597301</ele>
        <time>2022-12-30T16:14:52.343Z</time>
      </trkpt>
      <trkpt lat="43.85537" lon="1.30185">
        <ele>183.754181</ele>
        <time>2022-12-30T16:14:55.337Z</time>
      </trkpt>
      <trkpt lat="43.85538" lon="1.30199">
        <ele>183.914157</ele>
        <time>2022-12-30T16:14:58.360Z</time>
      </trkpt>
      <trkpt lat="43.85539" lon="1.30214">
        <ele>184.078557</ele>
        <time>2022-12-30T16:15:01.339Z</time>
      </trkpt>
      <trkpt lat="43.8554" lon="1.30228">
        <ele>184.238654</ele>
        <time>2022-12-30T16:15:04.336Z</time>
      </trkpt>
      <trkpt lat="43.85542" lon="1.30242">
        <ele>184.397666</ele>
        <time>2022-12-30T16:15:07.346Z</time>
      </trkpt>
      <trkpt lat="43.85544" lon="1.30256">
        <ele>184.552594</ele>
        <time>2022-12-30T16:15:10.357Z</time>
      </trkpt>
      <trkpt lat="43.85546" lon="1.3027">
        <ele>184.738585</ele>
        <time>2022-12-30T16:15:13.337Z</time>
      </trkpt>
      <trkpt lat="43.85548" lon="1.30284">
        <ele>184.922293</ele>
        <time>2022-12-30T16:15:16.345Z</time>
      </trkpt>
      <trkpt lat="43.85551" lon="1.30298">
        <ele>185.102718</ele>
        <time>2022-12-30T16:15:19.342Z</time>
      </trkpt>
      <trkpt lat="43.85553" lon="1.30312">
        <ele>185.286847</ele>
        <time>2022-12-30T16:15:22.344Z</time>
      </trkpt>
      <trkpt lat="43.85556" lon="1.30326">
        <ele>185.47473</ele>
        <time>2022-12-30T16:15:25.337Z</time>
      </trkpt>
      <trkpt lat="43.85558" lon="1.30339">
        <ele>185.646819</ele>
        <time>2022-12-30T16:15:28.339Z</time>
      </trkpt>
      <trkpt lat="43.8556" lon="1.30352">
        <ele>185.820686</ele>
        <time>2022-12-30T16:15:31.336Z</time>
      </trkpt>
      <trkpt lat="43.85562" lon="1.30365">
        <ele>185.987383</ele>
        <time>2022-12-30T16:15:34.345Z</time>
      </trkpt>
      <trkpt lat="43.85565" lon="1.30378">
        <ele>186.168336</ele>
        <time>2022-12-30T16:15:37.354Z</time>
      </trkpt>
      <trkpt lat="43.85568" lon="1.30392">
        <ele>186.356854</ele>
        <time>2022-12-30T16:15:40.336Z</time>
      </trkpt>
      <trkpt lat="43.85572" lon="1.30406">
        <ele>186.541429</ele>
        <time>2022-12-30T16:15:43.360Z</time>
      </trkpt>
      <trkpt lat="43.85576" lon="1.3042">
        <ele>186.735085</ele>
        <time>2022-12-30T16:15:46.340Z</time>
      </trkpt>
      <trkpt lat="43.85578" lon="1.30432">
        <ele>186.897509</ele>
        <time>2022-12-30T16:15:49.339Z</time>
      </trkpt>
      <trkpt lat="43.85582" lon="1.30447">
        <ele>187.094806</ele>
        <time>2022-12-30T16:15:53.344Z</time>
      </trkpt>
      <trkpt lat="43.85585" lon="1.30459">
        <ele>187.260799</ele>
        <time>2022-12-30T16:15:56.343Z</time>
      </trkpt>
      <trkpt lat="43.85588" lon="1.30472">
        <ele>187.434524</ele>
        <time>2022-12-30T16:15:59.342Z</time>
      </trkpt>
      <trkpt lat="43.85592" lon="1.30484">
        <ele>187.612715</ele>
        <time>2022-12-30T16:16:02.349Z</time>
      </trkpt>
      <trkpt lat="43.85595" lon="1.30497">
        <ele>187.781102</ele>
        <time>2022-12-30T16:16:05.346Z</time>
      </trkpt>
      <trkpt lat="43.856" lon="1.3051">
        <ele>187.973537</ele>
        <time>2022-12-30T16:16:08.356Z</time>
      </trkpt>
      <trkpt lat="43.85603" lon="1.30524">
        <ele>188.16839</ele>
        <time>2022-12-30T16:16:11.339Z</time>
      </trkpt>
      <trkpt lat="43.85607" lon="1.30538">
        <ele>188.360769</ele>
        <time>2022-12-30T16:16:14.348Z</time>
      </trkpt>
      <trkpt lat="43.85609" lon="1.30551">
        <ele>188.538975</ele>
        <time>2022-12-30T16:16:17.358Z</time>
      </trkpt>
      <trkpt lat="43.85612" lon="1.30566">
        <ele>188.741466</ele>
        <time>2022-12-30T16:16:21.343Z</time>
      </trkpt>
      <trkpt lat="43.85616" lon="1.30582">
        <ele>188.958303</ele>
        <time>2022-12-30T16:16:25.339Z</time>
      </trkpt>
      <trkpt lat="43.85618" lon="1.30595">
        <ele>189.13561</ele>
        <time>2022-12-30T16:16:28.362Z</time>
      </trkpt>
      <trkpt lat="43.85619" lon="1.30609">
        <ele>189.324733</ele>
        <time>2022-12-30T16:16:31.352Z</time>
      </trkpt>
      <trkpt lat="43.8562" lon="1.30623">
        <ele>189.509059</ele>
        <time>2022-12-30T16:16:34.344Z</time>
      </trkpt>
      <trkpt lat="43.85621" lon="1.30636">
        <ele>189.682114</ele>
        <time>2022-12-30T16:16:37.344Z</time>
      </trkpt>
      <trkpt lat="43.85622" lon="1.30649">
        <ele>189.850532</ele>
        <time>2022-12-30T16:16:40.356Z</time>
      </trkpt>
      <trkpt lat="43.85622" lon="1.30662">
        <ele>190.027091</ele>
        <time>2022-12-30T16:16:43.337Z</time>
      </trkpt>
      <trkpt lat="43.85623" lon="1.30675">
        <ele>190.202765</ele>
        <time>2022-12-30T16:16:46.346Z</time>
      </trkpt>
      <trkpt lat="43.85623" lon="1.30689">
        <ele>190.381698</ele>
        <time>2022-12-30T16:16:49.334Z</time>
      </trkpt>
      <trkpt lat="43.85624" lon="1.30702">
        <ele>190.547091</ele>
        <time>2022-12-30T16:16:52.332Z</time>
      </trkpt>
      <trkpt lat="43.85626" lon="1.30717">
        <ele>190.757449</ele>
        <time>2022-12-30T16:16:56.342Z</time>
      </trkpt>
      <trkpt lat="43.85627" lon="1.3073">
        <ele>190.92697</ele>
        <time>2022-12-30T16:16:59.365Z</time>
      </trkpt>
      <trkpt lat="43.85629" lon="1.30742">
        <ele>191.048068</ele>
        <time>2022-12-30T16:17:02.337Z</time>
      </trkpt>
      <trkpt lat="43.85631" lon="1.30756">
        <ele>191.091839</ele>
        <time>2022-12-30T16:17:05.342Z</time>
      </trkpt>
      <trkpt lat="43.85633" lon="1.3077">
        <ele>191.135847</ele>
        <time>2022-12-30T16:17:08.346Z</time>
      </trkpt>
      <trkpt lat="43.85637" lon="1.30784">
        <ele>191.18304</ele>
        <time>2022-12-30T16:17:11.352Z</time>
      </trkpt>
      <trkpt lat="43.85639" lon="1.30799">
        <ele>191.232043</ele>
        <time>2022-12-30T16:17:14.343Z</time>
      </trkpt>
      <trkpt lat="43.85642" lon="1.30815">
        <ele>191.283593</ele>
        <time>2022-12-30T16:17:17.356Z</time>
      </trkpt>
      <trkpt lat="43.85645" lon="1.30831">
        <ele>191.334428</ele>
        <time>2022-12-30T16:17:20.345Z</time>
      </trkpt>
      <trkpt lat="43.85648" lon="1.30847">
        <ele>191.385783</ele>
        <time>2022-12-30T16:17:23.360Z</time>
      </trkpt>
      <trkpt lat="43.85651" lon="1.30862">
        <ele>191.437609</ele>
        <time>2022-12-30T16:17:26.341Z</time>
      </trkpt>
      <trkpt lat="43.85655" lon="1.30878">
        <ele>191.488332</ele>
        <time>2022-12-30T16:17:29.351Z</time>
      </trkpt>
      <trkpt lat="43.85659" lon="1.30893">
        <ele>191.540228</ele>
        <time>2022-12-30T16:17:32.342Z</time>
      </trkpt>
      <trkpt lat="43.85663" lon="1.30909">
        <ele>191.594346</ele>
        <time>2022-12-30T16:17:35.344Z</time>
      </trkpt>
      <trkpt lat="43.85668" lon="1.30926">
        <ele>191.64964</ele>
        <time>2022-12-30T16:17:38.350Z</time>
      </trkpt>
      <trkpt lat="43.85672" lon="1.30942">
        <ele>191.704793</ele>
        <time>2022-12-30T16:17:41.345Z</time>
      </trkpt>
      <trkpt lat="43.85676" lon="1.30957">
        <ele>191.755061</ele>
        <time>2022-12-30T16:17:44.360Z</time>
      </trkpt>
      <trkpt lat="43.85679" lon="1.30971">
        <ele>191.799443</ele>
        <time>2022-12-30T16:17:47.341Z</time>
      </trkpt>
      <trkpt lat="43.85684" lon="1.30986">
        <ele>191.862862</ele>
        <time>2022-12-30T16:17:50.340Z</time>
      </trkpt>
      <trkpt lat="43.85689" lon="1.31002">
        <ele>191.931213</ele>
        <time>2022-12-30T16:17:53.343Z</time>
      </trkpt>
      <trkpt lat="43.85693" lon="1.31018">
        <ele>192.000459</ele>
        <time>2022-12-30T16:17:56.345Z</time>
      </trkpt>
      <trkpt lat="43.85697" lon="1.31033">
        <ele>192.065506</ele>
        <time>2022-12-30T16:17:59.361Z</time>
      </trkpt>
      <trkpt lat="43.857" lon="1.31046">
        <ele>192.122923</ele>
        <time>2022-12-30T16:18:02.353Z</time>
      </trkpt>
      <trkpt lat="43.85704" lon="1.3106">
        <ele>192.181298</ele>
        <time>2022-12-30T16:18:05.337Z</time>
      </trkpt>
      <trkpt lat="43.85707" lon="1.31075">
        <ele>192.24408</ele>
        <time>2022-12-30T16:18:08.345Z</time>
      </trkpt>
      <trkpt lat="43.85711" lon="1.31089">
        <ele>192.307999</ele>
        <time>2022-12-30T16:18:11.346Z</time>
      </trkpt>
      <trkpt lat="43.85716" lon="1.31104">
        <ele>192.373434</ele>
        <time>2022-12-30T16:18:14.339Z</time>
      </trkpt>
      <trkpt lat="43.8572" lon="1.3112">
        <ele>192.442679</ele>
        <time>2022-12-30T16:18:17.340Z</time>
      </trkpt>
      <trkpt lat="43.85724" lon="1.31138">
        <ele>192.516123</ele>
        <time>2022-12-30T16:18:20.345Z</time>
      </trkpt>
      <trkpt lat="43.85727" lon="1.31149">
        <ele>192.566871</ele>
        <time>2022-12-30T16:18:22.345Z</time>
      </trkpt>
      <trkpt lat="43.85731" lon="1.31161">
        <ele>192.619536</ele>
        <time>2022-12-30T16:18:24.344Z</time>
      </trkpt>
      <trkpt lat="43.85733" lon="1.31174">
        <ele>192.673707</ele>
        <time>2022-12-30T16:18:26.343Z</time>
      </trkpt>
      <trkpt lat="43.85738" lon="1.31192">
        <ele>192.749292</ele>
        <time>2022-12-30T16:18:29.363Z</time>
      </trkpt>
      <trkpt lat="43.85744" lon="1.31207">
        <ele>192.818987</ele>
        <time>2022-12-30T16:18:32.344Z</time>
      </trkpt>
      <trkpt lat="43.85748" lon="1.31218">
        <ele>192.752792</ele>
        <time>2022-12-30T16:18:34.347Z</time>
      </trkpt>
      <trkpt lat="43.85753" lon="1.31229">
        <ele>192.648096</ele>
        <time>2022-12-30T16:18:36.344Z</time>
      </trkpt>
      <trkpt lat="43.85759" lon="1.31239">
        <ele>192.543986</ele>
        <time>2022-12-30T16:18:38.334Z</time>
      </trkpt>
      <trkpt lat="43.85768" lon="1.31254">
        <ele>192.388088</ele>
        <time>2022-12-30T16:18:41.362Z</time>
      </trkpt>
      <trkpt lat="43.85774" lon="1.31263">
        <ele>192.281391</ele>
        <time>2022-12-30T16:18:43.338Z</time>
      </trkpt>
      <trkpt lat="43.85781" lon="1.31272">
        <ele>192.17916</ele>
        <time>2022-12-30T16:18:45.334Z</time>
      </trkpt>
      <trkpt lat="43.85787" lon="1.31282">
        <ele>192.075756</ele>
        <time>2022-12-30T16:18:47.364Z</time>
      </trkpt>
      <trkpt lat="43.85793" lon="1.31292">
        <ele>191.968151</ele>
        <time>2022-12-30T16:18:49.329Z</time>
      </trkpt>
      <trkpt lat="43.858" lon="1.31303">
        <ele>191.855593</ele>
        <time>2022-12-30T16:18:51.359Z</time>
      </trkpt>
      <trkpt lat="43.85805" lon="1.31314">
        <ele>191.743833</ele>
        <time>2022-12-30T16:18:53.344Z</time>
      </trkpt>
      <trkpt lat="43.85811" lon="1.31325">
        <ele>191.632072</ele>
        <time>2022-12-30T16:18:55.360Z</time>
      </trkpt>
      <trkpt lat="43.85816" lon="1.31338">
        <ele>191.514592</ele>
        <time>2022-12-30T16:18:57.353Z</time>
      </trkpt>
      <trkpt lat="43.85821" lon="1.31351">
        <ele>191.400798</ele>
        <time>2022-12-30T16:18:59.348Z</time>
      </trkpt>
      <trkpt lat="43.85825" lon="1.31364">
        <ele>191.288219</ele>
        <time>2022-12-30T16:19:01.341Z</time>
      </trkpt>
      <trkpt lat="43.85828" lon="1.31377">
        <ele>191.176038</ele>
        <time>2022-12-30T16:19:03.363Z</time>
      </trkpt>
      <trkpt lat="43.85833" lon="1.31394">
        <ele>191.026708</ele>
        <time>2022-12-30T16:19:06.363Z</time>
      </trkpt>
      <trkpt lat="43.85836" lon="1.31406">
        <ele>190.926132</ele>
        <time>2022-12-30T16:19:08.355Z</time>
      </trkpt>
      <trkpt lat="43.85841" lon="1.31422">
        <ele>190.84368</ele>
        <time>2022-12-30T16:19:11.337Z</time>
      </trkpt>
      <trkpt lat="43.85845" lon="1.31438">
        <ele>190.947054</ele>
        <time>2022-12-30T16:19:14.365Z</time>
      </trkpt>
      <trkpt lat="43.8585" lon="1.31453">
        <ele>191.041058</ele>
        <time>2022-12-30T16:19:17.362Z</time>
      </trkpt>
      <trkpt lat="43.85853" lon="1.31468">
        <ele>191.128889</ele>
        <time>2022-12-30T16:19:20.336Z</time>
      </trkpt>
      <trkpt lat="43.85857" lon="1.31483">
        <ele>191.221855</ele>
        <time>2022-12-30T16:19:23.351Z</time>
      </trkpt>
      <trkpt lat="43.85861" lon="1.31498">
        <ele>191.315911</ele>
        <time>2022-12-30T16:19:26.338Z</time>
      </trkpt>
      <trkpt lat="43.85865" lon="1.31514">
        <ele>191.415167</ele>
        <time>2022-12-30T16:19:29.332Z</time>
      </trkpt>
      <trkpt lat="43.8587" lon="1.31529">
        <ele>191.508458</ele>
        <time>2022-12-30T16:19:32.340Z</time>
      </trkpt>
      <trkpt lat="43.85874" lon="1.31544">
        <ele>191.601968</ele>
        <time>2022-12-30T16:19:35.339Z</time>
      </trkpt>
      <trkpt lat="43.85878" lon="1.31558">
        <ele>191.690585</ele>
        <time>2022-12-30T16:19:38.358Z</time>
      </trkpt>
      <trkpt lat="43.85881" lon="1.31571">
        <ele>191.772388</ele>
        <time>2022-12-30T16:19:41.359Z</time>
      </trkpt>
      <trkpt lat="43.85884" lon="1.31583">
        <ele>191.845714</ele>
        <time>2022-12-30T16:19:44.348Z</time>
      </trkpt>
      <trkpt lat="43.85888" lon="1.31596">
        <ele>191.924796</ele>
        <time>2022-12-30T16:19:47.358Z</time>
      </trkpt>
      <trkpt lat="43.85891" lon="1.31608">
        <ele>192.001125</ele>
        <time>2022-12-30T16:19:50.333Z</time>
      </trkpt>
      <trkpt lat="43.85895" lon="1.31623">
        <ele>192.093828</ele>
        <time>2022-12-30T16:19:54.349Z</time>
      </trkpt>
      <trkpt lat="43.85899" lon="1.31638">
        <ele>192.18874</ele>
        <time>2022-12-30T16:19:58.345Z</time>
      </trkpt>
      <trkpt lat="43.85902" lon="1.31652">
        <ele>192.269559</ele>
        <time>2022-12-30T16:20:02.336Z</time>
      </trkpt>
      <trkpt lat="43.85906" lon="1.31666">
        <ele>192.246026</ele>
        <time>2022-12-30T16:20:06.330Z</time>
      </trkpt>
      <trkpt lat="43.8591" lon="1.3168">
        <ele>192.22302</ele>
        <time>2022-12-30T16:20:10.337Z</time>
      </trkpt>
      <trkpt lat="43.85912" lon="1.31694">
        <ele>192.200044</ele>
        <time>2022-12-30T16:20:14.329Z</time>
      </trkpt>
      <trkpt lat="43.85915" lon="1.31706">
        <ele>192.179197</ele>
        <time>2022-12-30T16:20:18.337Z</time>
      </trkpt>
      <trkpt lat="43.85918" lon="1.31718">
        <ele>192.158505</ele>
        <time>2022-12-30T16:20:22.339Z</time>
      </trkpt>
      <trkpt lat="43.85921" lon="1.31731">
        <ele>192.13704</ele>
        <time>2022-12-30T16:20:26.340Z</time>
      </trkpt>
      <trkpt lat="43.85925" lon="1.31744">
        <ele>192.114538</ele>
        <time>2022-12-30T16:20:30.354Z</time>
      </trkpt>
      <trkpt lat="43.85928" lon="1.31757">
        <ele>192.093041</ele>
        <time>2022-12-30T16:20:34.343Z</time>
      </trkpt>
      <trkpt lat="43.85932" lon="1.3177">
        <ele>192.071087</ele>
        <time>2022-12-30T16:20:38.346Z</time>
      </trkpt>
      <trkpt lat="43.85934" lon="1.31783">
        <ele>192.049854</ele>
        <time>2022-12-30T16:20:42.341Z</time>
      </trkpt>
      <trkpt lat="43.85937" lon="1.31795">
        <ele>192.029663</ele>
        <time>2022-12-30T16:20:48.344Z</time>
      </trkpt>
      <trkpt lat="43.85942" lon="1.31807">
        <ele>192.007487</ele>
        <time>2022-12-30T16:20:56.353Z</time>
      </trkpt>
      <trkpt lat="43.85948" lon="1.31818">
        <ele>191.985014</ele>
        <time>2022-12-30T16:21:02.347Z</time>
      </trkpt>
      <trkpt lat="43.8595" lon="1.3183">
        <ele>191.964838</ele>
        <time>2022-12-30T16:21:06.342Z</time>
      </trkpt>
      <trkpt lat="43.85953" lon="1.31843">
        <ele>191.94319</ele>
        <time>2022-12-30T16:21:10.344Z</time>
      </trkpt>
      <trkpt lat="43.85958" lon="1.3186">
        <ele>191.914135</ele>
        <time>2022-12-30T16:21:13.339Z</time>
      </trkpt>
      <trkpt lat="43.85967" lon="1.31908">
        <ele>191.663589</ele>
        <time>2022-12-30T16:21:14.340Z</time>
      </trkpt>
      <trkpt lat="43.85972" lon="1.31925">
        <ele>191.490779</ele>
        <time>2022-12-30T16:21:17.338Z</time>
      </trkpt>
      <trkpt lat="43.85976" lon="1.31939">
        <ele>191.362062</ele>
        <time>2022-12-30T16:21:19.366Z</time>
      </trkpt>
      <trkpt lat="43.85979" lon="1.31953">
        <ele>191.227306</ele>
        <time>2022-12-30T16:21:21.351Z</time>
      </trkpt>
      <trkpt lat="43.85982" lon="1.31969">
        <ele>191.075699</ele>
        <time>2022-12-30T16:21:23.335Z</time>
      </trkpt>
      <trkpt lat="43.85986" lon="1.31985">
        <ele>190.918914</ele>
        <time>2022-12-30T16:21:25.345Z</time>
      </trkpt>
      <trkpt lat="43.8599" lon="1.32001">
        <ele>190.76213</ele>
        <time>2022-12-30T16:21:27.338Z</time>
      </trkpt>
      <trkpt lat="43.85995" lon="1.32019">
        <ele>190.593404</ele>
        <time>2022-12-30T16:21:29.338Z</time>
      </trkpt>
      <trkpt lat="43.85999" lon="1.32037">
        <ele>190.417416</ele>
        <time>2022-12-30T16:21:31.344Z</time>
      </trkpt>
      <trkpt lat="43.86004" lon="1.32057">
        <ele>190.228661</ele>
        <time>2022-12-30T16:21:33.343Z</time>
      </trkpt>
      <trkpt lat="43.8601" lon="1.32077">
        <ele>190.037765</ele>
        <time>2022-12-30T16:21:35.367Z</time>
      </trkpt>
      <trkpt lat="43.86014" lon="1.32096">
        <ele>189.856227</ele>
        <time>2022-12-30T16:21:37.350Z</time>
      </trkpt>
      <trkpt lat="43.86018" lon="1.32113">
        <ele>189.695503</ele>
        <time>2022-12-30T16:21:39.338Z</time>
      </trkpt>
      <trkpt lat="43.86022" lon="1.32129">
        <ele>189.596831</ele>
        <time>2022-12-30T16:21:41.339Z</time>
      </trkpt>
      <trkpt lat="43.86026" lon="1.32146">
        <ele>189.561952</ele>
        <time>2022-12-30T16:21:43.359Z</time>
      </trkpt>
      <trkpt lat="43.86029" lon="1.32161">
        <ele>189.529207</ele>
        <time>2022-12-30T16:21:45.347Z</time>
      </trkpt>
      <trkpt lat="43.86032" lon="1.32176">
        <ele>189.49861</ele>
        <time>2022-12-30T16:21:47.341Z</time>
      </trkpt>
      <trkpt lat="43.86035" lon="1.32189">
        <ele>189.46956</ele>
        <time>2022-12-30T16:21:49.345Z</time>
      </trkpt>
      <trkpt lat="43.86037" lon="1.32202">
        <ele>189.442788</ele>
        <time>2022-12-30T16:21:51.336Z</time>
      </trkpt>
      <trkpt lat="43.8604" lon="1.32214">
        <ele>189.416933</ele>
        <time>2022-12-30T16:21:53.365Z</time>
      </trkpt>
      <trkpt lat="43.86044" lon="1.32232">
        <ele>189.378498</ele>
        <time>2022-12-30T16:21:56.343Z</time>
      </trkpt>
      <trkpt lat="43.86045" lon="1.32246">
        <ele>189.351191</ele>
        <time>2022-12-30T16:21:58.340Z</time>
      </trkpt>
      <trkpt lat="43.86047" lon="1.32259">
        <ele>189.323356</ele>
        <time>2022-12-30T16:22:00.349Z</time>
      </trkpt>
      <trkpt lat="43.86048" lon="1.32272">
        <ele>189.296893</ele>
        <time>2022-12-30T16:22:02.356Z</time>
      </trkpt>
      <trkpt lat="43.86049" lon="1.32285">
        <ele>189.269345</ele>
        <time>2022-12-30T16:22:04.346Z</time>
      </trkpt>
      <trkpt lat="43.86051" lon="1.32298">
        <ele>189.242557</ele>
        <time>2022-12-30T16:22:06.347Z</time>
      </trkpt>
      <trkpt lat="43.86052" lon="1.32311">
        <ele>189.21644</ele>
        <time>2022-12-30T16:22:08.365Z</time>
      </trkpt>
      <trkpt lat="43.86054" lon="1.32324">
        <ele>189.188854</ele>
        <time>2022-12-30T16:22:10.345Z</time>
      </trkpt>
      <trkpt lat="43.86055" lon="1.32338">
        <ele>189.161583</ele>
        <time>2022-12-30T16:22:12.361Z</time>
      </trkpt>
      <trkpt lat="43.86055" lon="1.32351">
        <ele>189.135133</ele>
        <time>2022-12-30T16:22:14.337Z</time>
      </trkpt>
      <trkpt lat="43.86056" lon="1.32363">
        <ele>189.109275</ele>
        <time>2022-12-30T16:22:16.340Z</time>
      </trkpt>
      <trkpt lat="43.86057" lon="1.32376">
        <ele>189.127164</ele>
        <time>2022-12-30T16:22:18.341Z</time>
      </trkpt>
      <trkpt lat="43.86057" lon="1.32395">
        <ele>189.162814</ele>
        <time>2022-12-30T16:22:21.337Z</time>
      </trkpt>
      <trkpt lat="43.86059" lon="1.32413">
        <ele>189.197446</ele>
        <time>2022-12-30T16:22:24.331Z</time>
      </trkpt>
      <trkpt lat="43.86059" lon="1.32425">
        <ele>189.221099</ele>
        <time>2022-12-30T16:22:26.341Z</time>
      </trkpt>
      <trkpt lat="43.8606" lon="1.32443">
        <ele>189.255239</ele>
        <time>2022-12-30T16:22:29.353Z</time>
      </trkpt>
      <trkpt lat="43.8606" lon="1.32457">
        <ele>189.280795</ele>
        <time>2022-12-30T16:22:31.339Z</time>
      </trkpt>
      <trkpt lat="43.8606" lon="1.32469">
        <ele>189.304459</ele>
        <time>2022-12-30T16:22:33.360Z</time>
      </trkpt>
      <trkpt lat="43.86061" lon="1.32483">
        <ele>189.330996</ele>
        <time>2022-12-30T16:22:35.359Z</time>
      </trkpt>
      <trkpt lat="43.86062" lon="1.32497">
        <ele>189.356357</ele>
        <time>2022-12-30T16:22:37.341Z</time>
      </trkpt>
      <trkpt lat="43.86063" lon="1.32511">
        <ele>189.383663</ele>
        <time>2022-12-30T16:22:39.344Z</time>
      </trkpt>
      <trkpt lat="43.86066" lon="1.32525">
        <ele>189.411567</ele>
        <time>2022-12-30T16:22:41.362Z</time>
      </trkpt>
      <trkpt lat="43.86069" lon="1.32538">
        <ele>189.437783</ele>
        <time>2022-12-30T16:22:43.347Z</time>
      </trkpt>
      <trkpt lat="43.86072" lon="1.32552">
        <ele>189.464874</ele>
        <time>2022-12-30T16:22:45.340Z</time>
      </trkpt>
      <trkpt lat="43.86075" lon="1.32565">
        <ele>189.491488</ele>
        <time>2022-12-30T16:22:47.338Z</time>
      </trkpt>
      <trkpt lat="43.86078" lon="1.32579">
        <ele>189.517935</ele>
        <time>2022-12-30T16:22:49.337Z</time>
      </trkpt>
      <trkpt lat="43.86082" lon="1.32592">
        <ele>189.544828</ele>
        <time>2022-12-30T16:22:51.332Z</time>
      </trkpt>
      <trkpt lat="43.86086" lon="1.32605">
        <ele>189.571995</ele>
        <time>2022-12-30T16:22:53.352Z</time>
      </trkpt>
      <trkpt lat="43.8609" lon="1.32619">
        <ele>189.552797</ele>
        <time>2022-12-30T16:22:55.352Z</time>
      </trkpt>
      <trkpt lat="43.86094" lon="1.32632">
        <ele>189.519685</ele>
        <time>2022-12-30T16:22:57.337Z</time>
      </trkpt>
      <trkpt lat="43.86099" lon="1.32645">
        <ele>189.484999</ele>
        <time>2022-12-30T16:22:59.350Z</time>
      </trkpt>
      <trkpt lat="43.86104" lon="1.32658">
        <ele>189.451271</ele>
        <time>2022-12-30T16:23:01.364Z</time>
      </trkpt>
      <trkpt lat="43.86109" lon="1.32671">
        <ele>189.416884</ele>
        <time>2022-12-30T16:23:03.366Z</time>
      </trkpt>
      <trkpt lat="43.86115" lon="1.32684">
        <ele>189.381761</ele>
        <time>2022-12-30T16:23:05.359Z</time>
      </trkpt>
      <trkpt lat="43.86122" lon="1.32696">
        <ele>189.347409</ele>
        <time>2022-12-30T16:23:07.343Z</time>
      </trkpt>
      <trkpt lat="43.86129" lon="1.32708">
        <ele>189.313363</ele>
        <time>2022-12-30T16:23:09.367Z</time>
      </trkpt>
      <trkpt lat="43.86136" lon="1.3272">
        <ele>189.277247</ele>
        <time>2022-12-30T16:23:11.342Z</time>
      </trkpt>
      <trkpt lat="43.86142" lon="1.32732">
        <ele>189.243266</ele>
        <time>2022-12-30T16:23:13.341Z</time>
      </trkpt>
      <trkpt lat="43.86149" lon="1.32744">
        <ele>189.208908</ele>
        <time>2022-12-30T16:23:15.343Z</time>
      </trkpt>
      <trkpt lat="43.86156" lon="1.32756">
        <ele>189.173726</ele>
        <time>2022-12-30T16:23:17.342Z</time>
      </trkpt>
      <trkpt lat="43.86163" lon="1.32768">
        <ele>189.137881</ele>
        <time>2022-12-30T16:23:19.357Z</time>
      </trkpt>
      <trkpt lat="43.8617" lon="1.3278">
        <ele>189.102523</ele>
        <time>2022-12-30T16:23:21.365Z</time>
      </trkpt>
      <trkpt lat="43.86176" lon="1.32791">
        <ele>189.069611</ele>
        <time>2022-12-30T16:23:23.345Z</time>
      </trkpt>
      <trkpt lat="43.86182" lon="1.32802">
        <ele>189.038762</ele>
        <time>2022-12-30T16:23:25.348Z</time>
      </trkpt>
      <trkpt lat="43.86188" lon="1.32813">
        <ele>189.008093</ele>
        <time>2022-12-30T16:23:27.341Z</time>
      </trkpt>
      <trkpt lat="43.86194" lon="1.32822">
        <ele>188.989485</ele>
        <time>2022-12-30T16:23:29.345Z</time>
      </trkpt>
      <trkpt lat="43.86202" lon="1.32837">
        <ele>188.963251</ele>
        <time>2022-12-30T16:23:32.362Z</time>
      </trkpt>
      <trkpt lat="43.86207" lon="1.32847">
        <ele>188.945212</ele>
        <time>2022-12-30T16:23:34.345Z</time>
      </trkpt>
      <trkpt lat="43.86213" lon="1.32858">
        <ele>188.925407</ele>
        <time>2022-12-30T16:23:36.341Z</time>
      </trkpt>
      <trkpt lat="43.86218" lon="1.32869">
        <ele>188.906316</ele>
        <time>2022-12-30T16:23:38.338Z</time>
      </trkpt>
      <trkpt lat="43.86224" lon="1.3288">
        <ele>188.886731</ele>
        <time>2022-12-30T16:23:40.357Z</time>
      </trkpt>
      <trkpt lat="43.86229" lon="1.32892">
        <ele>188.867132</ele>
        <time>2022-12-30T16:23:42.346Z</time>
      </trkpt>
      <trkpt lat="43.86234" lon="1.32903">
        <ele>188.848296</ele>
        <time>2022-12-30T16:23:44.341Z</time>
      </trkpt>
      <trkpt lat="43.86238" lon="1.32915">
        <ele>188.82829</ele>
        <time>2022-12-30T16:23:46.347Z</time>
      </trkpt>
      <trkpt lat="43.86242" lon="1.32928">
        <ele>188.808163</ele>
        <time>2022-12-30T16:23:48.369Z</time>
      </trkpt>
      <trkpt lat="43.86247" lon="1.32941">
        <ele>188.787513</ele>
        <time>2022-12-30T16:23:50.365Z</time>
      </trkpt>
      <trkpt lat="43.86252" lon="1.32954">
        <ele>188.766562</ele>
        <time>2022-12-30T16:23:52.347Z</time>
      </trkpt>
      <trkpt lat="43.86256" lon="1.32967">
        <ele>188.74535</ele>
        <time>2022-12-30T16:23:54.349Z</time>
      </trkpt>
      <trkpt lat="43.86261" lon="1.3298">
        <ele>188.723855</ele>
        <time>2022-12-30T16:23:56.344Z</time>
      </trkpt>
      <trkpt lat="43.86267" lon="1.32993">
        <ele>188.702567</ele>
        <time>2022-12-30T16:23:58.375Z</time>
      </trkpt>
      <trkpt lat="43.86273" lon="1.33005">
        <ele>188.681363</ele>
        <time>2022-12-30T16:24:00.344Z</time>
      </trkpt>
      <trkpt lat="43.8628" lon="1.33016">
        <ele>188.658974</ele>
        <time>2022-12-30T16:24:02.343Z</time>
      </trkpt>
      <trkpt lat="43.86287" lon="1.33026">
        <ele>188.68749</ele>
        <time>2022-12-30T16:24:04.347Z</time>
      </trkpt>
      <trkpt lat="43.86293" lon="1.33035">
        <ele>188.795355</ele>
        <time>2022-12-30T16:24:06.346Z</time>
      </trkpt>
      <trkpt lat="43.86301" lon="1.33049">
        <ele>188.937125</ele>
        <time>2022-12-30T16:24:09.340Z</time>
      </trkpt>
      <trkpt lat="43.86299" lon="1.33065">
        <ele>189.068331</ele>
        <time>2022-12-30T16:24:12.344Z</time>
      </trkpt>
      <trkpt lat="43.8629" lon="1.33073">
        <ele>189.190347</ele>
        <time>2022-12-30T16:24:15.339Z</time>
      </trkpt>
      <trkpt lat="43.86281" lon="1.33082">
        <ele>189.316581</ele>
        <time>2022-12-30T16:24:18.344Z</time>
      </trkpt>
      <trkpt lat="43.86271" lon="1.33091">
        <ele>189.448913</ele>
        <time>2022-12-30T16:24:21.340Z</time>
      </trkpt>
      <trkpt lat="43.86263" lon="1.33102">
        <ele>189.579238</ele>
        <time>2022-12-30T16:24:24.346Z</time>
      </trkpt>
      <trkpt lat="43.86256" lon="1.33115">
        <ele>189.712375</ele>
        <time>2022-12-30T16:24:27.358Z</time>
      </trkpt>
      <trkpt lat="43.8625" lon="1.3313">
        <ele>189.848915</ele>
        <time>2022-12-30T16:24:30.351Z</time>
      </trkpt>
      <trkpt lat="43.86246" lon="1.33144">
        <ele>189.978874</ele>
        <time>2022-12-30T16:24:33.340Z</time>
      </trkpt>
      <trkpt lat="43.86242" lon="1.33157">
        <ele>190.096784</ele>
        <time>2022-12-30T16:24:36.339Z</time>
      </trkpt>
      <trkpt lat="43.86238" lon="1.33171">
        <ele>190.219562</ele>
        <time>2022-12-30T16:24:39.341Z</time>
      </trkpt>
      <trkpt lat="43.86233" lon="1.33186">
        <ele>190.351947</ele>
        <time>2022-12-30T16:24:42.339Z</time>
      </trkpt>
      <trkpt lat="43.86227" lon="1.33201">
        <ele>190.492198</ele>
        <time>2022-12-30T16:24:45.350Z</time>
      </trkpt>
      <trkpt lat="43.86222" lon="1.33218">
        <ele>190.638273</ele>
        <time>2022-12-30T16:24:48.351Z</time>
      </trkpt>
      <trkpt lat="43.86217" lon="1.33234">
        <ele>190.616043</ele>
        <time>2022-12-30T16:24:51.348Z</time>
      </trkpt>
      <trkpt lat="43.86213" lon="1.33251">
        <ele>190.487696</ele>
        <time>2022-12-30T16:24:54.339Z</time>
      </trkpt>
      <trkpt lat="43.8621" lon="1.33268">
        <ele>190.360674</ele>
        <time>2022-12-30T16:24:57.343Z</time>
      </trkpt>
      <trkpt lat="43.86208" lon="1.33281">
        <ele>190.271314</ele>
        <time>2022-12-30T16:24:59.347Z</time>
      </trkpt>
      <trkpt lat="43.86206" lon="1.33293">
        <ele>190.181664</ele>
        <time>2022-12-30T16:25:01.343Z</time>
      </trkpt>
      <trkpt lat="43.86206" lon="1.33306">
        <ele>190.089344</ele>
        <time>2022-12-30T16:25:03.347Z</time>
      </trkpt>
      <trkpt lat="43.86205" lon="1.33319">
        <ele>190.000316</ele>
        <time>2022-12-30T16:25:05.336Z</time>
      </trkpt>
      <trkpt lat="43.86204" lon="1.33337">
        <ele>189.868761</ele>
        <time>2022-12-30T16:25:08.340Z</time>
      </trkpt>
      <trkpt lat="43.86203" lon="1.3335">
        <ele>189.778322</ele>
        <time>2022-12-30T16:25:10.342Z</time>
      </trkpt>
      <trkpt lat="43.86202" lon="1.33363">
        <ele>189.683447</ele>
        <time>2022-12-30T16:25:12.360Z</time>
      </trkpt>
      <trkpt lat="43.862" lon="1.33375">
        <ele>189.593393</ele>
        <time>2022-12-30T16:25:14.339Z</time>
      </trkpt>
      <trkpt lat="43.86194" lon="1.3339">
        <ele>189.474573</ele>
        <time>2022-12-30T16:25:17.337Z</time>
      </trkpt>
      <trkpt lat="43.86188" lon="1.33402">
        <ele>189.367046</ele>
        <time>2022-12-30T16:25:20.349Z</time>
      </trkpt>
      <trkpt lat="43.86181" lon="1.33414">
        <ele>189.262263</ele>
        <time>2022-12-30T16:25:23.335Z</time>
      </trkpt>
      <trkpt lat="43.86175" lon="1.33426">
        <ele>189.157016</ele>
        <time>2022-12-30T16:25:26.356Z</time>
      </trkpt>
      <trkpt lat="43.86171" lon="1.3344">
        <ele>189.05065</ele>
        <time>2022-12-30T16:25:29.364Z</time>
      </trkpt>
      <trkpt lat="43.8617" lon="1.33457">
        <ele>188.929266</ele>
        <time>2022-12-30T16:25:32.344Z</time>
      </trkpt>
      <trkpt lat="43.86173" lon="1.33475">
        <ele>188.885258</ele>
        <time>2022-12-30T16:25:35.356Z</time>
      </trkpt>
      <trkpt lat="43.86175" lon="1.33488">
        <ele>188.855579</ele>
        <time>2022-12-30T16:25:37.361Z</time>
      </trkpt>
      <trkpt lat="43.86179" lon="1.335">
        <ele>188.826165</ele>
        <time>2022-12-30T16:25:39.364Z</time>
      </trkpt>
      <trkpt lat="43.86184" lon="1.33517">
        <ele>188.783465</ele>
        <time>2022-12-30T16:25:42.368Z</time>
      </trkpt>
      <trkpt lat="43.86188" lon="1.33534">
        <ele>188.741861</ele>
        <time>2022-12-30T16:25:45.353Z</time>
      </trkpt>
      <trkpt lat="43.86191" lon="1.3355">
        <ele>188.703907</ele>
        <time>2022-12-30T16:25:48.367Z</time>
      </trkpt>
      <trkpt lat="43.86191" lon="1.33568">
        <ele>188.664565</ele>
        <time>2022-12-30T16:25:51.341Z</time>
      </trkpt>
      <trkpt lat="43.8619" lon="1.33585">
        <ele>188.623717</ele>
        <time>2022-12-30T16:25:54.347Z</time>
      </trkpt>
      <trkpt lat="43.86189" lon="1.33598">
        <ele>188.594357</ele>
        <time>2022-12-30T16:25:56.345Z</time>
      </trkpt>
      <trkpt lat="43.86186" lon="1.33611">
        <ele>188.564086</ele>
        <time>2022-12-30T16:25:58.351Z</time>
      </trkpt>
      <trkpt lat="43.86181" lon="1.33623">
        <ele>188.533655</ele>
        <time>2022-12-30T16:26:00.342Z</time>
      </trkpt>
      <trkpt lat="43.86177" lon="1.33634">
        <ele>188.504127</ele>
        <time>2022-12-30T16:26:02.365Z</time>
      </trkpt>
      <trkpt lat="43.86172" lon="1.33645">
        <ele>188.475152</ele>
        <time>2022-12-30T16:26:04.345Z</time>
      </trkpt>
      <trkpt lat="43.86164" lon="1.3366">
        <ele>188.432766</ele>
        <time>2022-12-30T16:26:07.344Z</time>
      </trkpt>
      <trkpt lat="43.86159" lon="1.33671">
        <ele>188.403314</ele>
        <time>2022-12-30T16:26:09.365Z</time>
      </trkpt>
      <trkpt lat="43.86152" lon="1.33685">
        <ele>188.363713</ele>
        <time>2022-12-30T16:26:12.363Z</time>
      </trkpt>
      <trkpt lat="43.86145" lon="1.33699">
        <ele>188.371954</ele>
        <time>2022-12-30T16:26:15.342Z</time>
      </trkpt>
      <trkpt lat="43.86138" lon="1.33712">
        <ele>188.389345</ele>
        <time>2022-12-30T16:26:18.341Z</time>
      </trkpt>
      <trkpt lat="43.86132" lon="1.33726">
        <ele>188.407488</ele>
        <time>2022-12-30T16:26:21.351Z</time>
      </trkpt>
      <trkpt lat="43.86126" lon="1.3374">
        <ele>188.425812</ele>
        <time>2022-12-30T16:26:24.345Z</time>
      </trkpt>
      <trkpt lat="43.86119" lon="1.33754">
        <ele>188.44437</ele>
        <time>2022-12-30T16:26:27.346Z</time>
      </trkpt>
      <trkpt lat="43.86113" lon="1.33768">
        <ele>188.462606</ele>
        <time>2022-12-30T16:26:30.353Z</time>
      </trkpt>
      <trkpt lat="43.86107" lon="1.33783">
        <ele>188.481426</ele>
        <time>2022-12-30T16:26:33.346Z</time>
      </trkpt>
      <trkpt lat="43.86101" lon="1.33797">
        <ele>188.499502</ele>
        <time>2022-12-30T16:26:36.343Z</time>
      </trkpt>
      <trkpt lat="43.86095" lon="1.33812">
        <ele>188.518265</ele>
        <time>2022-12-30T16:26:39.366Z</time>
      </trkpt>
      <trkpt lat="43.86089" lon="1.33827">
        <ele>188.537317</ele>
        <time>2022-12-30T16:26:42.361Z</time>
      </trkpt>
      <trkpt lat="43.86083" lon="1.33841">
        <ele>188.554839</ele>
        <time>2022-12-30T16:26:45.367Z</time>
      </trkpt>
      <trkpt lat="43.86079" lon="1.33852">
        <ele>188.569468</ele>
        <time>2022-12-30T16:26:48.346Z</time>
      </trkpt>
      <trkpt lat="43.86072" lon="1.33866">
        <ele>188.587705</ele>
        <time>2022-12-30T16:26:52.344Z</time>
      </trkpt>
      <trkpt lat="43.86068" lon="1.33879">
        <ele>188.603411</ele>
        <time>2022-12-30T16:26:55.346Z</time>
      </trkpt>
      <trkpt lat="43.86063" lon="1.33892">
        <ele>188.620155</ele>
        <time>2022-12-30T16:26:58.338Z</time>
      </trkpt>
      <trkpt lat="43.86057" lon="1.33907">
        <ele>188.654859</ele>
        <time>2022-12-30T16:27:01.351Z</time>
      </trkpt>
      <trkpt lat="43.86051" lon="1.33921">
        <ele>188.721427</ele>
        <time>2022-12-30T16:27:04.339Z</time>
      </trkpt>
      <trkpt lat="43.86046" lon="1.33935">
        <ele>188.786918</ele>
        <time>2022-12-30T16:27:07.341Z</time>
      </trkpt>
      <trkpt lat="43.8604" lon="1.33948">
        <ele>188.847725</ele>
        <time>2022-12-30T16:27:10.363Z</time>
      </trkpt>
      <trkpt lat="43.86034" lon="1.33962">
        <ele>188.913774</ele>
        <time>2022-12-30T16:27:13.352Z</time>
      </trkpt>
      <trkpt lat="43.86028" lon="1.33976">
        <ele>188.982681</ele>
        <time>2022-12-30T16:27:16.337Z</time>
      </trkpt>
      <trkpt lat="43.86023" lon="1.33991">
        <ele>189.050691</ele>
        <time>2022-12-30T16:27:19.344Z</time>
      </trkpt>
      <trkpt lat="43.86017" lon="1.34006">
        <ele>189.121494</ele>
        <time>2022-12-30T16:27:22.333Z</time>
      </trkpt>
      <trkpt lat="43.86011" lon="1.34021">
        <ele>189.190761</ele>
        <time>2022-12-30T16:27:25.336Z</time>
      </trkpt>
      <trkpt lat="43.86006" lon="1.34035">
        <ele>189.256433</ele>
        <time>2022-12-30T16:27:28.341Z</time>
      </trkpt>
      <trkpt lat="43.86" lon="1.34051">
        <ele>189.327247</ele>
        <time>2022-12-30T16:27:31.338Z</time>
      </trkpt>
      <trkpt lat="43.85996" lon="1.34065">
        <ele>189.388849</ele>
        <time>2022-12-30T16:27:34.363Z</time>
      </trkpt>
      <trkpt lat="43.85995" lon="1.34079">
        <ele>189.447962</ele>
        <time>2022-12-30T16:27:37.340Z</time>
      </trkpt>
      <trkpt lat="43.85994" lon="1.34093">
        <ele>189.505164</ele>
        <time>2022-12-30T16:27:40.352Z</time>
      </trkpt>
      <trkpt lat="43.85993" lon="1.34107">
        <ele>189.56074</ele>
        <time>2022-12-30T16:27:43.363Z</time>
      </trkpt>
      <trkpt lat="43.85993" lon="1.34122">
        <ele>189.620876</ele>
        <time>2022-12-30T16:27:46.342Z</time>
      </trkpt>
      <trkpt lat="43.85994" lon="1.34138">
        <ele>189.570314</ele>
        <time>2022-12-30T16:27:49.338Z</time>
      </trkpt>
      <trkpt lat="43.85995" lon="1.34155">
        <ele>189.405253</ele>
        <time>2022-12-30T16:27:52.350Z</time>
      </trkpt>
      <trkpt lat="43.85998" lon="1.34171">
        <ele>189.239262</ele>
        <time>2022-12-30T16:27:55.347Z</time>
      </trkpt>
      <trkpt lat="43.86001" lon="1.34188">
        <ele>189.071039</ele>
        <time>2022-12-30T16:27:58.350Z</time>
      </trkpt>
      <trkpt lat="43.86003" lon="1.34206">
        <ele>188.894802</ele>
        <time>2022-12-30T16:28:01.343Z</time>
      </trkpt>
      <trkpt lat="43.86006" lon="1.34224">
        <ele>188.715176</ele>
        <time>2022-12-30T16:28:04.346Z</time>
      </trkpt>
      <trkpt lat="43.86009" lon="1.34241">
        <ele>188.541533</ele>
        <time>2022-12-30T16:28:07.338Z</time>
      </trkpt>
      <trkpt lat="43.86011" lon="1.34258">
        <ele>188.380244</ele>
        <time>2022-12-30T16:28:10.348Z</time>
      </trkpt>
      <trkpt lat="43.86014" lon="1.34273">
        <ele>188.224939</ele>
        <time>2022-12-30T16:28:13.353Z</time>
      </trkpt>
      <trkpt lat="43.86016" lon="1.34288">
        <ele>188.081214</ele>
        <time>2022-12-30T16:28:16.344Z</time>
      </trkpt>
      <trkpt lat="43.86017" lon="1.343">
        <ele>187.956114</ele>
        <time>2022-12-30T16:28:19.350Z</time>
      </trkpt>
      <trkpt lat="43.86019" lon="1.34315">
        <ele>187.813126</ele>
        <time>2022-12-30T16:28:23.338Z</time>
      </trkpt>
      <trkpt lat="43.86023" lon="1.34329">
        <ele>187.662726</ele>
        <time>2022-12-30T16:28:27.337Z</time>
      </trkpt>
      <trkpt lat="43.86025" lon="1.34344">
        <ele>187.522371</ele>
        <time>2022-12-30T16:28:31.338Z</time>
      </trkpt>
      <trkpt lat="43.86028" lon="1.34359">
        <ele>187.364569</ele>
        <time>2022-12-30T16:28:35.341Z</time>
      </trkpt>
      <trkpt lat="43.86031" lon="1.34373">
        <ele>187.229713</ele>
        <time>2022-12-30T16:28:38.355Z</time>
      </trkpt>
      <trkpt lat="43.86035" lon="1.34387">
        <ele>186.598251</ele>
        <time>2022-12-30T16:28:41.340Z</time>
      </trkpt>
      <trkpt lat="43.8604" lon="1.344">
        <ele>185.961765</ele>
        <time>2022-12-30T16:28:44.335Z</time>
      </trkpt>
      <trkpt lat="43.86046" lon="1.34413">
        <ele>185.319125</ele>
        <time>2022-12-30T16:28:47.336Z</time>
      </trkpt>
      <trkpt lat="43.86051" lon="1.34427">
        <ele>184.674585</ele>
        <time>2022-12-30T16:28:50.342Z</time>
      </trkpt>
      <trkpt lat="43.86056" lon="1.34441">
        <ele>184.01164</ele>
        <time>2022-12-30T16:28:53.345Z</time>
      </trkpt>
      <trkpt lat="43.86061" lon="1.34458">
        <ele>183.259173</ele>
        <time>2022-12-30T16:28:56.356Z</time>
      </trkpt>
      <trkpt lat="43.86066" lon="1.34476">
        <ele>182.43672</ele>
        <time>2022-12-30T16:28:59.360Z</time>
      </trkpt>
      <trkpt lat="43.86069" lon="1.34489">
        <ele>181.850121</ele>
        <time>2022-12-30T16:29:01.347Z</time>
      </trkpt>
      <trkpt lat="43.86072" lon="1.34502">
        <ele>181.279198</ele>
        <time>2022-12-30T16:29:03.348Z</time>
      </trkpt>
      <trkpt lat="43.86076" lon="1.34515">
        <ele>180.70429</ele>
        <time>2022-12-30T16:29:05.342Z</time>
      </trkpt>
      <trkpt lat="43.86078" lon="1.34528">
        <ele>180.116413</ele>
        <time>2022-12-30T16:29:07.361Z</time>
      </trkpt>
      <trkpt lat="43.86081" lon="1.34542">
        <ele>179.505958</ele>
        <time>2022-12-30T16:29:09.345Z</time>
      </trkpt>
      <trkpt lat="43.86084" lon="1.34557">
        <ele>178.860461</ele>
        <time>2022-12-30T16:29:11.363Z</time>
      </trkpt>
      <trkpt lat="43.86087" lon="1.34571">
        <ele>178.25045</ele>
        <time>2022-12-30T16:29:13.366Z</time>
      </trkpt>
      <trkpt lat="43.8609" lon="1.34587">
        <ele>177.566184</ele>
        <time>2022-12-30T16:29:15.372Z</time>
      </trkpt>
      <trkpt lat="43.86094" lon="1.34602">
        <ele>176.881158</ele>
        <time>2022-12-30T16:29:17.356Z</time>
      </trkpt>
      <trkpt lat="43.86098" lon="1.34619">
        <ele>176.590853</ele>
        <time>2022-12-30T16:29:19.355Z</time>
      </trkpt>
      <trkpt lat="43.86102" lon="1.34635">
        <ele>176.395421</ele>
        <time>2022-12-30T16:29:21.343Z</time>
      </trkpt>
      <trkpt lat="43.86105" lon="1.34652">
        <ele>176.195478</ele>
        <time>2022-12-30T16:29:23.341Z</time>
      </trkpt>
      <trkpt lat="43.86109" lon="1.34669">
        <ele>175.99314</ele>
        <time>2022-12-30T16:29:25.344Z</time>
      </trkpt>
      <trkpt lat="43.86113" lon="1.34686">
        <ele>175.78509</ele>
        <time>2022-12-30T16:29:27.361Z</time>
      </trkpt>
      <trkpt lat="43.86116" lon="1.34704">
        <ele>175.574609</ele>
        <time>2022-12-30T16:29:29.368Z</time>
      </trkpt>
      <trkpt lat="43.86119" lon="1.34721">
        <ele>175.371954</ele>
        <time>2022-12-30T16:29:31.366Z</time>
      </trkpt>
      <trkpt lat="43.8612" lon="1.34738">
        <ele>175.174806</ele>
        <time>2022-12-30T16:29:33.364Z</time>
      </trkpt>
      <trkpt lat="43.86123" lon="1.34755">
        <ele>174.983243</ele>
        <time>2022-12-30T16:29:35.364Z</time>
      </trkpt>
      <trkpt lat="43.86125" lon="1.34771">
        <ele>174.796705</ele>
        <time>2022-12-30T16:29:37.344Z</time>
      </trkpt>
      <trkpt lat="43.86126" lon="1.34786">
        <ele>174.62113</ele>
        <time>2022-12-30T16:29:39.339Z</time>
      </trkpt>
      <trkpt lat="43.86128" lon="1.34801">
        <ele>174.45188</ele>
        <time>2022-12-30T16:29:41.340Z</time>
      </trkpt>
      <trkpt lat="43.86129" lon="1.34815">
        <ele>174.287918</ele>
        <time>2022-12-30T16:29:43.365Z</time>
      </trkpt>
      <trkpt lat="43.8613" lon="1.34829">
        <ele>174.134232</ele>
        <time>2022-12-30T16:29:45.340Z</time>
      </trkpt>
      <trkpt lat="43.86133" lon="1.34846">
        <ele>173.926722</ele>
        <time>2022-12-30T16:29:48.345Z</time>
      </trkpt>
      <trkpt lat="43.86135" lon="1.34861">
        <ele>174.637569</ele>
        <time>2022-12-30T16:29:51.346Z</time>
      </trkpt>
      <trkpt lat="43.86137" lon="1.34874">
        <ele>175.323159</ele>
        <time>2022-12-30T16:29:54.341Z</time>
      </trkpt>
      <trkpt lat="43.86138" lon="1.3489">
        <ele>176.140502</ele>
        <time>2022-12-30T16:29:58.352Z</time>
      </trkpt>
      <trkpt lat="43.86141" lon="1.34904">
        <ele>176.937358</ele>
        <time>2022-12-30T16:30:03.339Z</time>
      </trkpt>
      <trkpt lat="43.86143" lon="1.34916">
        <ele>177.605922</ele>
        <time>2022-12-30T16:30:08.343Z</time>
      </trkpt>
      <trkpt lat="43.86147" lon="1.34928">
        <ele>178.273586</ele>
        <time>2022-12-30T16:30:13.354Z</time>
      </trkpt>
      <trkpt lat="43.86153" lon="1.34937">
        <ele>178.937301</ele>
        <time>2022-12-30T16:30:18.350Z</time>
      </trkpt>
      <trkpt lat="43.8616" lon="1.34945">
        <ele>179.59719</ele>
        <time>2022-12-30T16:30:23.340Z</time>
      </trkpt>
      <trkpt lat="43.86169" lon="1.34949">
        <ele>180.26334</ele>
        <time>2022-12-30T16:30:28.338Z</time>
      </trkpt>
      <trkpt lat="43.86178" lon="1.34947">
        <ele>180.953402</ele>
        <time>2022-12-30T16:30:34.339Z</time>
      </trkpt>
      <trkpt lat="43.86187" lon="1.34945">
        <ele>181.633614</ele>
        <time>2022-12-30T16:30:40.341Z</time>
      </trkpt>
      <trkpt lat="43.86196" lon="1.34942">
        <ele>182.33882</ele>
        <time>2022-12-30T16:31:08.373Z</time>
      </trkpt>
      <trkpt lat="43.86205" lon="1.34939">
        <ele>183.019032</ele>
        <time>2022-12-30T16:31:20.365Z</time>
      </trkpt>
      <trkpt lat="43.86209" lon="1.34939">
        <ele>183.297714</ele>
        <time>2022-12-30T16:31:34.602Z</time>
      </trkpt>
      <trkpt lat="43.86206" lon="1.34957">
        <ele>184.253827</ele>
        <time>2022-12-30T16:32:57.344Z</time>
      </trkpt>
      <trkpt lat="43.86196" lon="1.34961">
        <ele>185.014149</ele>
        <time>2022-12-30T16:33:02.351Z</time>
      </trkpt>
      <trkpt lat="43.86186" lon="1.34967">
        <ele>185.802276</ele>
        <time>2022-12-30T16:33:07.336Z</time>
      </trkpt>
      <trkpt lat="43.86178" lon="1.34971">
        <ele>186.484</ele>
        <time>2022-12-30T16:33:11.349Z</time>
      </trkpt>
      <trkpt lat="43.86168" lon="1.34978">
        <ele>187.132638</ele>
        <time>2022-12-30T16:33:16.343Z</time>
      </trkpt>
      <trkpt lat="43.86162" lon="1.34987">
        <ele>187.299477</ele>
        <time>2022-12-30T16:33:21.343Z</time>
      </trkpt>
      <trkpt lat="43.86156" lon="1.34999">
        <ele>187.475672</ele>
        <time>2022-12-30T16:33:28.361Z</time>
      </trkpt>
      <trkpt lat="43.86165" lon="1.35004">
        <ele>187.645323</ele>
        <time>2022-12-30T16:33:39.348Z</time>
      </trkpt>
      <trkpt lat="43.86175" lon="1.35">
        <ele>187.832986</ele>
        <time>2022-12-30T16:33:45.344Z</time>
      </trkpt>
      <trkpt lat="43.86185" lon="1.34998">
        <ele>188.010142</ele>
        <time>2022-12-30T16:33:49.343Z</time>
      </trkpt>
      <trkpt lat="43.86195" lon="1.34997">
        <ele>188.181686</ele>
        <time>2022-12-30T16:33:53.348Z</time>
      </trkpt>
      <trkpt lat="43.86205" lon="1.35001">
        <ele>188.356858</ele>
        <time>2022-12-30T16:33:59.335Z</time>
      </trkpt>
      <trkpt lat="43.8621" lon="1.35014">
        <ele>188.54326</ele>
        <time>2022-12-30T16:34:04.362Z</time>
      </trkpt>
      <trkpt lat="43.86214" lon="1.35027">
        <ele>188.734552</ele>
        <time>2022-12-30T16:34:09.364Z</time>
      </trkpt>
      <trkpt lat="43.86219" lon="1.35039">
        <ele>188.894426</ele>
        <time>2022-12-30T16:34:13.345Z</time>
      </trkpt>
      <trkpt lat="43.86224" lon="1.35053">
        <ele>189.088308</ele>
        <time>2022-12-30T16:34:18.357Z</time>
      </trkpt>
      <trkpt lat="43.86227" lon="1.35067">
        <ele>189.274336</ele>
        <time>2022-12-30T16:34:23.363Z</time>
      </trkpt>
      <trkpt lat="43.86232" lon="1.3508">
        <ele>189.456512</ele>
        <time>2022-12-30T16:34:28.352Z</time>
      </trkpt>
      <trkpt lat="43.86236" lon="1.35093">
        <ele>189.641367</ele>
        <time>2022-12-30T16:34:32.342Z</time>
      </trkpt>
      <trkpt lat="43.86239" lon="1.35105">
        <ele>189.799236</ele>
        <time>2022-12-30T16:34:35.359Z</time>
      </trkpt>
      <trkpt lat="43.86243" lon="1.35117">
        <ele>189.96175</ele>
        <time>2022-12-30T16:34:38.351Z</time>
      </trkpt>
      <trkpt lat="43.86246" lon="1.35129">
        <ele>190.12245</ele>
        <time>2022-12-30T16:34:41.350Z</time>
      </trkpt>
      <trkpt lat="43.86249" lon="1.35142">
        <ele>190.228831</ele>
        <time>2022-12-30T16:34:44.349Z</time>
      </trkpt>
      <trkpt lat="43.86252" lon="1.35154">
        <ele>190.228831</ele>
        <time>2022-12-30T16:34:47.378Z</time>
      </trkpt>
      <trkpt lat="43.86256" lon="1.35169">
        <ele>190.228831</ele>
        <time>2022-12-30T16:34:51.355Z</time>
      </trkpt>
      <trkpt lat="43.86259" lon="1.35182">
        <ele>190.228831</ele>
        <time>2022-12-30T16:34:55.349Z</time>
      </trkpt>
      <trkpt lat="43.86263" lon="1.35195">
        <ele>190.228831</ele>
        <time>2022-12-30T16:34:59.333Z</time>
      </trkpt>
      <trkpt lat="43.86268" lon="1.35209">
        <ele>190.228831</ele>
        <time>2022-12-30T16:35:03.347Z</time>
      </trkpt>
      <trkpt lat="43.8627" lon="1.35223">
        <ele>190.228831</ele>
        <time>2022-12-30T16:35:07.363Z</time>
      </trkpt>
      <trkpt lat="43.8627" lon="1.35236">
        <ele>190.228831</ele>
        <time>2022-12-30T16:35:10.349Z</time>
      </trkpt>
      <trkpt lat="43.86267" lon="1.35249">
        <ele>190.228831</ele>
        <time>2022-12-30T16:35:13.351Z</time>
      </trkpt>
      <trkpt lat="43.86263" lon="1.35261">
        <ele>190.228831</ele>
        <time>2022-12-30T16:35:16.346Z</time>
      </trkpt>
      <trkpt lat="43.8626" lon="1.35277">
        <ele>190.228831</ele>
        <time>2022-12-30T16:35:20.343Z</time>
      </trkpt>
      <trkpt lat="43.8626" lon="1.35291">
        <ele>190.228831</ele>
        <time>2022-12-30T16:35:24.361Z</time>
      </trkpt>
      <trkpt lat="43.86266" lon="1.35302">
        <ele>190.228831</ele>
        <time>2022-12-30T16:35:29.341Z</time>
      </trkpt>
      <trkpt lat="43.86273" lon="1.35312">
        <ele>190.228831</ele>
        <time>2022-12-30T16:35:34.352Z</time>
      </trkpt>
      <trkpt lat="43.86279" lon="1.35322">
        <ele>190.228831</ele>
        <time>2022-12-30T16:35:38.352Z</time>
      </trkpt>
      <trkpt lat="43.86285" lon="1.35334">
        <ele>190.228831</ele>
        <time>2022-12-30T16:35:43.374Z</time>
      </trkpt>
      <trkpt lat="43.86289" lon="1.35337">
        <ele>190.228831</ele>
        <time>2022-12-30T16:35:56.658Z</time>
        <extensions>
          <visugpx:TrkExtension xmlns:visugpx="https://www.visugpx.com/editgpx/">
            <visugpx:node>1</visugpx:node>
            </visugpx:TrkExtension>
        </extensions>
      </trkpt>
    </trkseg>
  </trk>
</gpx>